<?xml version="1.0" encoding="UTF-8" standalone="no" ?>
<gpx xmlns="http://www.topografix.com/GPX/1/1" xmlns:xsi="http://www.w3.org/2001/XMLSchema-instance" xsi:schemaLocation="http://www.topografix.com/GPX/1/1 http://www.topografix.com/GPX/1/1/gpx.xsd" version="1.1" creator="VisuGPX - https://www.visugpx.com">
  <metadata>
    <name>2023-11-05 leuc</name>
  </metadata>
  <trk>
    <name><![CDATA[2023-11-05 Leuc]]></name>
    <trkseg>
      <trkpt lat="43.14851" lon="2.32156">
        <ele>134.2</ele>
        <time>2023-11-05T06:59:08Z</time>
      </trkpt>
      <trkpt lat="43.14851" lon="2.32157">
        <ele>134.2</ele>
        <time>2023-11-05T06:59:09Z</time>
      </trkpt>
      <trkpt lat="43.14851" lon="2.32158">
        <ele>134.2</ele>
        <time>2023-11-05T06:59:10Z</time>
      </trkpt>
      <trkpt lat="43.14852" lon="2.32161">
        <ele>134.2</ele>
        <time>2023-11-05T06:59:12Z</time>
      </trkpt>
      <trkpt lat="43.14852" lon="2.32164">
        <ele>134.3</ele>
        <time>2023-11-05T06:59:13Z</time>
      </trkpt>
      <trkpt lat="43.14851" lon="2.32165">
        <ele>134.3</ele>
        <time>2023-11-05T06:59:14Z</time>
      </trkpt>
      <trkpt lat="43.1485" lon="2.32167">
        <ele>134.3</ele>
        <time>2023-11-05T06:59:15Z</time>
      </trkpt>
      <trkpt lat="43.14848" lon="2.3217">
        <ele>134.4</ele>
        <time>2023-11-05T06:59:17Z</time>
      </trkpt>
      <trkpt lat="43.14847" lon="2.32172">
        <ele>134.4</ele>
        <time>2023-11-05T06:59:18Z</time>
      </trkpt>
      <trkpt lat="43.14845" lon="2.32177">
        <ele>134.5</ele>
        <time>2023-11-05T06:59:21Z</time>
      </trkpt>
      <trkpt lat="43.14846" lon="2.3219">
        <ele>134.6</ele>
        <time>2023-11-05T06:59:27Z</time>
      </trkpt>
      <trkpt lat="43.14846" lon="2.32193">
        <ele>134.6</ele>
        <time>2023-11-05T06:59:28Z</time>
      </trkpt>
      <trkpt lat="43.14846" lon="2.32195">
        <ele>134.7</ele>
        <time>2023-11-05T06:59:29Z</time>
      </trkpt>
      <trkpt lat="43.14845" lon="2.32201">
        <ele>134.8</ele>
        <time>2023-11-05T06:59:32Z</time>
      </trkpt>
      <trkpt lat="43.14842" lon="2.32206">
        <ele>134.8</ele>
        <time>2023-11-05T06:59:35Z</time>
      </trkpt>
      <trkpt lat="43.14833" lon="2.32217">
        <ele>134.9</ele>
        <time>2023-11-05T06:59:42Z</time>
      </trkpt>
      <trkpt lat="43.14823" lon="2.32232">
        <ele>135.2</ele>
        <time>2023-11-05T06:59:49Z</time>
      </trkpt>
      <trkpt lat="43.14818" lon="2.32252">
        <ele>135.4</ele>
        <time>2023-11-05T06:59:56Z</time>
      </trkpt>
      <trkpt lat="43.14817" lon="2.32259">
        <ele>135.5</ele>
        <time>2023-11-05T06:59:58Z</time>
      </trkpt>
      <trkpt lat="43.14817" lon="2.32267">
        <ele>135.5</ele>
        <time>2023-11-05T07:00:00Z</time>
      </trkpt>
      <trkpt lat="43.1481" lon="2.32279">
        <ele>135.5</ele>
        <time>2023-11-05T07:00:05Z</time>
      </trkpt>
      <trkpt lat="43.14808" lon="2.32286">
        <ele>135.6</ele>
        <time>2023-11-05T07:00:08Z</time>
      </trkpt>
      <trkpt lat="43.14806" lon="2.32291">
        <ele>135.6</ele>
        <time>2023-11-05T07:00:10Z</time>
      </trkpt>
      <trkpt lat="43.14802" lon="2.323">
        <ele>135.6</ele>
        <time>2023-11-05T07:00:14Z</time>
      </trkpt>
      <trkpt lat="43.14799" lon="2.32305">
        <ele>135.6</ele>
        <time>2023-11-05T07:00:16Z</time>
      </trkpt>
      <trkpt lat="43.1479" lon="2.32319">
        <ele>135.6</ele>
        <time>2023-11-05T07:00:22Z</time>
      </trkpt>
      <trkpt lat="43.1479" lon="2.32322">
        <ele>135.6</ele>
        <time>2023-11-05T07:00:23Z</time>
      </trkpt>
      <trkpt lat="43.14788" lon="2.32337">
        <ele>135.7</ele>
        <time>2023-11-05T07:00:29Z</time>
      </trkpt>
      <trkpt lat="43.14788" lon="2.32336">
        <ele>135.7</ele>
        <time>2023-11-05T07:00:30Z</time>
      </trkpt>
      <trkpt lat="43.14789" lon="2.32332">
        <ele>136</ele>
        <time>2023-11-05T07:00:32Z</time>
      </trkpt>
      <trkpt lat="43.14791" lon="2.32328">
        <ele>136.3</ele>
        <time>2023-11-05T07:00:34Z</time>
      </trkpt>
      <trkpt lat="43.14793" lon="2.32326">
        <ele>136.6</ele>
        <time>2023-11-05T07:00:36Z</time>
      </trkpt>
      <trkpt lat="43.14794" lon="2.32326">
        <ele>136.7</ele>
        <time>2023-11-05T07:00:37Z</time>
      </trkpt>
      <trkpt lat="43.148" lon="2.32329">
        <ele>137.4</ele>
        <time>2023-11-05T07:00:41Z</time>
      </trkpt>
      <trkpt lat="43.14802" lon="2.3233">
        <ele>137.6</ele>
        <time>2023-11-05T07:00:42Z</time>
      </trkpt>
      <trkpt lat="43.14804" lon="2.3233">
        <ele>137.8</ele>
        <time>2023-11-05T07:00:43Z</time>
      </trkpt>
      <trkpt lat="43.14805" lon="2.32331">
        <ele>138</ele>
        <time>2023-11-05T07:00:44Z</time>
      </trkpt>
      <trkpt lat="43.14811" lon="2.32333">
        <ele>138.6</ele>
        <time>2023-11-05T07:00:48Z</time>
      </trkpt>
      <trkpt lat="43.14818" lon="2.32334">
        <ele>139.3</ele>
        <time>2023-11-05T07:00:52Z</time>
      </trkpt>
      <trkpt lat="43.1482" lon="2.32334">
        <ele>139.6</ele>
        <time>2023-11-05T07:00:53Z</time>
      </trkpt>
      <trkpt lat="43.14829" lon="2.32335">
        <ele>140.7</ele>
        <time>2023-11-05T07:00:59Z</time>
      </trkpt>
      <trkpt lat="43.14832" lon="2.32333">
        <ele>141.1</ele>
        <time>2023-11-05T07:01:01Z</time>
      </trkpt>
      <trkpt lat="43.14838" lon="2.32331">
        <ele>141.9</ele>
        <time>2023-11-05T07:01:05Z</time>
      </trkpt>
      <trkpt lat="43.14845" lon="2.32329">
        <ele>142.8</ele>
        <time>2023-11-05T07:01:11Z</time>
      </trkpt>
      <trkpt lat="43.14845" lon="2.32329">
        <ele>142.8</ele>
        <time>2023-11-05T07:01:13Z</time>
      </trkpt>
      <trkpt lat="43.14849" lon="2.32324">
        <ele>143.4</ele>
        <time>2023-11-05T07:01:18Z</time>
      </trkpt>
      <trkpt lat="43.14857" lon="2.32321">
        <ele>144.4</ele>
        <time>2023-11-05T07:01:23Z</time>
      </trkpt>
      <trkpt lat="43.14867" lon="2.32321">
        <ele>145.6</ele>
        <time>2023-11-05T07:01:28Z</time>
      </trkpt>
      <trkpt lat="43.14877" lon="2.32323">
        <ele>145.6</ele>
        <time>2023-11-05T07:01:36Z</time>
      </trkpt>
      <trkpt lat="43.14879" lon="2.32324">
        <ele>145.7</ele>
        <time>2023-11-05T07:01:37Z</time>
      </trkpt>
      <trkpt lat="43.1488" lon="2.32326">
        <ele>145.9</ele>
        <time>2023-11-05T07:01:38Z</time>
      </trkpt>
      <trkpt lat="43.1489" lon="2.32333">
        <ele>147</ele>
        <time>2023-11-05T07:01:44Z</time>
      </trkpt>
      <trkpt lat="43.14892" lon="2.32335">
        <ele>147.2</ele>
        <time>2023-11-05T07:01:45Z</time>
      </trkpt>
      <trkpt lat="43.14901" lon="2.3234">
        <ele>148.3</ele>
        <time>2023-11-05T07:01:50Z</time>
      </trkpt>
      <trkpt lat="43.14906" lon="2.32341">
        <ele>148.8</ele>
        <time>2023-11-05T07:01:53Z</time>
      </trkpt>
      <trkpt lat="43.14909" lon="2.32342">
        <ele>149.2</ele>
        <time>2023-11-05T07:01:55Z</time>
      </trkpt>
      <trkpt lat="43.14917" lon="2.32344">
        <ele>150</ele>
        <time>2023-11-05T07:02:00Z</time>
      </trkpt>
      <trkpt lat="43.14925" lon="2.32346">
        <ele>150.7</ele>
        <time>2023-11-05T07:02:04Z</time>
      </trkpt>
      <trkpt lat="43.14928" lon="2.32347">
        <ele>151</ele>
        <time>2023-11-05T07:02:06Z</time>
      </trkpt>
      <trkpt lat="43.14944" lon="2.32351">
        <ele>151.9</ele>
        <time>2023-11-05T07:02:15Z</time>
      </trkpt>
      <trkpt lat="43.14946" lon="2.32352">
        <ele>152</ele>
        <time>2023-11-05T07:02:16Z</time>
      </trkpt>
      <trkpt lat="43.1495" lon="2.32353">
        <ele>152.1</ele>
        <time>2023-11-05T07:02:18Z</time>
      </trkpt>
      <trkpt lat="43.14963" lon="2.32362">
        <ele>152.4</ele>
        <time>2023-11-05T07:02:25Z</time>
      </trkpt>
      <trkpt lat="43.14979" lon="2.32378">
        <ele>152.9</ele>
        <time>2023-11-05T07:02:34Z</time>
      </trkpt>
      <trkpt lat="43.14982" lon="2.32382">
        <ele>153</ele>
        <time>2023-11-05T07:02:36Z</time>
      </trkpt>
      <trkpt lat="43.14989" lon="2.324">
        <ele>153.4</ele>
        <time>2023-11-05T07:02:43Z</time>
      </trkpt>
      <trkpt lat="43.14987" lon="2.32408">
        <ele>153.5</ele>
        <time>2023-11-05T07:02:46Z</time>
      </trkpt>
      <trkpt lat="43.14986" lon="2.3241">
        <ele>153.6</ele>
        <time>2023-11-05T07:02:47Z</time>
      </trkpt>
      <trkpt lat="43.14984" lon="2.32418">
        <ele>153.7</ele>
        <time>2023-11-05T07:02:50Z</time>
      </trkpt>
      <trkpt lat="43.14983" lon="2.3243">
        <ele>154.1</ele>
        <time>2023-11-05T07:02:55Z</time>
      </trkpt>
      <trkpt lat="43.14985" lon="2.32434">
        <ele>154.3</ele>
        <time>2023-11-05T07:02:57Z</time>
      </trkpt>
      <trkpt lat="43.14997" lon="2.32447">
        <ele>155</ele>
        <time>2023-11-05T07:03:05Z</time>
      </trkpt>
      <trkpt lat="43.15" lon="2.32449">
        <ele>155.1</ele>
        <time>2023-11-05T07:03:07Z</time>
      </trkpt>
      <trkpt lat="43.1501" lon="2.32455">
        <ele>155.4</ele>
        <time>2023-11-05T07:03:12Z</time>
      </trkpt>
      <trkpt lat="43.15014" lon="2.32459">
        <ele>155.5</ele>
        <time>2023-11-05T07:03:14Z</time>
      </trkpt>
      <trkpt lat="43.15028" lon="2.32466">
        <ele>155.8</ele>
        <time>2023-11-05T07:03:21Z</time>
      </trkpt>
      <trkpt lat="43.15031" lon="2.32469">
        <ele>155.8</ele>
        <time>2023-11-05T07:03:23Z</time>
      </trkpt>
      <trkpt lat="43.15048" lon="2.3248">
        <ele>156.2</ele>
        <time>2023-11-05T07:03:32Z</time>
      </trkpt>
      <trkpt lat="43.15052" lon="2.32483">
        <ele>156.3</ele>
        <time>2023-11-05T07:03:34Z</time>
      </trkpt>
      <trkpt lat="43.15064" lon="2.32495">
        <ele>156.4</ele>
        <time>2023-11-05T07:03:41Z</time>
      </trkpt>
      <trkpt lat="43.15069" lon="2.32501">
        <ele>156.5</ele>
        <time>2023-11-05T07:03:44Z</time>
      </trkpt>
      <trkpt lat="43.15083" lon="2.32517">
        <ele>156.9</ele>
        <time>2023-11-05T07:03:53Z</time>
      </trkpt>
      <trkpt lat="43.15085" lon="2.32518">
        <ele>157</ele>
        <time>2023-11-05T07:03:54Z</time>
      </trkpt>
      <trkpt lat="43.15096" lon="2.32534">
        <ele>157.8</ele>
        <time>2023-11-05T07:04:02Z</time>
      </trkpt>
      <trkpt lat="43.15103" lon="2.32545">
        <ele>158.4</ele>
        <time>2023-11-05T07:04:08Z</time>
      </trkpt>
      <trkpt lat="43.15108" lon="2.32553">
        <ele>158.8</ele>
        <time>2023-11-05T07:04:12Z</time>
      </trkpt>
      <trkpt lat="43.15112" lon="2.32559">
        <ele>159.1</ele>
        <time>2023-11-05T07:04:15Z</time>
      </trkpt>
      <trkpt lat="43.15117" lon="2.32567">
        <ele>159.6</ele>
        <time>2023-11-05T07:04:19Z</time>
      </trkpt>
      <trkpt lat="43.15119" lon="2.3257">
        <ele>159.9</ele>
        <time>2023-11-05T07:04:21Z</time>
      </trkpt>
      <trkpt lat="43.15127" lon="2.32584">
        <ele>160.9</ele>
        <time>2023-11-05T07:04:28Z</time>
      </trkpt>
      <trkpt lat="43.15133" lon="2.32594">
        <ele>161.8</ele>
        <time>2023-11-05T07:04:33Z</time>
      </trkpt>
      <trkpt lat="43.15135" lon="2.32597">
        <ele>162.1</ele>
        <time>2023-11-05T07:04:35Z</time>
      </trkpt>
      <trkpt lat="43.15142" lon="2.32603">
        <ele>163</ele>
        <time>2023-11-05T07:04:40Z</time>
      </trkpt>
      <trkpt lat="43.15146" lon="2.32606">
        <ele>163.6</ele>
        <time>2023-11-05T07:04:43Z</time>
      </trkpt>
      <trkpt lat="43.15151" lon="2.3261">
        <ele>164.2</ele>
        <time>2023-11-05T07:04:46Z</time>
      </trkpt>
      <trkpt lat="43.15157" lon="2.32612">
        <ele>164.9</ele>
        <time>2023-11-05T07:04:50Z</time>
      </trkpt>
      <trkpt lat="43.1516" lon="2.32614">
        <ele>165.2</ele>
        <time>2023-11-05T07:04:52Z</time>
      </trkpt>
      <trkpt lat="43.15167" lon="2.32619">
        <ele>166.1</ele>
        <time>2023-11-05T07:04:57Z</time>
      </trkpt>
      <trkpt lat="43.15168" lon="2.32619">
        <ele>166.2</ele>
        <time>2023-11-05T07:04:58Z</time>
      </trkpt>
      <trkpt lat="43.15182" lon="2.32621">
        <ele>167.5</ele>
        <time>2023-11-05T07:05:06Z</time>
      </trkpt>
      <trkpt lat="43.15184" lon="2.32621">
        <ele>167.7</ele>
        <time>2023-11-05T07:05:07Z</time>
      </trkpt>
      <trkpt lat="43.15189" lon="2.32621">
        <ele>168.2</ele>
        <time>2023-11-05T07:05:10Z</time>
      </trkpt>
      <trkpt lat="43.15201" lon="2.32622">
        <ele>169.4</ele>
        <time>2023-11-05T07:05:17Z</time>
      </trkpt>
      <trkpt lat="43.1521" lon="2.32626">
        <ele>170.4</ele>
        <time>2023-11-05T07:05:22Z</time>
      </trkpt>
      <trkpt lat="43.15212" lon="2.32629">
        <ele>170.7</ele>
        <time>2023-11-05T07:05:24Z</time>
      </trkpt>
      <trkpt lat="43.15217" lon="2.32636">
        <ele>171.4</ele>
        <time>2023-11-05T07:05:28Z</time>
      </trkpt>
      <trkpt lat="43.15219" lon="2.32645">
        <ele>172</ele>
        <time>2023-11-05T07:05:32Z</time>
      </trkpt>
      <trkpt lat="43.15221" lon="2.32654">
        <ele>172.4</ele>
        <time>2023-11-05T07:05:35Z</time>
      </trkpt>
      <trkpt lat="43.15219" lon="2.32669">
        <ele>172.9</ele>
        <time>2023-11-05T07:05:41Z</time>
      </trkpt>
      <trkpt lat="43.15217" lon="2.32694">
        <ele>173.6</ele>
        <time>2023-11-05T07:05:50Z</time>
      </trkpt>
      <trkpt lat="43.15216" lon="2.32699">
        <ele>173.8</ele>
        <time>2023-11-05T07:05:52Z</time>
      </trkpt>
      <trkpt lat="43.15213" lon="2.32711">
        <ele>174.2</ele>
        <time>2023-11-05T07:05:58Z</time>
      </trkpt>
      <trkpt lat="43.15213" lon="2.32713">
        <ele>174.3</ele>
        <time>2023-11-05T07:05:59Z</time>
      </trkpt>
      <trkpt lat="43.15212" lon="2.32724">
        <ele>174.8</ele>
        <time>2023-11-05T07:06:05Z</time>
      </trkpt>
      <trkpt lat="43.15212" lon="2.32726">
        <ele>175</ele>
        <time>2023-11-05T07:06:06Z</time>
      </trkpt>
      <trkpt lat="43.15212" lon="2.32728">
        <ele>175.1</ele>
        <time>2023-11-05T07:06:07Z</time>
      </trkpt>
      <trkpt lat="43.15211" lon="2.3273">
        <ele>175.2</ele>
        <time>2023-11-05T07:06:08Z</time>
      </trkpt>
      <trkpt lat="43.15211" lon="2.32732">
        <ele>175.3</ele>
        <time>2023-11-05T07:06:10Z</time>
      </trkpt>
      <trkpt lat="43.15211" lon="2.32734">
        <ele>175.4</ele>
        <time>2023-11-05T07:06:12Z</time>
      </trkpt>
      <trkpt lat="43.15211" lon="2.32735">
        <ele>175.5</ele>
        <time>2023-11-05T07:06:13Z</time>
      </trkpt>
      <trkpt lat="43.15211" lon="2.32739">
        <ele>175.7</ele>
        <time>2023-11-05T07:06:16Z</time>
      </trkpt>
      <trkpt lat="43.15211" lon="2.32741">
        <ele>175.8</ele>
        <time>2023-11-05T07:06:18Z</time>
      </trkpt>
      <trkpt lat="43.15211" lon="2.32745">
        <ele>176</ele>
        <time>2023-11-05T07:06:20Z</time>
      </trkpt>
      <trkpt lat="43.1521" lon="2.3275">
        <ele>176.3</ele>
        <time>2023-11-05T07:06:22Z</time>
      </trkpt>
      <trkpt lat="43.15209" lon="2.32755">
        <ele>176.7</ele>
        <time>2023-11-05T07:06:24Z</time>
      </trkpt>
      <trkpt lat="43.15207" lon="2.3277">
        <ele>177.7</ele>
        <time>2023-11-05T07:06:30Z</time>
      </trkpt>
      <trkpt lat="43.15206" lon="2.32777">
        <ele>178.4</ele>
        <time>2023-11-05T07:06:33Z</time>
      </trkpt>
      <trkpt lat="43.15205" lon="2.32782">
        <ele>178.8</ele>
        <time>2023-11-05T07:06:35Z</time>
      </trkpt>
      <trkpt lat="43.15202" lon="2.32791">
        <ele>179.6</ele>
        <time>2023-11-05T07:06:39Z</time>
      </trkpt>
      <trkpt lat="43.15199" lon="2.32797">
        <ele>180.2</ele>
        <time>2023-11-05T07:06:42Z</time>
      </trkpt>
      <trkpt lat="43.15193" lon="2.32808">
        <ele>181.1</ele>
        <time>2023-11-05T07:06:47Z</time>
      </trkpt>
      <trkpt lat="43.15189" lon="2.32815">
        <ele>181.6</ele>
        <time>2023-11-05T07:06:50Z</time>
      </trkpt>
      <trkpt lat="43.15186" lon="2.32827">
        <ele>182.4</ele>
        <time>2023-11-05T07:06:55Z</time>
      </trkpt>
      <trkpt lat="43.15185" lon="2.32835">
        <ele>182.8</ele>
        <time>2023-11-05T07:06:58Z</time>
      </trkpt>
      <trkpt lat="43.15184" lon="2.32843">
        <ele>183.2</ele>
        <time>2023-11-05T07:07:01Z</time>
      </trkpt>
      <trkpt lat="43.15183" lon="2.32864">
        <ele>184.3</ele>
        <time>2023-11-05T07:07:09Z</time>
      </trkpt>
      <trkpt lat="43.15182" lon="2.32869">
        <ele>184.6</ele>
        <time>2023-11-05T07:07:11Z</time>
      </trkpt>
      <trkpt lat="43.15179" lon="2.32885">
        <ele>185.3</ele>
        <time>2023-11-05T07:07:18Z</time>
      </trkpt>
      <trkpt lat="43.15178" lon="2.32888">
        <ele>185.4</ele>
        <time>2023-11-05T07:07:19Z</time>
      </trkpt>
      <trkpt lat="43.15173" lon="2.32909">
        <ele>186.1</ele>
        <time>2023-11-05T07:07:27Z</time>
      </trkpt>
      <trkpt lat="43.15172" lon="2.32917">
        <ele>186.4</ele>
        <time>2023-11-05T07:07:30Z</time>
      </trkpt>
      <trkpt lat="43.15168" lon="2.3294">
        <ele>186.9</ele>
        <time>2023-11-05T07:07:38Z</time>
      </trkpt>
      <trkpt lat="43.15167" lon="2.32942">
        <ele>187</ele>
        <time>2023-11-05T07:07:39Z</time>
      </trkpt>
      <trkpt lat="43.15163" lon="2.32967">
        <ele>187.6</ele>
        <time>2023-11-05T07:07:48Z</time>
      </trkpt>
      <trkpt lat="43.15161" lon="2.32983">
        <ele>188.1</ele>
        <time>2023-11-05T07:07:54Z</time>
      </trkpt>
      <trkpt lat="43.15161" lon="2.32985">
        <ele>188.1</ele>
        <time>2023-11-05T07:07:55Z</time>
      </trkpt>
      <trkpt lat="43.1516" lon="2.32988">
        <ele>188.2</ele>
        <time>2023-11-05T07:07:56Z</time>
      </trkpt>
      <trkpt lat="43.15156" lon="2.33014">
        <ele>188.5</ele>
        <time>2023-11-05T07:08:05Z</time>
      </trkpt>
      <trkpt lat="43.15157" lon="2.33017">
        <ele>188.5</ele>
        <time>2023-11-05T07:08:06Z</time>
      </trkpt>
      <trkpt lat="43.15157" lon="2.33045">
        <ele>188.5</ele>
        <time>2023-11-05T07:08:15Z</time>
      </trkpt>
      <trkpt lat="43.15158" lon="2.33066">
        <ele>188.6</ele>
        <time>2023-11-05T07:08:22Z</time>
      </trkpt>
      <trkpt lat="43.15158" lon="2.33093">
        <ele>189.2</ele>
        <time>2023-11-05T07:08:31Z</time>
      </trkpt>
      <trkpt lat="43.15158" lon="2.33096">
        <ele>189.2</ele>
        <time>2023-11-05T07:08:32Z</time>
      </trkpt>
      <trkpt lat="43.15157" lon="2.33101">
        <ele>189.4</ele>
        <time>2023-11-05T07:08:34Z</time>
      </trkpt>
      <trkpt lat="43.15155" lon="2.33111">
        <ele>189.7</ele>
        <time>2023-11-05T07:08:38Z</time>
      </trkpt>
      <trkpt lat="43.15154" lon="2.33126">
        <ele>189.9</ele>
        <time>2023-11-05T07:08:43Z</time>
      </trkpt>
      <trkpt lat="43.15153" lon="2.3314">
        <ele>189.7</ele>
        <time>2023-11-05T07:08:50Z</time>
      </trkpt>
      <trkpt lat="43.15154" lon="2.33141">
        <ele>189.7</ele>
        <time>2023-11-05T07:08:55Z</time>
      </trkpt>
      <trkpt lat="43.15155" lon="2.33142">
        <ele>189.6</ele>
        <time>2023-11-05T07:08:56Z</time>
      </trkpt>
      <trkpt lat="43.15162" lon="2.3315">
        <ele>189.3</ele>
        <time>2023-11-05T07:09:01Z</time>
      </trkpt>
      <trkpt lat="43.15167" lon="2.33155">
        <ele>189</ele>
        <time>2023-11-05T07:09:06Z</time>
      </trkpt>
      <trkpt lat="43.15167" lon="2.33156">
        <ele>189</ele>
        <time>2023-11-05T07:09:07Z</time>
      </trkpt>
      <trkpt lat="43.15168" lon="2.33157">
        <ele>189</ele>
        <time>2023-11-05T07:09:08Z</time>
      </trkpt>
      <trkpt lat="43.15168" lon="2.33157">
        <ele>189</ele>
        <time>2023-11-05T07:09:09Z</time>
      </trkpt>
      <trkpt lat="43.15168" lon="2.33157">
        <ele>189</ele>
        <time>2023-11-05T07:09:12Z</time>
      </trkpt>
      <trkpt lat="43.15168" lon="2.33157">
        <ele>189</ele>
        <time>2023-11-05T07:09:15Z</time>
      </trkpt>
      <trkpt lat="43.15168" lon="2.33157">
        <ele>189</ele>
        <time>2023-11-05T07:09:23Z</time>
      </trkpt>
      <trkpt lat="43.15168" lon="2.33157">
        <ele>189</ele>
        <time>2023-11-05T07:09:25Z</time>
      </trkpt>
      <trkpt lat="43.15169" lon="2.33157">
        <ele>188.9</ele>
        <time>2023-11-05T07:09:27Z</time>
      </trkpt>
      <trkpt lat="43.15173" lon="2.33162">
        <ele>188.7</ele>
        <time>2023-11-05T07:09:29Z</time>
      </trkpt>
      <trkpt lat="43.15181" lon="2.33171">
        <ele>188.3</ele>
        <time>2023-11-05T07:09:33Z</time>
      </trkpt>
      <trkpt lat="43.15184" lon="2.33173">
        <ele>188.1</ele>
        <time>2023-11-05T07:09:34Z</time>
      </trkpt>
      <trkpt lat="43.15189" lon="2.33181">
        <ele>187.9</ele>
        <time>2023-11-05T07:09:37Z</time>
      </trkpt>
      <trkpt lat="43.1519" lon="2.33189">
        <ele>188.4</ele>
        <time>2023-11-05T07:09:40Z</time>
      </trkpt>
      <trkpt lat="43.1519" lon="2.33192">
        <ele>188.5</ele>
        <time>2023-11-05T07:09:41Z</time>
      </trkpt>
      <trkpt lat="43.15188" lon="2.33208">
        <ele>189.6</ele>
        <time>2023-11-05T07:09:47Z</time>
      </trkpt>
      <trkpt lat="43.15188" lon="2.33211">
        <ele>189.7</ele>
        <time>2023-11-05T07:09:48Z</time>
      </trkpt>
      <trkpt lat="43.1519" lon="2.3322">
        <ele>190.5</ele>
        <time>2023-11-05T07:09:52Z</time>
      </trkpt>
      <trkpt lat="43.15191" lon="2.33222">
        <ele>190.6</ele>
        <time>2023-11-05T07:09:53Z</time>
      </trkpt>
      <trkpt lat="43.15192" lon="2.33227">
        <ele>191</ele>
        <time>2023-11-05T07:09:55Z</time>
      </trkpt>
      <trkpt lat="43.15194" lon="2.33234">
        <ele>191.7</ele>
        <time>2023-11-05T07:09:58Z</time>
      </trkpt>
      <trkpt lat="43.15195" lon="2.3324">
        <ele>192.3</ele>
        <time>2023-11-05T07:10:01Z</time>
      </trkpt>
      <trkpt lat="43.15195" lon="2.33248">
        <ele>193</ele>
        <time>2023-11-05T07:10:04Z</time>
      </trkpt>
      <trkpt lat="43.15195" lon="2.33257">
        <ele>193.8</ele>
        <time>2023-11-05T07:10:08Z</time>
      </trkpt>
      <trkpt lat="43.15195" lon="2.33261">
        <ele>194.2</ele>
        <time>2023-11-05T07:10:10Z</time>
      </trkpt>
      <trkpt lat="43.15197" lon="2.33266">
        <ele>194.7</ele>
        <time>2023-11-05T07:10:12Z</time>
      </trkpt>
      <trkpt lat="43.15195" lon="2.33272">
        <ele>195.2</ele>
        <time>2023-11-05T07:10:15Z</time>
      </trkpt>
      <trkpt lat="43.15192" lon="2.33276">
        <ele>195.6</ele>
        <time>2023-11-05T07:10:17Z</time>
      </trkpt>
      <trkpt lat="43.15187" lon="2.33284">
        <ele>196.4</ele>
        <time>2023-11-05T07:10:21Z</time>
      </trkpt>
      <trkpt lat="43.15186" lon="2.33292">
        <ele>196.5</ele>
        <time>2023-11-05T07:10:25Z</time>
      </trkpt>
      <trkpt lat="43.15186" lon="2.33296">
        <ele>196.7</ele>
        <time>2023-11-05T07:10:27Z</time>
      </trkpt>
      <trkpt lat="43.15186" lon="2.33306">
        <ele>196.9</ele>
        <time>2023-11-05T07:10:31Z</time>
      </trkpt>
      <trkpt lat="43.15186" lon="2.33311">
        <ele>197</ele>
        <time>2023-11-05T07:10:33Z</time>
      </trkpt>
      <trkpt lat="43.15191" lon="2.33331">
        <ele>197.9</ele>
        <time>2023-11-05T07:10:42Z</time>
      </trkpt>
      <trkpt lat="43.15193" lon="2.33335">
        <ele>198.3</ele>
        <time>2023-11-05T07:10:45Z</time>
      </trkpt>
      <trkpt lat="43.15197" lon="2.3334">
        <ele>198.9</ele>
        <time>2023-11-05T07:10:49Z</time>
      </trkpt>
      <trkpt lat="43.15199" lon="2.33342">
        <ele>199</ele>
        <time>2023-11-05T07:10:50Z</time>
      </trkpt>
      <trkpt lat="43.15202" lon="2.33351">
        <ele>199.8</ele>
        <time>2023-11-05T07:10:54Z</time>
      </trkpt>
      <trkpt lat="43.15202" lon="2.33355">
        <ele>200.2</ele>
        <time>2023-11-05T07:10:56Z</time>
      </trkpt>
      <trkpt lat="43.15202" lon="2.33358">
        <ele>200.5</ele>
        <time>2023-11-05T07:10:57Z</time>
      </trkpt>
      <trkpt lat="43.15202" lon="2.33366">
        <ele>201.2</ele>
        <time>2023-11-05T07:11:01Z</time>
      </trkpt>
      <trkpt lat="43.15201" lon="2.33367">
        <ele>201.3</ele>
        <time>2023-11-05T07:11:02Z</time>
      </trkpt>
      <trkpt lat="43.15201" lon="2.33368">
        <ele>201.3</ele>
        <time>2023-11-05T07:11:03Z</time>
      </trkpt>
      <trkpt lat="43.15199" lon="2.33376">
        <ele>202</ele>
        <time>2023-11-05T07:11:11Z</time>
      </trkpt>
      <trkpt lat="43.15199" lon="2.33383">
        <ele>202.4</ele>
        <time>2023-11-05T07:11:14Z</time>
      </trkpt>
      <trkpt lat="43.15196" lon="2.3339">
        <ele>202.9</ele>
        <time>2023-11-05T07:11:17Z</time>
      </trkpt>
      <trkpt lat="43.15193" lon="2.33409">
        <ele>204.1</ele>
        <time>2023-11-05T07:11:24Z</time>
      </trkpt>
      <trkpt lat="43.15193" lon="2.33411">
        <ele>204.2</ele>
        <time>2023-11-05T07:11:25Z</time>
      </trkpt>
      <trkpt lat="43.1519" lon="2.3343">
        <ele>205.5</ele>
        <time>2023-11-05T07:11:33Z</time>
      </trkpt>
      <trkpt lat="43.15182" lon="2.33441">
        <ele>206.7</ele>
        <time>2023-11-05T07:11:39Z</time>
      </trkpt>
      <trkpt lat="43.15181" lon="2.33445">
        <ele>207.1</ele>
        <time>2023-11-05T07:11:41Z</time>
      </trkpt>
      <trkpt lat="43.15178" lon="2.33453">
        <ele>207.9</ele>
        <time>2023-11-05T07:11:45Z</time>
      </trkpt>
      <trkpt lat="43.15175" lon="2.33463">
        <ele>208.8</ele>
        <time>2023-11-05T07:11:50Z</time>
      </trkpt>
      <trkpt lat="43.15174" lon="2.33469">
        <ele>209.3</ele>
        <time>2023-11-05T07:11:53Z</time>
      </trkpt>
      <trkpt lat="43.15174" lon="2.33471">
        <ele>209.5</ele>
        <time>2023-11-05T07:11:54Z</time>
      </trkpt>
      <trkpt lat="43.15172" lon="2.3349">
        <ele>210.6</ele>
        <time>2023-11-05T07:12:02Z</time>
      </trkpt>
      <trkpt lat="43.1517" lon="2.335">
        <ele>211</ele>
        <time>2023-11-05T07:12:07Z</time>
      </trkpt>
      <trkpt lat="43.1517" lon="2.33502">
        <ele>211.1</ele>
        <time>2023-11-05T07:12:09Z</time>
      </trkpt>
      <trkpt lat="43.15169" lon="2.33501">
        <ele>211.1</ele>
        <time>2023-11-05T07:12:11Z</time>
      </trkpt>
      <trkpt lat="43.15169" lon="2.33501">
        <ele>211.1</ele>
        <time>2023-11-05T07:12:13Z</time>
      </trkpt>
      <trkpt lat="43.15169" lon="2.33501">
        <ele>211.1</ele>
        <time>2023-11-05T07:12:16Z</time>
      </trkpt>
      <trkpt lat="43.15168" lon="2.33501">
        <ele>211.1</ele>
        <time>2023-11-05T07:12:25Z</time>
      </trkpt>
      <trkpt lat="43.15168" lon="2.33501">
        <ele>211.1</ele>
        <time>2023-11-05T07:12:28Z</time>
      </trkpt>
      <trkpt lat="43.15168" lon="2.33501">
        <ele>211.1</ele>
        <time>2023-11-05T07:12:29Z</time>
      </trkpt>
      <trkpt lat="43.15168" lon="2.33501">
        <ele>211.1</ele>
        <time>2023-11-05T07:12:30Z</time>
      </trkpt>
      <trkpt lat="43.15168" lon="2.33501">
        <ele>211.2</ele>
        <time>2023-11-05T07:12:37Z</time>
      </trkpt>
      <trkpt lat="43.15167" lon="2.33501">
        <ele>211.2</ele>
        <time>2023-11-05T07:12:39Z</time>
      </trkpt>
      <trkpt lat="43.15167" lon="2.33501">
        <ele>211.2</ele>
        <time>2023-11-05T07:12:40Z</time>
      </trkpt>
      <trkpt lat="43.15167" lon="2.33502">
        <ele>211.2</ele>
        <time>2023-11-05T07:12:46Z</time>
      </trkpt>
      <trkpt lat="43.15167" lon="2.33503">
        <ele>211.2</ele>
        <time>2023-11-05T07:12:48Z</time>
      </trkpt>
      <trkpt lat="43.15167" lon="2.33506">
        <ele>211.3</ele>
        <time>2023-11-05T07:12:50Z</time>
      </trkpt>
      <trkpt lat="43.15168" lon="2.33511">
        <ele>211.5</ele>
        <time>2023-11-05T07:12:53Z</time>
      </trkpt>
      <trkpt lat="43.15168" lon="2.33512">
        <ele>211.5</ele>
        <time>2023-11-05T07:12:54Z</time>
      </trkpt>
      <trkpt lat="43.15167" lon="2.33514">
        <ele>211.6</ele>
        <time>2023-11-05T07:12:57Z</time>
      </trkpt>
      <trkpt lat="43.15167" lon="2.33515">
        <ele>211.6</ele>
        <time>2023-11-05T07:12:59Z</time>
      </trkpt>
      <trkpt lat="43.15168" lon="2.33516">
        <ele>211.7</ele>
        <time>2023-11-05T07:13:02Z</time>
      </trkpt>
      <trkpt lat="43.15167" lon="2.33516">
        <ele>211.7</ele>
        <time>2023-11-05T07:13:04Z</time>
      </trkpt>
      <trkpt lat="43.15167" lon="2.33516">
        <ele>211.7</ele>
        <time>2023-11-05T07:13:06Z</time>
      </trkpt>
      <trkpt lat="43.15167" lon="2.33516">
        <ele>211.7</ele>
        <time>2023-11-05T07:13:07Z</time>
      </trkpt>
      <trkpt lat="43.15167" lon="2.33516">
        <ele>211.7</ele>
        <time>2023-11-05T07:13:09Z</time>
      </trkpt>
      <trkpt lat="43.15167" lon="2.33516">
        <ele>211.7</ele>
        <time>2023-11-05T07:13:13Z</time>
      </trkpt>
      <trkpt lat="43.15167" lon="2.33516">
        <ele>211.7</ele>
        <time>2023-11-05T07:13:14Z</time>
      </trkpt>
      <trkpt lat="43.15167" lon="2.33516">
        <ele>211.7</ele>
        <time>2023-11-05T07:13:16Z</time>
      </trkpt>
      <trkpt lat="43.15167" lon="2.33516">
        <ele>211.7</ele>
        <time>2023-11-05T07:13:17Z</time>
      </trkpt>
      <trkpt lat="43.15167" lon="2.33522">
        <ele>211.9</ele>
        <time>2023-11-05T07:13:20Z</time>
      </trkpt>
      <trkpt lat="43.15168" lon="2.33524">
        <ele>212.1</ele>
        <time>2023-11-05T07:13:21Z</time>
      </trkpt>
      <trkpt lat="43.15169" lon="2.33528">
        <ele>212.5</ele>
        <time>2023-11-05T07:13:24Z</time>
      </trkpt>
      <trkpt lat="43.15168" lon="2.3353">
        <ele>212.7</ele>
        <time>2023-11-05T07:13:26Z</time>
      </trkpt>
      <trkpt lat="43.15168" lon="2.33531">
        <ele>212.8</ele>
        <time>2023-11-05T07:13:27Z</time>
      </trkpt>
      <trkpt lat="43.15169" lon="2.33533">
        <ele>212.9</ele>
        <time>2023-11-05T07:13:28Z</time>
      </trkpt>
      <trkpt lat="43.15169" lon="2.33534">
        <ele>213.1</ele>
        <time>2023-11-05T07:13:29Z</time>
      </trkpt>
      <trkpt lat="43.15169" lon="2.33536">
        <ele>213.2</ele>
        <time>2023-11-05T07:13:30Z</time>
      </trkpt>
      <trkpt lat="43.15169" lon="2.33538">
        <ele>213.4</ele>
        <time>2023-11-05T07:13:32Z</time>
      </trkpt>
      <trkpt lat="43.15169" lon="2.3354">
        <ele>213.6</ele>
        <time>2023-11-05T07:13:34Z</time>
      </trkpt>
      <trkpt lat="43.15169" lon="2.3354">
        <ele>213.6</ele>
        <time>2023-11-05T07:13:35Z</time>
      </trkpt>
      <trkpt lat="43.15168" lon="2.33542">
        <ele>213.8</ele>
        <time>2023-11-05T07:13:38Z</time>
      </trkpt>
      <trkpt lat="43.15168" lon="2.33546">
        <ele>214.1</ele>
        <time>2023-11-05T07:13:41Z</time>
      </trkpt>
      <trkpt lat="43.15169" lon="2.33555">
        <ele>214.6</ele>
        <time>2023-11-05T07:13:46Z</time>
      </trkpt>
      <trkpt lat="43.15168" lon="2.33556">
        <ele>214.6</ele>
        <time>2023-11-05T07:13:47Z</time>
      </trkpt>
      <trkpt lat="43.15168" lon="2.33559">
        <ele>214.7</ele>
        <time>2023-11-05T07:13:49Z</time>
      </trkpt>
      <trkpt lat="43.15167" lon="2.33563">
        <ele>214.8</ele>
        <time>2023-11-05T07:13:51Z</time>
      </trkpt>
      <trkpt lat="43.15167" lon="2.33565">
        <ele>214.9</ele>
        <time>2023-11-05T07:13:52Z</time>
      </trkpt>
      <trkpt lat="43.15168" lon="2.33568">
        <ele>214.9</ele>
        <time>2023-11-05T07:13:53Z</time>
      </trkpt>
      <trkpt lat="43.15167" lon="2.33575">
        <ele>215</ele>
        <time>2023-11-05T07:13:56Z</time>
      </trkpt>
      <trkpt lat="43.15165" lon="2.33579">
        <ele>215.1</ele>
        <time>2023-11-05T07:13:59Z</time>
      </trkpt>
      <trkpt lat="43.15164" lon="2.33582">
        <ele>215.1</ele>
        <time>2023-11-05T07:14:01Z</time>
      </trkpt>
      <trkpt lat="43.15162" lon="2.33588">
        <ele>215.3</ele>
        <time>2023-11-05T07:14:04Z</time>
      </trkpt>
      <trkpt lat="43.1516" lon="2.33594">
        <ele>215.5</ele>
        <time>2023-11-05T07:14:07Z</time>
      </trkpt>
      <trkpt lat="43.15159" lon="2.33599">
        <ele>215.7</ele>
        <time>2023-11-05T07:14:10Z</time>
      </trkpt>
      <trkpt lat="43.15156" lon="2.33606">
        <ele>216.1</ele>
        <time>2023-11-05T07:14:14Z</time>
      </trkpt>
      <trkpt lat="43.15156" lon="2.33608">
        <ele>216.3</ele>
        <time>2023-11-05T07:14:15Z</time>
      </trkpt>
      <trkpt lat="43.15157" lon="2.3361">
        <ele>216.4</ele>
        <time>2023-11-05T07:14:17Z</time>
      </trkpt>
      <trkpt lat="43.15158" lon="2.33611">
        <ele>216.5</ele>
        <time>2023-11-05T07:14:18Z</time>
      </trkpt>
      <trkpt lat="43.15158" lon="2.33613">
        <ele>216.7</ele>
        <time>2023-11-05T07:14:19Z</time>
      </trkpt>
      <trkpt lat="43.15158" lon="2.33614">
        <ele>216.8</ele>
        <time>2023-11-05T07:14:20Z</time>
      </trkpt>
      <trkpt lat="43.15158" lon="2.33618">
        <ele>217.2</ele>
        <time>2023-11-05T07:14:23Z</time>
      </trkpt>
      <trkpt lat="43.1516" lon="2.33625">
        <ele>218</ele>
        <time>2023-11-05T07:14:29Z</time>
      </trkpt>
      <trkpt lat="43.1516" lon="2.3363">
        <ele>218.6</ele>
        <time>2023-11-05T07:14:33Z</time>
      </trkpt>
      <trkpt lat="43.1516" lon="2.33634">
        <ele>219</ele>
        <time>2023-11-05T07:14:37Z</time>
      </trkpt>
      <trkpt lat="43.1516" lon="2.33634">
        <ele>219.1</ele>
        <time>2023-11-05T07:14:38Z</time>
      </trkpt>
      <trkpt lat="43.1516" lon="2.33639">
        <ele>219.5</ele>
        <time>2023-11-05T07:14:42Z</time>
      </trkpt>
      <trkpt lat="43.15159" lon="2.33643">
        <ele>219.9</ele>
        <time>2023-11-05T07:14:44Z</time>
      </trkpt>
      <trkpt lat="43.1516" lon="2.33646">
        <ele>220.2</ele>
        <time>2023-11-05T07:14:46Z</time>
      </trkpt>
      <trkpt lat="43.1516" lon="2.33653">
        <ele>220.7</ele>
        <time>2023-11-05T07:14:49Z</time>
      </trkpt>
      <trkpt lat="43.1516" lon="2.33661">
        <ele>221.1</ele>
        <time>2023-11-05T07:14:53Z</time>
      </trkpt>
      <trkpt lat="43.15157" lon="2.33671">
        <ele>221.6</ele>
        <time>2023-11-05T07:14:58Z</time>
      </trkpt>
      <trkpt lat="43.15158" lon="2.33674">
        <ele>221.7</ele>
        <time>2023-11-05T07:15:00Z</time>
      </trkpt>
      <trkpt lat="43.15156" lon="2.3368">
        <ele>222</ele>
        <time>2023-11-05T07:15:04Z</time>
      </trkpt>
      <trkpt lat="43.15155" lon="2.33686">
        <ele>222.3</ele>
        <time>2023-11-05T07:15:07Z</time>
      </trkpt>
      <trkpt lat="43.15155" lon="2.33688">
        <ele>222.4</ele>
        <time>2023-11-05T07:15:08Z</time>
      </trkpt>
      <trkpt lat="43.15154" lon="2.3369">
        <ele>222.5</ele>
        <time>2023-11-05T07:15:09Z</time>
      </trkpt>
      <trkpt lat="43.1515" lon="2.33697">
        <ele>222.8</ele>
        <time>2023-11-05T07:15:14Z</time>
      </trkpt>
      <trkpt lat="43.1515" lon="2.33698">
        <ele>222.8</ele>
        <time>2023-11-05T07:15:15Z</time>
      </trkpt>
      <trkpt lat="43.1515" lon="2.33699">
        <ele>222.8</ele>
        <time>2023-11-05T07:15:21Z</time>
      </trkpt>
      <trkpt lat="43.15148" lon="2.33704">
        <ele>222.9</ele>
        <time>2023-11-05T07:15:30Z</time>
      </trkpt>
      <trkpt lat="43.15146" lon="2.33707">
        <ele>222.9</ele>
        <time>2023-11-05T07:15:32Z</time>
      </trkpt>
      <trkpt lat="43.15144" lon="2.3371">
        <ele>222.9</ele>
        <time>2023-11-05T07:15:35Z</time>
      </trkpt>
      <trkpt lat="43.15144" lon="2.3371">
        <ele>222.8</ele>
        <time>2023-11-05T07:15:36Z</time>
      </trkpt>
      <trkpt lat="43.15144" lon="2.33711">
        <ele>222.8</ele>
        <time>2023-11-05T07:15:37Z</time>
      </trkpt>
      <trkpt lat="43.15143" lon="2.33712">
        <ele>222.8</ele>
        <time>2023-11-05T07:15:38Z</time>
      </trkpt>
      <trkpt lat="43.15139" lon="2.33713">
        <ele>222.7</ele>
        <time>2023-11-05T07:15:41Z</time>
      </trkpt>
      <trkpt lat="43.15129" lon="2.33722">
        <ele>222.3</ele>
        <time>2023-11-05T07:15:48Z</time>
      </trkpt>
      <trkpt lat="43.1512" lon="2.33738">
        <ele>221.8</ele>
        <time>2023-11-05T07:15:55Z</time>
      </trkpt>
      <trkpt lat="43.1511" lon="2.33756">
        <ele>220.9</ele>
        <time>2023-11-05T07:16:02Z</time>
      </trkpt>
      <trkpt lat="43.15108" lon="2.33763">
        <ele>220.5</ele>
        <time>2023-11-05T07:16:05Z</time>
      </trkpt>
      <trkpt lat="43.15107" lon="2.33765">
        <ele>220.4</ele>
        <time>2023-11-05T07:16:06Z</time>
      </trkpt>
      <trkpt lat="43.15107" lon="2.3377">
        <ele>220.2</ele>
        <time>2023-11-05T07:16:08Z</time>
      </trkpt>
      <trkpt lat="43.15106" lon="2.33781">
        <ele>220</ele>
        <time>2023-11-05T07:16:13Z</time>
      </trkpt>
      <trkpt lat="43.15097" lon="2.33797">
        <ele>219.8</ele>
        <time>2023-11-05T07:16:20Z</time>
      </trkpt>
      <trkpt lat="43.15094" lon="2.33801">
        <ele>219.8</ele>
        <time>2023-11-05T07:16:22Z</time>
      </trkpt>
      <trkpt lat="43.15093" lon="2.33806">
        <ele>219.8</ele>
        <time>2023-11-05T07:16:24Z</time>
      </trkpt>
      <trkpt lat="43.15087" lon="2.33816">
        <ele>219.7</ele>
        <time>2023-11-05T07:16:30Z</time>
      </trkpt>
      <trkpt lat="43.15085" lon="2.33819">
        <ele>219.8</ele>
        <time>2023-11-05T07:16:32Z</time>
      </trkpt>
      <trkpt lat="43.15082" lon="2.33828">
        <ele>219.9</ele>
        <time>2023-11-05T07:16:36Z</time>
      </trkpt>
      <trkpt lat="43.15084" lon="2.33837">
        <ele>220.1</ele>
        <time>2023-11-05T07:16:40Z</time>
      </trkpt>
      <trkpt lat="43.15084" lon="2.33842">
        <ele>220.3</ele>
        <time>2023-11-05T07:16:42Z</time>
      </trkpt>
      <trkpt lat="43.15084" lon="2.33844">
        <ele>220.4</ele>
        <time>2023-11-05T07:16:43Z</time>
      </trkpt>
      <trkpt lat="43.15082" lon="2.33851">
        <ele>220.8</ele>
        <time>2023-11-05T07:16:46Z</time>
      </trkpt>
      <trkpt lat="43.15081" lon="2.3386">
        <ele>221.1</ele>
        <time>2023-11-05T07:16:50Z</time>
      </trkpt>
      <trkpt lat="43.15077" lon="2.33871">
        <ele>221.2</ele>
        <time>2023-11-05T07:16:55Z</time>
      </trkpt>
      <trkpt lat="43.15074" lon="2.33879">
        <ele>221</ele>
        <time>2023-11-05T07:16:59Z</time>
      </trkpt>
      <trkpt lat="43.15072" lon="2.33884">
        <ele>220.8</ele>
        <time>2023-11-05T07:17:01Z</time>
      </trkpt>
      <trkpt lat="43.1507" lon="2.33892">
        <ele>220.5</ele>
        <time>2023-11-05T07:17:04Z</time>
      </trkpt>
      <trkpt lat="43.15069" lon="2.33894">
        <ele>220.4</ele>
        <time>2023-11-05T07:17:05Z</time>
      </trkpt>
      <trkpt lat="43.15067" lon="2.33899">
        <ele>220.1</ele>
        <time>2023-11-05T07:17:07Z</time>
      </trkpt>
      <trkpt lat="43.1506" lon="2.33915">
        <ele>219.6</ele>
        <time>2023-11-05T07:17:13Z</time>
      </trkpt>
      <trkpt lat="43.15059" lon="2.33921">
        <ele>219.6</ele>
        <time>2023-11-05T07:17:15Z</time>
      </trkpt>
      <trkpt lat="43.15054" lon="2.3394">
        <ele>220.3</ele>
        <time>2023-11-05T07:17:23Z</time>
      </trkpt>
      <trkpt lat="43.15054" lon="2.33947">
        <ele>220.8</ele>
        <time>2023-11-05T07:17:26Z</time>
      </trkpt>
      <trkpt lat="43.15055" lon="2.33953">
        <ele>221.4</ele>
        <time>2023-11-05T07:17:29Z</time>
      </trkpt>
      <trkpt lat="43.15055" lon="2.33954">
        <ele>221.5</ele>
        <time>2023-11-05T07:17:32Z</time>
      </trkpt>
      <trkpt lat="43.15057" lon="2.33953">
        <ele>221.7</ele>
        <time>2023-11-05T07:17:34Z</time>
      </trkpt>
      <trkpt lat="43.15058" lon="2.33953">
        <ele>221.8</ele>
        <time>2023-11-05T07:17:35Z</time>
      </trkpt>
      <trkpt lat="43.15064" lon="2.33958">
        <ele>222.9</ele>
        <time>2023-11-05T07:17:40Z</time>
      </trkpt>
      <trkpt lat="43.15065" lon="2.33961">
        <ele>223.2</ele>
        <time>2023-11-05T07:17:43Z</time>
      </trkpt>
      <trkpt lat="43.15066" lon="2.33962">
        <ele>223.4</ele>
        <time>2023-11-05T07:17:45Z</time>
      </trkpt>
      <trkpt lat="43.15067" lon="2.33964">
        <ele>223.6</ele>
        <time>2023-11-05T07:17:47Z</time>
      </trkpt>
      <trkpt lat="43.15068" lon="2.33967">
        <ele>224.1</ele>
        <time>2023-11-05T07:17:49Z</time>
      </trkpt>
      <trkpt lat="43.15068" lon="2.33976">
        <ele>225</ele>
        <time>2023-11-05T07:17:54Z</time>
      </trkpt>
      <trkpt lat="43.1507" lon="2.33985">
        <ele>226</ele>
        <time>2023-11-05T07:18:00Z</time>
      </trkpt>
      <trkpt lat="43.15071" lon="2.33986">
        <ele>226.1</ele>
        <time>2023-11-05T07:18:01Z</time>
      </trkpt>
      <trkpt lat="43.15071" lon="2.33987">
        <ele>226.2</ele>
        <time>2023-11-05T07:18:02Z</time>
      </trkpt>
      <trkpt lat="43.15071" lon="2.33988">
        <ele>226.3</ele>
        <time>2023-11-05T07:18:03Z</time>
      </trkpt>
      <trkpt lat="43.15072" lon="2.33993">
        <ele>226.7</ele>
        <time>2023-11-05T07:18:06Z</time>
      </trkpt>
      <trkpt lat="43.15072" lon="2.33999">
        <ele>227.1</ele>
        <time>2023-11-05T07:18:09Z</time>
      </trkpt>
      <trkpt lat="43.15073" lon="2.34002">
        <ele>227.2</ele>
        <time>2023-11-05T07:18:10Z</time>
      </trkpt>
      <trkpt lat="43.15074" lon="2.34006">
        <ele>227.4</ele>
        <time>2023-11-05T07:18:13Z</time>
      </trkpt>
      <trkpt lat="43.15075" lon="2.34012">
        <ele>227.7</ele>
        <time>2023-11-05T07:18:16Z</time>
      </trkpt>
      <trkpt lat="43.15075" lon="2.34016">
        <ele>227.8</ele>
        <time>2023-11-05T07:18:18Z</time>
      </trkpt>
      <trkpt lat="43.15075" lon="2.34023">
        <ele>227.9</ele>
        <time>2023-11-05T07:18:21Z</time>
      </trkpt>
      <trkpt lat="43.15074" lon="2.34031">
        <ele>227.8</ele>
        <time>2023-11-05T07:18:25Z</time>
      </trkpt>
      <trkpt lat="43.15073" lon="2.34033">
        <ele>227.8</ele>
        <time>2023-11-05T07:18:26Z</time>
      </trkpt>
      <trkpt lat="43.15072" lon="2.34036">
        <ele>227.8</ele>
        <time>2023-11-05T07:18:28Z</time>
      </trkpt>
      <trkpt lat="43.15071" lon="2.3404">
        <ele>227.7</ele>
        <time>2023-11-05T07:18:30Z</time>
      </trkpt>
      <trkpt lat="43.15066" lon="2.34049">
        <ele>227.4</ele>
        <time>2023-11-05T07:18:35Z</time>
      </trkpt>
      <trkpt lat="43.15063" lon="2.34061">
        <ele>227.3</ele>
        <time>2023-11-05T07:18:41Z</time>
      </trkpt>
      <trkpt lat="43.15062" lon="2.34065">
        <ele>227.3</ele>
        <time>2023-11-05T07:18:43Z</time>
      </trkpt>
      <trkpt lat="43.15057" lon="2.34079">
        <ele>227.3</ele>
        <time>2023-11-05T07:18:49Z</time>
      </trkpt>
      <trkpt lat="43.15054" lon="2.34084">
        <ele>227.2</ele>
        <time>2023-11-05T07:18:51Z</time>
      </trkpt>
      <trkpt lat="43.15053" lon="2.34089">
        <ele>227.1</ele>
        <time>2023-11-05T07:18:53Z</time>
      </trkpt>
      <trkpt lat="43.15052" lon="2.341">
        <ele>226.7</ele>
        <time>2023-11-05T07:18:57Z</time>
      </trkpt>
      <trkpt lat="43.15053" lon="2.34103">
        <ele>226.5</ele>
        <time>2023-11-05T07:18:58Z</time>
      </trkpt>
      <trkpt lat="43.15047" lon="2.34116">
        <ele>225.8</ele>
        <time>2023-11-05T07:19:04Z</time>
      </trkpt>
      <trkpt lat="43.15047" lon="2.34118">
        <ele>225.7</ele>
        <time>2023-11-05T07:19:05Z</time>
      </trkpt>
      <trkpt lat="43.15045" lon="2.34122">
        <ele>225.5</ele>
        <time>2023-11-05T07:19:07Z</time>
      </trkpt>
      <trkpt lat="43.15041" lon="2.34132">
        <ele>225</ele>
        <time>2023-11-05T07:19:13Z</time>
      </trkpt>
      <trkpt lat="43.15039" lon="2.34138">
        <ele>224.8</ele>
        <time>2023-11-05T07:19:15Z</time>
      </trkpt>
      <trkpt lat="43.15033" lon="2.34152">
        <ele>225</ele>
        <time>2023-11-05T07:19:20Z</time>
      </trkpt>
      <trkpt lat="43.15033" lon="2.34156">
        <ele>225.3</ele>
        <time>2023-11-05T07:19:23Z</time>
      </trkpt>
      <trkpt lat="43.15034" lon="2.34157">
        <ele>225.4</ele>
        <time>2023-11-05T07:19:24Z</time>
      </trkpt>
      <trkpt lat="43.15034" lon="2.34158">
        <ele>225.5</ele>
        <time>2023-11-05T07:19:25Z</time>
      </trkpt>
      <trkpt lat="43.15035" lon="2.34158">
        <ele>225.6</ele>
        <time>2023-11-05T07:19:26Z</time>
      </trkpt>
      <trkpt lat="43.15035" lon="2.34158">
        <ele>225.7</ele>
        <time>2023-11-05T07:19:27Z</time>
      </trkpt>
      <trkpt lat="43.15037" lon="2.34159">
        <ele>226</ele>
        <time>2023-11-05T07:19:29Z</time>
      </trkpt>
      <trkpt lat="43.15038" lon="2.34161">
        <ele>226.2</ele>
        <time>2023-11-05T07:19:30Z</time>
      </trkpt>
      <trkpt lat="43.1504" lon="2.34167">
        <ele>227.1</ele>
        <time>2023-11-05T07:19:33Z</time>
      </trkpt>
      <trkpt lat="43.15041" lon="2.34169">
        <ele>227.4</ele>
        <time>2023-11-05T07:19:34Z</time>
      </trkpt>
      <trkpt lat="43.15041" lon="2.34171">
        <ele>227.6</ele>
        <time>2023-11-05T07:19:35Z</time>
      </trkpt>
      <trkpt lat="43.15042" lon="2.34177">
        <ele>228.5</ele>
        <time>2023-11-05T07:19:38Z</time>
      </trkpt>
      <trkpt lat="43.15042" lon="2.34183">
        <ele>229.2</ele>
        <time>2023-11-05T07:19:42Z</time>
      </trkpt>
      <trkpt lat="43.1504" lon="2.34188">
        <ele>229.7</ele>
        <time>2023-11-05T07:19:45Z</time>
      </trkpt>
      <trkpt lat="43.15039" lon="2.34199">
        <ele>230.2</ele>
        <time>2023-11-05T07:19:52Z</time>
      </trkpt>
      <trkpt lat="43.15036" lon="2.34207">
        <ele>230.5</ele>
        <time>2023-11-05T07:19:56Z</time>
      </trkpt>
      <trkpt lat="43.15035" lon="2.34209">
        <ele>230.5</ele>
        <time>2023-11-05T07:19:57Z</time>
      </trkpt>
      <trkpt lat="43.15035" lon="2.34217">
        <ele>230.8</ele>
        <time>2023-11-05T07:20:00Z</time>
      </trkpt>
      <trkpt lat="43.15034" lon="2.34234">
        <ele>231.4</ele>
        <time>2023-11-05T07:20:08Z</time>
      </trkpt>
      <trkpt lat="43.15035" lon="2.34235">
        <ele>231.5</ele>
        <time>2023-11-05T07:20:09Z</time>
      </trkpt>
      <trkpt lat="43.15033" lon="2.34253">
        <ele>231.7</ele>
        <time>2023-11-05T07:20:17Z</time>
      </trkpt>
      <trkpt lat="43.15031" lon="2.34259">
        <ele>231.6</ele>
        <time>2023-11-05T07:20:20Z</time>
      </trkpt>
      <trkpt lat="43.15025" lon="2.34265">
        <ele>231.1</ele>
        <time>2023-11-05T07:20:23Z</time>
      </trkpt>
      <trkpt lat="43.15021" lon="2.34267">
        <ele>230.7</ele>
        <time>2023-11-05T07:20:26Z</time>
      </trkpt>
      <trkpt lat="43.1502" lon="2.34268">
        <ele>230.7</ele>
        <time>2023-11-05T07:20:27Z</time>
      </trkpt>
      <trkpt lat="43.15019" lon="2.34271">
        <ele>230.5</ele>
        <time>2023-11-05T07:20:29Z</time>
      </trkpt>
      <trkpt lat="43.15019" lon="2.34283">
        <ele>229.8</ele>
        <time>2023-11-05T07:20:37Z</time>
      </trkpt>
      <trkpt lat="43.15015" lon="2.34286">
        <ele>229.7</ele>
        <time>2023-11-05T07:20:40Z</time>
      </trkpt>
      <trkpt lat="43.15015" lon="2.34288">
        <ele>229.6</ele>
        <time>2023-11-05T07:20:41Z</time>
      </trkpt>
      <trkpt lat="43.15014" lon="2.34289">
        <ele>229.6</ele>
        <time>2023-11-05T07:20:42Z</time>
      </trkpt>
      <trkpt lat="43.15014" lon="2.34291">
        <ele>229.6</ele>
        <time>2023-11-05T07:20:43Z</time>
      </trkpt>
      <trkpt lat="43.15012" lon="2.34296">
        <ele>229.6</ele>
        <time>2023-11-05T07:20:46Z</time>
      </trkpt>
      <trkpt lat="43.15013" lon="2.34298">
        <ele>229.7</ele>
        <time>2023-11-05T07:20:47Z</time>
      </trkpt>
      <trkpt lat="43.15015" lon="2.34305">
        <ele>229.9</ele>
        <time>2023-11-05T07:20:51Z</time>
      </trkpt>
      <trkpt lat="43.15018" lon="2.34312">
        <ele>230.5</ele>
        <time>2023-11-05T07:20:57Z</time>
      </trkpt>
      <trkpt lat="43.15019" lon="2.34313">
        <ele>230.7</ele>
        <time>2023-11-05T07:20:59Z</time>
      </trkpt>
      <trkpt lat="43.15026" lon="2.34319">
        <ele>232</ele>
        <time>2023-11-05T07:21:07Z</time>
      </trkpt>
      <trkpt lat="43.15027" lon="2.34319">
        <ele>232.1</ele>
        <time>2023-11-05T07:21:09Z</time>
      </trkpt>
      <trkpt lat="43.15027" lon="2.34319">
        <ele>232.2</ele>
        <time>2023-11-05T07:21:11Z</time>
      </trkpt>
      <trkpt lat="43.15028" lon="2.3432">
        <ele>232.4</ele>
        <time>2023-11-05T07:21:13Z</time>
      </trkpt>
      <trkpt lat="43.15029" lon="2.34321">
        <ele>232.5</ele>
        <time>2023-11-05T07:21:15Z</time>
      </trkpt>
      <trkpt lat="43.15029" lon="2.34321">
        <ele>232.7</ele>
        <time>2023-11-05T07:21:16Z</time>
      </trkpt>
      <trkpt lat="43.1503" lon="2.34322">
        <ele>232.9</ele>
        <time>2023-11-05T07:21:17Z</time>
      </trkpt>
      <trkpt lat="43.15032" lon="2.34324">
        <ele>233.3</ele>
        <time>2023-11-05T07:21:19Z</time>
      </trkpt>
      <trkpt lat="43.15033" lon="2.34327">
        <ele>233.8</ele>
        <time>2023-11-05T07:21:21Z</time>
      </trkpt>
      <trkpt lat="43.15033" lon="2.34328">
        <ele>234</ele>
        <time>2023-11-05T07:21:22Z</time>
      </trkpt>
      <trkpt lat="43.15036" lon="2.34332">
        <ele>234.7</ele>
        <time>2023-11-05T07:21:25Z</time>
      </trkpt>
      <trkpt lat="43.15036" lon="2.34334">
        <ele>234.9</ele>
        <time>2023-11-05T07:21:26Z</time>
      </trkpt>
      <trkpt lat="43.15037" lon="2.34344">
        <ele>235.8</ele>
        <time>2023-11-05T07:21:31Z</time>
      </trkpt>
      <trkpt lat="43.15037" lon="2.34346">
        <ele>235.9</ele>
        <time>2023-11-05T07:21:32Z</time>
      </trkpt>
      <trkpt lat="43.15037" lon="2.34348">
        <ele>236</ele>
        <time>2023-11-05T07:21:33Z</time>
      </trkpt>
      <trkpt lat="43.15037" lon="2.3435">
        <ele>236</ele>
        <time>2023-11-05T07:21:34Z</time>
      </trkpt>
      <trkpt lat="43.15037" lon="2.34354">
        <ele>236</ele>
        <time>2023-11-05T07:21:37Z</time>
      </trkpt>
      <trkpt lat="43.15037" lon="2.34355">
        <ele>236</ele>
        <time>2023-11-05T07:21:38Z</time>
      </trkpt>
      <trkpt lat="43.15036" lon="2.34359">
        <ele>235.9</ele>
        <time>2023-11-05T07:21:40Z</time>
      </trkpt>
      <trkpt lat="43.15035" lon="2.34366">
        <ele>235.6</ele>
        <time>2023-11-05T07:21:43Z</time>
      </trkpt>
      <trkpt lat="43.15034" lon="2.3437">
        <ele>235.4</ele>
        <time>2023-11-05T07:21:45Z</time>
      </trkpt>
      <trkpt lat="43.15033" lon="2.34372">
        <ele>235.2</ele>
        <time>2023-11-05T07:21:46Z</time>
      </trkpt>
      <trkpt lat="43.15034" lon="2.34383">
        <ele>234.6</ele>
        <time>2023-11-05T07:21:51Z</time>
      </trkpt>
      <trkpt lat="43.15034" lon="2.34384">
        <ele>234.5</ele>
        <time>2023-11-05T07:21:52Z</time>
      </trkpt>
      <trkpt lat="43.15033" lon="2.34387">
        <ele>234.3</ele>
        <time>2023-11-05T07:21:55Z</time>
      </trkpt>
      <trkpt lat="43.15032" lon="2.3439">
        <ele>234</ele>
        <time>2023-11-05T07:21:57Z</time>
      </trkpt>
      <trkpt lat="43.15029" lon="2.34395">
        <ele>233.6</ele>
        <time>2023-11-05T07:22:00Z</time>
      </trkpt>
      <trkpt lat="43.15028" lon="2.34398">
        <ele>233.5</ele>
        <time>2023-11-05T07:22:01Z</time>
      </trkpt>
      <trkpt lat="43.15027" lon="2.344">
        <ele>233.3</ele>
        <time>2023-11-05T07:22:02Z</time>
      </trkpt>
      <trkpt lat="43.15026" lon="2.34403">
        <ele>233.1</ele>
        <time>2023-11-05T07:22:03Z</time>
      </trkpt>
      <trkpt lat="43.15025" lon="2.34408">
        <ele>232.8</ele>
        <time>2023-11-05T07:22:06Z</time>
      </trkpt>
      <trkpt lat="43.15024" lon="2.34412">
        <ele>232.5</ele>
        <time>2023-11-05T07:22:08Z</time>
      </trkpt>
      <trkpt lat="43.15024" lon="2.34416">
        <ele>232.3</ele>
        <time>2023-11-05T07:22:09Z</time>
      </trkpt>
      <trkpt lat="43.1502" lon="2.34432">
        <ele>231.2</ele>
        <time>2023-11-05T07:22:15Z</time>
      </trkpt>
      <trkpt lat="43.15019" lon="2.34434">
        <ele>231.1</ele>
        <time>2023-11-05T07:22:16Z</time>
      </trkpt>
      <trkpt lat="43.15019" lon="2.34436">
        <ele>230.9</ele>
        <time>2023-11-05T07:22:17Z</time>
      </trkpt>
      <trkpt lat="43.15018" lon="2.34438">
        <ele>230.7</ele>
        <time>2023-11-05T07:22:18Z</time>
      </trkpt>
      <trkpt lat="43.15017" lon="2.34443">
        <ele>230.4</ele>
        <time>2023-11-05T07:22:21Z</time>
      </trkpt>
      <trkpt lat="43.15017" lon="2.34445">
        <ele>230.3</ele>
        <time>2023-11-05T07:22:23Z</time>
      </trkpt>
      <trkpt lat="43.15017" lon="2.34449">
        <ele>230</ele>
        <time>2023-11-05T07:22:26Z</time>
      </trkpt>
      <trkpt lat="43.15016" lon="2.34453">
        <ele>229.8</ele>
        <time>2023-11-05T07:22:28Z</time>
      </trkpt>
      <trkpt lat="43.15017" lon="2.34459">
        <ele>229.4</ele>
        <time>2023-11-05T07:22:31Z</time>
      </trkpt>
      <trkpt lat="43.15016" lon="2.34466">
        <ele>229</ele>
        <time>2023-11-05T07:22:35Z</time>
      </trkpt>
      <trkpt lat="43.15014" lon="2.34469">
        <ele>228.9</ele>
        <time>2023-11-05T07:22:36Z</time>
      </trkpt>
      <trkpt lat="43.15013" lon="2.34473">
        <ele>228.7</ele>
        <time>2023-11-05T07:22:38Z</time>
      </trkpt>
      <trkpt lat="43.15012" lon="2.34478">
        <ele>228.4</ele>
        <time>2023-11-05T07:22:41Z</time>
      </trkpt>
      <trkpt lat="43.15012" lon="2.3448">
        <ele>228.3</ele>
        <time>2023-11-05T07:22:43Z</time>
      </trkpt>
      <trkpt lat="43.15011" lon="2.34481">
        <ele>228.1</ele>
        <time>2023-11-05T07:22:44Z</time>
      </trkpt>
      <trkpt lat="43.15008" lon="2.34487">
        <ele>227.6</ele>
        <time>2023-11-05T07:22:47Z</time>
      </trkpt>
      <trkpt lat="43.15006" lon="2.34496">
        <ele>226.8</ele>
        <time>2023-11-05T07:22:50Z</time>
      </trkpt>
      <trkpt lat="43.15003" lon="2.34501">
        <ele>226.3</ele>
        <time>2023-11-05T07:22:53Z</time>
      </trkpt>
      <trkpt lat="43.15002" lon="2.34505">
        <ele>225.9</ele>
        <time>2023-11-05T07:22:56Z</time>
      </trkpt>
      <trkpt lat="43.15001" lon="2.34507">
        <ele>225.7</ele>
        <time>2023-11-05T07:22:57Z</time>
      </trkpt>
      <trkpt lat="43.15" lon="2.34513">
        <ele>225.1</ele>
        <time>2023-11-05T07:23:00Z</time>
      </trkpt>
      <trkpt lat="43.14996" lon="2.34519">
        <ele>224.4</ele>
        <time>2023-11-05T07:23:04Z</time>
      </trkpt>
      <trkpt lat="43.14995" lon="2.34519">
        <ele>224.2</ele>
        <time>2023-11-05T07:23:05Z</time>
      </trkpt>
      <trkpt lat="43.14989" lon="2.34521">
        <ele>223.3</ele>
        <time>2023-11-05T07:23:08Z</time>
      </trkpt>
      <trkpt lat="43.14983" lon="2.34525">
        <ele>222.5</ele>
        <time>2023-11-05T07:23:12Z</time>
      </trkpt>
      <trkpt lat="43.14975" lon="2.34527">
        <ele>221.8</ele>
        <time>2023-11-05T07:23:18Z</time>
      </trkpt>
      <trkpt lat="43.14973" lon="2.34526">
        <ele>221.7</ele>
        <time>2023-11-05T07:23:19Z</time>
      </trkpt>
      <trkpt lat="43.14972" lon="2.34524">
        <ele>221.6</ele>
        <time>2023-11-05T07:23:20Z</time>
      </trkpt>
      <trkpt lat="43.14958" lon="2.34512">
        <ele>220.8</ele>
        <time>2023-11-05T07:23:27Z</time>
      </trkpt>
      <trkpt lat="43.14955" lon="2.34511">
        <ele>220.7</ele>
        <time>2023-11-05T07:23:29Z</time>
      </trkpt>
      <trkpt lat="43.14951" lon="2.34512">
        <ele>220.5</ele>
        <time>2023-11-05T07:23:31Z</time>
      </trkpt>
      <trkpt lat="43.14942" lon="2.34513">
        <ele>220.1</ele>
        <time>2023-11-05T07:23:35Z</time>
      </trkpt>
      <trkpt lat="43.14939" lon="2.34509">
        <ele>219.9</ele>
        <time>2023-11-05T07:23:39Z</time>
      </trkpt>
      <trkpt lat="43.1493" lon="2.34508">
        <ele>219.7</ele>
        <time>2023-11-05T07:23:42Z</time>
      </trkpt>
      <trkpt lat="43.14923" lon="2.34504">
        <ele>219.5</ele>
        <time>2023-11-05T07:23:46Z</time>
      </trkpt>
      <trkpt lat="43.14916" lon="2.34501">
        <ele>219.5</ele>
        <time>2023-11-05T07:23:49Z</time>
      </trkpt>
      <trkpt lat="43.14915" lon="2.345">
        <ele>219.5</ele>
        <time>2023-11-05T07:23:50Z</time>
      </trkpt>
      <trkpt lat="43.1491" lon="2.34498">
        <ele>219.4</ele>
        <time>2023-11-05T07:23:54Z</time>
      </trkpt>
      <trkpt lat="43.14897" lon="2.345">
        <ele>219.3</ele>
        <time>2023-11-05T07:24:01Z</time>
      </trkpt>
      <trkpt lat="43.14886" lon="2.3451">
        <ele>219.1</ele>
        <time>2023-11-05T07:24:07Z</time>
      </trkpt>
      <trkpt lat="43.14879" lon="2.34529">
        <ele>218.6</ele>
        <time>2023-11-05T07:24:15Z</time>
      </trkpt>
      <trkpt lat="43.14876" lon="2.34535">
        <ele>218.2</ele>
        <time>2023-11-05T07:24:19Z</time>
      </trkpt>
      <trkpt lat="43.14872" lon="2.34542">
        <ele>217.7</ele>
        <time>2023-11-05T07:24:23Z</time>
      </trkpt>
      <trkpt lat="43.14872" lon="2.34543">
        <ele>217.5</ele>
        <time>2023-11-05T07:24:24Z</time>
      </trkpt>
      <trkpt lat="43.1487" lon="2.34548">
        <ele>217</ele>
        <time>2023-11-05T07:24:27Z</time>
      </trkpt>
      <trkpt lat="43.14869" lon="2.3455">
        <ele>216.9</ele>
        <time>2023-11-05T07:24:28Z</time>
      </trkpt>
      <trkpt lat="43.14865" lon="2.34557">
        <ele>216.1</ele>
        <time>2023-11-05T07:24:33Z</time>
      </trkpt>
      <trkpt lat="43.14863" lon="2.3456">
        <ele>215.7</ele>
        <time>2023-11-05T07:24:35Z</time>
      </trkpt>
      <trkpt lat="43.1486" lon="2.34562">
        <ele>215.2</ele>
        <time>2023-11-05T07:24:37Z</time>
      </trkpt>
      <trkpt lat="43.1486" lon="2.34564">
        <ele>215</ele>
        <time>2023-11-05T07:24:38Z</time>
      </trkpt>
      <trkpt lat="43.14858" lon="2.34569">
        <ele>214.4</ele>
        <time>2023-11-05T07:24:41Z</time>
      </trkpt>
      <trkpt lat="43.14858" lon="2.34571">
        <ele>214.2</ele>
        <time>2023-11-05T07:24:42Z</time>
      </trkpt>
      <trkpt lat="43.14857" lon="2.34576">
        <ele>213.7</ele>
        <time>2023-11-05T07:24:44Z</time>
      </trkpt>
      <trkpt lat="43.14854" lon="2.34586">
        <ele>212.7</ele>
        <time>2023-11-05T07:24:48Z</time>
      </trkpt>
      <trkpt lat="43.14848" lon="2.34597">
        <ele>211.7</ele>
        <time>2023-11-05T07:24:52Z</time>
      </trkpt>
      <trkpt lat="43.14843" lon="2.34603">
        <ele>211.1</ele>
        <time>2023-11-05T07:24:55Z</time>
      </trkpt>
      <trkpt lat="43.14835" lon="2.34617">
        <ele>210</ele>
        <time>2023-11-05T07:25:01Z</time>
      </trkpt>
      <trkpt lat="43.14834" lon="2.3462">
        <ele>209.8</ele>
        <time>2023-11-05T07:25:02Z</time>
      </trkpt>
      <trkpt lat="43.1483" lon="2.34628">
        <ele>209.2</ele>
        <time>2023-11-05T07:25:05Z</time>
      </trkpt>
      <trkpt lat="43.14823" lon="2.34644">
        <ele>208.1</ele>
        <time>2023-11-05T07:25:11Z</time>
      </trkpt>
      <trkpt lat="43.14822" lon="2.34645">
        <ele>208.1</ele>
        <time>2023-11-05T07:25:12Z</time>
      </trkpt>
      <trkpt lat="43.14818" lon="2.34649">
        <ele>207.8</ele>
        <time>2023-11-05T07:25:18Z</time>
      </trkpt>
      <trkpt lat="43.14818" lon="2.34652">
        <ele>207.7</ele>
        <time>2023-11-05T07:25:22Z</time>
      </trkpt>
      <trkpt lat="43.14818" lon="2.34652">
        <ele>207.7</ele>
        <time>2023-11-05T07:25:26Z</time>
      </trkpt>
      <trkpt lat="43.14817" lon="2.34651">
        <ele>207.6</ele>
        <time>2023-11-05T07:25:37Z</time>
      </trkpt>
      <trkpt lat="43.14817" lon="2.34651">
        <ele>207.6</ele>
        <time>2023-11-05T07:25:42Z</time>
      </trkpt>
      <trkpt lat="43.14817" lon="2.34652">
        <ele>207.6</ele>
        <time>2023-11-05T07:25:53Z</time>
      </trkpt>
      <trkpt lat="43.14817" lon="2.34652">
        <ele>207.6</ele>
        <time>2023-11-05T07:25:55Z</time>
      </trkpt>
      <trkpt lat="43.14817" lon="2.34652">
        <ele>207.6</ele>
        <time>2023-11-05T07:26:01Z</time>
      </trkpt>
      <trkpt lat="43.14817" lon="2.34652">
        <ele>207.6</ele>
        <time>2023-11-05T07:26:03Z</time>
      </trkpt>
      <trkpt lat="43.14817" lon="2.34652">
        <ele>207.6</ele>
        <time>2023-11-05T07:26:07Z</time>
      </trkpt>
      <trkpt lat="43.14814" lon="2.34658">
        <ele>207.3</ele>
        <time>2023-11-05T07:26:12Z</time>
      </trkpt>
      <trkpt lat="43.14813" lon="2.3466">
        <ele>207.2</ele>
        <time>2023-11-05T07:26:13Z</time>
      </trkpt>
      <trkpt lat="43.14806" lon="2.3467">
        <ele>206.8</ele>
        <time>2023-11-05T07:26:17Z</time>
      </trkpt>
      <trkpt lat="43.14801" lon="2.34677">
        <ele>206.6</ele>
        <time>2023-11-05T07:26:20Z</time>
      </trkpt>
      <trkpt lat="43.14798" lon="2.34681">
        <ele>206.5</ele>
        <time>2023-11-05T07:26:22Z</time>
      </trkpt>
      <trkpt lat="43.14795" lon="2.34685">
        <ele>206.4</ele>
        <time>2023-11-05T07:26:24Z</time>
      </trkpt>
      <trkpt lat="43.14792" lon="2.34689">
        <ele>206.4</ele>
        <time>2023-11-05T07:26:26Z</time>
      </trkpt>
      <trkpt lat="43.14788" lon="2.34696">
        <ele>206.3</ele>
        <time>2023-11-05T07:26:29Z</time>
      </trkpt>
      <trkpt lat="43.14782" lon="2.34703">
        <ele>206.3</ele>
        <time>2023-11-05T07:26:32Z</time>
      </trkpt>
      <trkpt lat="43.14773" lon="2.34713">
        <ele>206.3</ele>
        <time>2023-11-05T07:26:36Z</time>
      </trkpt>
      <trkpt lat="43.14765" lon="2.34728">
        <ele>206.3</ele>
        <time>2023-11-05T07:26:42Z</time>
      </trkpt>
      <trkpt lat="43.1476" lon="2.34742">
        <ele>206.3</ele>
        <time>2023-11-05T07:26:47Z</time>
      </trkpt>
      <trkpt lat="43.14759" lon="2.34745">
        <ele>206.3</ele>
        <time>2023-11-05T07:26:48Z</time>
      </trkpt>
      <trkpt lat="43.14745" lon="2.34762">
        <ele>206.2</ele>
        <time>2023-11-05T07:26:55Z</time>
      </trkpt>
      <trkpt lat="43.1474" lon="2.34768">
        <ele>206.2</ele>
        <time>2023-11-05T07:26:58Z</time>
      </trkpt>
      <trkpt lat="43.14733" lon="2.34776">
        <ele>206.2</ele>
        <time>2023-11-05T07:27:02Z</time>
      </trkpt>
      <trkpt lat="43.14722" lon="2.34788">
        <ele>206.2</ele>
        <time>2023-11-05T07:27:08Z</time>
      </trkpt>
      <trkpt lat="43.14708" lon="2.34804">
        <ele>206.1</ele>
        <time>2023-11-05T07:27:17Z</time>
      </trkpt>
      <trkpt lat="43.147" lon="2.34814">
        <ele>206.1</ele>
        <time>2023-11-05T07:27:22Z</time>
      </trkpt>
      <trkpt lat="43.14683" lon="2.34829">
        <ele>206.3</ele>
        <time>2023-11-05T07:27:30Z</time>
      </trkpt>
      <trkpt lat="43.14678" lon="2.34835">
        <ele>206.4</ele>
        <time>2023-11-05T07:27:33Z</time>
      </trkpt>
      <trkpt lat="43.14669" lon="2.34845">
        <ele>206.7</ele>
        <time>2023-11-05T07:27:39Z</time>
      </trkpt>
      <trkpt lat="43.14664" lon="2.34852">
        <ele>206.7</ele>
        <time>2023-11-05T07:27:42Z</time>
      </trkpt>
      <trkpt lat="43.14654" lon="2.34868">
        <ele>206.9</ele>
        <time>2023-11-05T07:27:50Z</time>
      </trkpt>
      <trkpt lat="43.14653" lon="2.3487">
        <ele>207</ele>
        <time>2023-11-05T07:27:53Z</time>
      </trkpt>
      <trkpt lat="43.14653" lon="2.34872">
        <ele>207</ele>
        <time>2023-11-05T07:27:54Z</time>
      </trkpt>
      <trkpt lat="43.14651" lon="2.34877">
        <ele>207.1</ele>
        <time>2023-11-05T07:27:59Z</time>
      </trkpt>
      <trkpt lat="43.14651" lon="2.34882">
        <ele>207.2</ele>
        <time>2023-11-05T07:28:03Z</time>
      </trkpt>
      <trkpt lat="43.14651" lon="2.34883">
        <ele>207.3</ele>
        <time>2023-11-05T07:28:04Z</time>
      </trkpt>
      <trkpt lat="43.1465" lon="2.34884">
        <ele>207.3</ele>
        <time>2023-11-05T07:28:08Z</time>
      </trkpt>
      <trkpt lat="43.1465" lon="2.34885">
        <ele>207.3</ele>
        <time>2023-11-05T07:28:15Z</time>
      </trkpt>
      <trkpt lat="43.14648" lon="2.34886">
        <ele>207.4</ele>
        <time>2023-11-05T07:28:17Z</time>
      </trkpt>
      <trkpt lat="43.14647" lon="2.34887">
        <ele>207</ele>
        <time>2023-11-05T07:28:18Z</time>
      </trkpt>
      <trkpt lat="43.14645" lon="2.34888">
        <ele>206.3</ele>
        <time>2023-11-05T07:28:20Z</time>
      </trkpt>
      <trkpt lat="43.14643" lon="2.34889">
        <ele>205.8</ele>
        <time>2023-11-05T07:28:21Z</time>
      </trkpt>
      <trkpt lat="43.14641" lon="2.34889">
        <ele>205.2</ele>
        <time>2023-11-05T07:28:22Z</time>
      </trkpt>
      <trkpt lat="43.14634" lon="2.34893">
        <ele>203.1</ele>
        <time>2023-11-05T07:28:26Z</time>
      </trkpt>
      <trkpt lat="43.14632" lon="2.34894">
        <ele>202.5</ele>
        <time>2023-11-05T07:28:27Z</time>
      </trkpt>
      <trkpt lat="43.14626" lon="2.34898">
        <ele>200.7</ele>
        <time>2023-11-05T07:28:31Z</time>
      </trkpt>
      <trkpt lat="43.14623" lon="2.34901">
        <ele>201.1</ele>
        <time>2023-11-05T07:28:33Z</time>
      </trkpt>
      <trkpt lat="43.14619" lon="2.34905">
        <ele>201.5</ele>
        <time>2023-11-05T07:28:36Z</time>
      </trkpt>
      <trkpt lat="43.14613" lon="2.34914">
        <ele>202.4</ele>
        <time>2023-11-05T07:28:41Z</time>
      </trkpt>
      <trkpt lat="43.1461" lon="2.34917">
        <ele>202.7</ele>
        <time>2023-11-05T07:28:43Z</time>
      </trkpt>
      <trkpt lat="43.14608" lon="2.34919">
        <ele>202.9</ele>
        <time>2023-11-05T07:28:44Z</time>
      </trkpt>
      <trkpt lat="43.14595" lon="2.34932">
        <ele>204.1</ele>
        <time>2023-11-05T07:28:52Z</time>
      </trkpt>
      <trkpt lat="43.14581" lon="2.34941">
        <ele>205</ele>
        <time>2023-11-05T07:29:00Z</time>
      </trkpt>
      <trkpt lat="43.14573" lon="2.34954">
        <ele>205.9</ele>
        <time>2023-11-05T07:29:07Z</time>
      </trkpt>
      <trkpt lat="43.14568" lon="2.34966">
        <ele>206.5</ele>
        <time>2023-11-05T07:29:11Z</time>
      </trkpt>
      <trkpt lat="43.14564" lon="2.34973">
        <ele>207</ele>
        <time>2023-11-05T07:29:14Z</time>
      </trkpt>
      <trkpt lat="43.1456" lon="2.34979">
        <ele>207.3</ele>
        <time>2023-11-05T07:29:17Z</time>
      </trkpt>
      <trkpt lat="43.14557" lon="2.34984">
        <ele>207.6</ele>
        <time>2023-11-05T07:29:21Z</time>
      </trkpt>
      <trkpt lat="43.14555" lon="2.34988">
        <ele>207.8</ele>
        <time>2023-11-05T07:29:26Z</time>
      </trkpt>
      <trkpt lat="43.14555" lon="2.34989">
        <ele>207.9</ele>
        <time>2023-11-05T07:29:27Z</time>
      </trkpt>
      <trkpt lat="43.14553" lon="2.35">
        <ele>208.3</ele>
        <time>2023-11-05T07:29:33Z</time>
      </trkpt>
      <trkpt lat="43.14552" lon="2.35008">
        <ele>208.6</ele>
        <time>2023-11-05T07:29:38Z</time>
      </trkpt>
      <trkpt lat="43.14553" lon="2.35011">
        <ele>208.7</ele>
        <time>2023-11-05T07:29:40Z</time>
      </trkpt>
      <trkpt lat="43.14553" lon="2.35014">
        <ele>208.7</ele>
        <time>2023-11-05T07:29:42Z</time>
      </trkpt>
      <trkpt lat="43.14552" lon="2.35015">
        <ele>208.8</ele>
        <time>2023-11-05T07:29:43Z</time>
      </trkpt>
      <trkpt lat="43.14551" lon="2.35019">
        <ele>208.8</ele>
        <time>2023-11-05T07:29:46Z</time>
      </trkpt>
      <trkpt lat="43.1455" lon="2.35025">
        <ele>209</ele>
        <time>2023-11-05T07:29:51Z</time>
      </trkpt>
      <trkpt lat="43.1455" lon="2.35026">
        <ele>209</ele>
        <time>2023-11-05T07:29:52Z</time>
      </trkpt>
      <trkpt lat="43.14551" lon="2.35028">
        <ele>209</ele>
        <time>2023-11-05T07:29:53Z</time>
      </trkpt>
      <trkpt lat="43.14551" lon="2.35034">
        <ele>209.2</ele>
        <time>2023-11-05T07:29:58Z</time>
      </trkpt>
      <trkpt lat="43.14552" lon="2.35035">
        <ele>209.2</ele>
        <time>2023-11-05T07:29:59Z</time>
      </trkpt>
      <trkpt lat="43.14552" lon="2.35037">
        <ele>209.3</ele>
        <time>2023-11-05T07:30:01Z</time>
      </trkpt>
      <trkpt lat="43.14552" lon="2.35039">
        <ele>209.3</ele>
        <time>2023-11-05T07:30:02Z</time>
      </trkpt>
      <trkpt lat="43.14553" lon="2.35041">
        <ele>209.4</ele>
        <time>2023-11-05T07:30:04Z</time>
      </trkpt>
      <trkpt lat="43.14553" lon="2.35042">
        <ele>209.4</ele>
        <time>2023-11-05T07:30:05Z</time>
      </trkpt>
      <trkpt lat="43.14554" lon="2.35044">
        <ele>209.4</ele>
        <time>2023-11-05T07:30:06Z</time>
      </trkpt>
      <trkpt lat="43.14555" lon="2.35052">
        <ele>209.6</ele>
        <time>2023-11-05T07:30:11Z</time>
      </trkpt>
      <trkpt lat="43.14556" lon="2.35057">
        <ele>209.7</ele>
        <time>2023-11-05T07:30:14Z</time>
      </trkpt>
      <trkpt lat="43.14553" lon="2.35072">
        <ele>209.9</ele>
        <time>2023-11-05T07:30:20Z</time>
      </trkpt>
      <trkpt lat="43.14551" lon="2.35077">
        <ele>210</ele>
        <time>2023-11-05T07:30:22Z</time>
      </trkpt>
      <trkpt lat="43.14546" lon="2.35092">
        <ele>210.3</ele>
        <time>2023-11-05T07:30:27Z</time>
      </trkpt>
      <trkpt lat="43.14542" lon="2.35118">
        <ele>210.8</ele>
        <time>2023-11-05T07:30:35Z</time>
      </trkpt>
      <trkpt lat="43.14537" lon="2.35144">
        <ele>211.6</ele>
        <time>2023-11-05T07:30:44Z</time>
      </trkpt>
      <trkpt lat="43.14533" lon="2.35159">
        <ele>212.2</ele>
        <time>2023-11-05T07:30:49Z</time>
      </trkpt>
      <trkpt lat="43.14531" lon="2.35169">
        <ele>212.6</ele>
        <time>2023-11-05T07:30:53Z</time>
      </trkpt>
      <trkpt lat="43.14529" lon="2.35178">
        <ele>212.9</ele>
        <time>2023-11-05T07:30:57Z</time>
      </trkpt>
      <trkpt lat="43.14524" lon="2.35191">
        <ele>213.2</ele>
        <time>2023-11-05T07:31:03Z</time>
      </trkpt>
      <trkpt lat="43.14519" lon="2.35207">
        <ele>213.6</ele>
        <time>2023-11-05T07:31:10Z</time>
      </trkpt>
      <trkpt lat="43.14517" lon="2.35213">
        <ele>213.7</ele>
        <time>2023-11-05T07:31:13Z</time>
      </trkpt>
      <trkpt lat="43.14514" lon="2.35223">
        <ele>213.8</ele>
        <time>2023-11-05T07:31:17Z</time>
      </trkpt>
      <trkpt lat="43.14511" lon="2.35232">
        <ele>213.9</ele>
        <time>2023-11-05T07:31:21Z</time>
      </trkpt>
      <trkpt lat="43.14509" lon="2.35236">
        <ele>214</ele>
        <time>2023-11-05T07:31:23Z</time>
      </trkpt>
      <trkpt lat="43.145" lon="2.35243">
        <ele>214.5</ele>
        <time>2023-11-05T07:31:29Z</time>
      </trkpt>
      <trkpt lat="43.14498" lon="2.35243">
        <ele>214.7</ele>
        <time>2023-11-05T07:31:30Z</time>
      </trkpt>
      <trkpt lat="43.14484" lon="2.35242">
        <ele>216.3</ele>
        <time>2023-11-05T07:31:37Z</time>
      </trkpt>
      <trkpt lat="43.1448" lon="2.3524">
        <ele>216.7</ele>
        <time>2023-11-05T07:31:39Z</time>
      </trkpt>
      <trkpt lat="43.14477" lon="2.35233">
        <ele>216.8</ele>
        <time>2023-11-05T07:31:43Z</time>
      </trkpt>
      <trkpt lat="43.14474" lon="2.35227">
        <ele>216.5</ele>
        <time>2023-11-05T07:31:46Z</time>
      </trkpt>
      <trkpt lat="43.14474" lon="2.35219">
        <ele>216.3</ele>
        <time>2023-11-05T07:31:50Z</time>
      </trkpt>
      <trkpt lat="43.14471" lon="2.35201">
        <ele>215.5</ele>
        <time>2023-11-05T07:31:57Z</time>
      </trkpt>
      <trkpt lat="43.14471" lon="2.35198">
        <ele>215.9</ele>
        <time>2023-11-05T07:31:58Z</time>
      </trkpt>
      <trkpt lat="43.14468" lon="2.3518">
        <ele>215.2</ele>
        <time>2023-11-05T07:32:04Z</time>
      </trkpt>
      <trkpt lat="43.14466" lon="2.35175">
        <ele>214.8</ele>
        <time>2023-11-05T07:32:06Z</time>
      </trkpt>
      <trkpt lat="43.14464" lon="2.35171">
        <ele>214.9</ele>
        <time>2023-11-05T07:32:08Z</time>
      </trkpt>
      <trkpt lat="43.14461" lon="2.3516">
        <ele>214.8</ele>
        <time>2023-11-05T07:32:16Z</time>
      </trkpt>
      <trkpt lat="43.14459" lon="2.35159">
        <ele>214.9</ele>
        <time>2023-11-05T07:32:23Z</time>
      </trkpt>
      <trkpt lat="43.14457" lon="2.35157">
        <ele>215.1</ele>
        <time>2023-11-05T07:32:27Z</time>
      </trkpt>
      <trkpt lat="43.14455" lon="2.35156">
        <ele>215.2</ele>
        <time>2023-11-05T07:32:29Z</time>
      </trkpt>
      <trkpt lat="43.14454" lon="2.35154">
        <ele>215.3</ele>
        <time>2023-11-05T07:32:31Z</time>
      </trkpt>
      <trkpt lat="43.14453" lon="2.35154">
        <ele>215.4</ele>
        <time>2023-11-05T07:32:32Z</time>
      </trkpt>
      <trkpt lat="43.14452" lon="2.35152">
        <ele>215.5</ele>
        <time>2023-11-05T07:32:35Z</time>
      </trkpt>
      <trkpt lat="43.14451" lon="2.3515">
        <ele>215.6</ele>
        <time>2023-11-05T07:32:37Z</time>
      </trkpt>
      <trkpt lat="43.14449" lon="2.35149">
        <ele>215.8</ele>
        <time>2023-11-05T07:32:39Z</time>
      </trkpt>
      <trkpt lat="43.14448" lon="2.35147">
        <ele>216</ele>
        <time>2023-11-05T07:32:41Z</time>
      </trkpt>
      <trkpt lat="43.14446" lon="2.35146">
        <ele>216.2</ele>
        <time>2023-11-05T07:32:43Z</time>
      </trkpt>
      <trkpt lat="43.14443" lon="2.35144">
        <ele>216.5</ele>
        <time>2023-11-05T07:32:46Z</time>
      </trkpt>
      <trkpt lat="43.14442" lon="2.35143">
        <ele>216.6</ele>
        <time>2023-11-05T07:32:48Z</time>
      </trkpt>
      <trkpt lat="43.1444" lon="2.35142">
        <ele>217</ele>
        <time>2023-11-05T07:32:51Z</time>
      </trkpt>
      <trkpt lat="43.14437" lon="2.35141">
        <ele>217.4</ele>
        <time>2023-11-05T07:32:53Z</time>
      </trkpt>
      <trkpt lat="43.14436" lon="2.35141">
        <ele>217.5</ele>
        <time>2023-11-05T07:32:54Z</time>
      </trkpt>
      <trkpt lat="43.14434" lon="2.35139">
        <ele>217.8</ele>
        <time>2023-11-05T07:32:57Z</time>
      </trkpt>
      <trkpt lat="43.14433" lon="2.35137">
        <ele>218.2</ele>
        <time>2023-11-05T07:33:00Z</time>
      </trkpt>
      <trkpt lat="43.14431" lon="2.35135">
        <ele>218.5</ele>
        <time>2023-11-05T07:33:02Z</time>
      </trkpt>
      <trkpt lat="43.14425" lon="2.35132">
        <ele>219.4</ele>
        <time>2023-11-05T07:33:07Z</time>
      </trkpt>
      <trkpt lat="43.14421" lon="2.3513">
        <ele>220</ele>
        <time>2023-11-05T07:33:11Z</time>
      </trkpt>
      <trkpt lat="43.1442" lon="2.35129">
        <ele>220.1</ele>
        <time>2023-11-05T07:33:12Z</time>
      </trkpt>
      <trkpt lat="43.14418" lon="2.35128">
        <ele>220.3</ele>
        <time>2023-11-05T07:33:14Z</time>
      </trkpt>
      <trkpt lat="43.14417" lon="2.35129">
        <ele>220.4</ele>
        <time>2023-11-05T07:33:15Z</time>
      </trkpt>
      <trkpt lat="43.14415" lon="2.35134">
        <ele>220.7</ele>
        <time>2023-11-05T07:33:21Z</time>
      </trkpt>
      <trkpt lat="43.14414" lon="2.35135">
        <ele>220.8</ele>
        <time>2023-11-05T07:33:22Z</time>
      </trkpt>
      <trkpt lat="43.14413" lon="2.35139">
        <ele>220.9</ele>
        <time>2023-11-05T07:33:25Z</time>
      </trkpt>
      <trkpt lat="43.1441" lon="2.35142">
        <ele>221.1</ele>
        <time>2023-11-05T07:33:28Z</time>
      </trkpt>
      <trkpt lat="43.1441" lon="2.35143">
        <ele>221.1</ele>
        <time>2023-11-05T07:33:29Z</time>
      </trkpt>
      <trkpt lat="43.14409" lon="2.35144">
        <ele>221.1</ele>
        <time>2023-11-05T07:33:31Z</time>
      </trkpt>
      <trkpt lat="43.14408" lon="2.35144">
        <ele>221.1</ele>
        <time>2023-11-05T07:33:32Z</time>
      </trkpt>
      <trkpt lat="43.14407" lon="2.35144">
        <ele>221.2</ele>
        <time>2023-11-05T07:33:33Z</time>
      </trkpt>
      <trkpt lat="43.14406" lon="2.35144">
        <ele>221.2</ele>
        <time>2023-11-05T07:33:34Z</time>
      </trkpt>
      <trkpt lat="43.14402" lon="2.35145">
        <ele>221.2</ele>
        <time>2023-11-05T07:33:38Z</time>
      </trkpt>
      <trkpt lat="43.144" lon="2.35144">
        <ele>221.2</ele>
        <time>2023-11-05T07:33:39Z</time>
      </trkpt>
      <trkpt lat="43.14399" lon="2.35143">
        <ele>221.2</ele>
        <time>2023-11-05T07:33:40Z</time>
      </trkpt>
      <trkpt lat="43.14398" lon="2.35143">
        <ele>221.2</ele>
        <time>2023-11-05T07:33:41Z</time>
      </trkpt>
      <trkpt lat="43.14396" lon="2.35141">
        <ele>221.2</ele>
        <time>2023-11-05T07:33:43Z</time>
      </trkpt>
      <trkpt lat="43.14393" lon="2.35139">
        <ele>221.3</ele>
        <time>2023-11-05T07:33:46Z</time>
      </trkpt>
      <trkpt lat="43.14392" lon="2.3514">
        <ele>221.3</ele>
        <time>2023-11-05T07:33:48Z</time>
      </trkpt>
      <trkpt lat="43.14391" lon="2.35138">
        <ele>221.3</ele>
        <time>2023-11-05T07:33:51Z</time>
      </trkpt>
      <trkpt lat="43.1439" lon="2.35138">
        <ele>221.3</ele>
        <time>2023-11-05T07:33:52Z</time>
      </trkpt>
      <trkpt lat="43.1439" lon="2.35138">
        <ele>221.3</ele>
        <time>2023-11-05T07:33:54Z</time>
      </trkpt>
      <trkpt lat="43.14388" lon="2.35138">
        <ele>221.3</ele>
        <time>2023-11-05T07:33:56Z</time>
      </trkpt>
      <trkpt lat="43.14384" lon="2.35138">
        <ele>221.3</ele>
        <time>2023-11-05T07:33:59Z</time>
      </trkpt>
      <trkpt lat="43.14383" lon="2.35138">
        <ele>221.4</ele>
        <time>2023-11-05T07:34:00Z</time>
      </trkpt>
      <trkpt lat="43.14378" lon="2.35137">
        <ele>221.5</ele>
        <time>2023-11-05T07:34:07Z</time>
      </trkpt>
      <trkpt lat="43.14376" lon="2.35136">
        <ele>221.6</ele>
        <time>2023-11-05T07:34:08Z</time>
      </trkpt>
      <trkpt lat="43.14372" lon="2.35133">
        <ele>221.7</ele>
        <time>2023-11-05T07:34:11Z</time>
      </trkpt>
      <trkpt lat="43.14368" lon="2.35133">
        <ele>221.9</ele>
        <time>2023-11-05T07:34:14Z</time>
      </trkpt>
      <trkpt lat="43.14366" lon="2.35132">
        <ele>222</ele>
        <time>2023-11-05T07:34:16Z</time>
      </trkpt>
      <trkpt lat="43.14365" lon="2.35132">
        <ele>222.1</ele>
        <time>2023-11-05T07:34:17Z</time>
      </trkpt>
      <trkpt lat="43.1436" lon="2.3513">
        <ele>222.5</ele>
        <time>2023-11-05T07:34:21Z</time>
      </trkpt>
      <trkpt lat="43.14358" lon="2.3513">
        <ele>222.6</ele>
        <time>2023-11-05T07:34:22Z</time>
      </trkpt>
      <trkpt lat="43.14358" lon="2.3513">
        <ele>222.7</ele>
        <time>2023-11-05T07:34:23Z</time>
      </trkpt>
      <trkpt lat="43.14356" lon="2.3513">
        <ele>222.9</ele>
        <time>2023-11-05T07:34:25Z</time>
      </trkpt>
      <trkpt lat="43.14355" lon="2.35131">
        <ele>223</ele>
        <time>2023-11-05T07:34:27Z</time>
      </trkpt>
      <trkpt lat="43.14355" lon="2.35135">
        <ele>223.5</ele>
        <time>2023-11-05T07:34:30Z</time>
      </trkpt>
      <trkpt lat="43.14355" lon="2.35138">
        <ele>223.8</ele>
        <time>2023-11-05T07:34:33Z</time>
      </trkpt>
      <trkpt lat="43.14354" lon="2.35141">
        <ele>224.2</ele>
        <time>2023-11-05T07:34:35Z</time>
      </trkpt>
      <trkpt lat="43.14353" lon="2.35144">
        <ele>224.7</ele>
        <time>2023-11-05T07:34:37Z</time>
      </trkpt>
      <trkpt lat="43.14352" lon="2.35145">
        <ele>224.9</ele>
        <time>2023-11-05T07:34:38Z</time>
      </trkpt>
      <trkpt lat="43.14351" lon="2.35145">
        <ele>225.1</ele>
        <time>2023-11-05T07:34:39Z</time>
      </trkpt>
      <trkpt lat="43.1435" lon="2.35146">
        <ele>225.4</ele>
        <time>2023-11-05T07:34:41Z</time>
      </trkpt>
      <trkpt lat="43.14345" lon="2.35145">
        <ele>226.4</ele>
        <time>2023-11-05T07:34:45Z</time>
      </trkpt>
      <trkpt lat="43.14341" lon="2.35146">
        <ele>227.2</ele>
        <time>2023-11-05T07:34:47Z</time>
      </trkpt>
      <trkpt lat="43.14337" lon="2.35147">
        <ele>227.9</ele>
        <time>2023-11-05T07:34:49Z</time>
      </trkpt>
      <trkpt lat="43.14334" lon="2.35147">
        <ele>228.3</ele>
        <time>2023-11-05T07:34:51Z</time>
      </trkpt>
      <trkpt lat="43.14332" lon="2.35147">
        <ele>228.6</ele>
        <time>2023-11-05T07:34:53Z</time>
      </trkpt>
      <trkpt lat="43.14329" lon="2.35145">
        <ele>229</ele>
        <time>2023-11-05T07:34:55Z</time>
      </trkpt>
      <trkpt lat="43.14318" lon="2.35143">
        <ele>230.3</ele>
        <time>2023-11-05T07:35:01Z</time>
      </trkpt>
      <trkpt lat="43.14316" lon="2.35144">
        <ele>230.5</ele>
        <time>2023-11-05T07:35:02Z</time>
      </trkpt>
      <trkpt lat="43.14316" lon="2.35143">
        <ele>230.6</ele>
        <time>2023-11-05T07:35:04Z</time>
      </trkpt>
      <trkpt lat="43.14315" lon="2.35146">
        <ele>230.8</ele>
        <time>2023-11-05T07:35:09Z</time>
      </trkpt>
      <trkpt lat="43.14315" lon="2.35146">
        <ele>230.9</ele>
        <time>2023-11-05T07:35:10Z</time>
      </trkpt>
      <trkpt lat="43.14313" lon="2.35147">
        <ele>231.1</ele>
        <time>2023-11-05T07:35:14Z</time>
      </trkpt>
      <trkpt lat="43.14307" lon="2.35148">
        <ele>231.9</ele>
        <time>2023-11-05T07:35:17Z</time>
      </trkpt>
      <trkpt lat="43.14297" lon="2.35152">
        <ele>232.9</ele>
        <time>2023-11-05T07:35:22Z</time>
      </trkpt>
      <trkpt lat="43.14297" lon="2.35153">
        <ele>233</ele>
        <time>2023-11-05T07:35:23Z</time>
      </trkpt>
      <trkpt lat="43.14296" lon="2.35154">
        <ele>233.1</ele>
        <time>2023-11-05T07:35:24Z</time>
      </trkpt>
      <trkpt lat="43.14295" lon="2.35156">
        <ele>233.2</ele>
        <time>2023-11-05T07:35:26Z</time>
      </trkpt>
      <trkpt lat="43.14294" lon="2.35158">
        <ele>233.4</ele>
        <time>2023-11-05T07:35:28Z</time>
      </trkpt>
      <trkpt lat="43.14294" lon="2.35159">
        <ele>233.4</ele>
        <time>2023-11-05T07:35:29Z</time>
      </trkpt>
      <trkpt lat="43.14293" lon="2.3516">
        <ele>233.5</ele>
        <time>2023-11-05T07:35:30Z</time>
      </trkpt>
      <trkpt lat="43.14293" lon="2.35162">
        <ele>233.6</ele>
        <time>2023-11-05T07:35:31Z</time>
      </trkpt>
      <trkpt lat="43.14291" lon="2.35165">
        <ele>233.8</ele>
        <time>2023-11-05T07:35:34Z</time>
      </trkpt>
      <trkpt lat="43.14288" lon="2.35169">
        <ele>234</ele>
        <time>2023-11-05T07:35:38Z</time>
      </trkpt>
      <trkpt lat="43.14285" lon="2.35177">
        <ele>234.3</ele>
        <time>2023-11-05T07:35:43Z</time>
      </trkpt>
      <trkpt lat="43.14283" lon="2.35186">
        <ele>234.5</ele>
        <time>2023-11-05T07:35:47Z</time>
      </trkpt>
      <trkpt lat="43.14283" lon="2.3519">
        <ele>234.7</ele>
        <time>2023-11-05T07:35:49Z</time>
      </trkpt>
      <trkpt lat="43.14282" lon="2.35196">
        <ele>234.9</ele>
        <time>2023-11-05T07:35:52Z</time>
      </trkpt>
      <trkpt lat="43.14281" lon="2.352">
        <ele>235.2</ele>
        <time>2023-11-05T07:35:54Z</time>
      </trkpt>
      <trkpt lat="43.14281" lon="2.35203">
        <ele>235.3</ele>
        <time>2023-11-05T07:35:55Z</time>
      </trkpt>
      <trkpt lat="43.1428" lon="2.35204">
        <ele>235.4</ele>
        <time>2023-11-05T07:35:56Z</time>
      </trkpt>
      <trkpt lat="43.1428" lon="2.35205">
        <ele>235.4</ele>
        <time>2023-11-05T07:35:57Z</time>
      </trkpt>
      <trkpt lat="43.14279" lon="2.35206">
        <ele>235.5</ele>
        <time>2023-11-05T07:35:58Z</time>
      </trkpt>
      <trkpt lat="43.14279" lon="2.35207">
        <ele>235.6</ele>
        <time>2023-11-05T07:36:00Z</time>
      </trkpt>
      <trkpt lat="43.14279" lon="2.35209">
        <ele>235.7</ele>
        <time>2023-11-05T07:36:01Z</time>
      </trkpt>
      <trkpt lat="43.14279" lon="2.35213">
        <ele>235.9</ele>
        <time>2023-11-05T07:36:04Z</time>
      </trkpt>
      <trkpt lat="43.14279" lon="2.35216">
        <ele>236.1</ele>
        <time>2023-11-05T07:36:07Z</time>
      </trkpt>
      <trkpt lat="43.14276" lon="2.35219">
        <ele>236.3</ele>
        <time>2023-11-05T07:36:11Z</time>
      </trkpt>
      <trkpt lat="43.14271" lon="2.3522">
        <ele>236.5</ele>
        <time>2023-11-05T07:36:15Z</time>
      </trkpt>
      <trkpt lat="43.1427" lon="2.35221">
        <ele>236.5</ele>
        <time>2023-11-05T07:36:17Z</time>
      </trkpt>
      <trkpt lat="43.14269" lon="2.35221">
        <ele>236.5</ele>
        <time>2023-11-05T07:36:18Z</time>
      </trkpt>
      <trkpt lat="43.14267" lon="2.35222">
        <ele>236.5</ele>
        <time>2023-11-05T07:36:19Z</time>
      </trkpt>
      <trkpt lat="43.14262" lon="2.35223">
        <ele>236.5</ele>
        <time>2023-11-05T07:36:22Z</time>
      </trkpt>
      <trkpt lat="43.1426" lon="2.35224">
        <ele>236.5</ele>
        <time>2023-11-05T07:36:23Z</time>
      </trkpt>
      <trkpt lat="43.14257" lon="2.35223">
        <ele>236.4</ele>
        <time>2023-11-05T07:36:25Z</time>
      </trkpt>
      <trkpt lat="43.14256" lon="2.35221">
        <ele>236.4</ele>
        <time>2023-11-05T07:36:27Z</time>
      </trkpt>
      <trkpt lat="43.14248" lon="2.3522">
        <ele>236.1</ele>
        <time>2023-11-05T07:36:32Z</time>
      </trkpt>
      <trkpt lat="43.14246" lon="2.35221">
        <ele>236</ele>
        <time>2023-11-05T07:36:33Z</time>
      </trkpt>
      <trkpt lat="43.14242" lon="2.3522">
        <ele>235.8</ele>
        <time>2023-11-05T07:36:35Z</time>
      </trkpt>
      <trkpt lat="43.1424" lon="2.35219">
        <ele>235.7</ele>
        <time>2023-11-05T07:36:36Z</time>
      </trkpt>
      <trkpt lat="43.14239" lon="2.35217">
        <ele>235.6</ele>
        <time>2023-11-05T07:36:37Z</time>
      </trkpt>
      <trkpt lat="43.14233" lon="2.35212">
        <ele>235.1</ele>
        <time>2023-11-05T07:36:41Z</time>
      </trkpt>
      <trkpt lat="43.14233" lon="2.35209">
        <ele>235.1</ele>
        <time>2023-11-05T07:36:42Z</time>
      </trkpt>
      <trkpt lat="43.14232" lon="2.35206">
        <ele>234.9</ele>
        <time>2023-11-05T07:36:44Z</time>
      </trkpt>
      <trkpt lat="43.14231" lon="2.35202">
        <ele>234.8</ele>
        <time>2023-11-05T07:36:46Z</time>
      </trkpt>
      <trkpt lat="43.14227" lon="2.35202">
        <ele>234.6</ele>
        <time>2023-11-05T07:36:50Z</time>
      </trkpt>
      <trkpt lat="43.14226" lon="2.35202">
        <ele>234.5</ele>
        <time>2023-11-05T07:36:51Z</time>
      </trkpt>
      <trkpt lat="43.14224" lon="2.35201">
        <ele>234.5</ele>
        <time>2023-11-05T07:36:52Z</time>
      </trkpt>
      <trkpt lat="43.14223" lon="2.35201">
        <ele>234.5</ele>
        <time>2023-11-05T07:36:53Z</time>
      </trkpt>
      <trkpt lat="43.14223" lon="2.35199">
        <ele>234.4</ele>
        <time>2023-11-05T07:36:54Z</time>
      </trkpt>
      <trkpt lat="43.14222" lon="2.35196">
        <ele>234.4</ele>
        <time>2023-11-05T07:36:55Z</time>
      </trkpt>
      <trkpt lat="43.14222" lon="2.35193">
        <ele>234.4</ele>
        <time>2023-11-05T07:36:56Z</time>
      </trkpt>
      <trkpt lat="43.14221" lon="2.35192">
        <ele>234.4</ele>
        <time>2023-11-05T07:36:57Z</time>
      </trkpt>
      <trkpt lat="43.14219" lon="2.3519">
        <ele>234.4</ele>
        <time>2023-11-05T07:37:01Z</time>
      </trkpt>
      <trkpt lat="43.14218" lon="2.3519">
        <ele>234.4</ele>
        <time>2023-11-05T07:37:02Z</time>
      </trkpt>
      <trkpt lat="43.14218" lon="2.3519">
        <ele>234.4</ele>
        <time>2023-11-05T07:37:03Z</time>
      </trkpt>
      <trkpt lat="43.14217" lon="2.3519">
        <ele>234.4</ele>
        <time>2023-11-05T07:37:04Z</time>
      </trkpt>
      <trkpt lat="43.14216" lon="2.3519">
        <ele>234.4</ele>
        <time>2023-11-05T07:37:06Z</time>
      </trkpt>
      <trkpt lat="43.14212" lon="2.35192">
        <ele>234.6</ele>
        <time>2023-11-05T07:37:08Z</time>
      </trkpt>
      <trkpt lat="43.14209" lon="2.35193">
        <ele>234.7</ele>
        <time>2023-11-05T07:37:10Z</time>
      </trkpt>
      <trkpt lat="43.14209" lon="2.35195">
        <ele>234.8</ele>
        <time>2023-11-05T07:37:12Z</time>
      </trkpt>
      <trkpt lat="43.14208" lon="2.35197">
        <ele>234.9</ele>
        <time>2023-11-05T07:37:14Z</time>
      </trkpt>
      <trkpt lat="43.1421" lon="2.35199">
        <ele>235</ele>
        <time>2023-11-05T07:37:16Z</time>
      </trkpt>
      <trkpt lat="43.14208" lon="2.35201">
        <ele>235.2</ele>
        <time>2023-11-05T07:37:18Z</time>
      </trkpt>
      <trkpt lat="43.14207" lon="2.352">
        <ele>235.2</ele>
        <time>2023-11-05T07:37:20Z</time>
      </trkpt>
      <trkpt lat="43.14207" lon="2.352">
        <ele>235.2</ele>
        <time>2023-11-05T07:37:22Z</time>
      </trkpt>
      <trkpt lat="43.14203" lon="2.35203">
        <ele>235.6</ele>
        <time>2023-11-05T07:37:24Z</time>
      </trkpt>
      <trkpt lat="43.14201" lon="2.35205">
        <ele>235.8</ele>
        <time>2023-11-05T07:37:25Z</time>
      </trkpt>
      <trkpt lat="43.14199" lon="2.35206">
        <ele>236</ele>
        <time>2023-11-05T07:37:26Z</time>
      </trkpt>
      <trkpt lat="43.142" lon="2.35211">
        <ele>236.4</ele>
        <time>2023-11-05T07:37:29Z</time>
      </trkpt>
      <trkpt lat="43.14199" lon="2.35221">
        <ele>237.3</ele>
        <time>2023-11-05T07:37:36Z</time>
      </trkpt>
      <trkpt lat="43.14199" lon="2.35223">
        <ele>237.5</ele>
        <time>2023-11-05T07:37:37Z</time>
      </trkpt>
      <trkpt lat="43.14196" lon="2.35227">
        <ele>238.1</ele>
        <time>2023-11-05T07:37:40Z</time>
      </trkpt>
      <trkpt lat="43.14195" lon="2.35227">
        <ele>238.2</ele>
        <time>2023-11-05T07:37:41Z</time>
      </trkpt>
      <trkpt lat="43.14193" lon="2.35227">
        <ele>238.4</ele>
        <time>2023-11-05T07:37:42Z</time>
      </trkpt>
      <trkpt lat="43.14192" lon="2.35227">
        <ele>238.6</ele>
        <time>2023-11-05T07:37:43Z</time>
      </trkpt>
      <trkpt lat="43.14188" lon="2.35227">
        <ele>239.1</ele>
        <time>2023-11-05T07:37:45Z</time>
      </trkpt>
      <trkpt lat="43.14184" lon="2.35227">
        <ele>239.6</ele>
        <time>2023-11-05T07:37:47Z</time>
      </trkpt>
      <trkpt lat="43.14182" lon="2.35228">
        <ele>240</ele>
        <time>2023-11-05T07:37:49Z</time>
      </trkpt>
      <trkpt lat="43.14179" lon="2.3523">
        <ele>240.5</ele>
        <time>2023-11-05T07:37:52Z</time>
      </trkpt>
      <trkpt lat="43.14174" lon="2.3523">
        <ele>241.2</ele>
        <time>2023-11-05T07:37:56Z</time>
      </trkpt>
      <trkpt lat="43.14172" lon="2.35231">
        <ele>241.6</ele>
        <time>2023-11-05T07:37:58Z</time>
      </trkpt>
      <trkpt lat="43.1417" lon="2.35232">
        <ele>241.8</ele>
        <time>2023-11-05T07:38:00Z</time>
      </trkpt>
      <trkpt lat="43.14169" lon="2.35233">
        <ele>242</ele>
        <time>2023-11-05T07:38:01Z</time>
      </trkpt>
      <trkpt lat="43.14169" lon="2.35238">
        <ele>242.4</ele>
        <time>2023-11-05T07:38:04Z</time>
      </trkpt>
      <trkpt lat="43.14169" lon="2.35239">
        <ele>242.5</ele>
        <time>2023-11-05T07:38:05Z</time>
      </trkpt>
      <trkpt lat="43.14169" lon="2.3524">
        <ele>242.6</ele>
        <time>2023-11-05T07:38:06Z</time>
      </trkpt>
      <trkpt lat="43.14168" lon="2.35244">
        <ele>243</ele>
        <time>2023-11-05T07:38:09Z</time>
      </trkpt>
      <trkpt lat="43.14168" lon="2.35246">
        <ele>243.2</ele>
        <time>2023-11-05T07:38:11Z</time>
      </trkpt>
      <trkpt lat="43.14169" lon="2.35253">
        <ele>243.8</ele>
        <time>2023-11-05T07:38:16Z</time>
      </trkpt>
      <trkpt lat="43.14171" lon="2.35258">
        <ele>244.3</ele>
        <time>2023-11-05T07:38:18Z</time>
      </trkpt>
      <trkpt lat="43.14171" lon="2.3526">
        <ele>244.5</ele>
        <time>2023-11-05T07:38:19Z</time>
      </trkpt>
      <trkpt lat="43.14173" lon="2.35265">
        <ele>245</ele>
        <time>2023-11-05T07:38:22Z</time>
      </trkpt>
      <trkpt lat="43.14173" lon="2.35267">
        <ele>245.1</ele>
        <time>2023-11-05T07:38:23Z</time>
      </trkpt>
      <trkpt lat="43.14174" lon="2.3527">
        <ele>245.4</ele>
        <time>2023-11-05T07:38:25Z</time>
      </trkpt>
      <trkpt lat="43.14175" lon="2.35272">
        <ele>245.7</ele>
        <time>2023-11-05T07:38:27Z</time>
      </trkpt>
      <trkpt lat="43.14176" lon="2.35273">
        <ele>245.9</ele>
        <time>2023-11-05T07:38:28Z</time>
      </trkpt>
      <trkpt lat="43.14177" lon="2.35278">
        <ele>246.5</ele>
        <time>2023-11-05T07:38:31Z</time>
      </trkpt>
      <trkpt lat="43.14176" lon="2.3528">
        <ele>246.9</ele>
        <time>2023-11-05T07:38:33Z</time>
      </trkpt>
      <trkpt lat="43.14175" lon="2.35281">
        <ele>247.1</ele>
        <time>2023-11-05T07:38:34Z</time>
      </trkpt>
      <trkpt lat="43.14174" lon="2.35283">
        <ele>247.4</ele>
        <time>2023-11-05T07:38:36Z</time>
      </trkpt>
      <trkpt lat="43.14173" lon="2.35285">
        <ele>247.7</ele>
        <time>2023-11-05T07:38:38Z</time>
      </trkpt>
      <trkpt lat="43.14173" lon="2.35286">
        <ele>247.9</ele>
        <time>2023-11-05T07:38:39Z</time>
      </trkpt>
      <trkpt lat="43.14173" lon="2.35287">
        <ele>248</ele>
        <time>2023-11-05T07:38:40Z</time>
      </trkpt>
      <trkpt lat="43.14172" lon="2.35288">
        <ele>248.2</ele>
        <time>2023-11-05T07:38:41Z</time>
      </trkpt>
      <trkpt lat="43.14169" lon="2.35291">
        <ele>248.8</ele>
        <time>2023-11-05T07:38:44Z</time>
      </trkpt>
      <trkpt lat="43.14168" lon="2.35292">
        <ele>249.1</ele>
        <time>2023-11-05T07:38:45Z</time>
      </trkpt>
      <trkpt lat="43.14167" lon="2.35293">
        <ele>249.4</ele>
        <time>2023-11-05T07:38:47Z</time>
      </trkpt>
      <trkpt lat="43.14166" lon="2.35294">
        <ele>249.6</ele>
        <time>2023-11-05T07:38:48Z</time>
      </trkpt>
      <trkpt lat="43.14165" lon="2.35295">
        <ele>249.8</ele>
        <time>2023-11-05T07:38:49Z</time>
      </trkpt>
      <trkpt lat="43.14161" lon="2.35298">
        <ele>250.7</ele>
        <time>2023-11-05T07:38:53Z</time>
      </trkpt>
      <trkpt lat="43.1416" lon="2.353">
        <ele>251</ele>
        <time>2023-11-05T07:38:54Z</time>
      </trkpt>
      <trkpt lat="43.14157" lon="2.35304">
        <ele>251.7</ele>
        <time>2023-11-05T07:38:57Z</time>
      </trkpt>
      <trkpt lat="43.14157" lon="2.3531">
        <ele>252.5</ele>
        <time>2023-11-05T07:39:02Z</time>
      </trkpt>
      <trkpt lat="43.14157" lon="2.35311">
        <ele>252.6</ele>
        <time>2023-11-05T07:39:03Z</time>
      </trkpt>
      <trkpt lat="43.14156" lon="2.35312">
        <ele>252.8</ele>
        <time>2023-11-05T07:39:05Z</time>
      </trkpt>
      <trkpt lat="43.14156" lon="2.35313">
        <ele>253</ele>
        <time>2023-11-05T07:39:06Z</time>
      </trkpt>
      <trkpt lat="43.14153" lon="2.35315">
        <ele>253.6</ele>
        <time>2023-11-05T07:39:07Z</time>
      </trkpt>
      <trkpt lat="43.14153" lon="2.35315">
        <ele>253.7</ele>
        <time>2023-11-05T07:39:09Z</time>
      </trkpt>
      <trkpt lat="43.14154" lon="2.35317">
        <ele>254.1</ele>
        <time>2023-11-05T07:39:11Z</time>
      </trkpt>
      <trkpt lat="43.14154" lon="2.3532">
        <ele>254.5</ele>
        <time>2023-11-05T07:39:12Z</time>
      </trkpt>
      <trkpt lat="43.14153" lon="2.35321">
        <ele>254.8</ele>
        <time>2023-11-05T07:39:13Z</time>
      </trkpt>
      <trkpt lat="43.14151" lon="2.35323">
        <ele>255.3</ele>
        <time>2023-11-05T07:39:16Z</time>
      </trkpt>
      <trkpt lat="43.1415" lon="2.35324">
        <ele>255.6</ele>
        <time>2023-11-05T07:39:17Z</time>
      </trkpt>
      <trkpt lat="43.14149" lon="2.35327">
        <ele>256.1</ele>
        <time>2023-11-05T07:39:21Z</time>
      </trkpt>
      <trkpt lat="43.1415" lon="2.35328">
        <ele>256.3</ele>
        <time>2023-11-05T07:39:22Z</time>
      </trkpt>
      <trkpt lat="43.1415" lon="2.35333">
        <ele>257.2</ele>
        <time>2023-11-05T07:39:28Z</time>
      </trkpt>
      <trkpt lat="43.1415" lon="2.35335">
        <ele>257.5</ele>
        <time>2023-11-05T07:39:29Z</time>
      </trkpt>
      <trkpt lat="43.1415" lon="2.35337">
        <ele>257.8</ele>
        <time>2023-11-05T07:39:31Z</time>
      </trkpt>
      <trkpt lat="43.14149" lon="2.35342">
        <ele>258.6</ele>
        <time>2023-11-05T07:39:35Z</time>
      </trkpt>
      <trkpt lat="43.14147" lon="2.35345">
        <ele>259.3</ele>
        <time>2023-11-05T07:39:38Z</time>
      </trkpt>
      <trkpt lat="43.14146" lon="2.35347">
        <ele>259.6</ele>
        <time>2023-11-05T07:39:40Z</time>
      </trkpt>
      <trkpt lat="43.14146" lon="2.35348">
        <ele>259.8</ele>
        <time>2023-11-05T07:39:41Z</time>
      </trkpt>
      <trkpt lat="43.14145" lon="2.35354">
        <ele>260.8</ele>
        <time>2023-11-05T07:39:45Z</time>
      </trkpt>
      <trkpt lat="43.14144" lon="2.35357">
        <ele>261.4</ele>
        <time>2023-11-05T07:39:48Z</time>
      </trkpt>
      <trkpt lat="43.14145" lon="2.35363">
        <ele>262.6</ele>
        <time>2023-11-05T07:39:53Z</time>
      </trkpt>
      <trkpt lat="43.14145" lon="2.35368">
        <ele>263.7</ele>
        <time>2023-11-05T07:39:57Z</time>
      </trkpt>
      <trkpt lat="43.14146" lon="2.35369">
        <ele>264</ele>
        <time>2023-11-05T07:39:58Z</time>
      </trkpt>
      <trkpt lat="43.14145" lon="2.35372">
        <ele>264.6</ele>
        <time>2023-11-05T07:40:01Z</time>
      </trkpt>
      <trkpt lat="43.14145" lon="2.35373">
        <ele>264.9</ele>
        <time>2023-11-05T07:40:02Z</time>
      </trkpt>
      <trkpt lat="43.14144" lon="2.35374">
        <ele>265</ele>
        <time>2023-11-05T07:40:03Z</time>
      </trkpt>
      <trkpt lat="43.14144" lon="2.35376">
        <ele>265.5</ele>
        <time>2023-11-05T07:40:06Z</time>
      </trkpt>
      <trkpt lat="43.14143" lon="2.3538">
        <ele>266.4</ele>
        <time>2023-11-05T07:40:10Z</time>
      </trkpt>
      <trkpt lat="43.14144" lon="2.35382">
        <ele>267.1</ele>
        <time>2023-11-05T07:40:13Z</time>
      </trkpt>
      <trkpt lat="43.14144" lon="2.35384">
        <ele>267.3</ele>
        <time>2023-11-05T07:40:15Z</time>
      </trkpt>
      <trkpt lat="43.14145" lon="2.35385">
        <ele>267.6</ele>
        <time>2023-11-05T07:40:19Z</time>
      </trkpt>
      <trkpt lat="43.14144" lon="2.35385">
        <ele>267.7</ele>
        <time>2023-11-05T07:40:20Z</time>
      </trkpt>
      <trkpt lat="43.14145" lon="2.35386">
        <ele>267.7</ele>
        <time>2023-11-05T07:40:21Z</time>
      </trkpt>
      <trkpt lat="43.14143" lon="2.3539">
        <ele>268.5</ele>
        <time>2023-11-05T07:40:24Z</time>
      </trkpt>
      <trkpt lat="43.14143" lon="2.35391">
        <ele>268.8</ele>
        <time>2023-11-05T07:40:25Z</time>
      </trkpt>
      <trkpt lat="43.14142" lon="2.35394">
        <ele>269.3</ele>
        <time>2023-11-05T07:40:27Z</time>
      </trkpt>
      <trkpt lat="43.14143" lon="2.35395">
        <ele>269.4</ele>
        <time>2023-11-05T07:40:28Z</time>
      </trkpt>
      <trkpt lat="43.14141" lon="2.35399">
        <ele>269.9</ele>
        <time>2023-11-05T07:40:32Z</time>
      </trkpt>
      <trkpt lat="43.14141" lon="2.354">
        <ele>270.1</ele>
        <time>2023-11-05T07:40:33Z</time>
      </trkpt>
      <trkpt lat="43.14141" lon="2.35404">
        <ele>270.4</ele>
        <time>2023-11-05T07:40:35Z</time>
      </trkpt>
      <trkpt lat="43.1414" lon="2.35414">
        <ele>271.1</ele>
        <time>2023-11-05T07:40:40Z</time>
      </trkpt>
      <trkpt lat="43.14139" lon="2.35417">
        <ele>271.3</ele>
        <time>2023-11-05T07:40:42Z</time>
      </trkpt>
      <trkpt lat="43.14139" lon="2.3542">
        <ele>271.5</ele>
        <time>2023-11-05T07:40:44Z</time>
      </trkpt>
      <trkpt lat="43.14138" lon="2.35425">
        <ele>271.7</ele>
        <time>2023-11-05T07:40:47Z</time>
      </trkpt>
      <trkpt lat="43.14136" lon="2.35436">
        <ele>271.9</ele>
        <time>2023-11-05T07:40:54Z</time>
      </trkpt>
      <trkpt lat="43.14136" lon="2.35439">
        <ele>271.9</ele>
        <time>2023-11-05T07:40:55Z</time>
      </trkpt>
      <trkpt lat="43.14135" lon="2.35441">
        <ele>272</ele>
        <time>2023-11-05T07:40:56Z</time>
      </trkpt>
      <trkpt lat="43.14133" lon="2.35446">
        <ele>272.1</ele>
        <time>2023-11-05T07:40:59Z</time>
      </trkpt>
      <trkpt lat="43.14132" lon="2.35449">
        <ele>272.1</ele>
        <time>2023-11-05T07:41:01Z</time>
      </trkpt>
      <trkpt lat="43.1413" lon="2.35453">
        <ele>272.2</ele>
        <time>2023-11-05T07:41:04Z</time>
      </trkpt>
      <trkpt lat="43.14128" lon="2.35461">
        <ele>272.3</ele>
        <time>2023-11-05T07:41:08Z</time>
      </trkpt>
      <trkpt lat="43.14126" lon="2.35463">
        <ele>272.4</ele>
        <time>2023-11-05T07:41:10Z</time>
      </trkpt>
      <trkpt lat="43.14126" lon="2.35464">
        <ele>272.5</ele>
        <time>2023-11-05T07:41:11Z</time>
      </trkpt>
      <trkpt lat="43.14121" lon="2.3547">
        <ele>272.6</ele>
        <time>2023-11-05T07:41:16Z</time>
      </trkpt>
      <trkpt lat="43.1412" lon="2.35472">
        <ele>272.7</ele>
        <time>2023-11-05T07:41:17Z</time>
      </trkpt>
      <trkpt lat="43.1412" lon="2.35473">
        <ele>272.7</ele>
        <time>2023-11-05T07:41:18Z</time>
      </trkpt>
      <trkpt lat="43.14119" lon="2.35477">
        <ele>272.8</ele>
        <time>2023-11-05T07:41:20Z</time>
      </trkpt>
      <trkpt lat="43.14118" lon="2.35485">
        <ele>272.8</ele>
        <time>2023-11-05T07:41:24Z</time>
      </trkpt>
      <trkpt lat="43.14117" lon="2.35487">
        <ele>272.7</ele>
        <time>2023-11-05T07:41:25Z</time>
      </trkpt>
      <trkpt lat="43.14117" lon="2.3549">
        <ele>272.7</ele>
        <time>2023-11-05T07:41:27Z</time>
      </trkpt>
      <trkpt lat="43.14117" lon="2.35491">
        <ele>272.6</ele>
        <time>2023-11-05T07:41:28Z</time>
      </trkpt>
      <trkpt lat="43.14115" lon="2.35495">
        <ele>272.5</ele>
        <time>2023-11-05T07:41:30Z</time>
      </trkpt>
      <trkpt lat="43.14115" lon="2.35496">
        <ele>272.5</ele>
        <time>2023-11-05T07:41:31Z</time>
      </trkpt>
      <trkpt lat="43.14112" lon="2.35502">
        <ele>272.1</ele>
        <time>2023-11-05T07:41:34Z</time>
      </trkpt>
      <trkpt lat="43.1411" lon="2.35508">
        <ele>271.7</ele>
        <time>2023-11-05T07:41:37Z</time>
      </trkpt>
      <trkpt lat="43.14109" lon="2.35514">
        <ele>271.1</ele>
        <time>2023-11-05T07:41:40Z</time>
      </trkpt>
      <trkpt lat="43.14107" lon="2.35518">
        <ele>270.7</ele>
        <time>2023-11-05T07:41:42Z</time>
      </trkpt>
      <trkpt lat="43.14104" lon="2.35524">
        <ele>270</ele>
        <time>2023-11-05T07:41:45Z</time>
      </trkpt>
      <trkpt lat="43.14103" lon="2.3553">
        <ele>269.4</ele>
        <time>2023-11-05T07:41:48Z</time>
      </trkpt>
      <trkpt lat="43.14102" lon="2.35531">
        <ele>269.2</ele>
        <time>2023-11-05T07:41:49Z</time>
      </trkpt>
      <trkpt lat="43.14098" lon="2.35536">
        <ele>268.6</ele>
        <time>2023-11-05T07:41:53Z</time>
      </trkpt>
      <trkpt lat="43.14096" lon="2.35538">
        <ele>268.3</ele>
        <time>2023-11-05T07:41:55Z</time>
      </trkpt>
      <trkpt lat="43.14096" lon="2.3554">
        <ele>268.2</ele>
        <time>2023-11-05T07:41:56Z</time>
      </trkpt>
      <trkpt lat="43.14095" lon="2.35541">
        <ele>268</ele>
        <time>2023-11-05T07:41:57Z</time>
      </trkpt>
      <trkpt lat="43.14093" lon="2.35543">
        <ele>267.8</ele>
        <time>2023-11-05T07:41:59Z</time>
      </trkpt>
      <trkpt lat="43.14092" lon="2.35546">
        <ele>267.5</ele>
        <time>2023-11-05T07:42:04Z</time>
      </trkpt>
      <trkpt lat="43.14092" lon="2.35547">
        <ele>267.4</ele>
        <time>2023-11-05T07:42:06Z</time>
      </trkpt>
      <trkpt lat="43.14092" lon="2.35549">
        <ele>267.3</ele>
        <time>2023-11-05T07:42:08Z</time>
      </trkpt>
      <trkpt lat="43.14093" lon="2.35552">
        <ele>266.9</ele>
        <time>2023-11-05T07:42:12Z</time>
      </trkpt>
      <trkpt lat="43.14093" lon="2.35553">
        <ele>266.8</ele>
        <time>2023-11-05T07:42:13Z</time>
      </trkpt>
      <trkpt lat="43.14094" lon="2.35555">
        <ele>266.4</ele>
        <time>2023-11-05T07:42:15Z</time>
      </trkpt>
      <trkpt lat="43.14095" lon="2.35557">
        <ele>266.2</ele>
        <time>2023-11-05T07:42:16Z</time>
      </trkpt>
      <trkpt lat="43.14096" lon="2.35558">
        <ele>266</ele>
        <time>2023-11-05T07:42:17Z</time>
      </trkpt>
      <trkpt lat="43.14096" lon="2.3556">
        <ele>265.9</ele>
        <time>2023-11-05T07:42:18Z</time>
      </trkpt>
      <trkpt lat="43.14098" lon="2.35563">
        <ele>265.3</ele>
        <time>2023-11-05T07:42:22Z</time>
      </trkpt>
      <trkpt lat="43.14099" lon="2.35565">
        <ele>265.1</ele>
        <time>2023-11-05T07:42:24Z</time>
      </trkpt>
      <trkpt lat="43.141" lon="2.35566">
        <ele>265</ele>
        <time>2023-11-05T07:42:25Z</time>
      </trkpt>
      <trkpt lat="43.14101" lon="2.35567">
        <ele>264.9</ele>
        <time>2023-11-05T07:42:26Z</time>
      </trkpt>
      <trkpt lat="43.14102" lon="2.35569">
        <ele>264.6</ele>
        <time>2023-11-05T07:42:28Z</time>
      </trkpt>
      <trkpt lat="43.14103" lon="2.3557">
        <ele>264.5</ele>
        <time>2023-11-05T07:42:29Z</time>
      </trkpt>
      <trkpt lat="43.14103" lon="2.35574">
        <ele>264.3</ele>
        <time>2023-11-05T07:42:31Z</time>
      </trkpt>
      <trkpt lat="43.14103" lon="2.35585">
        <ele>263.8</ele>
        <time>2023-11-05T07:42:36Z</time>
      </trkpt>
      <trkpt lat="43.14103" lon="2.35589">
        <ele>263.8</ele>
        <time>2023-11-05T07:42:38Z</time>
      </trkpt>
      <trkpt lat="43.14103" lon="2.35595">
        <ele>263.9</ele>
        <time>2023-11-05T07:42:40Z</time>
      </trkpt>
      <trkpt lat="43.14101" lon="2.35602">
        <ele>264.2</ele>
        <time>2023-11-05T07:42:43Z</time>
      </trkpt>
      <trkpt lat="43.14099" lon="2.35606">
        <ele>264.5</ele>
        <time>2023-11-05T07:42:45Z</time>
      </trkpt>
      <trkpt lat="43.14098" lon="2.35612">
        <ele>264.9</ele>
        <time>2023-11-05T07:42:47Z</time>
      </trkpt>
      <trkpt lat="43.14097" lon="2.35616">
        <ele>265.2</ele>
        <time>2023-11-05T07:42:49Z</time>
      </trkpt>
      <trkpt lat="43.14096" lon="2.35619">
        <ele>265.4</ele>
        <time>2023-11-05T07:42:50Z</time>
      </trkpt>
      <trkpt lat="43.14094" lon="2.35626">
        <ele>266</ele>
        <time>2023-11-05T07:42:54Z</time>
      </trkpt>
      <trkpt lat="43.14093" lon="2.35628">
        <ele>266.1</ele>
        <time>2023-11-05T07:42:55Z</time>
      </trkpt>
      <trkpt lat="43.14091" lon="2.3563">
        <ele>266.4</ele>
        <time>2023-11-05T07:42:57Z</time>
      </trkpt>
      <trkpt lat="43.14091" lon="2.35632">
        <ele>266.5</ele>
        <time>2023-11-05T07:42:58Z</time>
      </trkpt>
      <trkpt lat="43.14089" lon="2.35636">
        <ele>266.8</ele>
        <time>2023-11-05T07:43:01Z</time>
      </trkpt>
      <trkpt lat="43.14087" lon="2.35647">
        <ele>267.6</ele>
        <time>2023-11-05T07:43:08Z</time>
      </trkpt>
      <trkpt lat="43.14087" lon="2.35651">
        <ele>267.8</ele>
        <time>2023-11-05T07:43:11Z</time>
      </trkpt>
      <trkpt lat="43.14085" lon="2.35658">
        <ele>268.3</ele>
        <time>2023-11-05T07:43:15Z</time>
      </trkpt>
      <trkpt lat="43.14085" lon="2.3566">
        <ele>268.4</ele>
        <time>2023-11-05T07:43:16Z</time>
      </trkpt>
      <trkpt lat="43.14084" lon="2.35663">
        <ele>268.5</ele>
        <time>2023-11-05T07:43:18Z</time>
      </trkpt>
      <trkpt lat="43.14087" lon="2.35677">
        <ele>269.2</ele>
        <time>2023-11-05T07:43:25Z</time>
      </trkpt>
      <trkpt lat="43.14087" lon="2.3568">
        <ele>269.3</ele>
        <time>2023-11-05T07:43:27Z</time>
      </trkpt>
      <trkpt lat="43.14086" lon="2.35681">
        <ele>269.3</ele>
        <time>2023-11-05T07:43:28Z</time>
      </trkpt>
      <trkpt lat="43.14085" lon="2.35685">
        <ele>269.5</ele>
        <time>2023-11-05T07:43:31Z</time>
      </trkpt>
      <trkpt lat="43.14085" lon="2.35686">
        <ele>269.6</ele>
        <time>2023-11-05T07:43:32Z</time>
      </trkpt>
      <trkpt lat="43.14085" lon="2.35689">
        <ele>269.7</ele>
        <time>2023-11-05T07:43:34Z</time>
      </trkpt>
      <trkpt lat="43.14085" lon="2.35692">
        <ele>269.8</ele>
        <time>2023-11-05T07:43:36Z</time>
      </trkpt>
      <trkpt lat="43.14087" lon="2.35705">
        <ele>270</ele>
        <time>2023-11-05T07:43:43Z</time>
      </trkpt>
      <trkpt lat="43.14088" lon="2.35709">
        <ele>270</ele>
        <time>2023-11-05T07:43:45Z</time>
      </trkpt>
      <trkpt lat="43.14092" lon="2.35716">
        <ele>269.7</ele>
        <time>2023-11-05T07:43:50Z</time>
      </trkpt>
      <trkpt lat="43.14093" lon="2.35719">
        <ele>269.6</ele>
        <time>2023-11-05T07:43:52Z</time>
      </trkpt>
      <trkpt lat="43.14093" lon="2.35724">
        <ele>269.3</ele>
        <time>2023-11-05T07:43:54Z</time>
      </trkpt>
      <trkpt lat="43.14093" lon="2.35729">
        <ele>269</ele>
        <time>2023-11-05T07:43:57Z</time>
      </trkpt>
      <trkpt lat="43.14091" lon="2.35734">
        <ele>268.7</ele>
        <time>2023-11-05T07:43:59Z</time>
      </trkpt>
      <trkpt lat="43.14091" lon="2.35739">
        <ele>268.3</ele>
        <time>2023-11-05T07:44:01Z</time>
      </trkpt>
      <trkpt lat="43.1409" lon="2.35744">
        <ele>267.9</ele>
        <time>2023-11-05T07:44:03Z</time>
      </trkpt>
      <trkpt lat="43.14086" lon="2.35749">
        <ele>267.4</ele>
        <time>2023-11-05T07:44:06Z</time>
      </trkpt>
      <trkpt lat="43.14084" lon="2.35754">
        <ele>267.1</ele>
        <time>2023-11-05T07:44:08Z</time>
      </trkpt>
      <trkpt lat="43.14077" lon="2.35767">
        <ele>266.3</ele>
        <time>2023-11-05T07:44:14Z</time>
      </trkpt>
      <trkpt lat="43.14076" lon="2.3578">
        <ele>266</ele>
        <time>2023-11-05T07:44:20Z</time>
      </trkpt>
      <trkpt lat="43.14076" lon="2.35782">
        <ele>266</ele>
        <time>2023-11-05T07:44:21Z</time>
      </trkpt>
      <trkpt lat="43.14066" lon="2.35799">
        <ele>265.9</ele>
        <time>2023-11-05T07:44:30Z</time>
      </trkpt>
      <trkpt lat="43.14063" lon="2.35807">
        <ele>265.8</ele>
        <time>2023-11-05T07:44:34Z</time>
      </trkpt>
      <trkpt lat="43.14059" lon="2.35813">
        <ele>265.8</ele>
        <time>2023-11-05T07:44:37Z</time>
      </trkpt>
      <trkpt lat="43.1405" lon="2.35831">
        <ele>266.2</ele>
        <time>2023-11-05T07:44:47Z</time>
      </trkpt>
      <trkpt lat="43.14047" lon="2.35836">
        <ele>266.5</ele>
        <time>2023-11-05T07:44:50Z</time>
      </trkpt>
      <trkpt lat="43.14042" lon="2.35842">
        <ele>266.9</ele>
        <time>2023-11-05T07:44:54Z</time>
      </trkpt>
      <trkpt lat="43.14041" lon="2.35846">
        <ele>267.1</ele>
        <time>2023-11-05T07:44:57Z</time>
      </trkpt>
      <trkpt lat="43.1404" lon="2.35849">
        <ele>267.2</ele>
        <time>2023-11-05T07:44:58Z</time>
      </trkpt>
      <trkpt lat="43.14036" lon="2.3586">
        <ele>267.6</ele>
        <time>2023-11-05T07:45:03Z</time>
      </trkpt>
      <trkpt lat="43.14035" lon="2.35872">
        <ele>267.9</ele>
        <time>2023-11-05T07:45:08Z</time>
      </trkpt>
      <trkpt lat="43.14034" lon="2.35878">
        <ele>268</ele>
        <time>2023-11-05T07:45:11Z</time>
      </trkpt>
      <trkpt lat="43.14032" lon="2.35885">
        <ele>268.1</ele>
        <time>2023-11-05T07:45:14Z</time>
      </trkpt>
      <trkpt lat="43.1403" lon="2.35894">
        <ele>268.2</ele>
        <time>2023-11-05T07:45:18Z</time>
      </trkpt>
      <trkpt lat="43.14026" lon="2.35913">
        <ele>268.3</ele>
        <time>2023-11-05T07:45:26Z</time>
      </trkpt>
      <trkpt lat="43.14023" lon="2.35924">
        <ele>268.4</ele>
        <time>2023-11-05T07:45:30Z</time>
      </trkpt>
      <trkpt lat="43.14021" lon="2.35934">
        <ele>268.4</ele>
        <time>2023-11-05T07:45:34Z</time>
      </trkpt>
      <trkpt lat="43.14021" lon="2.35937">
        <ele>268.4</ele>
        <time>2023-11-05T07:45:35Z</time>
      </trkpt>
      <trkpt lat="43.14016" lon="2.35951">
        <ele>269.1</ele>
        <time>2023-11-05T07:45:41Z</time>
      </trkpt>
      <trkpt lat="43.14016" lon="2.35953">
        <ele>269.2</ele>
        <time>2023-11-05T07:45:42Z</time>
      </trkpt>
      <trkpt lat="43.14015" lon="2.35956">
        <ele>269.3</ele>
        <time>2023-11-05T07:45:44Z</time>
      </trkpt>
      <trkpt lat="43.14015" lon="2.35962">
        <ele>269.6</ele>
        <time>2023-11-05T07:45:49Z</time>
      </trkpt>
      <trkpt lat="43.14012" lon="2.35968">
        <ele>269.9</ele>
        <time>2023-11-05T07:45:53Z</time>
      </trkpt>
      <trkpt lat="43.14012" lon="2.35974">
        <ele>270.2</ele>
        <time>2023-11-05T07:45:57Z</time>
      </trkpt>
      <trkpt lat="43.14011" lon="2.35977">
        <ele>270.3</ele>
        <time>2023-11-05T07:45:59Z</time>
      </trkpt>
      <trkpt lat="43.1401" lon="2.35981">
        <ele>270.6</ele>
        <time>2023-11-05T07:46:03Z</time>
      </trkpt>
      <trkpt lat="43.14007" lon="2.35987">
        <ele>270.9</ele>
        <time>2023-11-05T07:46:09Z</time>
      </trkpt>
      <trkpt lat="43.14007" lon="2.35987">
        <ele>271</ele>
        <time>2023-11-05T07:46:10Z</time>
      </trkpt>
      <trkpt lat="43.14007" lon="2.35987">
        <ele>271</ele>
        <time>2023-11-05T07:46:15Z</time>
      </trkpt>
      <trkpt lat="43.14007" lon="2.35987">
        <ele>271</ele>
        <time>2023-11-05T07:46:18Z</time>
      </trkpt>
      <trkpt lat="43.14007" lon="2.35989">
        <ele>271.1</ele>
        <time>2023-11-05T07:46:20Z</time>
      </trkpt>
      <trkpt lat="43.14006" lon="2.35991">
        <ele>271.2</ele>
        <time>2023-11-05T07:46:23Z</time>
      </trkpt>
      <trkpt lat="43.14007" lon="2.35991">
        <ele>271.2</ele>
        <time>2023-11-05T07:46:24Z</time>
      </trkpt>
      <trkpt lat="43.14007" lon="2.3599">
        <ele>271.2</ele>
        <time>2023-11-05T07:46:30Z</time>
      </trkpt>
      <trkpt lat="43.14007" lon="2.3599">
        <ele>271.2</ele>
        <time>2023-11-05T07:46:37Z</time>
      </trkpt>
      <trkpt lat="43.14007" lon="2.3599">
        <ele>271.2</ele>
        <time>2023-11-05T07:46:40Z</time>
      </trkpt>
      <trkpt lat="43.14007" lon="2.3599">
        <ele>271.2</ele>
        <time>2023-11-05T07:46:44Z</time>
      </trkpt>
      <trkpt lat="43.14007" lon="2.3599">
        <ele>271.2</ele>
        <time>2023-11-05T07:46:49Z</time>
      </trkpt>
      <trkpt lat="43.14007" lon="2.35991">
        <ele>271.3</ele>
        <time>2023-11-05T07:46:51Z</time>
      </trkpt>
      <trkpt lat="43.14007" lon="2.35991">
        <ele>271.3</ele>
        <time>2023-11-05T07:46:52Z</time>
      </trkpt>
      <trkpt lat="43.14006" lon="2.35991">
        <ele>271.3</ele>
        <time>2023-11-05T07:46:56Z</time>
      </trkpt>
      <trkpt lat="43.14006" lon="2.35991">
        <ele>271.3</ele>
        <time>2023-11-05T07:47:05Z</time>
      </trkpt>
      <trkpt lat="43.14006" lon="2.35991">
        <ele>271.3</ele>
        <time>2023-11-05T07:47:15Z</time>
      </trkpt>
      <trkpt lat="43.14006" lon="2.35991">
        <ele>271.3</ele>
        <time>2023-11-05T07:47:20Z</time>
      </trkpt>
      <trkpt lat="43.14005" lon="2.35997">
        <ele>271.6</ele>
        <time>2023-11-05T07:47:33Z</time>
      </trkpt>
      <trkpt lat="43.14005" lon="2.35997">
        <ele>271.7</ele>
        <time>2023-11-05T07:47:50Z</time>
      </trkpt>
      <trkpt lat="43.14005" lon="2.35997">
        <ele>271.7</ele>
        <time>2023-11-05T07:47:51Z</time>
      </trkpt>
      <trkpt lat="43.14005" lon="2.35999">
        <ele>271.8</ele>
        <time>2023-11-05T07:47:54Z</time>
      </trkpt>
      <trkpt lat="43.14005" lon="2.36003">
        <ele>272</ele>
        <time>2023-11-05T07:47:56Z</time>
      </trkpt>
      <trkpt lat="43.14005" lon="2.36004">
        <ele>272.1</ele>
        <time>2023-11-05T07:47:57Z</time>
      </trkpt>
      <trkpt lat="43.14005" lon="2.36006">
        <ele>272.2</ele>
        <time>2023-11-05T07:47:58Z</time>
      </trkpt>
      <trkpt lat="43.14004" lon="2.36008">
        <ele>272.3</ele>
        <time>2023-11-05T07:47:59Z</time>
      </trkpt>
      <trkpt lat="43.14004" lon="2.3601">
        <ele>272.5</ele>
        <time>2023-11-05T07:48:01Z</time>
      </trkpt>
      <trkpt lat="43.14004" lon="2.36012">
        <ele>272.6</ele>
        <time>2023-11-05T07:48:02Z</time>
      </trkpt>
      <trkpt lat="43.14003" lon="2.36013">
        <ele>272.7</ele>
        <time>2023-11-05T07:48:03Z</time>
      </trkpt>
      <trkpt lat="43.14002" lon="2.36019">
        <ele>273</ele>
        <time>2023-11-05T07:48:08Z</time>
      </trkpt>
      <trkpt lat="43.14" lon="2.36024">
        <ele>273.2</ele>
        <time>2023-11-05T07:48:11Z</time>
      </trkpt>
      <trkpt lat="43.13998" lon="2.36028">
        <ele>273.4</ele>
        <time>2023-11-05T07:48:14Z</time>
      </trkpt>
      <trkpt lat="43.13997" lon="2.36031">
        <ele>273.5</ele>
        <time>2023-11-05T07:48:19Z</time>
      </trkpt>
      <trkpt lat="43.13998" lon="2.36031">
        <ele>273.6</ele>
        <time>2023-11-05T07:48:25Z</time>
      </trkpt>
      <trkpt lat="43.13998" lon="2.3603">
        <ele>273.6</ele>
        <time>2023-11-05T07:48:29Z</time>
      </trkpt>
      <trkpt lat="43.13998" lon="2.36029">
        <ele>273.6</ele>
        <time>2023-11-05T07:48:36Z</time>
      </trkpt>
      <trkpt lat="43.13998" lon="2.36029">
        <ele>273.6</ele>
        <time>2023-11-05T07:48:47Z</time>
      </trkpt>
      <trkpt lat="43.13998" lon="2.3603">
        <ele>273.6</ele>
        <time>2023-11-05T07:48:51Z</time>
      </trkpt>
      <trkpt lat="43.13998" lon="2.36029">
        <ele>273.6</ele>
        <time>2023-11-05T07:48:55Z</time>
      </trkpt>
      <trkpt lat="43.13998" lon="2.36029">
        <ele>273.6</ele>
        <time>2023-11-05T07:48:58Z</time>
      </trkpt>
      <trkpt lat="43.13997" lon="2.36029">
        <ele>273.7</ele>
        <time>2023-11-05T07:49:12Z</time>
      </trkpt>
      <trkpt lat="43.13997" lon="2.36029">
        <ele>273.7</ele>
        <time>2023-11-05T07:49:15Z</time>
      </trkpt>
      <trkpt lat="43.13997" lon="2.36029">
        <ele>273.7</ele>
        <time>2023-11-05T07:49:17Z</time>
      </trkpt>
      <trkpt lat="43.13997" lon="2.3603">
        <ele>273.7</ele>
        <time>2023-11-05T07:49:18Z</time>
      </trkpt>
      <trkpt lat="43.13996" lon="2.36032">
        <ele>273.8</ele>
        <time>2023-11-05T07:49:19Z</time>
      </trkpt>
      <trkpt lat="43.13994" lon="2.36038">
        <ele>274</ele>
        <time>2023-11-05T07:49:21Z</time>
      </trkpt>
      <trkpt lat="43.13989" lon="2.36056">
        <ele>274.6</ele>
        <time>2023-11-05T07:49:27Z</time>
      </trkpt>
      <trkpt lat="43.13989" lon="2.36059">
        <ele>274.7</ele>
        <time>2023-11-05T07:49:28Z</time>
      </trkpt>
      <trkpt lat="43.13988" lon="2.36062">
        <ele>274.7</ele>
        <time>2023-11-05T07:49:29Z</time>
      </trkpt>
      <trkpt lat="43.13987" lon="2.36067">
        <ele>274.9</ele>
        <time>2023-11-05T07:49:31Z</time>
      </trkpt>
      <trkpt lat="43.13985" lon="2.36073">
        <ele>274.9</ele>
        <time>2023-11-05T07:49:33Z</time>
      </trkpt>
      <trkpt lat="43.13984" lon="2.36076">
        <ele>275</ele>
        <time>2023-11-05T07:49:34Z</time>
      </trkpt>
      <trkpt lat="43.13979" lon="2.36096">
        <ele>275.1</ele>
        <time>2023-11-05T07:49:41Z</time>
      </trkpt>
      <trkpt lat="43.13975" lon="2.36112">
        <ele>275.1</ele>
        <time>2023-11-05T07:49:47Z</time>
      </trkpt>
      <trkpt lat="43.13973" lon="2.3612">
        <ele>275.1</ele>
        <time>2023-11-05T07:49:50Z</time>
      </trkpt>
      <trkpt lat="43.13971" lon="2.36127">
        <ele>275.1</ele>
        <time>2023-11-05T07:49:53Z</time>
      </trkpt>
      <trkpt lat="43.13969" lon="2.36136">
        <ele>275.2</ele>
        <time>2023-11-05T07:49:58Z</time>
      </trkpt>
      <trkpt lat="43.13967" lon="2.36147">
        <ele>275.3</ele>
        <time>2023-11-05T07:50:02Z</time>
      </trkpt>
      <trkpt lat="43.13966" lon="2.36153">
        <ele>275.3</ele>
        <time>2023-11-05T07:50:04Z</time>
      </trkpt>
      <trkpt lat="43.13963" lon="2.36165">
        <ele>275.6</ele>
        <time>2023-11-05T07:50:08Z</time>
      </trkpt>
      <trkpt lat="43.13961" lon="2.36173">
        <ele>275.9</ele>
        <time>2023-11-05T07:50:11Z</time>
      </trkpt>
      <trkpt lat="43.13961" lon="2.36187">
        <ele>276.5</ele>
        <time>2023-11-05T07:50:17Z</time>
      </trkpt>
      <trkpt lat="43.1396" lon="2.36189">
        <ele>276.6</ele>
        <time>2023-11-05T07:50:19Z</time>
      </trkpt>
      <trkpt lat="43.13959" lon="2.36196">
        <ele>276.9</ele>
        <time>2023-11-05T07:50:22Z</time>
      </trkpt>
      <trkpt lat="43.13956" lon="2.36202">
        <ele>277.3</ele>
        <time>2023-11-05T07:50:26Z</time>
      </trkpt>
      <trkpt lat="43.13953" lon="2.36205">
        <ele>277.6</ele>
        <time>2023-11-05T07:50:29Z</time>
      </trkpt>
      <trkpt lat="43.13945" lon="2.36215">
        <ele>278.5</ele>
        <time>2023-11-05T07:50:36Z</time>
      </trkpt>
      <trkpt lat="43.13943" lon="2.36229">
        <ele>279.4</ele>
        <time>2023-11-05T07:50:43Z</time>
      </trkpt>
      <trkpt lat="43.13943" lon="2.36231">
        <ele>279.6</ele>
        <time>2023-11-05T07:50:44Z</time>
      </trkpt>
      <trkpt lat="43.13941" lon="2.36244">
        <ele>280.4</ele>
        <time>2023-11-05T07:50:51Z</time>
      </trkpt>
      <trkpt lat="43.13941" lon="2.36248">
        <ele>280.6</ele>
        <time>2023-11-05T07:50:53Z</time>
      </trkpt>
      <trkpt lat="43.13939" lon="2.36259">
        <ele>281.2</ele>
        <time>2023-11-05T07:50:58Z</time>
      </trkpt>
      <trkpt lat="43.13934" lon="2.36272">
        <ele>282</ele>
        <time>2023-11-05T07:51:04Z</time>
      </trkpt>
      <trkpt lat="43.13931" lon="2.36281">
        <ele>282.7</ele>
        <time>2023-11-05T07:51:10Z</time>
      </trkpt>
      <trkpt lat="43.13932" lon="2.36285">
        <ele>282.9</ele>
        <time>2023-11-05T07:51:12Z</time>
      </trkpt>
      <trkpt lat="43.13933" lon="2.36287">
        <ele>283.1</ele>
        <time>2023-11-05T07:51:14Z</time>
      </trkpt>
      <trkpt lat="43.13934" lon="2.36295">
        <ele>283.5</ele>
        <time>2023-11-05T07:51:19Z</time>
      </trkpt>
      <trkpt lat="43.13934" lon="2.36297">
        <ele>283.6</ele>
        <time>2023-11-05T07:51:20Z</time>
      </trkpt>
      <trkpt lat="43.13934" lon="2.36299">
        <ele>283.8</ele>
        <time>2023-11-05T07:51:21Z</time>
      </trkpt>
      <trkpt lat="43.13933" lon="2.36303">
        <ele>284</ele>
        <time>2023-11-05T07:51:23Z</time>
      </trkpt>
      <trkpt lat="43.13933" lon="2.36306">
        <ele>284.2</ele>
        <time>2023-11-05T07:51:25Z</time>
      </trkpt>
      <trkpt lat="43.13933" lon="2.36308">
        <ele>284.3</ele>
        <time>2023-11-05T07:51:26Z</time>
      </trkpt>
      <trkpt lat="43.13932" lon="2.36309">
        <ele>284.4</ele>
        <time>2023-11-05T07:51:27Z</time>
      </trkpt>
      <trkpt lat="43.13929" lon="2.36315">
        <ele>284.9</ele>
        <time>2023-11-05T07:51:31Z</time>
      </trkpt>
      <trkpt lat="43.13929" lon="2.36317">
        <ele>285</ele>
        <time>2023-11-05T07:51:32Z</time>
      </trkpt>
      <trkpt lat="43.13928" lon="2.36319">
        <ele>285.1</ele>
        <time>2023-11-05T07:51:33Z</time>
      </trkpt>
      <trkpt lat="43.13928" lon="2.36323">
        <ele>285.4</ele>
        <time>2023-11-05T07:51:36Z</time>
      </trkpt>
      <trkpt lat="43.13928" lon="2.36326">
        <ele>285.6</ele>
        <time>2023-11-05T07:51:38Z</time>
      </trkpt>
      <trkpt lat="43.1393" lon="2.36331">
        <ele>285.9</ele>
        <time>2023-11-05T07:51:41Z</time>
      </trkpt>
      <trkpt lat="43.13931" lon="2.36334">
        <ele>286</ele>
        <time>2023-11-05T07:51:43Z</time>
      </trkpt>
      <trkpt lat="43.1393" lon="2.36342">
        <ele>286.2</ele>
        <time>2023-11-05T07:51:47Z</time>
      </trkpt>
      <trkpt lat="43.1393" lon="2.36344">
        <ele>286.3</ele>
        <time>2023-11-05T07:51:48Z</time>
      </trkpt>
      <trkpt lat="43.1393" lon="2.36345">
        <ele>286.3</ele>
        <time>2023-11-05T07:51:49Z</time>
      </trkpt>
      <trkpt lat="43.13931" lon="2.36349">
        <ele>286.4</ele>
        <time>2023-11-05T07:51:51Z</time>
      </trkpt>
      <trkpt lat="43.1393" lon="2.36354">
        <ele>286.5</ele>
        <time>2023-11-05T07:51:53Z</time>
      </trkpt>
      <trkpt lat="43.13929" lon="2.36357">
        <ele>286.5</ele>
        <time>2023-11-05T07:51:55Z</time>
      </trkpt>
      <trkpt lat="43.13925" lon="2.3637">
        <ele>286.8</ele>
        <time>2023-11-05T07:52:03Z</time>
      </trkpt>
      <trkpt lat="43.13925" lon="2.36371">
        <ele>286.8</ele>
        <time>2023-11-05T07:52:04Z</time>
      </trkpt>
      <trkpt lat="43.13925" lon="2.36374">
        <ele>286.9</ele>
        <time>2023-11-05T07:52:05Z</time>
      </trkpt>
      <trkpt lat="43.13925" lon="2.36385">
        <ele>287.3</ele>
        <time>2023-11-05T07:52:11Z</time>
      </trkpt>
      <trkpt lat="43.13926" lon="2.36396">
        <ele>288.1</ele>
        <time>2023-11-05T07:52:16Z</time>
      </trkpt>
      <trkpt lat="43.13928" lon="2.36405">
        <ele>289</ele>
        <time>2023-11-05T07:52:20Z</time>
      </trkpt>
      <trkpt lat="43.13934" lon="2.36419">
        <ele>291.1</ele>
        <time>2023-11-05T07:52:28Z</time>
      </trkpt>
      <trkpt lat="43.13937" lon="2.36424">
        <ele>292.1</ele>
        <time>2023-11-05T07:52:31Z</time>
      </trkpt>
      <trkpt lat="43.13937" lon="2.36427">
        <ele>292.5</ele>
        <time>2023-11-05T07:52:32Z</time>
      </trkpt>
      <trkpt lat="43.13938" lon="2.36432">
        <ele>293.4</ele>
        <time>2023-11-05T07:52:36Z</time>
      </trkpt>
      <trkpt lat="43.13938" lon="2.36433">
        <ele>293.5</ele>
        <time>2023-11-05T07:52:37Z</time>
      </trkpt>
      <trkpt lat="43.13938" lon="2.36434">
        <ele>293.7</ele>
        <time>2023-11-05T07:52:38Z</time>
      </trkpt>
      <trkpt lat="43.13938" lon="2.36436">
        <ele>294</ele>
        <time>2023-11-05T07:52:40Z</time>
      </trkpt>
      <trkpt lat="43.13937" lon="2.3644">
        <ele>294.6</ele>
        <time>2023-11-05T07:52:43Z</time>
      </trkpt>
      <trkpt lat="43.13937" lon="2.36443">
        <ele>295</ele>
        <time>2023-11-05T07:52:45Z</time>
      </trkpt>
      <trkpt lat="43.13938" lon="2.36446">
        <ele>295.4</ele>
        <time>2023-11-05T07:52:47Z</time>
      </trkpt>
      <trkpt lat="43.13938" lon="2.36447">
        <ele>295.6</ele>
        <time>2023-11-05T07:52:48Z</time>
      </trkpt>
      <trkpt lat="43.13938" lon="2.36449">
        <ele>295.9</ele>
        <time>2023-11-05T07:52:49Z</time>
      </trkpt>
      <trkpt lat="43.13938" lon="2.36456">
        <ele>296.9</ele>
        <time>2023-11-05T07:52:53Z</time>
      </trkpt>
      <trkpt lat="43.13937" lon="2.36458">
        <ele>297.2</ele>
        <time>2023-11-05T07:52:54Z</time>
      </trkpt>
      <trkpt lat="43.13937" lon="2.36462">
        <ele>297.7</ele>
        <time>2023-11-05T07:52:56Z</time>
      </trkpt>
      <trkpt lat="43.13935" lon="2.36467">
        <ele>298.5</ele>
        <time>2023-11-05T07:52:59Z</time>
      </trkpt>
      <trkpt lat="43.13935" lon="2.36471">
        <ele>299.1</ele>
        <time>2023-11-05T07:53:01Z</time>
      </trkpt>
      <trkpt lat="43.13935" lon="2.36478">
        <ele>300.2</ele>
        <time>2023-11-05T07:53:05Z</time>
      </trkpt>
      <trkpt lat="43.13935" lon="2.36482">
        <ele>300.7</ele>
        <time>2023-11-05T07:53:07Z</time>
      </trkpt>
      <trkpt lat="43.13935" lon="2.36483">
        <ele>301</ele>
        <time>2023-11-05T07:53:08Z</time>
      </trkpt>
      <trkpt lat="43.13935" lon="2.36485">
        <ele>301.3</ele>
        <time>2023-11-05T07:53:09Z</time>
      </trkpt>
      <trkpt lat="43.13938" lon="2.36492">
        <ele>302.4</ele>
        <time>2023-11-05T07:53:14Z</time>
      </trkpt>
      <trkpt lat="43.13938" lon="2.36493">
        <ele>302.7</ele>
        <time>2023-11-05T07:53:15Z</time>
      </trkpt>
      <trkpt lat="43.13938" lon="2.36495">
        <ele>303</ele>
        <time>2023-11-05T07:53:16Z</time>
      </trkpt>
      <trkpt lat="43.13938" lon="2.36497">
        <ele>303.2</ele>
        <time>2023-11-05T07:53:17Z</time>
      </trkpt>
      <trkpt lat="43.13937" lon="2.36498">
        <ele>303.5</ele>
        <time>2023-11-05T07:53:18Z</time>
      </trkpt>
      <trkpt lat="43.13937" lon="2.365">
        <ele>303.7</ele>
        <time>2023-11-05T07:53:19Z</time>
      </trkpt>
      <trkpt lat="43.13936" lon="2.36501">
        <ele>303.9</ele>
        <time>2023-11-05T07:53:20Z</time>
      </trkpt>
      <trkpt lat="43.13937" lon="2.36505">
        <ele>304.5</ele>
        <time>2023-11-05T07:53:24Z</time>
      </trkpt>
      <trkpt lat="43.13937" lon="2.36506">
        <ele>304.7</ele>
        <time>2023-11-05T07:53:25Z</time>
      </trkpt>
      <trkpt lat="43.13936" lon="2.36507">
        <ele>304.9</ele>
        <time>2023-11-05T07:53:26Z</time>
      </trkpt>
      <trkpt lat="43.13935" lon="2.36509">
        <ele>305.3</ele>
        <time>2023-11-05T07:53:28Z</time>
      </trkpt>
      <trkpt lat="43.13934" lon="2.3651">
        <ele>305.4</ele>
        <time>2023-11-05T07:53:29Z</time>
      </trkpt>
      <trkpt lat="43.13934" lon="2.36512">
        <ele>305.7</ele>
        <time>2023-11-05T07:53:31Z</time>
      </trkpt>
      <trkpt lat="43.13933" lon="2.36514">
        <ele>306</ele>
        <time>2023-11-05T07:53:33Z</time>
      </trkpt>
      <trkpt lat="43.13933" lon="2.36514">
        <ele>306.1</ele>
        <time>2023-11-05T07:53:34Z</time>
      </trkpt>
      <trkpt lat="43.13933" lon="2.36516">
        <ele>306.3</ele>
        <time>2023-11-05T07:53:36Z</time>
      </trkpt>
      <trkpt lat="43.13931" lon="2.36518">
        <ele>306</ele>
        <time>2023-11-05T07:53:38Z</time>
      </trkpt>
      <trkpt lat="43.13932" lon="2.36521">
        <ele>305.4</ele>
        <time>2023-11-05T07:53:41Z</time>
      </trkpt>
      <trkpt lat="43.13932" lon="2.36524">
        <ele>304.9</ele>
        <time>2023-11-05T07:53:43Z</time>
      </trkpt>
      <trkpt lat="43.13932" lon="2.36525">
        <ele>304.7</ele>
        <time>2023-11-05T07:53:44Z</time>
      </trkpt>
      <trkpt lat="43.13932" lon="2.36527">
        <ele>304.3</ele>
        <time>2023-11-05T07:53:46Z</time>
      </trkpt>
      <trkpt lat="43.13934" lon="2.36528">
        <ele>303.9</ele>
        <time>2023-11-05T07:53:49Z</time>
      </trkpt>
      <trkpt lat="43.13934" lon="2.36528">
        <ele>303.7</ele>
        <time>2023-11-05T07:53:50Z</time>
      </trkpt>
      <trkpt lat="43.13937" lon="2.36529">
        <ele>303.1</ele>
        <time>2023-11-05T07:53:52Z</time>
      </trkpt>
      <trkpt lat="43.13938" lon="2.36531">
        <ele>302.6</ele>
        <time>2023-11-05T07:53:55Z</time>
      </trkpt>
      <trkpt lat="43.13939" lon="2.36533">
        <ele>302.1</ele>
        <time>2023-11-05T07:53:58Z</time>
      </trkpt>
      <trkpt lat="43.13939" lon="2.36533">
        <ele>302.1</ele>
        <time>2023-11-05T07:53:59Z</time>
      </trkpt>
      <trkpt lat="43.1394" lon="2.36533">
        <ele>301.9</ele>
        <time>2023-11-05T07:54:01Z</time>
      </trkpt>
      <trkpt lat="43.13942" lon="2.36533">
        <ele>301.3</ele>
        <time>2023-11-05T07:54:03Z</time>
      </trkpt>
      <trkpt lat="43.13944" lon="2.36532">
        <ele>300.9</ele>
        <time>2023-11-05T07:54:04Z</time>
      </trkpt>
      <trkpt lat="43.13945" lon="2.36527">
        <ele>300.1</ele>
        <time>2023-11-05T07:54:07Z</time>
      </trkpt>
      <trkpt lat="43.13945" lon="2.36521">
        <ele>299.2</ele>
        <time>2023-11-05T07:54:10Z</time>
      </trkpt>
      <trkpt lat="43.13946" lon="2.36517">
        <ele>298.7</ele>
        <time>2023-11-05T07:54:12Z</time>
      </trkpt>
      <trkpt lat="43.13945" lon="2.36511">
        <ele>297.9</ele>
        <time>2023-11-05T07:54:15Z</time>
      </trkpt>
      <trkpt lat="43.13944" lon="2.36506">
        <ele>297.4</ele>
        <time>2023-11-05T07:54:17Z</time>
      </trkpt>
      <trkpt lat="43.13945" lon="2.36501">
        <ele>296.7</ele>
        <time>2023-11-05T07:54:20Z</time>
      </trkpt>
      <trkpt lat="43.13946" lon="2.36499">
        <ele>296.5</ele>
        <time>2023-11-05T07:54:21Z</time>
      </trkpt>
      <trkpt lat="43.13947" lon="2.36497">
        <ele>296.1</ele>
        <time>2023-11-05T07:54:23Z</time>
      </trkpt>
      <trkpt lat="43.13948" lon="2.36494">
        <ele>295.6</ele>
        <time>2023-11-05T07:54:25Z</time>
      </trkpt>
      <trkpt lat="43.13948" lon="2.36492">
        <ele>295.4</ele>
        <time>2023-11-05T07:54:26Z</time>
      </trkpt>
      <trkpt lat="43.1395" lon="2.36488">
        <ele>294.7</ele>
        <time>2023-11-05T07:54:28Z</time>
      </trkpt>
      <trkpt lat="43.1395" lon="2.36487">
        <ele>294.4</ele>
        <time>2023-11-05T07:54:29Z</time>
      </trkpt>
      <trkpt lat="43.13951" lon="2.36484">
        <ele>293.9</ele>
        <time>2023-11-05T07:54:31Z</time>
      </trkpt>
      <trkpt lat="43.13951" lon="2.36483">
        <ele>293.7</ele>
        <time>2023-11-05T07:54:32Z</time>
      </trkpt>
      <trkpt lat="43.13951" lon="2.36481">
        <ele>293.4</ele>
        <time>2023-11-05T07:54:33Z</time>
      </trkpt>
      <trkpt lat="43.13952" lon="2.36479">
        <ele>293</ele>
        <time>2023-11-05T07:54:34Z</time>
      </trkpt>
      <trkpt lat="43.13954" lon="2.36478">
        <ele>292.4</ele>
        <time>2023-11-05T07:54:37Z</time>
      </trkpt>
      <trkpt lat="43.13954" lon="2.36478">
        <ele>292.3</ele>
        <time>2023-11-05T07:54:38Z</time>
      </trkpt>
      <trkpt lat="43.13954" lon="2.36478">
        <ele>292.3</ele>
        <time>2023-11-05T07:54:40Z</time>
      </trkpt>
      <trkpt lat="43.13954" lon="2.36477">
        <ele>292.2</ele>
        <time>2023-11-05T07:54:41Z</time>
      </trkpt>
      <trkpt lat="43.13955" lon="2.36477">
        <ele>292</ele>
        <time>2023-11-05T07:54:44Z</time>
      </trkpt>
      <trkpt lat="43.13956" lon="2.36475">
        <ele>291.5</ele>
        <time>2023-11-05T07:54:46Z</time>
      </trkpt>
      <trkpt lat="43.13958" lon="2.36472">
        <ele>290.7</ele>
        <time>2023-11-05T07:54:48Z</time>
      </trkpt>
      <trkpt lat="43.1396" lon="2.3647">
        <ele>289.8</ele>
        <time>2023-11-05T07:54:50Z</time>
      </trkpt>
      <trkpt lat="43.13964" lon="2.36469">
        <ele>288.7</ele>
        <time>2023-11-05T07:54:53Z</time>
      </trkpt>
      <trkpt lat="43.13968" lon="2.36466">
        <ele>287.5</ele>
        <time>2023-11-05T07:54:57Z</time>
      </trkpt>
      <trkpt lat="43.13971" lon="2.36463">
        <ele>286.4</ele>
        <time>2023-11-05T07:55:01Z</time>
      </trkpt>
      <trkpt lat="43.13972" lon="2.36458">
        <ele>285.4</ele>
        <time>2023-11-05T07:55:04Z</time>
      </trkpt>
      <trkpt lat="43.13974" lon="2.36457">
        <ele>284.9</ele>
        <time>2023-11-05T07:55:05Z</time>
      </trkpt>
      <trkpt lat="43.1398" lon="2.36456">
        <ele>283.3</ele>
        <time>2023-11-05T07:55:09Z</time>
      </trkpt>
      <trkpt lat="43.13983" lon="2.36456">
        <ele>282.5</ele>
        <time>2023-11-05T07:55:11Z</time>
      </trkpt>
      <trkpt lat="43.13987" lon="2.36452">
        <ele>281.5</ele>
        <time>2023-11-05T07:55:14Z</time>
      </trkpt>
      <trkpt lat="43.13988" lon="2.36451">
        <ele>281.1</ele>
        <time>2023-11-05T07:55:15Z</time>
      </trkpt>
      <trkpt lat="43.13991" lon="2.36449">
        <ele>280.4</ele>
        <time>2023-11-05T07:55:17Z</time>
      </trkpt>
      <trkpt lat="43.13998" lon="2.36444">
        <ele>278.6</ele>
        <time>2023-11-05T07:55:22Z</time>
      </trkpt>
      <trkpt lat="43.14001" lon="2.36443">
        <ele>277.8</ele>
        <time>2023-11-05T07:55:24Z</time>
      </trkpt>
      <trkpt lat="43.14002" lon="2.36443">
        <ele>277.5</ele>
        <time>2023-11-05T07:55:25Z</time>
      </trkpt>
      <trkpt lat="43.14004" lon="2.36442">
        <ele>277.1</ele>
        <time>2023-11-05T07:55:28Z</time>
      </trkpt>
      <trkpt lat="43.14006" lon="2.36441">
        <ele>276.6</ele>
        <time>2023-11-05T07:55:30Z</time>
      </trkpt>
      <trkpt lat="43.14012" lon="2.3644">
        <ele>275.4</ele>
        <time>2023-11-05T07:55:33Z</time>
      </trkpt>
      <trkpt lat="43.14016" lon="2.3644">
        <ele>274.6</ele>
        <time>2023-11-05T07:55:35Z</time>
      </trkpt>
      <trkpt lat="43.14023" lon="2.36442">
        <ele>273.2</ele>
        <time>2023-11-05T07:55:39Z</time>
      </trkpt>
      <trkpt lat="43.14029" lon="2.36444">
        <ele>272.3</ele>
        <time>2023-11-05T07:55:42Z</time>
      </trkpt>
      <trkpt lat="43.14033" lon="2.36445">
        <ele>271.7</ele>
        <time>2023-11-05T07:55:44Z</time>
      </trkpt>
      <trkpt lat="43.14037" lon="2.36447">
        <ele>271.1</ele>
        <time>2023-11-05T07:55:46Z</time>
      </trkpt>
      <trkpt lat="43.14046" lon="2.3645">
        <ele>269.9</ele>
        <time>2023-11-05T07:55:51Z</time>
      </trkpt>
      <trkpt lat="43.14047" lon="2.36451">
        <ele>269.7</ele>
        <time>2023-11-05T07:55:52Z</time>
      </trkpt>
      <trkpt lat="43.14053" lon="2.36454">
        <ele>269</ele>
        <time>2023-11-05T07:55:56Z</time>
      </trkpt>
      <trkpt lat="43.14055" lon="2.36455">
        <ele>268.9</ele>
        <time>2023-11-05T07:55:57Z</time>
      </trkpt>
      <trkpt lat="43.14056" lon="2.36456">
        <ele>268.7</ele>
        <time>2023-11-05T07:55:58Z</time>
      </trkpt>
      <trkpt lat="43.14058" lon="2.36457">
        <ele>268.5</ele>
        <time>2023-11-05T07:56:00Z</time>
      </trkpt>
      <trkpt lat="43.14059" lon="2.36458">
        <ele>268.6</ele>
        <time>2023-11-05T07:56:04Z</time>
      </trkpt>
      <trkpt lat="43.1406" lon="2.36459">
        <ele>268.6</ele>
        <time>2023-11-05T07:56:05Z</time>
      </trkpt>
      <trkpt lat="43.14061" lon="2.3646">
        <ele>268.6</ele>
        <time>2023-11-05T07:56:07Z</time>
      </trkpt>
      <trkpt lat="43.14063" lon="2.36461">
        <ele>268.6</ele>
        <time>2023-11-05T07:56:08Z</time>
      </trkpt>
      <trkpt lat="43.14064" lon="2.36461">
        <ele>268.6</ele>
        <time>2023-11-05T07:56:09Z</time>
      </trkpt>
      <trkpt lat="43.14068" lon="2.36462">
        <ele>268.7</ele>
        <time>2023-11-05T07:56:11Z</time>
      </trkpt>
      <trkpt lat="43.1407" lon="2.36463">
        <ele>268.7</ele>
        <time>2023-11-05T07:56:12Z</time>
      </trkpt>
      <trkpt lat="43.14074" lon="2.36464">
        <ele>268.8</ele>
        <time>2023-11-05T07:56:14Z</time>
      </trkpt>
      <trkpt lat="43.14083" lon="2.36468">
        <ele>269</ele>
        <time>2023-11-05T07:56:18Z</time>
      </trkpt>
      <trkpt lat="43.14085" lon="2.36469">
        <ele>269</ele>
        <time>2023-11-05T07:56:19Z</time>
      </trkpt>
      <trkpt lat="43.14089" lon="2.36469">
        <ele>269.1</ele>
        <time>2023-11-05T07:56:21Z</time>
      </trkpt>
      <trkpt lat="43.14093" lon="2.36471">
        <ele>269.2</ele>
        <time>2023-11-05T07:56:23Z</time>
      </trkpt>
      <trkpt lat="43.14097" lon="2.3647">
        <ele>269.2</ele>
        <time>2023-11-05T07:56:25Z</time>
      </trkpt>
      <trkpt lat="43.14098" lon="2.36469">
        <ele>269.3</ele>
        <time>2023-11-05T07:56:26Z</time>
      </trkpt>
      <trkpt lat="43.14103" lon="2.36461">
        <ele>269.4</ele>
        <time>2023-11-05T07:56:30Z</time>
      </trkpt>
      <trkpt lat="43.14103" lon="2.36458">
        <ele>269.4</ele>
        <time>2023-11-05T07:56:31Z</time>
      </trkpt>
      <trkpt lat="43.1411" lon="2.36435">
        <ele>269.7</ele>
        <time>2023-11-05T07:56:40Z</time>
      </trkpt>
      <trkpt lat="43.14113" lon="2.36433">
        <ele>269.8</ele>
        <time>2023-11-05T07:56:42Z</time>
      </trkpt>
      <trkpt lat="43.14116" lon="2.36434">
        <ele>269.8</ele>
        <time>2023-11-05T07:56:44Z</time>
      </trkpt>
      <trkpt lat="43.14117" lon="2.36434">
        <ele>269.9</ele>
        <time>2023-11-05T07:56:45Z</time>
      </trkpt>
      <trkpt lat="43.14119" lon="2.36433">
        <ele>269.9</ele>
        <time>2023-11-05T07:56:47Z</time>
      </trkpt>
      <trkpt lat="43.14119" lon="2.36433">
        <ele>269.9</ele>
        <time>2023-11-05T07:56:48Z</time>
      </trkpt>
      <trkpt lat="43.1412" lon="2.36434">
        <ele>269.9</ele>
        <time>2023-11-05T07:56:52Z</time>
      </trkpt>
      <trkpt lat="43.14122" lon="2.36434">
        <ele>269.9</ele>
        <time>2023-11-05T07:56:54Z</time>
      </trkpt>
      <trkpt lat="43.14122" lon="2.36433">
        <ele>270</ele>
        <time>2023-11-05T07:56:56Z</time>
      </trkpt>
      <trkpt lat="43.14125" lon="2.36429">
        <ele>270</ele>
        <time>2023-11-05T07:56:59Z</time>
      </trkpt>
      <trkpt lat="43.14126" lon="2.36428">
        <ele>270</ele>
        <time>2023-11-05T07:57:00Z</time>
      </trkpt>
      <trkpt lat="43.1413" lon="2.36423">
        <ele>270.1</ele>
        <time>2023-11-05T07:57:05Z</time>
      </trkpt>
      <trkpt lat="43.14131" lon="2.36422">
        <ele>270.2</ele>
        <time>2023-11-05T07:57:07Z</time>
      </trkpt>
      <trkpt lat="43.14132" lon="2.36422">
        <ele>270</ele>
        <time>2023-11-05T07:57:08Z</time>
      </trkpt>
      <trkpt lat="43.14134" lon="2.36422">
        <ele>270</ele>
        <time>2023-11-05T07:57:09Z</time>
      </trkpt>
      <trkpt lat="43.14135" lon="2.36422">
        <ele>269.8</ele>
        <time>2023-11-05T07:57:10Z</time>
      </trkpt>
      <trkpt lat="43.14141" lon="2.3642">
        <ele>270.1</ele>
        <time>2023-11-05T07:57:14Z</time>
      </trkpt>
      <trkpt lat="43.14142" lon="2.3642">
        <ele>269.9</ele>
        <time>2023-11-05T07:57:15Z</time>
      </trkpt>
      <trkpt lat="43.14145" lon="2.36418">
        <ele>269.9</ele>
        <time>2023-11-05T07:57:17Z</time>
      </trkpt>
      <trkpt lat="43.14148" lon="2.36416">
        <ele>270</ele>
        <time>2023-11-05T07:57:20Z</time>
      </trkpt>
      <trkpt lat="43.1415" lon="2.36415">
        <ele>270</ele>
        <time>2023-11-05T07:57:22Z</time>
      </trkpt>
      <trkpt lat="43.14153" lon="2.36415">
        <ele>269.9</ele>
        <time>2023-11-05T07:57:25Z</time>
      </trkpt>
      <trkpt lat="43.14156" lon="2.36418">
        <ele>269.6</ele>
        <time>2023-11-05T07:57:28Z</time>
      </trkpt>
      <trkpt lat="43.14159" lon="2.36419">
        <ele>269.5</ele>
        <time>2023-11-05T07:57:30Z</time>
      </trkpt>
      <trkpt lat="43.1416" lon="2.36419">
        <ele>269.4</ele>
        <time>2023-11-05T07:57:31Z</time>
      </trkpt>
      <trkpt lat="43.14163" lon="2.36419">
        <ele>269.3</ele>
        <time>2023-11-05T07:57:33Z</time>
      </trkpt>
      <trkpt lat="43.14168" lon="2.36416">
        <ele>269.6</ele>
        <time>2023-11-05T07:57:37Z</time>
      </trkpt>
      <trkpt lat="43.14171" lon="2.36411">
        <ele>269.8</ele>
        <time>2023-11-05T07:57:41Z</time>
      </trkpt>
      <trkpt lat="43.14173" lon="2.36408">
        <ele>269.7</ele>
        <time>2023-11-05T07:57:43Z</time>
      </trkpt>
      <trkpt lat="43.14173" lon="2.36407">
        <ele>269.9</ele>
        <time>2023-11-05T07:57:44Z</time>
      </trkpt>
      <trkpt lat="43.14173" lon="2.36406">
        <ele>269.7</ele>
        <time>2023-11-05T07:57:45Z</time>
      </trkpt>
      <trkpt lat="43.14173" lon="2.36402">
        <ele>269.9</ele>
        <time>2023-11-05T07:57:48Z</time>
      </trkpt>
      <trkpt lat="43.14173" lon="2.36398">
        <ele>270</ele>
        <time>2023-11-05T07:57:51Z</time>
      </trkpt>
      <trkpt lat="43.14172" lon="2.36397">
        <ele>269.9</ele>
        <time>2023-11-05T07:57:52Z</time>
      </trkpt>
      <trkpt lat="43.14172" lon="2.36395">
        <ele>269.7</ele>
        <time>2023-11-05T07:57:53Z</time>
      </trkpt>
      <trkpt lat="43.14171" lon="2.36394">
        <ele>269.9</ele>
        <time>2023-11-05T07:57:54Z</time>
      </trkpt>
      <trkpt lat="43.14171" lon="2.36392">
        <ele>269.7</ele>
        <time>2023-11-05T07:57:55Z</time>
      </trkpt>
      <trkpt lat="43.1417" lon="2.36389">
        <ele>269.5</ele>
        <time>2023-11-05T07:57:57Z</time>
      </trkpt>
      <trkpt lat="43.14169" lon="2.36385">
        <ele>269.6</ele>
        <time>2023-11-05T07:58:00Z</time>
      </trkpt>
      <trkpt lat="43.14169" lon="2.36377">
        <ele>269.9</ele>
        <time>2023-11-05T07:58:03Z</time>
      </trkpt>
      <trkpt lat="43.14171" lon="2.36372">
        <ele>270.2</ele>
        <time>2023-11-05T07:58:05Z</time>
      </trkpt>
      <trkpt lat="43.14174" lon="2.36366">
        <ele>270.6</ele>
        <time>2023-11-05T07:58:08Z</time>
      </trkpt>
      <trkpt lat="43.14179" lon="2.36361">
        <ele>270.3</ele>
        <time>2023-11-05T07:58:11Z</time>
      </trkpt>
      <trkpt lat="43.14187" lon="2.36354">
        <ele>269.9</ele>
        <time>2023-11-05T07:58:17Z</time>
      </trkpt>
      <trkpt lat="43.14189" lon="2.36354">
        <ele>269.7</ele>
        <time>2023-11-05T07:58:19Z</time>
      </trkpt>
      <trkpt lat="43.14191" lon="2.36353">
        <ele>269.6</ele>
        <time>2023-11-05T07:58:21Z</time>
      </trkpt>
      <trkpt lat="43.14194" lon="2.36353">
        <ele>269.5</ele>
        <time>2023-11-05T07:58:23Z</time>
      </trkpt>
      <trkpt lat="43.14201" lon="2.36354">
        <ele>269.1</ele>
        <time>2023-11-05T07:58:29Z</time>
      </trkpt>
      <trkpt lat="43.14203" lon="2.36356">
        <ele>269</ele>
        <time>2023-11-05T07:58:31Z</time>
      </trkpt>
      <trkpt lat="43.14206" lon="2.36361">
        <ele>268.8</ele>
        <time>2023-11-05T07:58:35Z</time>
      </trkpt>
      <trkpt lat="43.14207" lon="2.36362">
        <ele>268.7</ele>
        <time>2023-11-05T07:58:36Z</time>
      </trkpt>
      <trkpt lat="43.14211" lon="2.36363">
        <ele>268.5</ele>
        <time>2023-11-05T07:58:39Z</time>
      </trkpt>
      <trkpt lat="43.14212" lon="2.36364">
        <ele>268.5</ele>
        <time>2023-11-05T07:58:40Z</time>
      </trkpt>
      <trkpt lat="43.14219" lon="2.36365">
        <ele>268.1</ele>
        <time>2023-11-05T07:58:46Z</time>
      </trkpt>
      <trkpt lat="43.14222" lon="2.3636">
        <ele>267.9</ele>
        <time>2023-11-05T07:58:50Z</time>
      </trkpt>
      <trkpt lat="43.14224" lon="2.36357">
        <ele>267.8</ele>
        <time>2023-11-05T07:58:53Z</time>
      </trkpt>
      <trkpt lat="43.14226" lon="2.36356">
        <ele>267.7</ele>
        <time>2023-11-05T07:58:54Z</time>
      </trkpt>
      <trkpt lat="43.14228" lon="2.36356">
        <ele>267.6</ele>
        <time>2023-11-05T07:58:56Z</time>
      </trkpt>
      <trkpt lat="43.1423" lon="2.36356">
        <ele>267.5</ele>
        <time>2023-11-05T07:58:58Z</time>
      </trkpt>
      <trkpt lat="43.14233" lon="2.36356">
        <ele>267.3</ele>
        <time>2023-11-05T07:59:00Z</time>
      </trkpt>
      <trkpt lat="43.14236" lon="2.36355">
        <ele>267.2</ele>
        <time>2023-11-05T07:59:03Z</time>
      </trkpt>
      <trkpt lat="43.14238" lon="2.36354">
        <ele>267.1</ele>
        <time>2023-11-05T07:59:05Z</time>
      </trkpt>
      <trkpt lat="43.14239" lon="2.36353">
        <ele>267</ele>
        <time>2023-11-05T07:59:06Z</time>
      </trkpt>
      <trkpt lat="43.14242" lon="2.3635">
        <ele>266.8</ele>
        <time>2023-11-05T07:59:09Z</time>
      </trkpt>
      <trkpt lat="43.14243" lon="2.36349">
        <ele>266.8</ele>
        <time>2023-11-05T07:59:10Z</time>
      </trkpt>
      <trkpt lat="43.14245" lon="2.36347">
        <ele>266.7</ele>
        <time>2023-11-05T07:59:12Z</time>
      </trkpt>
      <trkpt lat="43.14245" lon="2.36346">
        <ele>266.6</ele>
        <time>2023-11-05T07:59:13Z</time>
      </trkpt>
      <trkpt lat="43.14247" lon="2.36341">
        <ele>266.4</ele>
        <time>2023-11-05T07:59:17Z</time>
      </trkpt>
      <trkpt lat="43.14249" lon="2.36338">
        <ele>266.3</ele>
        <time>2023-11-05T07:59:20Z</time>
      </trkpt>
      <trkpt lat="43.1425" lon="2.36338">
        <ele>266.3</ele>
        <time>2023-11-05T07:59:21Z</time>
      </trkpt>
      <trkpt lat="43.1425" lon="2.36336">
        <ele>266.2</ele>
        <time>2023-11-05T07:59:22Z</time>
      </trkpt>
      <trkpt lat="43.14252" lon="2.36332">
        <ele>266</ele>
        <time>2023-11-05T07:59:26Z</time>
      </trkpt>
      <trkpt lat="43.14253" lon="2.36329">
        <ele>265.9</ele>
        <time>2023-11-05T07:59:28Z</time>
      </trkpt>
      <trkpt lat="43.14259" lon="2.36317">
        <ele>265.4</ele>
        <time>2023-11-05T07:59:37Z</time>
      </trkpt>
      <trkpt lat="43.14262" lon="2.36311">
        <ele>265.2</ele>
        <time>2023-11-05T07:59:41Z</time>
      </trkpt>
      <trkpt lat="43.14264" lon="2.36308">
        <ele>265</ele>
        <time>2023-11-05T07:59:43Z</time>
      </trkpt>
      <trkpt lat="43.14268" lon="2.36301">
        <ele>264.7</ele>
        <time>2023-11-05T07:59:48Z</time>
      </trkpt>
      <trkpt lat="43.1427" lon="2.36298">
        <ele>264.6</ele>
        <time>2023-11-05T07:59:50Z</time>
      </trkpt>
      <trkpt lat="43.1427" lon="2.36294">
        <ele>264.4</ele>
        <time>2023-11-05T07:59:53Z</time>
      </trkpt>
      <trkpt lat="43.1427" lon="2.36285">
        <ele>264.1</ele>
        <time>2023-11-05T07:59:58Z</time>
      </trkpt>
      <trkpt lat="43.14272" lon="2.3627">
        <ele>263.6</ele>
        <time>2023-11-05T08:00:06Z</time>
      </trkpt>
      <trkpt lat="43.14272" lon="2.36263">
        <ele>263.3</ele>
        <time>2023-11-05T08:00:11Z</time>
      </trkpt>
      <trkpt lat="43.14272" lon="2.36257">
        <ele>263.1</ele>
        <time>2023-11-05T08:00:14Z</time>
      </trkpt>
      <trkpt lat="43.14272" lon="2.36254">
        <ele>263</ele>
        <time>2023-11-05T08:00:16Z</time>
      </trkpt>
      <trkpt lat="43.14272" lon="2.3625">
        <ele>262.9</ele>
        <time>2023-11-05T08:00:18Z</time>
      </trkpt>
      <trkpt lat="43.14272" lon="2.36248">
        <ele>262.8</ele>
        <time>2023-11-05T08:00:19Z</time>
      </trkpt>
      <trkpt lat="43.14274" lon="2.36245">
        <ele>262.7</ele>
        <time>2023-11-05T08:00:21Z</time>
      </trkpt>
      <trkpt lat="43.14274" lon="2.36242">
        <ele>262.6</ele>
        <time>2023-11-05T08:00:23Z</time>
      </trkpt>
      <trkpt lat="43.14274" lon="2.3624">
        <ele>262.5</ele>
        <time>2023-11-05T08:00:24Z</time>
      </trkpt>
      <trkpt lat="43.14272" lon="2.36232">
        <ele>262.2</ele>
        <time>2023-11-05T08:00:28Z</time>
      </trkpt>
      <trkpt lat="43.14273" lon="2.3623">
        <ele>262.1</ele>
        <time>2023-11-05T08:00:29Z</time>
      </trkpt>
      <trkpt lat="43.14273" lon="2.36228">
        <ele>262.1</ele>
        <time>2023-11-05T08:00:30Z</time>
      </trkpt>
      <trkpt lat="43.14277" lon="2.36223">
        <ele>261.8</ele>
        <time>2023-11-05T08:00:33Z</time>
      </trkpt>
      <trkpt lat="43.14277" lon="2.36222">
        <ele>261.8</ele>
        <time>2023-11-05T08:00:34Z</time>
      </trkpt>
      <trkpt lat="43.14277" lon="2.36216">
        <ele>261.6</ele>
        <time>2023-11-05T08:00:37Z</time>
      </trkpt>
      <trkpt lat="43.14277" lon="2.36213">
        <ele>261.5</ele>
        <time>2023-11-05T08:00:38Z</time>
      </trkpt>
      <trkpt lat="43.14278" lon="2.36202">
        <ele>261.1</ele>
        <time>2023-11-05T08:00:43Z</time>
      </trkpt>
      <trkpt lat="43.14278" lon="2.36194">
        <ele>260.8</ele>
        <time>2023-11-05T08:00:46Z</time>
      </trkpt>
      <trkpt lat="43.14278" lon="2.36191">
        <ele>260.7</ele>
        <time>2023-11-05T08:00:47Z</time>
      </trkpt>
      <trkpt lat="43.14278" lon="2.36189">
        <ele>260.6</ele>
        <time>2023-11-05T08:00:48Z</time>
      </trkpt>
      <trkpt lat="43.14277" lon="2.36184">
        <ele>260.5</ele>
        <time>2023-11-05T08:00:50Z</time>
      </trkpt>
      <trkpt lat="43.14276" lon="2.36174">
        <ele>260.1</ele>
        <time>2023-11-05T08:00:54Z</time>
      </trkpt>
      <trkpt lat="43.14276" lon="2.36172">
        <ele>260</ele>
        <time>2023-11-05T08:00:55Z</time>
      </trkpt>
      <trkpt lat="43.14277" lon="2.36164">
        <ele>259.7</ele>
        <time>2023-11-05T08:00:58Z</time>
      </trkpt>
      <trkpt lat="43.14275" lon="2.36153">
        <ele>259.4</ele>
        <time>2023-11-05T08:01:02Z</time>
      </trkpt>
      <trkpt lat="43.14274" lon="2.36143">
        <ele>259</ele>
        <time>2023-11-05T08:01:06Z</time>
      </trkpt>
      <trkpt lat="43.14275" lon="2.36134">
        <ele>258.7</ele>
        <time>2023-11-05T08:01:09Z</time>
      </trkpt>
      <trkpt lat="43.1428" lon="2.36119">
        <ele>258.1</ele>
        <time>2023-11-05T08:01:15Z</time>
      </trkpt>
      <trkpt lat="43.1428" lon="2.36117">
        <ele>258</ele>
        <time>2023-11-05T08:01:16Z</time>
      </trkpt>
      <trkpt lat="43.14282" lon="2.36106">
        <ele>257.7</ele>
        <time>2023-11-05T08:01:20Z</time>
      </trkpt>
      <trkpt lat="43.14283" lon="2.36098">
        <ele>257.4</ele>
        <time>2023-11-05T08:01:23Z</time>
      </trkpt>
      <trkpt lat="43.14287" lon="2.36076">
        <ele>256.6</ele>
        <time>2023-11-05T08:01:31Z</time>
      </trkpt>
      <trkpt lat="43.1429" lon="2.36061">
        <ele>256</ele>
        <time>2023-11-05T08:01:37Z</time>
      </trkpt>
      <trkpt lat="43.14291" lon="2.36053">
        <ele>255.8</ele>
        <time>2023-11-05T08:01:40Z</time>
      </trkpt>
      <trkpt lat="43.14295" lon="2.36039">
        <ele>255.2</ele>
        <time>2023-11-05T08:01:46Z</time>
      </trkpt>
      <trkpt lat="43.14299" lon="2.36026">
        <ele>254.7</ele>
        <time>2023-11-05T08:01:51Z</time>
      </trkpt>
      <trkpt lat="43.14302" lon="2.36015">
        <ele>254.3</ele>
        <time>2023-11-05T08:01:55Z</time>
      </trkpt>
      <trkpt lat="43.14302" lon="2.36013">
        <ele>254.2</ele>
        <time>2023-11-05T08:01:56Z</time>
      </trkpt>
      <trkpt lat="43.14303" lon="2.36008">
        <ele>254.1</ele>
        <time>2023-11-05T08:01:58Z</time>
      </trkpt>
      <trkpt lat="43.14303" lon="2.35994">
        <ele>253.6</ele>
        <time>2023-11-05T08:02:03Z</time>
      </trkpt>
      <trkpt lat="43.14303" lon="2.35988">
        <ele>253.4</ele>
        <time>2023-11-05T08:02:05Z</time>
      </trkpt>
      <trkpt lat="43.14305" lon="2.35974">
        <ele>252.9</ele>
        <time>2023-11-05T08:02:10Z</time>
      </trkpt>
      <trkpt lat="43.14308" lon="2.35962">
        <ele>252.4</ele>
        <time>2023-11-05T08:02:15Z</time>
      </trkpt>
      <trkpt lat="43.14308" lon="2.35958">
        <ele>252.3</ele>
        <time>2023-11-05T08:02:17Z</time>
      </trkpt>
      <trkpt lat="43.14313" lon="2.35937">
        <ele>251.5</ele>
        <time>2023-11-05T08:02:26Z</time>
      </trkpt>
      <trkpt lat="43.14314" lon="2.35933">
        <ele>251.4</ele>
        <time>2023-11-05T08:02:28Z</time>
      </trkpt>
      <trkpt lat="43.14317" lon="2.35918">
        <ele>250.8</ele>
        <time>2023-11-05T08:02:34Z</time>
      </trkpt>
      <trkpt lat="43.14319" lon="2.35912">
        <ele>250.6</ele>
        <time>2023-11-05T08:02:37Z</time>
      </trkpt>
      <trkpt lat="43.14321" lon="2.359">
        <ele>250.2</ele>
        <time>2023-11-05T08:02:42Z</time>
      </trkpt>
      <trkpt lat="43.14321" lon="2.35893">
        <ele>249.9</ele>
        <time>2023-11-05T08:02:45Z</time>
      </trkpt>
      <trkpt lat="43.14323" lon="2.35887">
        <ele>249.7</ele>
        <time>2023-11-05T08:02:48Z</time>
      </trkpt>
      <trkpt lat="43.14325" lon="2.35881">
        <ele>249.5</ele>
        <time>2023-11-05T08:02:50Z</time>
      </trkpt>
      <trkpt lat="43.14326" lon="2.35873">
        <ele>249.2</ele>
        <time>2023-11-05T08:02:53Z</time>
      </trkpt>
      <trkpt lat="43.14329" lon="2.35861">
        <ele>248.8</ele>
        <time>2023-11-05T08:02:58Z</time>
      </trkpt>
      <trkpt lat="43.14331" lon="2.35851">
        <ele>248.4</ele>
        <time>2023-11-05T08:03:02Z</time>
      </trkpt>
      <trkpt lat="43.14332" lon="2.35842">
        <ele>248.1</ele>
        <time>2023-11-05T08:03:05Z</time>
      </trkpt>
      <trkpt lat="43.14334" lon="2.35833">
        <ele>247.7</ele>
        <time>2023-11-05T08:03:08Z</time>
      </trkpt>
      <trkpt lat="43.14338" lon="2.35822">
        <ele>247.3</ele>
        <time>2023-11-05T08:03:12Z</time>
      </trkpt>
      <trkpt lat="43.14338" lon="2.35817">
        <ele>247.2</ele>
        <time>2023-11-05T08:03:14Z</time>
      </trkpt>
      <trkpt lat="43.14338" lon="2.35809">
        <ele>246.9</ele>
        <time>2023-11-05T08:03:17Z</time>
      </trkpt>
      <trkpt lat="43.14339" lon="2.35803">
        <ele>246.6</ele>
        <time>2023-11-05T08:03:19Z</time>
      </trkpt>
      <trkpt lat="43.14342" lon="2.35791">
        <ele>246.2</ele>
        <time>2023-11-05T08:03:23Z</time>
      </trkpt>
      <trkpt lat="43.14344" lon="2.35781">
        <ele>245.8</ele>
        <time>2023-11-05T08:03:27Z</time>
      </trkpt>
      <trkpt lat="43.14344" lon="2.35775">
        <ele>245.6</ele>
        <time>2023-11-05T08:03:29Z</time>
      </trkpt>
      <trkpt lat="43.14345" lon="2.35764">
        <ele>245.3</ele>
        <time>2023-11-05T08:03:33Z</time>
      </trkpt>
      <trkpt lat="43.14345" lon="2.35762">
        <ele>245.2</ele>
        <time>2023-11-05T08:03:34Z</time>
      </trkpt>
      <trkpt lat="43.14346" lon="2.35759">
        <ele>245.1</ele>
        <time>2023-11-05T08:03:35Z</time>
      </trkpt>
      <trkpt lat="43.14346" lon="2.35749">
        <ele>244.7</ele>
        <time>2023-11-05T08:03:39Z</time>
      </trkpt>
      <trkpt lat="43.14347" lon="2.35743">
        <ele>244.5</ele>
        <time>2023-11-05T08:03:42Z</time>
      </trkpt>
      <trkpt lat="43.1435" lon="2.35738">
        <ele>244.3</ele>
        <time>2023-11-05T08:03:44Z</time>
      </trkpt>
      <trkpt lat="43.14352" lon="2.35734">
        <ele>244.1</ele>
        <time>2023-11-05T08:03:46Z</time>
      </trkpt>
      <trkpt lat="43.14355" lon="2.35728">
        <ele>243.9</ele>
        <time>2023-11-05T08:03:49Z</time>
      </trkpt>
      <trkpt lat="43.14355" lon="2.35726">
        <ele>243.9</ele>
        <time>2023-11-05T08:03:50Z</time>
      </trkpt>
      <trkpt lat="43.14355" lon="2.35719">
        <ele>242.8</ele>
        <time>2023-11-05T08:03:53Z</time>
      </trkpt>
      <trkpt lat="43.14355" lon="2.35716">
        <ele>242.2</ele>
        <time>2023-11-05T08:03:54Z</time>
      </trkpt>
      <trkpt lat="43.14356" lon="2.35713">
        <ele>242.2</ele>
        <time>2023-11-05T08:03:55Z</time>
      </trkpt>
      <trkpt lat="43.14356" lon="2.3571">
        <ele>241.8</ele>
        <time>2023-11-05T08:03:56Z</time>
      </trkpt>
      <trkpt lat="43.14357" lon="2.35696">
        <ele>240.4</ele>
        <time>2023-11-05T08:04:01Z</time>
      </trkpt>
      <trkpt lat="43.14358" lon="2.3569">
        <ele>239.5</ele>
        <time>2023-11-05T08:04:03Z</time>
      </trkpt>
      <trkpt lat="43.14358" lon="2.35684">
        <ele>239.1</ele>
        <time>2023-11-05T08:04:05Z</time>
      </trkpt>
      <trkpt lat="43.1436" lon="2.35673">
        <ele>237.5</ele>
        <time>2023-11-05T08:04:09Z</time>
      </trkpt>
      <trkpt lat="43.14361" lon="2.35664">
        <ele>236.7</ele>
        <time>2023-11-05T08:04:12Z</time>
      </trkpt>
      <trkpt lat="43.14362" lon="2.35656">
        <ele>235.6</ele>
        <time>2023-11-05T08:04:15Z</time>
      </trkpt>
      <trkpt lat="43.14362" lon="2.35651">
        <ele>235.2</ele>
        <time>2023-11-05T08:04:17Z</time>
      </trkpt>
      <trkpt lat="43.14363" lon="2.35645">
        <ele>234.7</ele>
        <time>2023-11-05T08:04:20Z</time>
      </trkpt>
      <trkpt lat="43.14363" lon="2.35642">
        <ele>234.3</ele>
        <time>2023-11-05T08:04:21Z</time>
      </trkpt>
      <trkpt lat="43.14363" lon="2.3564">
        <ele>234.3</ele>
        <time>2023-11-05T08:04:22Z</time>
      </trkpt>
      <trkpt lat="43.14364" lon="2.35636">
        <ele>233.8</ele>
        <time>2023-11-05T08:04:24Z</time>
      </trkpt>
      <trkpt lat="43.14364" lon="2.35635">
        <ele>233.3</ele>
        <time>2023-11-05T08:04:25Z</time>
      </trkpt>
      <trkpt lat="43.14365" lon="2.35632">
        <ele>233.2</ele>
        <time>2023-11-05T08:04:27Z</time>
      </trkpt>
      <trkpt lat="43.14366" lon="2.3563">
        <ele>232.8</ele>
        <time>2023-11-05T08:04:28Z</time>
      </trkpt>
      <trkpt lat="43.14366" lon="2.3563">
        <ele>232.8</ele>
        <time>2023-11-05T08:04:29Z</time>
      </trkpt>
      <trkpt lat="43.14366" lon="2.35629">
        <ele>232.8</ele>
        <time>2023-11-05T08:04:30Z</time>
      </trkpt>
      <trkpt lat="43.14365" lon="2.35628">
        <ele>232.9</ele>
        <time>2023-11-05T08:04:33Z</time>
      </trkpt>
      <trkpt lat="43.14366" lon="2.35628">
        <ele>232.9</ele>
        <time>2023-11-05T08:04:37Z</time>
      </trkpt>
      <trkpt lat="43.14366" lon="2.35628">
        <ele>232.9</ele>
        <time>2023-11-05T08:04:40Z</time>
      </trkpt>
      <trkpt lat="43.14366" lon="2.35628">
        <ele>233</ele>
        <time>2023-11-05T08:04:41Z</time>
      </trkpt>
      <trkpt lat="43.14366" lon="2.35628">
        <ele>233</ele>
        <time>2023-11-05T08:04:44Z</time>
      </trkpt>
      <trkpt lat="43.14366" lon="2.35628">
        <ele>233</ele>
        <time>2023-11-05T08:04:52Z</time>
      </trkpt>
      <trkpt lat="43.14366" lon="2.35628">
        <ele>233.1</ele>
        <time>2023-11-05T08:04:56Z</time>
      </trkpt>
      <trkpt lat="43.14366" lon="2.35628">
        <ele>233.1</ele>
        <time>2023-11-05T08:04:57Z</time>
      </trkpt>
      <trkpt lat="43.14366" lon="2.35628">
        <ele>233.1</ele>
        <time>2023-11-05T08:04:58Z</time>
      </trkpt>
      <trkpt lat="43.14366" lon="2.35628">
        <ele>233.2</ele>
        <time>2023-11-05T08:04:59Z</time>
      </trkpt>
      <trkpt lat="43.14366" lon="2.35628">
        <ele>233.2</ele>
        <time>2023-11-05T08:05:00Z</time>
      </trkpt>
      <trkpt lat="43.14366" lon="2.35628">
        <ele>233.3</ele>
        <time>2023-11-05T08:05:01Z</time>
      </trkpt>
      <trkpt lat="43.14366" lon="2.35628">
        <ele>233.3</ele>
        <time>2023-11-05T08:05:02Z</time>
      </trkpt>
      <trkpt lat="43.14366" lon="2.35628">
        <ele>233.3</ele>
        <time>2023-11-05T08:05:03Z</time>
      </trkpt>
      <trkpt lat="43.14366" lon="2.35629">
        <ele>233.4</ele>
        <time>2023-11-05T08:05:05Z</time>
      </trkpt>
      <trkpt lat="43.14367" lon="2.35629">
        <ele>233.4</ele>
        <time>2023-11-05T08:05:06Z</time>
      </trkpt>
      <trkpt lat="43.14372" lon="2.35633">
        <ele>233.5</ele>
        <time>2023-11-05T08:05:09Z</time>
      </trkpt>
      <trkpt lat="43.14374" lon="2.35634">
        <ele>233.2</ele>
        <time>2023-11-05T08:05:10Z</time>
      </trkpt>
      <trkpt lat="43.14376" lon="2.35636">
        <ele>233.7</ele>
        <time>2023-11-05T08:05:11Z</time>
      </trkpt>
      <trkpt lat="43.14378" lon="2.3564">
        <ele>233.9</ele>
        <time>2023-11-05T08:05:13Z</time>
      </trkpt>
      <trkpt lat="43.14378" lon="2.35641">
        <ele>233.9</ele>
        <time>2023-11-05T08:05:14Z</time>
      </trkpt>
      <trkpt lat="43.14379" lon="2.35643">
        <ele>233.9</ele>
        <time>2023-11-05T08:05:15Z</time>
      </trkpt>
      <trkpt lat="43.1438" lon="2.35643">
        <ele>234</ele>
        <time>2023-11-05T08:05:19Z</time>
      </trkpt>
      <trkpt lat="43.14381" lon="2.35641">
        <ele>233.6</ele>
        <time>2023-11-05T08:05:21Z</time>
      </trkpt>
      <trkpt lat="43.14381" lon="2.35639">
        <ele>233.2</ele>
        <time>2023-11-05T08:05:22Z</time>
      </trkpt>
      <trkpt lat="43.14381" lon="2.35638">
        <ele>233.2</ele>
        <time>2023-11-05T08:05:23Z</time>
      </trkpt>
      <trkpt lat="43.14381" lon="2.35636">
        <ele>233.2</ele>
        <time>2023-11-05T08:05:24Z</time>
      </trkpt>
      <trkpt lat="43.14382" lon="2.35635">
        <ele>232.8</ele>
        <time>2023-11-05T08:05:25Z</time>
      </trkpt>
      <trkpt lat="43.14382" lon="2.35633">
        <ele>232.8</ele>
        <time>2023-11-05T08:05:26Z</time>
      </trkpt>
      <trkpt lat="43.14382" lon="2.35629">
        <ele>232.4</ele>
        <time>2023-11-05T08:05:28Z</time>
      </trkpt>
      <trkpt lat="43.14383" lon="2.35626">
        <ele>232.1</ele>
        <time>2023-11-05T08:05:30Z</time>
      </trkpt>
      <trkpt lat="43.14384" lon="2.35624">
        <ele>231.7</ele>
        <time>2023-11-05T08:05:31Z</time>
      </trkpt>
      <trkpt lat="43.14386" lon="2.35619">
        <ele>231.3</ele>
        <time>2023-11-05T08:05:34Z</time>
      </trkpt>
      <trkpt lat="43.14389" lon="2.35616">
        <ele>230.4</ele>
        <time>2023-11-05T08:05:37Z</time>
      </trkpt>
      <trkpt lat="43.14391" lon="2.35613">
        <ele>229.5</ele>
        <time>2023-11-05T08:05:39Z</time>
      </trkpt>
      <trkpt lat="43.14392" lon="2.35612">
        <ele>229.5</ele>
        <time>2023-11-05T08:05:40Z</time>
      </trkpt>
      <trkpt lat="43.14392" lon="2.35609">
        <ele>229.1</ele>
        <time>2023-11-05T08:05:42Z</time>
      </trkpt>
      <trkpt lat="43.14392" lon="2.35606">
        <ele>229.2</ele>
        <time>2023-11-05T08:05:44Z</time>
      </trkpt>
      <trkpt lat="43.1439" lon="2.35604">
        <ele>229.3</ele>
        <time>2023-11-05T08:05:46Z</time>
      </trkpt>
      <trkpt lat="43.14387" lon="2.35599">
        <ele>228.8</ele>
        <time>2023-11-05T08:05:49Z</time>
      </trkpt>
      <trkpt lat="43.14386" lon="2.35597">
        <ele>229.3</ele>
        <time>2023-11-05T08:05:51Z</time>
      </trkpt>
      <trkpt lat="43.14386" lon="2.35596">
        <ele>228.9</ele>
        <time>2023-11-05T08:05:52Z</time>
      </trkpt>
      <trkpt lat="43.14385" lon="2.35593">
        <ele>228.9</ele>
        <time>2023-11-05T08:05:55Z</time>
      </trkpt>
      <trkpt lat="43.14384" lon="2.35591">
        <ele>228.5</ele>
        <time>2023-11-05T08:05:56Z</time>
      </trkpt>
      <trkpt lat="43.14383" lon="2.35589">
        <ele>229</ele>
        <time>2023-11-05T08:05:57Z</time>
      </trkpt>
      <trkpt lat="43.1438" lon="2.35585">
        <ele>228.9</ele>
        <time>2023-11-05T08:06:00Z</time>
      </trkpt>
      <trkpt lat="43.14379" lon="2.35583">
        <ele>228.5</ele>
        <time>2023-11-05T08:06:01Z</time>
      </trkpt>
      <trkpt lat="43.14375" lon="2.35575">
        <ele>228.4</ele>
        <time>2023-11-05T08:06:05Z</time>
      </trkpt>
      <trkpt lat="43.14374" lon="2.35572">
        <ele>228.4</ele>
        <time>2023-11-05T08:06:07Z</time>
      </trkpt>
      <trkpt lat="43.14373" lon="2.35565">
        <ele>227.7</ele>
        <time>2023-11-05T08:06:10Z</time>
      </trkpt>
      <trkpt lat="43.14369" lon="2.35553">
        <ele>227.2</ele>
        <time>2023-11-05T08:06:15Z</time>
      </trkpt>
      <trkpt lat="43.14369" lon="2.35549">
        <ele>226.9</ele>
        <time>2023-11-05T08:06:18Z</time>
      </trkpt>
      <trkpt lat="43.14367" lon="2.35537">
        <ele>227</ele>
        <time>2023-11-05T08:06:23Z</time>
      </trkpt>
      <trkpt lat="43.14366" lon="2.35531">
        <ele>226.7</ele>
        <time>2023-11-05T08:06:26Z</time>
      </trkpt>
      <trkpt lat="43.14364" lon="2.35524">
        <ele>227.1</ele>
        <time>2023-11-05T08:06:29Z</time>
      </trkpt>
      <trkpt lat="43.14363" lon="2.35521">
        <ele>227</ele>
        <time>2023-11-05T08:06:31Z</time>
      </trkpt>
      <trkpt lat="43.14362" lon="2.35516">
        <ele>226.9</ele>
        <time>2023-11-05T08:06:33Z</time>
      </trkpt>
      <trkpt lat="43.14358" lon="2.35508">
        <ele>227.5</ele>
        <time>2023-11-05T08:06:38Z</time>
      </trkpt>
      <trkpt lat="43.14354" lon="2.35506">
        <ele>227.7</ele>
        <time>2023-11-05T08:06:40Z</time>
      </trkpt>
      <trkpt lat="43.1435" lon="2.35506">
        <ele>227.9</ele>
        <time>2023-11-05T08:06:43Z</time>
      </trkpt>
      <trkpt lat="43.14349" lon="2.35505">
        <ele>228.1</ele>
        <time>2023-11-05T08:06:44Z</time>
      </trkpt>
      <trkpt lat="43.14343" lon="2.35505">
        <ele>228.2</ele>
        <time>2023-11-05T08:06:47Z</time>
      </trkpt>
      <trkpt lat="43.14342" lon="2.35505">
        <ele>228.2</ele>
        <time>2023-11-05T08:06:48Z</time>
      </trkpt>
      <trkpt lat="43.14338" lon="2.35504">
        <ele>228.2</ele>
        <time>2023-11-05T08:06:52Z</time>
      </trkpt>
      <trkpt lat="43.14337" lon="2.35504">
        <ele>228.3</ele>
        <time>2023-11-05T08:06:53Z</time>
      </trkpt>
      <trkpt lat="43.14336" lon="2.35505">
        <ele>228.2</ele>
        <time>2023-11-05T08:06:55Z</time>
      </trkpt>
      <trkpt lat="43.14335" lon="2.35506">
        <ele>228.3</ele>
        <time>2023-11-05T08:06:56Z</time>
      </trkpt>
      <trkpt lat="43.14332" lon="2.3551">
        <ele>228.4</ele>
        <time>2023-11-05T08:06:59Z</time>
      </trkpt>
      <trkpt lat="43.14329" lon="2.35514">
        <ele>228.4</ele>
        <time>2023-11-05T08:07:02Z</time>
      </trkpt>
      <trkpt lat="43.14325" lon="2.3552">
        <ele>228.6</ele>
        <time>2023-11-05T08:07:06Z</time>
      </trkpt>
      <trkpt lat="43.14322" lon="2.35522">
        <ele>228.5</ele>
        <time>2023-11-05T08:07:08Z</time>
      </trkpt>
      <trkpt lat="43.14319" lon="2.35521">
        <ele>228.3</ele>
        <time>2023-11-05T08:07:10Z</time>
      </trkpt>
      <trkpt lat="43.14318" lon="2.3552">
        <ele>228.3</ele>
        <time>2023-11-05T08:07:11Z</time>
      </trkpt>
      <trkpt lat="43.14316" lon="2.35516">
        <ele>227.9</ele>
        <time>2023-11-05T08:07:13Z</time>
      </trkpt>
      <trkpt lat="43.14315" lon="2.35513">
        <ele>227.8</ele>
        <time>2023-11-05T08:07:15Z</time>
      </trkpt>
      <trkpt lat="43.14316" lon="2.35511">
        <ele>227.7</ele>
        <time>2023-11-05T08:07:16Z</time>
      </trkpt>
      <trkpt lat="43.14316" lon="2.35503">
        <ele>227.2</ele>
        <time>2023-11-05T08:07:21Z</time>
      </trkpt>
      <trkpt lat="43.14317" lon="2.35502">
        <ele>227.2</ele>
        <time>2023-11-05T08:07:22Z</time>
      </trkpt>
      <trkpt lat="43.14317" lon="2.35499">
        <ele>227</ele>
        <time>2023-11-05T08:07:24Z</time>
      </trkpt>
      <trkpt lat="43.14318" lon="2.35498">
        <ele>226.9</ele>
        <time>2023-11-05T08:07:25Z</time>
      </trkpt>
      <trkpt lat="43.14319" lon="2.35495">
        <ele>226.7</ele>
        <time>2023-11-05T08:07:27Z</time>
      </trkpt>
      <trkpt lat="43.14321" lon="2.35486">
        <ele>226.2</ele>
        <time>2023-11-05T08:07:33Z</time>
      </trkpt>
      <trkpt lat="43.14322" lon="2.35484">
        <ele>226.1</ele>
        <time>2023-11-05T08:07:35Z</time>
      </trkpt>
      <trkpt lat="43.14322" lon="2.35482">
        <ele>226</ele>
        <time>2023-11-05T08:07:36Z</time>
      </trkpt>
      <trkpt lat="43.14323" lon="2.35482">
        <ele>226</ele>
        <time>2023-11-05T08:07:37Z</time>
      </trkpt>
      <trkpt lat="43.14323" lon="2.35482">
        <ele>225.9</ele>
        <time>2023-11-05T08:07:39Z</time>
      </trkpt>
      <trkpt lat="43.14323" lon="2.35481">
        <ele>225.9</ele>
        <time>2023-11-05T08:07:40Z</time>
      </trkpt>
      <trkpt lat="43.14323" lon="2.3548">
        <ele>225.9</ele>
        <time>2023-11-05T08:07:42Z</time>
      </trkpt>
      <trkpt lat="43.14324" lon="2.35479">
        <ele>225.8</ele>
        <time>2023-11-05T08:07:44Z</time>
      </trkpt>
      <trkpt lat="43.14325" lon="2.35479">
        <ele>225.7</ele>
        <time>2023-11-05T08:07:47Z</time>
      </trkpt>
      <trkpt lat="43.14325" lon="2.35479">
        <ele>225.7</ele>
        <time>2023-11-05T08:07:48Z</time>
      </trkpt>
      <trkpt lat="43.14325" lon="2.35479">
        <ele>225.7</ele>
        <time>2023-11-05T08:07:54Z</time>
      </trkpt>
      <trkpt lat="43.14325" lon="2.35479">
        <ele>225.7</ele>
        <time>2023-11-05T08:07:55Z</time>
      </trkpt>
      <trkpt lat="43.14326" lon="2.35479">
        <ele>225.6</ele>
        <time>2023-11-05T08:07:56Z</time>
      </trkpt>
      <trkpt lat="43.14327" lon="2.35479">
        <ele>225.5</ele>
        <time>2023-11-05T08:07:57Z</time>
      </trkpt>
      <trkpt lat="43.14329" lon="2.35479">
        <ele>225.4</ele>
        <time>2023-11-05T08:07:58Z</time>
      </trkpt>
      <trkpt lat="43.14331" lon="2.35478">
        <ele>225.2</ele>
        <time>2023-11-05T08:07:59Z</time>
      </trkpt>
      <trkpt lat="43.14337" lon="2.35475">
        <ele>224.7</ele>
        <time>2023-11-05T08:08:02Z</time>
      </trkpt>
      <trkpt lat="43.14342" lon="2.35473">
        <ele>224.4</ele>
        <time>2023-11-05T08:08:04Z</time>
      </trkpt>
      <trkpt lat="43.14344" lon="2.35472">
        <ele>224.2</ele>
        <time>2023-11-05T08:08:05Z</time>
      </trkpt>
      <trkpt lat="43.14349" lon="2.35471">
        <ele>223.8</ele>
        <time>2023-11-05T08:08:07Z</time>
      </trkpt>
      <trkpt lat="43.14351" lon="2.3547">
        <ele>223.7</ele>
        <time>2023-11-05T08:08:08Z</time>
      </trkpt>
      <trkpt lat="43.14355" lon="2.35468">
        <ele>223.3</ele>
        <time>2023-11-05T08:08:10Z</time>
      </trkpt>
      <trkpt lat="43.1436" lon="2.35469">
        <ele>222.9</ele>
        <time>2023-11-05T08:08:13Z</time>
      </trkpt>
      <trkpt lat="43.14365" lon="2.3547">
        <ele>222.5</ele>
        <time>2023-11-05T08:08:15Z</time>
      </trkpt>
      <trkpt lat="43.14373" lon="2.3547">
        <ele>221.9</ele>
        <time>2023-11-05T08:08:19Z</time>
      </trkpt>
      <trkpt lat="43.14378" lon="2.35472">
        <ele>221.6</ele>
        <time>2023-11-05T08:08:22Z</time>
      </trkpt>
      <trkpt lat="43.14379" lon="2.35474">
        <ele>221.4</ele>
        <time>2023-11-05T08:08:23Z</time>
      </trkpt>
      <trkpt lat="43.14383" lon="2.35476">
        <ele>221.1</ele>
        <time>2023-11-05T08:08:25Z</time>
      </trkpt>
      <trkpt lat="43.14387" lon="2.35477">
        <ele>220.8</ele>
        <time>2023-11-05T08:08:27Z</time>
      </trkpt>
      <trkpt lat="43.14389" lon="2.35479">
        <ele>220.6</ele>
        <time>2023-11-05T08:08:28Z</time>
      </trkpt>
      <trkpt lat="43.14392" lon="2.35483">
        <ele>220.3</ele>
        <time>2023-11-05T08:08:30Z</time>
      </trkpt>
      <trkpt lat="43.14398" lon="2.35489">
        <ele>219.7</ele>
        <time>2023-11-05T08:08:34Z</time>
      </trkpt>
      <trkpt lat="43.14399" lon="2.35491">
        <ele>219.6</ele>
        <time>2023-11-05T08:08:35Z</time>
      </trkpt>
      <trkpt lat="43.14402" lon="2.35495">
        <ele>219.3</ele>
        <time>2023-11-05T08:08:37Z</time>
      </trkpt>
      <trkpt lat="43.14405" lon="2.35499">
        <ele>219</ele>
        <time>2023-11-05T08:08:39Z</time>
      </trkpt>
      <trkpt lat="43.14411" lon="2.35502">
        <ele>218.5</ele>
        <time>2023-11-05T08:08:42Z</time>
      </trkpt>
      <trkpt lat="43.14417" lon="2.35505">
        <ele>218</ele>
        <time>2023-11-05T08:08:45Z</time>
      </trkpt>
      <trkpt lat="43.14422" lon="2.35509">
        <ele>217.6</ele>
        <time>2023-11-05T08:08:48Z</time>
      </trkpt>
      <trkpt lat="43.1443" lon="2.35511">
        <ele>216.9</ele>
        <time>2023-11-05T08:08:52Z</time>
      </trkpt>
      <trkpt lat="43.14433" lon="2.35513">
        <ele>216.7</ele>
        <time>2023-11-05T08:08:54Z</time>
      </trkpt>
      <trkpt lat="43.14436" lon="2.35514">
        <ele>216.5</ele>
        <time>2023-11-05T08:08:58Z</time>
      </trkpt>
      <trkpt lat="43.14438" lon="2.35515">
        <ele>216.3</ele>
        <time>2023-11-05T08:09:01Z</time>
      </trkpt>
      <trkpt lat="43.14442" lon="2.35517">
        <ele>216</ele>
        <time>2023-11-05T08:09:05Z</time>
      </trkpt>
      <trkpt lat="43.14443" lon="2.35518">
        <ele>215.9</ele>
        <time>2023-11-05T08:09:06Z</time>
      </trkpt>
      <trkpt lat="43.14444" lon="2.35518">
        <ele>215.8</ele>
        <time>2023-11-05T08:09:07Z</time>
      </trkpt>
      <trkpt lat="43.14445" lon="2.35519">
        <ele>215.7</ele>
        <time>2023-11-05T08:09:08Z</time>
      </trkpt>
      <trkpt lat="43.14448" lon="2.35522">
        <ele>215.4</ele>
        <time>2023-11-05T08:09:10Z</time>
      </trkpt>
      <trkpt lat="43.1445" lon="2.35523">
        <ele>215.3</ele>
        <time>2023-11-05T08:09:11Z</time>
      </trkpt>
      <trkpt lat="43.14455" lon="2.35525">
        <ele>214.9</ele>
        <time>2023-11-05T08:09:13Z</time>
      </trkpt>
      <trkpt lat="43.14457" lon="2.35526">
        <ele>214.7</ele>
        <time>2023-11-05T08:09:14Z</time>
      </trkpt>
      <trkpt lat="43.14461" lon="2.35526">
        <ele>214.4</ele>
        <time>2023-11-05T08:09:16Z</time>
      </trkpt>
      <trkpt lat="43.14463" lon="2.35526">
        <ele>214.2</ele>
        <time>2023-11-05T08:09:17Z</time>
      </trkpt>
      <trkpt lat="43.14474" lon="2.35526">
        <ele>213.4</ele>
        <time>2023-11-05T08:09:22Z</time>
      </trkpt>
      <trkpt lat="43.14481" lon="2.35525">
        <ele>212.9</ele>
        <time>2023-11-05T08:09:25Z</time>
      </trkpt>
      <trkpt lat="43.14488" lon="2.35525">
        <ele>212.3</ele>
        <time>2023-11-05T08:09:28Z</time>
      </trkpt>
      <trkpt lat="43.14495" lon="2.35525">
        <ele>211.8</ele>
        <time>2023-11-05T08:09:31Z</time>
      </trkpt>
      <trkpt lat="43.145" lon="2.35526">
        <ele>211.5</ele>
        <time>2023-11-05T08:09:33Z</time>
      </trkpt>
      <trkpt lat="43.14512" lon="2.35525">
        <ele>210.6</ele>
        <time>2023-11-05T08:09:38Z</time>
      </trkpt>
      <trkpt lat="43.14519" lon="2.35525">
        <ele>210</ele>
        <time>2023-11-05T08:09:41Z</time>
      </trkpt>
      <trkpt lat="43.14521" lon="2.35525">
        <ele>209.8</ele>
        <time>2023-11-05T08:09:42Z</time>
      </trkpt>
      <trkpt lat="43.14528" lon="2.35527">
        <ele>209.6</ele>
        <time>2023-11-05T08:09:45Z</time>
      </trkpt>
      <trkpt lat="43.14533" lon="2.35527">
        <ele>209.4</ele>
        <time>2023-11-05T08:09:47Z</time>
      </trkpt>
      <trkpt lat="43.14544" lon="2.35532">
        <ele>209.1</ele>
        <time>2023-11-05T08:09:52Z</time>
      </trkpt>
      <trkpt lat="43.14557" lon="2.3554">
        <ele>208.7</ele>
        <time>2023-11-05T08:09:58Z</time>
      </trkpt>
      <trkpt lat="43.14563" lon="2.35547">
        <ele>208.5</ele>
        <time>2023-11-05T08:10:01Z</time>
      </trkpt>
      <trkpt lat="43.14568" lon="2.35554">
        <ele>208.4</ele>
        <time>2023-11-05T08:10:04Z</time>
      </trkpt>
      <trkpt lat="43.14575" lon="2.35566">
        <ele>208.2</ele>
        <time>2023-11-05T08:10:08Z</time>
      </trkpt>
      <trkpt lat="43.14581" lon="2.35576">
        <ele>208.1</ele>
        <time>2023-11-05T08:10:12Z</time>
      </trkpt>
      <trkpt lat="43.14588" lon="2.35585">
        <ele>208.1</ele>
        <time>2023-11-05T08:10:16Z</time>
      </trkpt>
      <trkpt lat="43.146" lon="2.35602">
        <ele>208.3</ele>
        <time>2023-11-05T08:10:24Z</time>
      </trkpt>
      <trkpt lat="43.14602" lon="2.35605">
        <ele>208.3</ele>
        <time>2023-11-05T08:10:27Z</time>
      </trkpt>
      <trkpt lat="43.14604" lon="2.35607">
        <ele>208.3</ele>
        <time>2023-11-05T08:10:30Z</time>
      </trkpt>
      <trkpt lat="43.14605" lon="2.35607">
        <ele>208.3</ele>
        <time>2023-11-05T08:10:31Z</time>
      </trkpt>
      <trkpt lat="43.14609" lon="2.35608">
        <ele>208.2</ele>
        <time>2023-11-05T08:10:35Z</time>
      </trkpt>
      <trkpt lat="43.14615" lon="2.35607">
        <ele>208.2</ele>
        <time>2023-11-05T08:10:39Z</time>
      </trkpt>
      <trkpt lat="43.14617" lon="2.35607">
        <ele>208.2</ele>
        <time>2023-11-05T08:10:40Z</time>
      </trkpt>
      <trkpt lat="43.1462" lon="2.35604">
        <ele>208.4</ele>
        <time>2023-11-05T08:10:42Z</time>
      </trkpt>
      <trkpt lat="43.14622" lon="2.35602">
        <ele>208.5</ele>
        <time>2023-11-05T08:10:43Z</time>
      </trkpt>
      <trkpt lat="43.14625" lon="2.35599">
        <ele>209</ele>
        <time>2023-11-05T08:10:45Z</time>
      </trkpt>
      <trkpt lat="43.14627" lon="2.35597">
        <ele>209.2</ele>
        <time>2023-11-05T08:10:46Z</time>
      </trkpt>
      <trkpt lat="43.14628" lon="2.35595">
        <ele>210.2</ele>
        <time>2023-11-05T08:10:47Z</time>
      </trkpt>
      <trkpt lat="43.1463" lon="2.35593">
        <ele>210.8</ele>
        <time>2023-11-05T08:10:49Z</time>
      </trkpt>
      <trkpt lat="43.14631" lon="2.35592">
        <ele>211</ele>
        <time>2023-11-05T08:10:51Z</time>
      </trkpt>
      <trkpt lat="43.14632" lon="2.35592">
        <ele>211.1</ele>
        <time>2023-11-05T08:10:53Z</time>
      </trkpt>
      <trkpt lat="43.14632" lon="2.35593">
        <ele>211.2</ele>
        <time>2023-11-05T08:10:54Z</time>
      </trkpt>
      <trkpt lat="43.14633" lon="2.35593">
        <ele>211.4</ele>
        <time>2023-11-05T08:10:56Z</time>
      </trkpt>
      <trkpt lat="43.14635" lon="2.35595">
        <ele>211.7</ele>
        <time>2023-11-05T08:10:58Z</time>
      </trkpt>
      <trkpt lat="43.14639" lon="2.356">
        <ele>212.4</ele>
        <time>2023-11-05T08:11:02Z</time>
      </trkpt>
      <trkpt lat="43.1464" lon="2.356">
        <ele>212.4</ele>
        <time>2023-11-05T08:11:03Z</time>
      </trkpt>
      <trkpt lat="43.14641" lon="2.35602">
        <ele>212.5</ele>
        <time>2023-11-05T08:11:04Z</time>
      </trkpt>
      <trkpt lat="43.14644" lon="2.35604">
        <ele>212.7</ele>
        <time>2023-11-05T08:11:07Z</time>
      </trkpt>
      <trkpt lat="43.14645" lon="2.35604">
        <ele>212.8</ele>
        <time>2023-11-05T08:11:08Z</time>
      </trkpt>
      <trkpt lat="43.14648" lon="2.35605">
        <ele>212.9</ele>
        <time>2023-11-05T08:11:10Z</time>
      </trkpt>
      <trkpt lat="43.14652" lon="2.35605">
        <ele>212.9</ele>
        <time>2023-11-05T08:11:13Z</time>
      </trkpt>
      <trkpt lat="43.14654" lon="2.35605">
        <ele>212.9</ele>
        <time>2023-11-05T08:11:15Z</time>
      </trkpt>
      <trkpt lat="43.14657" lon="2.35606">
        <ele>212.9</ele>
        <time>2023-11-05T08:11:19Z</time>
      </trkpt>
      <trkpt lat="43.14658" lon="2.35605">
        <ele>212.9</ele>
        <time>2023-11-05T08:11:21Z</time>
      </trkpt>
      <trkpt lat="43.14662" lon="2.35606">
        <ele>212.8</ele>
        <time>2023-11-05T08:11:23Z</time>
      </trkpt>
      <trkpt lat="43.14664" lon="2.35608">
        <ele>212.8</ele>
        <time>2023-11-05T08:11:24Z</time>
      </trkpt>
      <trkpt lat="43.14665" lon="2.3561">
        <ele>212.8</ele>
        <time>2023-11-05T08:11:26Z</time>
      </trkpt>
      <trkpt lat="43.14666" lon="2.35612">
        <ele>212.8</ele>
        <time>2023-11-05T08:11:28Z</time>
      </trkpt>
      <trkpt lat="43.14668" lon="2.35614">
        <ele>212.8</ele>
        <time>2023-11-05T08:11:30Z</time>
      </trkpt>
      <trkpt lat="43.14668" lon="2.35615">
        <ele>212.8</ele>
        <time>2023-11-05T08:11:31Z</time>
      </trkpt>
      <trkpt lat="43.14669" lon="2.35616">
        <ele>212.8</ele>
        <time>2023-11-05T08:11:32Z</time>
      </trkpt>
      <trkpt lat="43.1467" lon="2.35617">
        <ele>212.8</ele>
        <time>2023-11-05T08:11:33Z</time>
      </trkpt>
      <trkpt lat="43.1467" lon="2.35619">
        <ele>212.8</ele>
        <time>2023-11-05T08:11:34Z</time>
      </trkpt>
      <trkpt lat="43.14672" lon="2.35621">
        <ele>212.8</ele>
        <time>2023-11-05T08:11:36Z</time>
      </trkpt>
      <trkpt lat="43.14674" lon="2.35623">
        <ele>212.8</ele>
        <time>2023-11-05T08:11:38Z</time>
      </trkpt>
      <trkpt lat="43.14674" lon="2.35625">
        <ele>212.8</ele>
        <time>2023-11-05T08:11:39Z</time>
      </trkpt>
      <trkpt lat="43.14674" lon="2.3563">
        <ele>212.8</ele>
        <time>2023-11-05T08:11:41Z</time>
      </trkpt>
      <trkpt lat="43.14675" lon="2.35633">
        <ele>212.9</ele>
        <time>2023-11-05T08:11:44Z</time>
      </trkpt>
      <trkpt lat="43.14677" lon="2.35633">
        <ele>212.9</ele>
        <time>2023-11-05T08:11:47Z</time>
      </trkpt>
      <trkpt lat="43.14679" lon="2.35634">
        <ele>212.9</ele>
        <time>2023-11-05T08:11:50Z</time>
      </trkpt>
      <trkpt lat="43.14679" lon="2.35635">
        <ele>212.9</ele>
        <time>2023-11-05T08:11:51Z</time>
      </trkpt>
      <trkpt lat="43.14684" lon="2.35635">
        <ele>213</ele>
        <time>2023-11-05T08:11:55Z</time>
      </trkpt>
      <trkpt lat="43.14684" lon="2.35634">
        <ele>213</ele>
        <time>2023-11-05T08:11:56Z</time>
      </trkpt>
      <trkpt lat="43.14685" lon="2.35634">
        <ele>213.1</ele>
        <time>2023-11-05T08:11:57Z</time>
      </trkpt>
      <trkpt lat="43.14686" lon="2.35634">
        <ele>213.1</ele>
        <time>2023-11-05T08:12:01Z</time>
      </trkpt>
      <trkpt lat="43.14685" lon="2.35634">
        <ele>213.1</ele>
        <time>2023-11-05T08:12:06Z</time>
      </trkpt>
      <trkpt lat="43.14685" lon="2.35634">
        <ele>213.1</ele>
        <time>2023-11-05T08:12:07Z</time>
      </trkpt>
      <trkpt lat="43.14687" lon="2.35636">
        <ele>213.2</ele>
        <time>2023-11-05T08:12:14Z</time>
      </trkpt>
      <trkpt lat="43.14688" lon="2.35637">
        <ele>213.2</ele>
        <time>2023-11-05T08:12:15Z</time>
      </trkpt>
      <trkpt lat="43.1469" lon="2.35639">
        <ele>213.3</ele>
        <time>2023-11-05T08:12:18Z</time>
      </trkpt>
      <trkpt lat="43.14691" lon="2.3564">
        <ele>213.3</ele>
        <time>2023-11-05T08:12:19Z</time>
      </trkpt>
      <trkpt lat="43.14693" lon="2.35642">
        <ele>213.4</ele>
        <time>2023-11-05T08:12:21Z</time>
      </trkpt>
      <trkpt lat="43.14695" lon="2.35644">
        <ele>213.5</ele>
        <time>2023-11-05T08:12:23Z</time>
      </trkpt>
      <trkpt lat="43.14696" lon="2.35646">
        <ele>213.6</ele>
        <time>2023-11-05T08:12:25Z</time>
      </trkpt>
      <trkpt lat="43.14699" lon="2.35647">
        <ele>213.7</ele>
        <time>2023-11-05T08:12:28Z</time>
      </trkpt>
      <trkpt lat="43.14704" lon="2.35652">
        <ele>213.9</ele>
        <time>2023-11-05T08:12:34Z</time>
      </trkpt>
      <trkpt lat="43.14705" lon="2.35652">
        <ele>214</ele>
        <time>2023-11-05T08:12:36Z</time>
      </trkpt>
      <trkpt lat="43.14714" lon="2.35657">
        <ele>214.3</ele>
        <time>2023-11-05T08:12:40Z</time>
      </trkpt>
      <trkpt lat="43.14717" lon="2.35661">
        <ele>214.5</ele>
        <time>2023-11-05T08:12:42Z</time>
      </trkpt>
      <trkpt lat="43.14719" lon="2.35663">
        <ele>214.5</ele>
        <time>2023-11-05T08:12:43Z</time>
      </trkpt>
      <trkpt lat="43.14725" lon="2.35673">
        <ele>214.9</ele>
        <time>2023-11-05T08:12:49Z</time>
      </trkpt>
      <trkpt lat="43.14726" lon="2.35687">
        <ele>215.2</ele>
        <time>2023-11-05T08:12:54Z</time>
      </trkpt>
      <trkpt lat="43.14726" lon="2.35689">
        <ele>215.3</ele>
        <time>2023-11-05T08:12:55Z</time>
      </trkpt>
      <trkpt lat="43.14726" lon="2.35702">
        <ele>215.6</ele>
        <time>2023-11-05T08:13:00Z</time>
      </trkpt>
      <trkpt lat="43.14725" lon="2.35718">
        <ele>215.9</ele>
        <time>2023-11-05T08:13:05Z</time>
      </trkpt>
      <trkpt lat="43.14727" lon="2.35725">
        <ele>216.1</ele>
        <time>2023-11-05T08:13:07Z</time>
      </trkpt>
      <trkpt lat="43.14726" lon="2.35746">
        <ele>216.4</ele>
        <time>2023-11-05T08:13:15Z</time>
      </trkpt>
      <trkpt lat="43.14724" lon="2.35767">
        <ele>216.9</ele>
        <time>2023-11-05T08:13:23Z</time>
      </trkpt>
      <trkpt lat="43.14722" lon="2.35778">
        <ele>217.9</ele>
        <time>2023-11-05T08:13:29Z</time>
      </trkpt>
      <trkpt lat="43.14721" lon="2.3578">
        <ele>218.1</ele>
        <time>2023-11-05T08:13:31Z</time>
      </trkpt>
      <trkpt lat="43.14719" lon="2.35786">
        <ele>218.6</ele>
        <time>2023-11-05T08:13:37Z</time>
      </trkpt>
      <trkpt lat="43.14718" lon="2.35786">
        <ele>218.7</ele>
        <time>2023-11-05T08:13:47Z</time>
      </trkpt>
      <trkpt lat="43.14718" lon="2.35786">
        <ele>218.7</ele>
        <time>2023-11-05T08:13:54Z</time>
      </trkpt>
      <trkpt lat="43.14718" lon="2.35786">
        <ele>218.7</ele>
        <time>2023-11-05T08:13:58Z</time>
      </trkpt>
      <trkpt lat="43.1472" lon="2.35791">
        <ele>219</ele>
        <time>2023-11-05T08:14:01Z</time>
      </trkpt>
      <trkpt lat="43.1472" lon="2.35792">
        <ele>219.2</ele>
        <time>2023-11-05T08:14:02Z</time>
      </trkpt>
      <trkpt lat="43.1472" lon="2.35794">
        <ele>219.3</ele>
        <time>2023-11-05T08:14:03Z</time>
      </trkpt>
      <trkpt lat="43.1472" lon="2.35796">
        <ele>219.4</ele>
        <time>2023-11-05T08:14:04Z</time>
      </trkpt>
      <trkpt lat="43.1472" lon="2.35798">
        <ele>219.6</ele>
        <time>2023-11-05T08:14:05Z</time>
      </trkpt>
      <trkpt lat="43.1472" lon="2.35802">
        <ele>219.8</ele>
        <time>2023-11-05T08:14:07Z</time>
      </trkpt>
      <trkpt lat="43.1472" lon="2.35805">
        <ele>220.1</ele>
        <time>2023-11-05T08:14:09Z</time>
      </trkpt>
      <trkpt lat="43.14721" lon="2.35809">
        <ele>220.4</ele>
        <time>2023-11-05T08:14:11Z</time>
      </trkpt>
      <trkpt lat="43.1472" lon="2.35812">
        <ele>220.6</ele>
        <time>2023-11-05T08:14:13Z</time>
      </trkpt>
      <trkpt lat="43.1472" lon="2.35818">
        <ele>221.2</ele>
        <time>2023-11-05T08:14:16Z</time>
      </trkpt>
      <trkpt lat="43.1472" lon="2.35822">
        <ele>221.5</ele>
        <time>2023-11-05T08:14:18Z</time>
      </trkpt>
      <trkpt lat="43.1472" lon="2.35824">
        <ele>221.7</ele>
        <time>2023-11-05T08:14:19Z</time>
      </trkpt>
      <trkpt lat="43.14719" lon="2.35827">
        <ele>222.1</ele>
        <time>2023-11-05T08:14:21Z</time>
      </trkpt>
      <trkpt lat="43.14718" lon="2.3583">
        <ele>222.4</ele>
        <time>2023-11-05T08:14:23Z</time>
      </trkpt>
      <trkpt lat="43.14718" lon="2.35833">
        <ele>222.7</ele>
        <time>2023-11-05T08:14:25Z</time>
      </trkpt>
      <trkpt lat="43.14718" lon="2.35836">
        <ele>223</ele>
        <time>2023-11-05T08:14:27Z</time>
      </trkpt>
      <trkpt lat="43.14718" lon="2.35838">
        <ele>223.2</ele>
        <time>2023-11-05T08:14:28Z</time>
      </trkpt>
      <trkpt lat="43.14717" lon="2.3584">
        <ele>223.4</ele>
        <time>2023-11-05T08:14:29Z</time>
      </trkpt>
      <trkpt lat="43.14717" lon="2.35848">
        <ele>224.2</ele>
        <time>2023-11-05T08:14:33Z</time>
      </trkpt>
      <trkpt lat="43.14721" lon="2.35851">
        <ele>224.7</ele>
        <time>2023-11-05T08:14:36Z</time>
      </trkpt>
      <trkpt lat="43.14722" lon="2.35851">
        <ele>224.9</ele>
        <time>2023-11-05T08:14:37Z</time>
      </trkpt>
      <trkpt lat="43.14724" lon="2.35848">
        <ele>225.2</ele>
        <time>2023-11-05T08:14:39Z</time>
      </trkpt>
      <trkpt lat="43.14725" lon="2.35846">
        <ele>225.5</ele>
        <time>2023-11-05T08:14:41Z</time>
      </trkpt>
      <trkpt lat="43.14726" lon="2.35845">
        <ele>225.8</ele>
        <time>2023-11-05T08:14:44Z</time>
      </trkpt>
      <trkpt lat="43.14731" lon="2.35843">
        <ele>226.4</ele>
        <time>2023-11-05T08:14:48Z</time>
      </trkpt>
      <trkpt lat="43.14732" lon="2.35842">
        <ele>226.6</ele>
        <time>2023-11-05T08:14:50Z</time>
      </trkpt>
      <trkpt lat="43.14734" lon="2.35839">
        <ele>227.1</ele>
        <time>2023-11-05T08:14:53Z</time>
      </trkpt>
      <trkpt lat="43.14736" lon="2.35836">
        <ele>227.5</ele>
        <time>2023-11-05T08:14:55Z</time>
      </trkpt>
      <trkpt lat="43.14737" lon="2.35834">
        <ele>227.7</ele>
        <time>2023-11-05T08:14:56Z</time>
      </trkpt>
      <trkpt lat="43.14739" lon="2.3583">
        <ele>228.1</ele>
        <time>2023-11-05T08:14:59Z</time>
      </trkpt>
      <trkpt lat="43.14739" lon="2.3583">
        <ele>228.2</ele>
        <time>2023-11-05T08:15:00Z</time>
      </trkpt>
      <trkpt lat="43.1474" lon="2.35828">
        <ele>228.5</ele>
        <time>2023-11-05T08:15:02Z</time>
      </trkpt>
      <trkpt lat="43.14744" lon="2.35829">
        <ele>229.1</ele>
        <time>2023-11-05T08:15:07Z</time>
      </trkpt>
      <trkpt lat="43.14745" lon="2.3583">
        <ele>229.2</ele>
        <time>2023-11-05T08:15:08Z</time>
      </trkpt>
      <trkpt lat="43.14746" lon="2.3583">
        <ele>229.3</ele>
        <time>2023-11-05T08:15:09Z</time>
      </trkpt>
      <trkpt lat="43.14748" lon="2.35832">
        <ele>229.7</ele>
        <time>2023-11-05T08:15:12Z</time>
      </trkpt>
      <trkpt lat="43.14749" lon="2.35833">
        <ele>229.8</ele>
        <time>2023-11-05T08:15:13Z</time>
      </trkpt>
      <trkpt lat="43.14751" lon="2.35842">
        <ele>230.8</ele>
        <time>2023-11-05T08:15:18Z</time>
      </trkpt>
      <trkpt lat="43.14751" lon="2.35843">
        <ele>231</ele>
        <time>2023-11-05T08:15:19Z</time>
      </trkpt>
      <trkpt lat="43.14753" lon="2.35846">
        <ele>231.4</ele>
        <time>2023-11-05T08:15:22Z</time>
      </trkpt>
      <trkpt lat="43.14754" lon="2.35849">
        <ele>231.8</ele>
        <time>2023-11-05T08:15:24Z</time>
      </trkpt>
      <trkpt lat="43.14754" lon="2.3585">
        <ele>231.9</ele>
        <time>2023-11-05T08:15:25Z</time>
      </trkpt>
      <trkpt lat="43.14756" lon="2.35855">
        <ele>232.6</ele>
        <time>2023-11-05T08:15:30Z</time>
      </trkpt>
      <trkpt lat="43.14757" lon="2.35856">
        <ele>232.7</ele>
        <time>2023-11-05T08:15:31Z</time>
      </trkpt>
      <trkpt lat="43.14759" lon="2.35859">
        <ele>233.3</ele>
        <time>2023-11-05T08:15:35Z</time>
      </trkpt>
      <trkpt lat="43.1476" lon="2.35863">
        <ele>233.7</ele>
        <time>2023-11-05T08:15:38Z</time>
      </trkpt>
      <trkpt lat="43.1476" lon="2.35864">
        <ele>233.9</ele>
        <time>2023-11-05T08:15:39Z</time>
      </trkpt>
      <trkpt lat="43.14763" lon="2.35869">
        <ele>234.6</ele>
        <time>2023-11-05T08:15:45Z</time>
      </trkpt>
      <trkpt lat="43.14764" lon="2.3587">
        <ele>234.9</ele>
        <time>2023-11-05T08:15:47Z</time>
      </trkpt>
      <trkpt lat="43.14765" lon="2.35872">
        <ele>235.1</ele>
        <time>2023-11-05T08:15:48Z</time>
      </trkpt>
      <trkpt lat="43.14766" lon="2.35873">
        <ele>235.4</ele>
        <time>2023-11-05T08:15:49Z</time>
      </trkpt>
      <trkpt lat="43.14769" lon="2.35876">
        <ele>235.9</ele>
        <time>2023-11-05T08:15:53Z</time>
      </trkpt>
      <trkpt lat="43.14769" lon="2.35876">
        <ele>236</ele>
        <time>2023-11-05T08:15:54Z</time>
      </trkpt>
      <trkpt lat="43.1477" lon="2.35878">
        <ele>236.3</ele>
        <time>2023-11-05T08:15:56Z</time>
      </trkpt>
      <trkpt lat="43.14773" lon="2.3588">
        <ele>236.7</ele>
        <time>2023-11-05T08:15:59Z</time>
      </trkpt>
      <trkpt lat="43.14775" lon="2.35882">
        <ele>237.2</ele>
        <time>2023-11-05T08:16:03Z</time>
      </trkpt>
      <trkpt lat="43.14777" lon="2.35883">
        <ele>237.5</ele>
        <time>2023-11-05T08:16:06Z</time>
      </trkpt>
      <trkpt lat="43.14779" lon="2.35887">
        <ele>238</ele>
        <time>2023-11-05T08:16:09Z</time>
      </trkpt>
      <trkpt lat="43.14779" lon="2.35889">
        <ele>238.3</ele>
        <time>2023-11-05T08:16:11Z</time>
      </trkpt>
      <trkpt lat="43.14779" lon="2.3589">
        <ele>238.4</ele>
        <time>2023-11-05T08:16:13Z</time>
      </trkpt>
      <trkpt lat="43.1478" lon="2.35891">
        <ele>238.7</ele>
        <time>2023-11-05T08:16:15Z</time>
      </trkpt>
      <trkpt lat="43.14782" lon="2.35893">
        <ele>239</ele>
        <time>2023-11-05T08:16:17Z</time>
      </trkpt>
      <trkpt lat="43.14782" lon="2.35894">
        <ele>239.2</ele>
        <time>2023-11-05T08:16:18Z</time>
      </trkpt>
      <trkpt lat="43.14783" lon="2.35895">
        <ele>239.3</ele>
        <time>2023-11-05T08:16:19Z</time>
      </trkpt>
      <trkpt lat="43.14784" lon="2.35896">
        <ele>239.5</ele>
        <time>2023-11-05T08:16:20Z</time>
      </trkpt>
      <trkpt lat="43.14785" lon="2.35897">
        <ele>239.7</ele>
        <time>2023-11-05T08:16:22Z</time>
      </trkpt>
      <trkpt lat="43.14786" lon="2.35897">
        <ele>239.8</ele>
        <time>2023-11-05T08:16:23Z</time>
      </trkpt>
      <trkpt lat="43.14787" lon="2.35898">
        <ele>240</ele>
        <time>2023-11-05T08:16:25Z</time>
      </trkpt>
      <trkpt lat="43.14788" lon="2.359">
        <ele>240.4</ele>
        <time>2023-11-05T08:16:27Z</time>
      </trkpt>
      <trkpt lat="43.1479" lon="2.35901">
        <ele>240.7</ele>
        <time>2023-11-05T08:16:28Z</time>
      </trkpt>
      <trkpt lat="43.14793" lon="2.35901">
        <ele>241.1</ele>
        <time>2023-11-05T08:16:30Z</time>
      </trkpt>
      <trkpt lat="43.14794" lon="2.35902">
        <ele>241.3</ele>
        <time>2023-11-05T08:16:31Z</time>
      </trkpt>
      <trkpt lat="43.14796" lon="2.35904">
        <ele>241.7</ele>
        <time>2023-11-05T08:16:34Z</time>
      </trkpt>
      <trkpt lat="43.14798" lon="2.35906">
        <ele>242.1</ele>
        <time>2023-11-05T08:16:38Z</time>
      </trkpt>
      <trkpt lat="43.14799" lon="2.35907">
        <ele>242.4</ele>
        <time>2023-11-05T08:16:40Z</time>
      </trkpt>
      <trkpt lat="43.14803" lon="2.35912">
        <ele>243.2</ele>
        <time>2023-11-05T08:16:46Z</time>
      </trkpt>
      <trkpt lat="43.14804" lon="2.35913">
        <ele>243.3</ele>
        <time>2023-11-05T08:16:47Z</time>
      </trkpt>
      <trkpt lat="43.14807" lon="2.35914">
        <ele>243.7</ele>
        <time>2023-11-05T08:16:51Z</time>
      </trkpt>
      <trkpt lat="43.1481" lon="2.35916">
        <ele>244.2</ele>
        <time>2023-11-05T08:16:56Z</time>
      </trkpt>
      <trkpt lat="43.14811" lon="2.35917">
        <ele>244.4</ele>
        <time>2023-11-05T08:16:58Z</time>
      </trkpt>
      <trkpt lat="43.14813" lon="2.35918">
        <ele>244.6</ele>
        <time>2023-11-05T08:17:00Z</time>
      </trkpt>
      <trkpt lat="43.14813" lon="2.35918">
        <ele>244.7</ele>
        <time>2023-11-05T08:17:01Z</time>
      </trkpt>
      <trkpt lat="43.14815" lon="2.35919">
        <ele>244.9</ele>
        <time>2023-11-05T08:17:03Z</time>
      </trkpt>
      <trkpt lat="43.14817" lon="2.3592">
        <ele>245.2</ele>
        <time>2023-11-05T08:17:05Z</time>
      </trkpt>
      <trkpt lat="43.14817" lon="2.35921">
        <ele>245.3</ele>
        <time>2023-11-05T08:17:06Z</time>
      </trkpt>
      <trkpt lat="43.14821" lon="2.35921">
        <ele>245.7</ele>
        <time>2023-11-05T08:17:09Z</time>
      </trkpt>
      <trkpt lat="43.14821" lon="2.35922">
        <ele>245.8</ele>
        <time>2023-11-05T08:17:10Z</time>
      </trkpt>
      <trkpt lat="43.14823" lon="2.35922">
        <ele>246</ele>
        <time>2023-11-05T08:17:12Z</time>
      </trkpt>
      <trkpt lat="43.14823" lon="2.35923">
        <ele>246.1</ele>
        <time>2023-11-05T08:17:13Z</time>
      </trkpt>
      <trkpt lat="43.14826" lon="2.35928">
        <ele>246.7</ele>
        <time>2023-11-05T08:17:19Z</time>
      </trkpt>
      <trkpt lat="43.14831" lon="2.35932">
        <ele>247.4</ele>
        <time>2023-11-05T08:17:26Z</time>
      </trkpt>
      <trkpt lat="43.14832" lon="2.35933">
        <ele>247.5</ele>
        <time>2023-11-05T08:17:27Z</time>
      </trkpt>
      <trkpt lat="43.14839" lon="2.35936">
        <ele>248.4</ele>
        <time>2023-11-05T08:17:34Z</time>
      </trkpt>
      <trkpt lat="43.14841" lon="2.35938">
        <ele>248.6</ele>
        <time>2023-11-05T08:17:36Z</time>
      </trkpt>
      <trkpt lat="43.14846" lon="2.35941">
        <ele>249.2</ele>
        <time>2023-11-05T08:17:42Z</time>
      </trkpt>
      <trkpt lat="43.14848" lon="2.35944">
        <ele>249.6</ele>
        <time>2023-11-05T08:17:45Z</time>
      </trkpt>
      <trkpt lat="43.1485" lon="2.35946">
        <ele>249.8</ele>
        <time>2023-11-05T08:17:48Z</time>
      </trkpt>
      <trkpt lat="43.14851" lon="2.35949">
        <ele>250.1</ele>
        <time>2023-11-05T08:17:51Z</time>
      </trkpt>
      <trkpt lat="43.14852" lon="2.35953">
        <ele>250.4</ele>
        <time>2023-11-05T08:17:55Z</time>
      </trkpt>
      <trkpt lat="43.14854" lon="2.35955">
        <ele>250.6</ele>
        <time>2023-11-05T08:17:57Z</time>
      </trkpt>
      <trkpt lat="43.14857" lon="2.35959">
        <ele>251</ele>
        <time>2023-11-05T08:18:01Z</time>
      </trkpt>
      <trkpt lat="43.1486" lon="2.35961">
        <ele>251.3</ele>
        <time>2023-11-05T08:18:04Z</time>
      </trkpt>
      <trkpt lat="43.14862" lon="2.35964">
        <ele>251.6</ele>
        <time>2023-11-05T08:18:06Z</time>
      </trkpt>
      <trkpt lat="43.14864" lon="2.35975">
        <ele>252.3</ele>
        <time>2023-11-05T08:18:12Z</time>
      </trkpt>
      <trkpt lat="43.14864" lon="2.35977">
        <ele>252.4</ele>
        <time>2023-11-05T08:18:13Z</time>
      </trkpt>
      <trkpt lat="43.14863" lon="2.35985">
        <ele>252.9</ele>
        <time>2023-11-05T08:18:18Z</time>
      </trkpt>
      <trkpt lat="43.14862" lon="2.35989">
        <ele>253.1</ele>
        <time>2023-11-05T08:18:20Z</time>
      </trkpt>
      <trkpt lat="43.14862" lon="2.35994">
        <ele>253.5</ele>
        <time>2023-11-05T08:18:24Z</time>
      </trkpt>
      <trkpt lat="43.14861" lon="2.36">
        <ele>253.8</ele>
        <time>2023-11-05T08:18:28Z</time>
      </trkpt>
      <trkpt lat="43.14861" lon="2.36006">
        <ele>254.2</ele>
        <time>2023-11-05T08:18:32Z</time>
      </trkpt>
      <trkpt lat="43.14861" lon="2.36008">
        <ele>254.4</ele>
        <time>2023-11-05T08:18:34Z</time>
      </trkpt>
      <trkpt lat="43.14861" lon="2.36011">
        <ele>254.6</ele>
        <time>2023-11-05T08:18:36Z</time>
      </trkpt>
      <trkpt lat="43.14861" lon="2.36017">
        <ele>255</ele>
        <time>2023-11-05T08:18:40Z</time>
      </trkpt>
      <trkpt lat="43.14861" lon="2.36026">
        <ele>255.6</ele>
        <time>2023-11-05T08:18:44Z</time>
      </trkpt>
      <trkpt lat="43.14861" lon="2.36032">
        <ele>256</ele>
        <time>2023-11-05T08:18:48Z</time>
      </trkpt>
      <trkpt lat="43.1486" lon="2.3604">
        <ele>256.6</ele>
        <time>2023-11-05T08:18:53Z</time>
      </trkpt>
      <trkpt lat="43.14859" lon="2.36046">
        <ele>257.1</ele>
        <time>2023-11-05T08:18:57Z</time>
      </trkpt>
      <trkpt lat="43.1486" lon="2.36052">
        <ele>257.6</ele>
        <time>2023-11-05T08:19:01Z</time>
      </trkpt>
      <trkpt lat="43.1486" lon="2.36055">
        <ele>257.8</ele>
        <time>2023-11-05T08:19:03Z</time>
      </trkpt>
      <trkpt lat="43.14859" lon="2.36067">
        <ele>258.8</ele>
        <time>2023-11-05T08:19:09Z</time>
      </trkpt>
      <trkpt lat="43.14858" lon="2.3607">
        <ele>259</ele>
        <time>2023-11-05T08:19:12Z</time>
      </trkpt>
      <trkpt lat="43.14857" lon="2.36075">
        <ele>259.5</ele>
        <time>2023-11-05T08:19:15Z</time>
      </trkpt>
      <trkpt lat="43.14855" lon="2.36082">
        <ele>260.1</ele>
        <time>2023-11-05T08:19:20Z</time>
      </trkpt>
      <trkpt lat="43.14855" lon="2.36084">
        <ele>260.2</ele>
        <time>2023-11-05T08:19:21Z</time>
      </trkpt>
      <trkpt lat="43.14853" lon="2.36092">
        <ele>261</ele>
        <time>2023-11-05T08:19:26Z</time>
      </trkpt>
      <trkpt lat="43.14853" lon="2.36097">
        <ele>261.5</ele>
        <time>2023-11-05T08:19:29Z</time>
      </trkpt>
      <trkpt lat="43.14851" lon="2.36102">
        <ele>261.9</ele>
        <time>2023-11-05T08:19:32Z</time>
      </trkpt>
      <trkpt lat="43.14851" lon="2.36107">
        <ele>262.4</ele>
        <time>2023-11-05T08:19:35Z</time>
      </trkpt>
      <trkpt lat="43.1485" lon="2.36108">
        <ele>262.5</ele>
        <time>2023-11-05T08:19:36Z</time>
      </trkpt>
      <trkpt lat="43.14849" lon="2.3611">
        <ele>262.7</ele>
        <time>2023-11-05T08:19:37Z</time>
      </trkpt>
      <trkpt lat="43.14849" lon="2.36111">
        <ele>262.8</ele>
        <time>2023-11-05T08:19:38Z</time>
      </trkpt>
      <trkpt lat="43.14849" lon="2.36113">
        <ele>262.9</ele>
        <time>2023-11-05T08:19:39Z</time>
      </trkpt>
      <trkpt lat="43.14851" lon="2.36117">
        <ele>263.4</ele>
        <time>2023-11-05T08:19:43Z</time>
      </trkpt>
      <trkpt lat="43.14851" lon="2.36119">
        <ele>263.5</ele>
        <time>2023-11-05T08:19:44Z</time>
      </trkpt>
      <trkpt lat="43.14858" lon="2.36121">
        <ele>264.3</ele>
        <time>2023-11-05T08:19:50Z</time>
      </trkpt>
      <trkpt lat="43.14866" lon="2.36125">
        <ele>264.9</ele>
        <time>2023-11-05T08:19:55Z</time>
      </trkpt>
      <trkpt lat="43.14868" lon="2.36126">
        <ele>265.1</ele>
        <time>2023-11-05T08:19:57Z</time>
      </trkpt>
      <trkpt lat="43.14869" lon="2.36126">
        <ele>265.1</ele>
        <time>2023-11-05T08:19:58Z</time>
      </trkpt>
      <trkpt lat="43.14871" lon="2.36125">
        <ele>265.2</ele>
        <time>2023-11-05T08:19:59Z</time>
      </trkpt>
      <trkpt lat="43.14873" lon="2.36125">
        <ele>265.3</ele>
        <time>2023-11-05T08:20:02Z</time>
      </trkpt>
      <trkpt lat="43.14878" lon="2.36128">
        <ele>267.6</ele>
        <time>2023-11-05T08:20:06Z</time>
      </trkpt>
      <trkpt lat="43.1488" lon="2.36129">
        <ele>268.6</ele>
        <time>2023-11-05T08:20:08Z</time>
      </trkpt>
      <trkpt lat="43.14883" lon="2.36131">
        <ele>270.1</ele>
        <time>2023-11-05T08:20:10Z</time>
      </trkpt>
      <trkpt lat="43.14885" lon="2.36133">
        <ele>271.3</ele>
        <time>2023-11-05T08:20:13Z</time>
      </trkpt>
      <trkpt lat="43.14885" lon="2.36134">
        <ele>271.3</ele>
        <time>2023-11-05T08:20:14Z</time>
      </trkpt>
      <trkpt lat="43.14886" lon="2.36134">
        <ele>271.6</ele>
        <time>2023-11-05T08:20:16Z</time>
      </trkpt>
      <trkpt lat="43.14886" lon="2.36134">
        <ele>271.7</ele>
        <time>2023-11-05T08:20:17Z</time>
      </trkpt>
      <trkpt lat="43.14886" lon="2.36135">
        <ele>271.9</ele>
        <time>2023-11-05T08:20:20Z</time>
      </trkpt>
      <trkpt lat="43.14886" lon="2.36134">
        <ele>271.9</ele>
        <time>2023-11-05T08:20:25Z</time>
      </trkpt>
      <trkpt lat="43.14886" lon="2.36134">
        <ele>272.1</ele>
        <time>2023-11-05T08:20:27Z</time>
      </trkpt>
      <trkpt lat="43.14885" lon="2.36135">
        <ele>272.4</ele>
        <time>2023-11-05T08:20:29Z</time>
      </trkpt>
      <trkpt lat="43.14885" lon="2.36135">
        <ele>272.4</ele>
        <time>2023-11-05T08:20:34Z</time>
      </trkpt>
      <trkpt lat="43.14886" lon="2.36135">
        <ele>272.5</ele>
        <time>2023-11-05T08:20:42Z</time>
      </trkpt>
      <trkpt lat="43.14886" lon="2.36135">
        <ele>272.5</ele>
        <time>2023-11-05T08:20:45Z</time>
      </trkpt>
      <trkpt lat="43.14886" lon="2.36135">
        <ele>272.5</ele>
        <time>2023-11-05T08:20:46Z</time>
      </trkpt>
      <trkpt lat="43.14886" lon="2.36135">
        <ele>272.5</ele>
        <time>2023-11-05T08:20:47Z</time>
      </trkpt>
      <trkpt lat="43.14886" lon="2.36135">
        <ele>272.5</ele>
        <time>2023-11-05T08:20:48Z</time>
      </trkpt>
      <trkpt lat="43.14886" lon="2.36135">
        <ele>272.5</ele>
        <time>2023-11-05T08:20:49Z</time>
      </trkpt>
      <trkpt lat="43.14887" lon="2.36135">
        <ele>272.5</ele>
        <time>2023-11-05T08:20:50Z</time>
      </trkpt>
      <trkpt lat="43.14887" lon="2.36135">
        <ele>272.5</ele>
        <time>2023-11-05T08:20:54Z</time>
      </trkpt>
      <trkpt lat="43.14889" lon="2.36137">
        <ele>272.6</ele>
        <time>2023-11-05T08:20:55Z</time>
      </trkpt>
      <trkpt lat="43.1489" lon="2.36139">
        <ele>272.6</ele>
        <time>2023-11-05T08:20:56Z</time>
      </trkpt>
      <trkpt lat="43.14891" lon="2.36141">
        <ele>272.6</ele>
        <time>2023-11-05T08:20:57Z</time>
      </trkpt>
      <trkpt lat="43.14894" lon="2.36146">
        <ele>272.7</ele>
        <time>2023-11-05T08:20:59Z</time>
      </trkpt>
      <trkpt lat="43.14898" lon="2.36149">
        <ele>272.9</ele>
        <time>2023-11-05T08:21:01Z</time>
      </trkpt>
      <trkpt lat="43.14903" lon="2.36152">
        <ele>273.2</ele>
        <time>2023-11-05T08:21:03Z</time>
      </trkpt>
      <trkpt lat="43.14907" lon="2.36153">
        <ele>273.4</ele>
        <time>2023-11-05T08:21:05Z</time>
      </trkpt>
      <trkpt lat="43.14909" lon="2.36153">
        <ele>273.5</ele>
        <time>2023-11-05T08:21:06Z</time>
      </trkpt>
      <trkpt lat="43.14914" lon="2.3616">
        <ele>273.9</ele>
        <time>2023-11-05T08:21:10Z</time>
      </trkpt>
      <trkpt lat="43.1492" lon="2.36169">
        <ele>274.3</ele>
        <time>2023-11-05T08:21:16Z</time>
      </trkpt>
      <trkpt lat="43.14921" lon="2.36171">
        <ele>274.4</ele>
        <time>2023-11-05T08:21:17Z</time>
      </trkpt>
      <trkpt lat="43.14926" lon="2.36176">
        <ele>274.8</ele>
        <time>2023-11-05T08:21:21Z</time>
      </trkpt>
      <trkpt lat="43.14928" lon="2.36176">
        <ele>274.9</ele>
        <time>2023-11-05T08:21:22Z</time>
      </trkpt>
      <trkpt lat="43.14929" lon="2.36177">
        <ele>275</ele>
        <time>2023-11-05T08:21:23Z</time>
      </trkpt>
      <trkpt lat="43.14931" lon="2.36177">
        <ele>275.2</ele>
        <time>2023-11-05T08:21:25Z</time>
      </trkpt>
      <trkpt lat="43.14933" lon="2.36178">
        <ele>275.4</ele>
        <time>2023-11-05T08:21:27Z</time>
      </trkpt>
      <trkpt lat="43.14934" lon="2.36178">
        <ele>275.5</ele>
        <time>2023-11-05T08:21:28Z</time>
      </trkpt>
      <trkpt lat="43.14935" lon="2.36178">
        <ele>275.7</ele>
        <time>2023-11-05T08:21:29Z</time>
      </trkpt>
      <trkpt lat="43.14938" lon="2.3618">
        <ele>276</ele>
        <time>2023-11-05T08:21:31Z</time>
      </trkpt>
      <trkpt lat="43.14942" lon="2.36181">
        <ele>276.5</ele>
        <time>2023-11-05T08:21:34Z</time>
      </trkpt>
      <trkpt lat="43.14947" lon="2.36181">
        <ele>277.1</ele>
        <time>2023-11-05T08:21:38Z</time>
      </trkpt>
      <trkpt lat="43.1495" lon="2.36182">
        <ele>277.4</ele>
        <time>2023-11-05T08:21:40Z</time>
      </trkpt>
      <trkpt lat="43.14953" lon="2.36183">
        <ele>277.7</ele>
        <time>2023-11-05T08:21:43Z</time>
      </trkpt>
      <trkpt lat="43.14955" lon="2.36183">
        <ele>277.9</ele>
        <time>2023-11-05T08:21:46Z</time>
      </trkpt>
      <trkpt lat="43.14957" lon="2.36182">
        <ele>278.1</ele>
        <time>2023-11-05T08:21:48Z</time>
      </trkpt>
      <trkpt lat="43.14959" lon="2.36183">
        <ele>278.3</ele>
        <time>2023-11-05T08:21:49Z</time>
      </trkpt>
      <trkpt lat="43.14964" lon="2.36184">
        <ele>278.9</ele>
        <time>2023-11-05T08:21:53Z</time>
      </trkpt>
      <trkpt lat="43.14968" lon="2.36184">
        <ele>279.2</ele>
        <time>2023-11-05T08:21:56Z</time>
      </trkpt>
      <trkpt lat="43.14978" lon="2.3619">
        <ele>280.3</ele>
        <time>2023-11-05T08:22:05Z</time>
      </trkpt>
      <trkpt lat="43.14982" lon="2.36193">
        <ele>280.8</ele>
        <time>2023-11-05T08:22:09Z</time>
      </trkpt>
      <trkpt lat="43.14986" lon="2.36197">
        <ele>281.2</ele>
        <time>2023-11-05T08:22:12Z</time>
      </trkpt>
      <trkpt lat="43.14987" lon="2.36199">
        <ele>281.4</ele>
        <time>2023-11-05T08:22:13Z</time>
      </trkpt>
      <trkpt lat="43.14991" lon="2.36203">
        <ele>281.7</ele>
        <time>2023-11-05T08:22:16Z</time>
      </trkpt>
      <trkpt lat="43.14996" lon="2.36208">
        <ele>282.1</ele>
        <time>2023-11-05T08:22:21Z</time>
      </trkpt>
      <trkpt lat="43.14997" lon="2.3621">
        <ele>282.1</ele>
        <time>2023-11-05T08:22:22Z</time>
      </trkpt>
      <trkpt lat="43.14998" lon="2.36211">
        <ele>282.2</ele>
        <time>2023-11-05T08:22:23Z</time>
      </trkpt>
      <trkpt lat="43.15003" lon="2.36217">
        <ele>282.5</ele>
        <time>2023-11-05T08:22:28Z</time>
      </trkpt>
      <trkpt lat="43.15004" lon="2.36218">
        <ele>282.6</ele>
        <time>2023-11-05T08:22:29Z</time>
      </trkpt>
      <trkpt lat="43.15006" lon="2.36222">
        <ele>282.8</ele>
        <time>2023-11-05T08:22:31Z</time>
      </trkpt>
      <trkpt lat="43.15009" lon="2.36226">
        <ele>283</ele>
        <time>2023-11-05T08:22:34Z</time>
      </trkpt>
      <trkpt lat="43.15012" lon="2.36232">
        <ele>283.3</ele>
        <time>2023-11-05T08:22:38Z</time>
      </trkpt>
      <trkpt lat="43.15015" lon="2.36235">
        <ele>283.5</ele>
        <time>2023-11-05T08:22:40Z</time>
      </trkpt>
      <trkpt lat="43.15019" lon="2.36242">
        <ele>284</ele>
        <time>2023-11-05T08:22:45Z</time>
      </trkpt>
      <trkpt lat="43.1502" lon="2.36243">
        <ele>284.1</ele>
        <time>2023-11-05T08:22:46Z</time>
      </trkpt>
      <trkpt lat="43.1502" lon="2.36245">
        <ele>284.2</ele>
        <time>2023-11-05T08:22:47Z</time>
      </trkpt>
      <trkpt lat="43.15022" lon="2.36249">
        <ele>284.4</ele>
        <time>2023-11-05T08:22:50Z</time>
      </trkpt>
      <trkpt lat="43.15023" lon="2.36252">
        <ele>284.7</ele>
        <time>2023-11-05T08:22:52Z</time>
      </trkpt>
      <trkpt lat="43.15025" lon="2.36256">
        <ele>285</ele>
        <time>2023-11-05T08:22:55Z</time>
      </trkpt>
      <trkpt lat="43.15025" lon="2.36259">
        <ele>285.2</ele>
        <time>2023-11-05T08:22:57Z</time>
      </trkpt>
      <trkpt lat="43.15026" lon="2.36262">
        <ele>285.5</ele>
        <time>2023-11-05T08:22:59Z</time>
      </trkpt>
      <trkpt lat="43.15027" lon="2.36263">
        <ele>285.6</ele>
        <time>2023-11-05T08:23:00Z</time>
      </trkpt>
      <trkpt lat="43.15031" lon="2.36268">
        <ele>286.1</ele>
        <time>2023-11-05T08:23:03Z</time>
      </trkpt>
      <trkpt lat="43.15033" lon="2.36273">
        <ele>286.5</ele>
        <time>2023-11-05T08:23:07Z</time>
      </trkpt>
      <trkpt lat="43.15034" lon="2.36276">
        <ele>286.7</ele>
        <time>2023-11-05T08:23:09Z</time>
      </trkpt>
      <trkpt lat="43.15034" lon="2.36278">
        <ele>286.8</ele>
        <time>2023-11-05T08:23:10Z</time>
      </trkpt>
      <trkpt lat="43.15035" lon="2.36282">
        <ele>287.1</ele>
        <time>2023-11-05T08:23:13Z</time>
      </trkpt>
      <trkpt lat="43.15035" lon="2.36286">
        <ele>287.3</ele>
        <time>2023-11-05T08:23:16Z</time>
      </trkpt>
      <trkpt lat="43.15035" lon="2.36291">
        <ele>287.6</ele>
        <time>2023-11-05T08:23:19Z</time>
      </trkpt>
      <trkpt lat="43.15036" lon="2.36293">
        <ele>287.8</ele>
        <time>2023-11-05T08:23:20Z</time>
      </trkpt>
      <trkpt lat="43.15036" lon="2.36295">
        <ele>287.9</ele>
        <time>2023-11-05T08:23:21Z</time>
      </trkpt>
      <trkpt lat="43.15036" lon="2.36299">
        <ele>288.1</ele>
        <time>2023-11-05T08:23:23Z</time>
      </trkpt>
      <trkpt lat="43.15037" lon="2.36304">
        <ele>288.4</ele>
        <time>2023-11-05T08:23:26Z</time>
      </trkpt>
      <trkpt lat="43.15037" lon="2.36307">
        <ele>288.6</ele>
        <time>2023-11-05T08:23:28Z</time>
      </trkpt>
      <trkpt lat="43.15039" lon="2.36311">
        <ele>289</ele>
        <time>2023-11-05T08:23:31Z</time>
      </trkpt>
      <trkpt lat="43.15038" lon="2.36312">
        <ele>289.1</ele>
        <time>2023-11-05T08:23:32Z</time>
      </trkpt>
      <trkpt lat="43.1504" lon="2.3632">
        <ele>289.7</ele>
        <time>2023-11-05T08:23:37Z</time>
      </trkpt>
      <trkpt lat="43.1504" lon="2.36322">
        <ele>289.9</ele>
        <time>2023-11-05T08:23:38Z</time>
      </trkpt>
      <trkpt lat="43.1504" lon="2.36326">
        <ele>290.2</ele>
        <time>2023-11-05T08:23:40Z</time>
      </trkpt>
      <trkpt lat="43.15041" lon="2.36336">
        <ele>291.2</ele>
        <time>2023-11-05T08:23:47Z</time>
      </trkpt>
      <trkpt lat="43.15042" lon="2.3634">
        <ele>291.6</ele>
        <time>2023-11-05T08:23:50Z</time>
      </trkpt>
      <trkpt lat="43.15042" lon="2.36342">
        <ele>291.8</ele>
        <time>2023-11-05T08:23:51Z</time>
      </trkpt>
      <trkpt lat="43.15042" lon="2.36343">
        <ele>291.9</ele>
        <time>2023-11-05T08:23:52Z</time>
      </trkpt>
      <trkpt lat="43.15043" lon="2.36346">
        <ele>292.3</ele>
        <time>2023-11-05T08:23:55Z</time>
      </trkpt>
      <trkpt lat="43.15044" lon="2.36349">
        <ele>292.6</ele>
        <time>2023-11-05T08:23:57Z</time>
      </trkpt>
      <trkpt lat="43.15046" lon="2.36357">
        <ele>293.5</ele>
        <time>2023-11-05T08:24:03Z</time>
      </trkpt>
      <trkpt lat="43.15048" lon="2.36368">
        <ele>294.7</ele>
        <time>2023-11-05T08:24:10Z</time>
      </trkpt>
      <trkpt lat="43.15046" lon="2.36376">
        <ele>295.5</ele>
        <time>2023-11-05T08:24:17Z</time>
      </trkpt>
      <trkpt lat="43.15046" lon="2.36378">
        <ele>295.7</ele>
        <time>2023-11-05T08:24:19Z</time>
      </trkpt>
      <trkpt lat="43.15046" lon="2.3638">
        <ele>296</ele>
        <time>2023-11-05T08:24:23Z</time>
      </trkpt>
      <trkpt lat="43.15046" lon="2.36383">
        <ele>296.3</ele>
        <time>2023-11-05T08:24:25Z</time>
      </trkpt>
      <trkpt lat="43.15047" lon="2.36389">
        <ele>297</ele>
        <time>2023-11-05T08:24:29Z</time>
      </trkpt>
      <trkpt lat="43.15047" lon="2.36393">
        <ele>297.4</ele>
        <time>2023-11-05T08:24:32Z</time>
      </trkpt>
      <trkpt lat="43.15046" lon="2.36399">
        <ele>298.1</ele>
        <time>2023-11-05T08:24:36Z</time>
      </trkpt>
      <trkpt lat="43.15047" lon="2.36407">
        <ele>299</ele>
        <time>2023-11-05T08:24:42Z</time>
      </trkpt>
      <trkpt lat="43.15048" lon="2.36408">
        <ele>299.2</ele>
        <time>2023-11-05T08:24:43Z</time>
      </trkpt>
      <trkpt lat="43.1505" lon="2.36416">
        <ele>300.2</ele>
        <time>2023-11-05T08:24:49Z</time>
      </trkpt>
      <trkpt lat="43.15053" lon="2.36422">
        <ele>301</ele>
        <time>2023-11-05T08:24:54Z</time>
      </trkpt>
      <trkpt lat="43.15056" lon="2.36426">
        <ele>301.7</ele>
        <time>2023-11-05T08:25:00Z</time>
      </trkpt>
      <trkpt lat="43.15057" lon="2.36426">
        <ele>301.9</ele>
        <time>2023-11-05T08:25:02Z</time>
      </trkpt>
      <trkpt lat="43.15059" lon="2.36428">
        <ele>302.4</ele>
        <time>2023-11-05T08:25:05Z</time>
      </trkpt>
      <trkpt lat="43.15063" lon="2.36431">
        <ele>303.1</ele>
        <time>2023-11-05T08:25:10Z</time>
      </trkpt>
      <trkpt lat="43.15064" lon="2.36431">
        <ele>303.3</ele>
        <time>2023-11-05T08:25:11Z</time>
      </trkpt>
      <trkpt lat="43.15069" lon="2.36434">
        <ele>304.2</ele>
        <time>2023-11-05T08:25:17Z</time>
      </trkpt>
      <trkpt lat="43.15075" lon="2.36433">
        <ele>304.5</ele>
        <time>2023-11-05T08:25:23Z</time>
      </trkpt>
      <trkpt lat="43.15076" lon="2.36433">
        <ele>304.8</ele>
        <time>2023-11-05T08:25:24Z</time>
      </trkpt>
      <trkpt lat="43.1508" lon="2.36436">
        <ele>305.2</ele>
        <time>2023-11-05T08:25:28Z</time>
      </trkpt>
      <trkpt lat="43.15081" lon="2.36437">
        <ele>305.3</ele>
        <time>2023-11-05T08:25:30Z</time>
      </trkpt>
      <trkpt lat="43.15084" lon="2.36442">
        <ele>305.6</ele>
        <time>2023-11-05T08:25:34Z</time>
      </trkpt>
      <trkpt lat="43.15085" lon="2.36445">
        <ele>305.8</ele>
        <time>2023-11-05T08:25:36Z</time>
      </trkpt>
      <trkpt lat="43.15085" lon="2.36449">
        <ele>306</ele>
        <time>2023-11-05T08:25:38Z</time>
      </trkpt>
      <trkpt lat="43.15086" lon="2.3646">
        <ele>306</ele>
        <time>2023-11-05T08:25:45Z</time>
      </trkpt>
      <trkpt lat="43.15086" lon="2.36464">
        <ele>306.1</ele>
        <time>2023-11-05T08:25:48Z</time>
      </trkpt>
      <trkpt lat="43.15085" lon="2.36465">
        <ele>306.2</ele>
        <time>2023-11-05T08:25:49Z</time>
      </trkpt>
      <trkpt lat="43.15085" lon="2.36467">
        <ele>306.4</ele>
        <time>2023-11-05T08:25:52Z</time>
      </trkpt>
      <trkpt lat="43.15084" lon="2.36468">
        <ele>306.5</ele>
        <time>2023-11-05T08:25:53Z</time>
      </trkpt>
      <trkpt lat="43.15085" lon="2.36468">
        <ele>306.6</ele>
        <time>2023-11-05T08:25:56Z</time>
      </trkpt>
      <trkpt lat="43.15085" lon="2.36468">
        <ele>306.8</ele>
        <time>2023-11-05T08:25:58Z</time>
      </trkpt>
      <trkpt lat="43.15084" lon="2.36468">
        <ele>306.8</ele>
        <time>2023-11-05T08:26:02Z</time>
      </trkpt>
      <trkpt lat="43.15084" lon="2.36468">
        <ele>307</ele>
        <time>2023-11-05T08:26:03Z</time>
      </trkpt>
      <trkpt lat="43.15084" lon="2.36469">
        <ele>307.1</ele>
        <time>2023-11-05T08:26:09Z</time>
      </trkpt>
      <trkpt lat="43.15084" lon="2.36469">
        <ele>307.2</ele>
        <time>2023-11-05T08:26:11Z</time>
      </trkpt>
      <trkpt lat="43.15084" lon="2.36469">
        <ele>307.4</ele>
        <time>2023-11-05T08:26:12Z</time>
      </trkpt>
      <trkpt lat="43.15084" lon="2.36471">
        <ele>307.5</ele>
        <time>2023-11-05T08:26:13Z</time>
      </trkpt>
      <trkpt lat="43.15083" lon="2.36473">
        <ele>307.6</ele>
        <time>2023-11-05T08:26:15Z</time>
      </trkpt>
      <trkpt lat="43.15083" lon="2.36476">
        <ele>307.7</ele>
        <time>2023-11-05T08:26:18Z</time>
      </trkpt>
      <trkpt lat="43.15083" lon="2.36477">
        <ele>307.8</ele>
        <time>2023-11-05T08:26:19Z</time>
      </trkpt>
      <trkpt lat="43.15083" lon="2.36478">
        <ele>307.9</ele>
        <time>2023-11-05T08:26:20Z</time>
      </trkpt>
      <trkpt lat="43.15083" lon="2.36478">
        <ele>308.1</ele>
        <time>2023-11-05T08:26:21Z</time>
      </trkpt>
      <trkpt lat="43.15082" lon="2.36479">
        <ele>308.2</ele>
        <time>2023-11-05T08:26:26Z</time>
      </trkpt>
      <trkpt lat="43.15082" lon="2.36479">
        <ele>308.4</ele>
        <time>2023-11-05T08:26:33Z</time>
      </trkpt>
      <trkpt lat="43.15082" lon="2.36479">
        <ele>308.5</ele>
        <time>2023-11-05T08:26:40Z</time>
      </trkpt>
      <trkpt lat="43.15082" lon="2.36479">
        <ele>308.7</ele>
        <time>2023-11-05T08:26:42Z</time>
      </trkpt>
      <trkpt lat="43.15082" lon="2.36479">
        <ele>308.8</ele>
        <time>2023-11-05T08:26:43Z</time>
      </trkpt>
      <trkpt lat="43.15082" lon="2.36479">
        <ele>309</ele>
        <time>2023-11-05T08:26:44Z</time>
      </trkpt>
      <trkpt lat="43.15081" lon="2.36479">
        <ele>309.1</ele>
        <time>2023-11-05T08:26:51Z</time>
      </trkpt>
      <trkpt lat="43.15081" lon="2.36481">
        <ele>309.2</ele>
        <time>2023-11-05T08:26:52Z</time>
      </trkpt>
      <trkpt lat="43.15081" lon="2.36483">
        <ele>309.3</ele>
        <time>2023-11-05T08:26:53Z</time>
      </trkpt>
      <trkpt lat="43.1508" lon="2.36487">
        <ele>309.5</ele>
        <time>2023-11-05T08:26:55Z</time>
      </trkpt>
      <trkpt lat="43.1508" lon="2.3649">
        <ele>309.7</ele>
        <time>2023-11-05T08:26:56Z</time>
      </trkpt>
      <trkpt lat="43.1508" lon="2.36492">
        <ele>309.8</ele>
        <time>2023-11-05T08:26:57Z</time>
      </trkpt>
      <trkpt lat="43.15079" lon="2.36494">
        <ele>310</ele>
        <time>2023-11-05T08:26:58Z</time>
      </trkpt>
      <trkpt lat="43.15079" lon="2.36496">
        <ele>310.1</ele>
        <time>2023-11-05T08:26:59Z</time>
      </trkpt>
      <trkpt lat="43.15079" lon="2.36499">
        <ele>310.4</ele>
        <time>2023-11-05T08:27:00Z</time>
      </trkpt>
      <trkpt lat="43.15079" lon="2.365">
        <ele>310.5</ele>
        <time>2023-11-05T08:27:01Z</time>
      </trkpt>
      <trkpt lat="43.15078" lon="2.36506">
        <ele>311</ele>
        <time>2023-11-05T08:27:05Z</time>
      </trkpt>
      <trkpt lat="43.15078" lon="2.36511">
        <ele>311.3</ele>
        <time>2023-11-05T08:27:08Z</time>
      </trkpt>
      <trkpt lat="43.15077" lon="2.36517">
        <ele>312</ele>
        <time>2023-11-05T08:27:12Z</time>
      </trkpt>
      <trkpt lat="43.15077" lon="2.36519">
        <ele>312.1</ele>
        <time>2023-11-05T08:27:13Z</time>
      </trkpt>
      <trkpt lat="43.15077" lon="2.3652">
        <ele>312.6</ele>
        <time>2023-11-05T08:27:14Z</time>
      </trkpt>
      <trkpt lat="43.15076" lon="2.36521">
        <ele>312.7</ele>
        <time>2023-11-05T08:27:15Z</time>
      </trkpt>
      <trkpt lat="43.15076" lon="2.36523">
        <ele>312.8</ele>
        <time>2023-11-05T08:27:16Z</time>
      </trkpt>
      <trkpt lat="43.15076" lon="2.36525">
        <ele>313.3</ele>
        <time>2023-11-05T08:27:17Z</time>
      </trkpt>
      <trkpt lat="43.15076" lon="2.36528">
        <ele>313.7</ele>
        <time>2023-11-05T08:27:19Z</time>
      </trkpt>
      <trkpt lat="43.15075" lon="2.36533">
        <ele>314.4</ele>
        <time>2023-11-05T08:27:22Z</time>
      </trkpt>
      <trkpt lat="43.15075" lon="2.36535">
        <ele>314.5</ele>
        <time>2023-11-05T08:27:23Z</time>
      </trkpt>
      <trkpt lat="43.15075" lon="2.36537">
        <ele>315</ele>
        <time>2023-11-05T08:27:24Z</time>
      </trkpt>
      <trkpt lat="43.15074" lon="2.36542">
        <ele>315.4</ele>
        <time>2023-11-05T08:27:28Z</time>
      </trkpt>
      <trkpt lat="43.15073" lon="2.36543">
        <ele>315.5</ele>
        <time>2023-11-05T08:27:29Z</time>
      </trkpt>
      <trkpt lat="43.15072" lon="2.36546">
        <ele>315.9</ele>
        <time>2023-11-05T08:27:31Z</time>
      </trkpt>
      <trkpt lat="43.15073" lon="2.36547">
        <ele>316</ele>
        <time>2023-11-05T08:27:32Z</time>
      </trkpt>
      <trkpt lat="43.15072" lon="2.36549">
        <ele>316.2</ele>
        <time>2023-11-05T08:27:33Z</time>
      </trkpt>
      <trkpt lat="43.15072" lon="2.36554">
        <ele>317</ele>
        <time>2023-11-05T08:27:38Z</time>
      </trkpt>
      <trkpt lat="43.15072" lon="2.36558">
        <ele>317.2</ele>
        <time>2023-11-05T08:27:40Z</time>
      </trkpt>
      <trkpt lat="43.15071" lon="2.36561">
        <ele>317.5</ele>
        <time>2023-11-05T08:27:43Z</time>
      </trkpt>
      <trkpt lat="43.15072" lon="2.36563">
        <ele>317.8</ele>
        <time>2023-11-05T08:27:44Z</time>
      </trkpt>
      <trkpt lat="43.15072" lon="2.3657">
        <ele>317.6</ele>
        <time>2023-11-05T08:27:49Z</time>
      </trkpt>
      <trkpt lat="43.15072" lon="2.36573">
        <ele>318.3</ele>
        <time>2023-11-05T08:27:53Z</time>
      </trkpt>
      <trkpt lat="43.15072" lon="2.36572">
        <ele>318.4</ele>
        <time>2023-11-05T08:27:54Z</time>
      </trkpt>
      <trkpt lat="43.15073" lon="2.36573">
        <ele>318.1</ele>
        <time>2023-11-05T08:27:59Z</time>
      </trkpt>
      <trkpt lat="43.15072" lon="2.36575">
        <ele>318.1</ele>
        <time>2023-11-05T08:28:03Z</time>
      </trkpt>
      <trkpt lat="43.15072" lon="2.36576">
        <ele>318.1</ele>
        <time>2023-11-05T08:28:04Z</time>
      </trkpt>
      <trkpt lat="43.15071" lon="2.36577">
        <ele>318.1</ele>
        <time>2023-11-05T08:28:05Z</time>
      </trkpt>
      <trkpt lat="43.1507" lon="2.36578">
        <ele>318.1</ele>
        <time>2023-11-05T08:28:15Z</time>
      </trkpt>
      <trkpt lat="43.1507" lon="2.36578">
        <ele>318.1</ele>
        <time>2023-11-05T08:28:16Z</time>
      </trkpt>
      <trkpt lat="43.1507" lon="2.36578">
        <ele>318.1</ele>
        <time>2023-11-05T08:28:18Z</time>
      </trkpt>
      <trkpt lat="43.1507" lon="2.36578">
        <ele>318.1</ele>
        <time>2023-11-05T08:28:24Z</time>
      </trkpt>
      <trkpt lat="43.1507" lon="2.36578">
        <ele>318.1</ele>
        <time>2023-11-05T08:28:26Z</time>
      </trkpt>
      <trkpt lat="43.1507" lon="2.36578">
        <ele>318.1</ele>
        <time>2023-11-05T08:28:32Z</time>
      </trkpt>
      <trkpt lat="43.1507" lon="2.36578">
        <ele>318.1</ele>
        <time>2023-11-05T08:28:34Z</time>
      </trkpt>
      <trkpt lat="43.1507" lon="2.36578">
        <ele>318.1</ele>
        <time>2023-11-05T08:28:35Z</time>
      </trkpt>
      <trkpt lat="43.1507" lon="2.36578">
        <ele>318.1</ele>
        <time>2023-11-05T08:28:39Z</time>
      </trkpt>
      <trkpt lat="43.15069" lon="2.36578">
        <ele>318.1</ele>
        <time>2023-11-05T08:28:43Z</time>
      </trkpt>
      <trkpt lat="43.15069" lon="2.36579">
        <ele>318.1</ele>
        <time>2023-11-05T08:28:45Z</time>
      </trkpt>
      <trkpt lat="43.15069" lon="2.36579">
        <ele>318.1</ele>
        <time>2023-11-05T08:28:47Z</time>
      </trkpt>
      <trkpt lat="43.15068" lon="2.36579">
        <ele>318.1</ele>
        <time>2023-11-05T08:28:49Z</time>
      </trkpt>
      <trkpt lat="43.15067" lon="2.36579">
        <ele>318.1</ele>
        <time>2023-11-05T08:28:50Z</time>
      </trkpt>
      <trkpt lat="43.15066" lon="2.36579">
        <ele>318.1</ele>
        <time>2023-11-05T08:28:52Z</time>
      </trkpt>
      <trkpt lat="43.15065" lon="2.36579">
        <ele>318.2</ele>
        <time>2023-11-05T08:28:54Z</time>
      </trkpt>
      <trkpt lat="43.15065" lon="2.36579">
        <ele>318.3</ele>
        <time>2023-11-05T08:28:55Z</time>
      </trkpt>
      <trkpt lat="43.15064" lon="2.36579">
        <ele>318.3</ele>
        <time>2023-11-05T08:28:56Z</time>
      </trkpt>
      <trkpt lat="43.15064" lon="2.36579">
        <ele>318.3</ele>
        <time>2023-11-05T08:28:57Z</time>
      </trkpt>
      <trkpt lat="43.15064" lon="2.36579">
        <ele>318.3</ele>
        <time>2023-11-05T08:28:58Z</time>
      </trkpt>
      <trkpt lat="43.15064" lon="2.36579">
        <ele>318.3</ele>
        <time>2023-11-05T08:28:59Z</time>
      </trkpt>
      <trkpt lat="43.15064" lon="2.36579">
        <ele>318.3</ele>
        <time>2023-11-05T08:29:00Z</time>
      </trkpt>
      <trkpt lat="43.15064" lon="2.36579">
        <ele>318.3</ele>
        <time>2023-11-05T08:29:02Z</time>
      </trkpt>
      <trkpt lat="43.15064" lon="2.36579">
        <ele>318.3</ele>
        <time>2023-11-05T08:29:05Z</time>
      </trkpt>
      <trkpt lat="43.15063" lon="2.36579">
        <ele>318.5</ele>
        <time>2023-11-05T08:29:10Z</time>
      </trkpt>
      <trkpt lat="43.15063" lon="2.3658">
        <ele>318.5</ele>
        <time>2023-11-05T08:29:12Z</time>
      </trkpt>
      <trkpt lat="43.15062" lon="2.3658">
        <ele>318.6</ele>
        <time>2023-11-05T08:29:15Z</time>
      </trkpt>
      <trkpt lat="43.15062" lon="2.3658">
        <ele>318.6</ele>
        <time>2023-11-05T08:29:16Z</time>
      </trkpt>
      <trkpt lat="43.15062" lon="2.3658">
        <ele>318.6</ele>
        <time>2023-11-05T08:29:17Z</time>
      </trkpt>
      <trkpt lat="43.15062" lon="2.3658">
        <ele>318.6</ele>
        <time>2023-11-05T08:29:18Z</time>
      </trkpt>
      <trkpt lat="43.15063" lon="2.3658">
        <ele>318.6</ele>
        <time>2023-11-05T08:29:20Z</time>
      </trkpt>
      <trkpt lat="43.15063" lon="2.36585">
        <ele>319.1</ele>
        <time>2023-11-05T08:29:23Z</time>
      </trkpt>
      <trkpt lat="43.15063" lon="2.36586">
        <ele>319.2</ele>
        <time>2023-11-05T08:29:24Z</time>
      </trkpt>
      <trkpt lat="43.15063" lon="2.36589">
        <ele>319.5</ele>
        <time>2023-11-05T08:29:26Z</time>
      </trkpt>
      <trkpt lat="43.15062" lon="2.36593">
        <ele>320</ele>
        <time>2023-11-05T08:29:29Z</time>
      </trkpt>
      <trkpt lat="43.15062" lon="2.36594">
        <ele>320.2</ele>
        <time>2023-11-05T08:29:30Z</time>
      </trkpt>
      <trkpt lat="43.15062" lon="2.36596">
        <ele>320.5</ele>
        <time>2023-11-05T08:29:31Z</time>
      </trkpt>
      <trkpt lat="43.15062" lon="2.36599">
        <ele>321.2</ele>
        <time>2023-11-05T08:29:34Z</time>
      </trkpt>
      <trkpt lat="43.15063" lon="2.36603">
        <ele>322.2</ele>
        <time>2023-11-05T08:29:37Z</time>
      </trkpt>
      <trkpt lat="43.15063" lon="2.36605">
        <ele>322.4</ele>
        <time>2023-11-05T08:29:38Z</time>
      </trkpt>
      <trkpt lat="43.15063" lon="2.36606">
        <ele>322.9</ele>
        <time>2023-11-05T08:29:39Z</time>
      </trkpt>
      <trkpt lat="43.15062" lon="2.36609">
        <ele>323.5</ele>
        <time>2023-11-05T08:29:41Z</time>
      </trkpt>
      <trkpt lat="43.15062" lon="2.3661">
        <ele>323.7</ele>
        <time>2023-11-05T08:29:42Z</time>
      </trkpt>
      <trkpt lat="43.15062" lon="2.36611">
        <ele>323.8</ele>
        <time>2023-11-05T08:29:43Z</time>
      </trkpt>
      <trkpt lat="43.15062" lon="2.36612">
        <ele>324.1</ele>
        <time>2023-11-05T08:29:44Z</time>
      </trkpt>
      <trkpt lat="43.15062" lon="2.36617">
        <ele>325.3</ele>
        <time>2023-11-05T08:29:48Z</time>
      </trkpt>
      <trkpt lat="43.15062" lon="2.36618">
        <ele>325.5</ele>
        <time>2023-11-05T08:29:49Z</time>
      </trkpt>
      <trkpt lat="43.15063" lon="2.36621">
        <ele>326.2</ele>
        <time>2023-11-05T08:29:51Z</time>
      </trkpt>
      <trkpt lat="43.15063" lon="2.36622">
        <ele>326.4</ele>
        <time>2023-11-05T08:29:52Z</time>
      </trkpt>
      <trkpt lat="43.15062" lon="2.36625">
        <ele>327.2</ele>
        <time>2023-11-05T08:29:55Z</time>
      </trkpt>
      <trkpt lat="43.15062" lon="2.36628">
        <ele>327.9</ele>
        <time>2023-11-05T08:29:58Z</time>
      </trkpt>
      <trkpt lat="43.15062" lon="2.36631">
        <ele>328.6</ele>
        <time>2023-11-05T08:30:00Z</time>
      </trkpt>
      <trkpt lat="43.15062" lon="2.36637">
        <ele>329.7</ele>
        <time>2023-11-05T08:30:04Z</time>
      </trkpt>
      <trkpt lat="43.15061" lon="2.36639">
        <ele>330</ele>
        <time>2023-11-05T08:30:05Z</time>
      </trkpt>
      <trkpt lat="43.15061" lon="2.36641">
        <ele>330.5</ele>
        <time>2023-11-05T08:30:08Z</time>
      </trkpt>
      <trkpt lat="43.1506" lon="2.36645">
        <ele>331.2</ele>
        <time>2023-11-05T08:30:11Z</time>
      </trkpt>
      <trkpt lat="43.15059" lon="2.36647">
        <ele>331.5</ele>
        <time>2023-11-05T08:30:12Z</time>
      </trkpt>
      <trkpt lat="43.15057" lon="2.36652">
        <ele>332.4</ele>
        <time>2023-11-05T08:30:16Z</time>
      </trkpt>
      <trkpt lat="43.15057" lon="2.36653">
        <ele>332.6</ele>
        <time>2023-11-05T08:30:17Z</time>
      </trkpt>
      <trkpt lat="43.15057" lon="2.36659">
        <ele>333.6</ele>
        <time>2023-11-05T08:30:23Z</time>
      </trkpt>
      <trkpt lat="43.15056" lon="2.36662">
        <ele>334.1</ele>
        <time>2023-11-05T08:30:25Z</time>
      </trkpt>
      <trkpt lat="43.15055" lon="2.36665">
        <ele>334.6</ele>
        <time>2023-11-05T08:30:28Z</time>
      </trkpt>
      <trkpt lat="43.15056" lon="2.36667">
        <ele>335.1</ele>
        <time>2023-11-05T08:30:31Z</time>
      </trkpt>
      <trkpt lat="43.15056" lon="2.36669">
        <ele>335.3</ele>
        <time>2023-11-05T08:30:32Z</time>
      </trkpt>
      <trkpt lat="43.15056" lon="2.36672">
        <ele>335.8</ele>
        <time>2023-11-05T08:30:34Z</time>
      </trkpt>
      <trkpt lat="43.15057" lon="2.36676">
        <ele>336.6</ele>
        <time>2023-11-05T08:30:38Z</time>
      </trkpt>
      <trkpt lat="43.15058" lon="2.36677">
        <ele>336.9</ele>
        <time>2023-11-05T08:30:40Z</time>
      </trkpt>
      <trkpt lat="43.15057" lon="2.3668">
        <ele>337.3</ele>
        <time>2023-11-05T08:30:42Z</time>
      </trkpt>
      <trkpt lat="43.15056" lon="2.36687">
        <ele>338.6</ele>
        <time>2023-11-05T08:30:47Z</time>
      </trkpt>
      <trkpt lat="43.15055" lon="2.36688">
        <ele>338.9</ele>
        <time>2023-11-05T08:30:48Z</time>
      </trkpt>
      <trkpt lat="43.15054" lon="2.36694">
        <ele>340</ele>
        <time>2023-11-05T08:30:53Z</time>
      </trkpt>
      <trkpt lat="43.15053" lon="2.36697">
        <ele>340.5</ele>
        <time>2023-11-05T08:30:56Z</time>
      </trkpt>
      <trkpt lat="43.15052" lon="2.367">
        <ele>341</ele>
        <time>2023-11-05T08:30:58Z</time>
      </trkpt>
      <trkpt lat="43.1505" lon="2.36707">
        <ele>341.9</ele>
        <time>2023-11-05T08:31:03Z</time>
      </trkpt>
      <trkpt lat="43.1505" lon="2.3671">
        <ele>342.3</ele>
        <time>2023-11-05T08:31:05Z</time>
      </trkpt>
      <trkpt lat="43.15049" lon="2.36714">
        <ele>342.6</ele>
        <time>2023-11-05T08:31:07Z</time>
      </trkpt>
      <trkpt lat="43.15048" lon="2.3672">
        <ele>342.9</ele>
        <time>2023-11-05T08:31:11Z</time>
      </trkpt>
      <trkpt lat="43.15047" lon="2.36722">
        <ele>342.9</ele>
        <time>2023-11-05T08:31:12Z</time>
      </trkpt>
      <trkpt lat="43.15047" lon="2.36723">
        <ele>343</ele>
        <time>2023-11-05T08:31:13Z</time>
      </trkpt>
      <trkpt lat="43.15048" lon="2.36728">
        <ele>342.9</ele>
        <time>2023-11-05T08:31:17Z</time>
      </trkpt>
      <trkpt lat="43.15049" lon="2.36729">
        <ele>342.9</ele>
        <time>2023-11-05T08:31:18Z</time>
      </trkpt>
      <trkpt lat="43.15053" lon="2.36734">
        <ele>342.6</ele>
        <time>2023-11-05T08:31:21Z</time>
      </trkpt>
      <trkpt lat="43.15056" lon="2.36737">
        <ele>342.3</ele>
        <time>2023-11-05T08:31:23Z</time>
      </trkpt>
      <trkpt lat="43.15057" lon="2.36741">
        <ele>342</ele>
        <time>2023-11-05T08:31:25Z</time>
      </trkpt>
      <trkpt lat="43.15058" lon="2.36745">
        <ele>341.7</ele>
        <time>2023-11-05T08:31:27Z</time>
      </trkpt>
      <trkpt lat="43.15057" lon="2.36748">
        <ele>341.4</ele>
        <time>2023-11-05T08:31:29Z</time>
      </trkpt>
      <trkpt lat="43.15055" lon="2.3675">
        <ele>341.2</ele>
        <time>2023-11-05T08:31:30Z</time>
      </trkpt>
      <trkpt lat="43.15054" lon="2.36752">
        <ele>340.9</ele>
        <time>2023-11-05T08:31:32Z</time>
      </trkpt>
      <trkpt lat="43.15053" lon="2.36756">
        <ele>340.6</ele>
        <time>2023-11-05T08:31:34Z</time>
      </trkpt>
      <trkpt lat="43.15053" lon="2.36759">
        <ele>340.3</ele>
        <time>2023-11-05T08:31:36Z</time>
      </trkpt>
      <trkpt lat="43.15051" lon="2.36762">
        <ele>339.8</ele>
        <time>2023-11-05T08:31:38Z</time>
      </trkpt>
      <trkpt lat="43.15049" lon="2.3677">
        <ele>339</ele>
        <time>2023-11-05T08:31:43Z</time>
      </trkpt>
      <trkpt lat="43.15049" lon="2.36772">
        <ele>338.9</ele>
        <time>2023-11-05T08:31:44Z</time>
      </trkpt>
      <trkpt lat="43.15051" lon="2.36776">
        <ele>338.4</ele>
        <time>2023-11-05T08:31:47Z</time>
      </trkpt>
      <trkpt lat="43.15053" lon="2.36779">
        <ele>338.2</ele>
        <time>2023-11-05T08:31:49Z</time>
      </trkpt>
      <trkpt lat="43.15054" lon="2.36783">
        <ele>337.9</ele>
        <time>2023-11-05T08:31:51Z</time>
      </trkpt>
      <trkpt lat="43.15055" lon="2.36787">
        <ele>337.7</ele>
        <time>2023-11-05T08:31:53Z</time>
      </trkpt>
      <trkpt lat="43.15054" lon="2.36795">
        <ele>337.4</ele>
        <time>2023-11-05T08:31:57Z</time>
      </trkpt>
      <trkpt lat="43.15053" lon="2.36797">
        <ele>337.3</ele>
        <time>2023-11-05T08:31:58Z</time>
      </trkpt>
      <trkpt lat="43.15052" lon="2.36801">
        <ele>337.1</ele>
        <time>2023-11-05T08:32:00Z</time>
      </trkpt>
      <trkpt lat="43.15051" lon="2.36805">
        <ele>336.9</ele>
        <time>2023-11-05T08:32:02Z</time>
      </trkpt>
      <trkpt lat="43.15049" lon="2.3681">
        <ele>336.5</ele>
        <time>2023-11-05T08:32:05Z</time>
      </trkpt>
      <trkpt lat="43.15048" lon="2.36813">
        <ele>336.3</ele>
        <time>2023-11-05T08:32:07Z</time>
      </trkpt>
      <trkpt lat="43.15046" lon="2.36818">
        <ele>336</ele>
        <time>2023-11-05T08:32:11Z</time>
      </trkpt>
      <trkpt lat="43.15046" lon="2.3682">
        <ele>335.9</ele>
        <time>2023-11-05T08:32:12Z</time>
      </trkpt>
      <trkpt lat="43.15046" lon="2.36822">
        <ele>335.8</ele>
        <time>2023-11-05T08:32:13Z</time>
      </trkpt>
      <trkpt lat="43.15046" lon="2.36827">
        <ele>335.5</ele>
        <time>2023-11-05T08:32:15Z</time>
      </trkpt>
      <trkpt lat="43.15044" lon="2.36831">
        <ele>335.2</ele>
        <time>2023-11-05T08:32:17Z</time>
      </trkpt>
      <trkpt lat="43.15043" lon="2.36832">
        <ele>335.1</ele>
        <time>2023-11-05T08:32:18Z</time>
      </trkpt>
      <trkpt lat="43.15042" lon="2.36834">
        <ele>335</ele>
        <time>2023-11-05T08:32:19Z</time>
      </trkpt>
      <trkpt lat="43.15041" lon="2.3684">
        <ele>334.8</ele>
        <time>2023-11-05T08:32:22Z</time>
      </trkpt>
      <trkpt lat="43.15042" lon="2.36844">
        <ele>334.7</ele>
        <time>2023-11-05T08:32:24Z</time>
      </trkpt>
      <trkpt lat="43.15043" lon="2.36845">
        <ele>334.6</ele>
        <time>2023-11-05T08:32:25Z</time>
      </trkpt>
      <trkpt lat="43.15042" lon="2.36852">
        <ele>334.5</ele>
        <time>2023-11-05T08:32:29Z</time>
      </trkpt>
      <trkpt lat="43.15041" lon="2.36856">
        <ele>334.4</ele>
        <time>2023-11-05T08:32:32Z</time>
      </trkpt>
      <trkpt lat="43.15035" lon="2.36864">
        <ele>333.9</ele>
        <time>2023-11-05T08:32:38Z</time>
      </trkpt>
      <trkpt lat="43.15034" lon="2.36864">
        <ele>333.8</ele>
        <time>2023-11-05T08:32:39Z</time>
      </trkpt>
      <trkpt lat="43.15031" lon="2.36865">
        <ele>333.5</ele>
        <time>2023-11-05T08:32:41Z</time>
      </trkpt>
      <trkpt lat="43.1503" lon="2.36866">
        <ele>333.3</ele>
        <time>2023-11-05T08:32:42Z</time>
      </trkpt>
      <trkpt lat="43.15028" lon="2.36869">
        <ele>333</ele>
        <time>2023-11-05T08:32:44Z</time>
      </trkpt>
      <trkpt lat="43.15028" lon="2.36869">
        <ele>332.9</ele>
        <time>2023-11-05T08:32:46Z</time>
      </trkpt>
      <trkpt lat="43.15028" lon="2.36869">
        <ele>332.9</ele>
        <time>2023-11-05T08:32:48Z</time>
      </trkpt>
      <trkpt lat="43.15028" lon="2.36869">
        <ele>332.8</ele>
        <time>2023-11-05T08:32:49Z</time>
      </trkpt>
      <trkpt lat="43.15028" lon="2.3687">
        <ele>332.8</ele>
        <time>2023-11-05T08:32:53Z</time>
      </trkpt>
      <trkpt lat="43.15028" lon="2.3687">
        <ele>332.6</ele>
        <time>2023-11-05T08:32:59Z</time>
      </trkpt>
      <trkpt lat="43.15029" lon="2.3687">
        <ele>332.5</ele>
        <time>2023-11-05T08:33:03Z</time>
      </trkpt>
      <trkpt lat="43.15029" lon="2.3687">
        <ele>332.5</ele>
        <time>2023-11-05T08:33:06Z</time>
      </trkpt>
      <trkpt lat="43.15029" lon="2.3687">
        <ele>332.5</ele>
        <time>2023-11-05T08:33:11Z</time>
      </trkpt>
      <trkpt lat="43.15029" lon="2.3687">
        <ele>332.5</ele>
        <time>2023-11-05T08:33:13Z</time>
      </trkpt>
      <trkpt lat="43.15029" lon="2.3687">
        <ele>332.5</ele>
        <time>2023-11-05T08:33:14Z</time>
      </trkpt>
      <trkpt lat="43.15029" lon="2.3687">
        <ele>332.5</ele>
        <time>2023-11-05T08:33:15Z</time>
      </trkpt>
      <trkpt lat="43.15029" lon="2.3687">
        <ele>332.5</ele>
        <time>2023-11-05T08:33:18Z</time>
      </trkpt>
      <trkpt lat="43.15029" lon="2.3687">
        <ele>332.5</ele>
        <time>2023-11-05T08:33:20Z</time>
      </trkpt>
      <trkpt lat="43.15029" lon="2.3687">
        <ele>332.5</ele>
        <time>2023-11-05T08:33:22Z</time>
      </trkpt>
      <trkpt lat="43.15029" lon="2.3687">
        <ele>332.5</ele>
        <time>2023-11-05T08:33:23Z</time>
      </trkpt>
      <trkpt lat="43.15029" lon="2.3687">
        <ele>332.5</ele>
        <time>2023-11-05T08:33:24Z</time>
      </trkpt>
      <trkpt lat="43.15029" lon="2.3687">
        <ele>332.5</ele>
        <time>2023-11-05T08:33:25Z</time>
      </trkpt>
      <trkpt lat="43.15029" lon="2.3687">
        <ele>332.5</ele>
        <time>2023-11-05T08:33:27Z</time>
      </trkpt>
      <trkpt lat="43.15029" lon="2.3687">
        <ele>332.5</ele>
        <time>2023-11-05T08:33:29Z</time>
      </trkpt>
      <trkpt lat="43.15029" lon="2.3687">
        <ele>332.5</ele>
        <time>2023-11-05T08:33:31Z</time>
      </trkpt>
      <trkpt lat="43.15029" lon="2.3687">
        <ele>332.5</ele>
        <time>2023-11-05T08:33:36Z</time>
      </trkpt>
      <trkpt lat="43.15029" lon="2.3687">
        <ele>332.4</ele>
        <time>2023-11-05T08:33:38Z</time>
      </trkpt>
      <trkpt lat="43.15029" lon="2.3687">
        <ele>332.4</ele>
        <time>2023-11-05T08:33:41Z</time>
      </trkpt>
      <trkpt lat="43.1503" lon="2.36871">
        <ele>332.2</ele>
        <time>2023-11-05T08:33:46Z</time>
      </trkpt>
      <trkpt lat="43.1503" lon="2.36872">
        <ele>332</ele>
        <time>2023-11-05T08:33:49Z</time>
      </trkpt>
      <trkpt lat="43.1503" lon="2.36872">
        <ele>332</ele>
        <time>2023-11-05T08:33:51Z</time>
      </trkpt>
      <trkpt lat="43.15031" lon="2.36872">
        <ele>331.8</ele>
        <time>2023-11-05T08:33:52Z</time>
      </trkpt>
      <trkpt lat="43.15033" lon="2.36872">
        <ele>331.5</ele>
        <time>2023-11-05T08:33:53Z</time>
      </trkpt>
      <trkpt lat="43.15034" lon="2.36872">
        <ele>331.1</ele>
        <time>2023-11-05T08:33:54Z</time>
      </trkpt>
      <trkpt lat="43.15036" lon="2.36872">
        <ele>330.7</ele>
        <time>2023-11-05T08:33:55Z</time>
      </trkpt>
      <trkpt lat="43.15038" lon="2.36872">
        <ele>330.4</ele>
        <time>2023-11-05T08:33:56Z</time>
      </trkpt>
      <trkpt lat="43.1504" lon="2.36872">
        <ele>330.1</ele>
        <time>2023-11-05T08:33:57Z</time>
      </trkpt>
      <trkpt lat="43.15041" lon="2.36871">
        <ele>329.8</ele>
        <time>2023-11-05T08:33:58Z</time>
      </trkpt>
      <trkpt lat="43.15045" lon="2.36871">
        <ele>329.2</ele>
        <time>2023-11-05T08:34:02Z</time>
      </trkpt>
      <trkpt lat="43.15048" lon="2.36868">
        <ele>328.6</ele>
        <time>2023-11-05T08:34:05Z</time>
      </trkpt>
      <trkpt lat="43.15051" lon="2.36868">
        <ele>328</ele>
        <time>2023-11-05T08:34:07Z</time>
      </trkpt>
      <trkpt lat="43.15054" lon="2.36868">
        <ele>327.6</ele>
        <time>2023-11-05T08:34:09Z</time>
      </trkpt>
      <trkpt lat="43.15055" lon="2.36867">
        <ele>327.3</ele>
        <time>2023-11-05T08:34:10Z</time>
      </trkpt>
      <trkpt lat="43.15059" lon="2.36864">
        <ele>326.7</ele>
        <time>2023-11-05T08:34:13Z</time>
      </trkpt>
      <trkpt lat="43.1506" lon="2.36863">
        <ele>326.4</ele>
        <time>2023-11-05T08:34:16Z</time>
      </trkpt>
      <trkpt lat="43.15063" lon="2.36863">
        <ele>326</ele>
        <time>2023-11-05T08:34:18Z</time>
      </trkpt>
      <trkpt lat="43.15065" lon="2.36864">
        <ele>325.8</ele>
        <time>2023-11-05T08:34:19Z</time>
      </trkpt>
      <trkpt lat="43.15068" lon="2.36866">
        <ele>325.3</ele>
        <time>2023-11-05T08:34:21Z</time>
      </trkpt>
      <trkpt lat="43.15069" lon="2.36867">
        <ele>325.1</ele>
        <time>2023-11-05T08:34:22Z</time>
      </trkpt>
      <trkpt lat="43.15072" lon="2.36866">
        <ele>324.7</ele>
        <time>2023-11-05T08:34:24Z</time>
      </trkpt>
      <trkpt lat="43.15076" lon="2.36866">
        <ele>324.1</ele>
        <time>2023-11-05T08:34:27Z</time>
      </trkpt>
      <trkpt lat="43.15081" lon="2.36867">
        <ele>323.6</ele>
        <time>2023-11-05T08:34:31Z</time>
      </trkpt>
      <trkpt lat="43.15082" lon="2.36867">
        <ele>323.5</ele>
        <time>2023-11-05T08:34:32Z</time>
      </trkpt>
      <trkpt lat="43.15085" lon="2.36867">
        <ele>323.1</ele>
        <time>2023-11-05T08:34:34Z</time>
      </trkpt>
      <trkpt lat="43.15088" lon="2.36867">
        <ele>322.7</ele>
        <time>2023-11-05T08:34:37Z</time>
      </trkpt>
      <trkpt lat="43.15089" lon="2.36868">
        <ele>322.5</ele>
        <time>2023-11-05T08:34:38Z</time>
      </trkpt>
      <trkpt lat="43.15091" lon="2.36868">
        <ele>322.4</ele>
        <time>2023-11-05T08:34:39Z</time>
      </trkpt>
      <trkpt lat="43.15092" lon="2.36868">
        <ele>322.2</ele>
        <time>2023-11-05T08:34:40Z</time>
      </trkpt>
      <trkpt lat="43.15094" lon="2.36868">
        <ele>322</ele>
        <time>2023-11-05T08:34:41Z</time>
      </trkpt>
      <trkpt lat="43.15095" lon="2.36869">
        <ele>321.8</ele>
        <time>2023-11-05T08:34:42Z</time>
      </trkpt>
      <trkpt lat="43.15099" lon="2.3687">
        <ele>321.4</ele>
        <time>2023-11-05T08:34:44Z</time>
      </trkpt>
      <trkpt lat="43.15104" lon="2.36874">
        <ele>320.6</ele>
        <time>2023-11-05T08:34:47Z</time>
      </trkpt>
      <trkpt lat="43.15106" lon="2.36875">
        <ele>320.2</ele>
        <time>2023-11-05T08:34:49Z</time>
      </trkpt>
      <trkpt lat="43.15107" lon="2.36875">
        <ele>320.1</ele>
        <time>2023-11-05T08:34:50Z</time>
      </trkpt>
      <trkpt lat="43.15107" lon="2.36876">
        <ele>320.1</ele>
        <time>2023-11-05T08:34:51Z</time>
      </trkpt>
      <trkpt lat="43.15107" lon="2.36876">
        <ele>320</ele>
        <time>2023-11-05T08:34:54Z</time>
      </trkpt>
      <trkpt lat="43.15108" lon="2.36876">
        <ele>319.9</ele>
        <time>2023-11-05T08:34:57Z</time>
      </trkpt>
      <trkpt lat="43.15108" lon="2.36877">
        <ele>319.8</ele>
        <time>2023-11-05T08:34:59Z</time>
      </trkpt>
      <trkpt lat="43.15109" lon="2.36877">
        <ele>319.7</ele>
        <time>2023-11-05T08:35:01Z</time>
      </trkpt>
      <trkpt lat="43.15109" lon="2.36878">
        <ele>319.6</ele>
        <time>2023-11-05T08:35:04Z</time>
      </trkpt>
      <trkpt lat="43.15111" lon="2.3688">
        <ele>319.2</ele>
        <time>2023-11-05T08:35:06Z</time>
      </trkpt>
      <trkpt lat="43.15114" lon="2.36882">
        <ele>318.7</ele>
        <time>2023-11-05T08:35:08Z</time>
      </trkpt>
      <trkpt lat="43.15116" lon="2.36884">
        <ele>318.5</ele>
        <time>2023-11-05T08:35:09Z</time>
      </trkpt>
      <trkpt lat="43.15121" lon="2.36887">
        <ele>317.7</ele>
        <time>2023-11-05T08:35:12Z</time>
      </trkpt>
      <trkpt lat="43.15124" lon="2.36889">
        <ele>317.3</ele>
        <time>2023-11-05T08:35:14Z</time>
      </trkpt>
      <trkpt lat="43.15129" lon="2.36891">
        <ele>316.8</ele>
        <time>2023-11-05T08:35:16Z</time>
      </trkpt>
      <trkpt lat="43.15131" lon="2.36893">
        <ele>316.6</ele>
        <time>2023-11-05T08:35:17Z</time>
      </trkpt>
      <trkpt lat="43.15134" lon="2.36893">
        <ele>316.3</ele>
        <time>2023-11-05T08:35:19Z</time>
      </trkpt>
      <trkpt lat="43.15141" lon="2.36892">
        <ele>315.6</ele>
        <time>2023-11-05T08:35:23Z</time>
      </trkpt>
      <trkpt lat="43.15145" lon="2.36894">
        <ele>315.3</ele>
        <time>2023-11-05T08:35:25Z</time>
      </trkpt>
      <trkpt lat="43.15152" lon="2.36898">
        <ele>314.7</ele>
        <time>2023-11-05T08:35:29Z</time>
      </trkpt>
      <trkpt lat="43.15154" lon="2.36899">
        <ele>314.5</ele>
        <time>2023-11-05T08:35:30Z</time>
      </trkpt>
      <trkpt lat="43.1516" lon="2.36903">
        <ele>314</ele>
        <time>2023-11-05T08:35:34Z</time>
      </trkpt>
      <trkpt lat="43.15166" lon="2.36905">
        <ele>313.6</ele>
        <time>2023-11-05T08:35:37Z</time>
      </trkpt>
      <trkpt lat="43.15175" lon="2.36908">
        <ele>313.1</ele>
        <time>2023-11-05T08:35:41Z</time>
      </trkpt>
      <trkpt lat="43.15178" lon="2.3691">
        <ele>313</ele>
        <time>2023-11-05T08:35:43Z</time>
      </trkpt>
      <trkpt lat="43.15183" lon="2.36913">
        <ele>312.7</ele>
        <time>2023-11-05T08:35:46Z</time>
      </trkpt>
      <trkpt lat="43.15189" lon="2.36915">
        <ele>312.4</ele>
        <time>2023-11-05T08:35:49Z</time>
      </trkpt>
      <trkpt lat="43.152" lon="2.36921">
        <ele>311.8</ele>
        <time>2023-11-05T08:35:56Z</time>
      </trkpt>
      <trkpt lat="43.15202" lon="2.36923">
        <ele>311.7</ele>
        <time>2023-11-05T08:35:57Z</time>
      </trkpt>
      <trkpt lat="43.15207" lon="2.36928">
        <ele>311.4</ele>
        <time>2023-11-05T08:36:00Z</time>
      </trkpt>
      <trkpt lat="43.15208" lon="2.3693">
        <ele>311.3</ele>
        <time>2023-11-05T08:36:01Z</time>
      </trkpt>
      <trkpt lat="43.15209" lon="2.36932">
        <ele>311.2</ele>
        <time>2023-11-05T08:36:02Z</time>
      </trkpt>
      <trkpt lat="43.15218" lon="2.36942">
        <ele>310.3</ele>
        <time>2023-11-05T08:36:08Z</time>
      </trkpt>
      <trkpt lat="43.1522" lon="2.36943">
        <ele>310</ele>
        <time>2023-11-05T08:36:10Z</time>
      </trkpt>
      <trkpt lat="43.15226" lon="2.36943">
        <ele>309.5</ele>
        <time>2023-11-05T08:36:14Z</time>
      </trkpt>
      <trkpt lat="43.15228" lon="2.36943">
        <ele>309.2</ele>
        <time>2023-11-05T08:36:15Z</time>
      </trkpt>
      <trkpt lat="43.15232" lon="2.36944">
        <ele>308.7</ele>
        <time>2023-11-05T08:36:18Z</time>
      </trkpt>
      <trkpt lat="43.15233" lon="2.36944">
        <ele>308.5</ele>
        <time>2023-11-05T08:36:19Z</time>
      </trkpt>
      <trkpt lat="43.15235" lon="2.36944">
        <ele>308.2</ele>
        <time>2023-11-05T08:36:21Z</time>
      </trkpt>
      <trkpt lat="43.15238" lon="2.36945">
        <ele>307.8</ele>
        <time>2023-11-05T08:36:23Z</time>
      </trkpt>
      <trkpt lat="43.1524" lon="2.36945">
        <ele>307.6</ele>
        <time>2023-11-05T08:36:24Z</time>
      </trkpt>
      <trkpt lat="43.15242" lon="2.36946">
        <ele>307.1</ele>
        <time>2023-11-05T08:36:26Z</time>
      </trkpt>
      <trkpt lat="43.15243" lon="2.36946">
        <ele>307</ele>
        <time>2023-11-05T08:36:27Z</time>
      </trkpt>
      <trkpt lat="43.15249" lon="2.36946">
        <ele>306.2</ele>
        <time>2023-11-05T08:36:31Z</time>
      </trkpt>
      <trkpt lat="43.15259" lon="2.36947">
        <ele>304.9</ele>
        <time>2023-11-05T08:36:36Z</time>
      </trkpt>
      <trkpt lat="43.15262" lon="2.36946">
        <ele>304.6</ele>
        <time>2023-11-05T08:36:38Z</time>
      </trkpt>
      <trkpt lat="43.15264" lon="2.36946">
        <ele>304.4</ele>
        <time>2023-11-05T08:36:39Z</time>
      </trkpt>
      <trkpt lat="43.15266" lon="2.36946">
        <ele>304.2</ele>
        <time>2023-11-05T08:36:40Z</time>
      </trkpt>
      <trkpt lat="43.1527" lon="2.36946">
        <ele>303.7</ele>
        <time>2023-11-05T08:36:43Z</time>
      </trkpt>
      <trkpt lat="43.15271" lon="2.36947">
        <ele>303.5</ele>
        <time>2023-11-05T08:36:44Z</time>
      </trkpt>
      <trkpt lat="43.15274" lon="2.36949">
        <ele>303.2</ele>
        <time>2023-11-05T08:36:46Z</time>
      </trkpt>
      <trkpt lat="43.15278" lon="2.36948">
        <ele>302.8</ele>
        <time>2023-11-05T08:36:48Z</time>
      </trkpt>
      <trkpt lat="43.15279" lon="2.36949">
        <ele>302.6</ele>
        <time>2023-11-05T08:36:49Z</time>
      </trkpt>
      <trkpt lat="43.15283" lon="2.36952">
        <ele>302.1</ele>
        <time>2023-11-05T08:36:52Z</time>
      </trkpt>
      <trkpt lat="43.15285" lon="2.36953">
        <ele>301.8</ele>
        <time>2023-11-05T08:36:54Z</time>
      </trkpt>
      <trkpt lat="43.15286" lon="2.36955">
        <ele>301.6</ele>
        <time>2023-11-05T08:36:55Z</time>
      </trkpt>
      <trkpt lat="43.1529" lon="2.36958">
        <ele>301.2</ele>
        <time>2023-11-05T08:36:57Z</time>
      </trkpt>
      <trkpt lat="43.15294" lon="2.36959">
        <ele>300.7</ele>
        <time>2023-11-05T08:37:00Z</time>
      </trkpt>
      <trkpt lat="43.15303" lon="2.36962">
        <ele>299.9</ele>
        <time>2023-11-05T08:37:05Z</time>
      </trkpt>
      <trkpt lat="43.15306" lon="2.36964">
        <ele>299.5</ele>
        <time>2023-11-05T08:37:08Z</time>
      </trkpt>
      <trkpt lat="43.15308" lon="2.36965">
        <ele>299.4</ele>
        <time>2023-11-05T08:37:09Z</time>
      </trkpt>
      <trkpt lat="43.15314" lon="2.36967">
        <ele>299</ele>
        <time>2023-11-05T08:37:12Z</time>
      </trkpt>
      <trkpt lat="43.15322" lon="2.36975">
        <ele>298.4</ele>
        <time>2023-11-05T08:37:16Z</time>
      </trkpt>
      <trkpt lat="43.15325" lon="2.3698">
        <ele>298.1</ele>
        <time>2023-11-05T08:37:19Z</time>
      </trkpt>
      <trkpt lat="43.15327" lon="2.36982">
        <ele>298</ele>
        <time>2023-11-05T08:37:20Z</time>
      </trkpt>
      <trkpt lat="43.15337" lon="2.36991">
        <ele>297.5</ele>
        <time>2023-11-05T08:37:26Z</time>
      </trkpt>
      <trkpt lat="43.1534" lon="2.36994">
        <ele>297.4</ele>
        <time>2023-11-05T08:37:28Z</time>
      </trkpt>
      <trkpt lat="43.15347" lon="2.37003">
        <ele>297.2</ele>
        <time>2023-11-05T08:37:33Z</time>
      </trkpt>
      <trkpt lat="43.15348" lon="2.37005">
        <ele>297.1</ele>
        <time>2023-11-05T08:37:34Z</time>
      </trkpt>
      <trkpt lat="43.1535" lon="2.37015">
        <ele>296.7</ele>
        <time>2023-11-05T08:37:38Z</time>
      </trkpt>
      <trkpt lat="43.15351" lon="2.3702">
        <ele>296.5</ele>
        <time>2023-11-05T08:37:40Z</time>
      </trkpt>
      <trkpt lat="43.15353" lon="2.37024">
        <ele>296.3</ele>
        <time>2023-11-05T08:37:42Z</time>
      </trkpt>
      <trkpt lat="43.15355" lon="2.37026">
        <ele>296.2</ele>
        <time>2023-11-05T08:37:44Z</time>
      </trkpt>
      <trkpt lat="43.15356" lon="2.37026">
        <ele>296.1</ele>
        <time>2023-11-05T08:37:45Z</time>
      </trkpt>
      <trkpt lat="43.15359" lon="2.37023">
        <ele>295.9</ele>
        <time>2023-11-05T08:37:47Z</time>
      </trkpt>
      <trkpt lat="43.15361" lon="2.37022">
        <ele>295.8</ele>
        <time>2023-11-05T08:37:48Z</time>
      </trkpt>
      <trkpt lat="43.15365" lon="2.37019">
        <ele>295.6</ele>
        <time>2023-11-05T08:37:51Z</time>
      </trkpt>
      <trkpt lat="43.15373" lon="2.37017">
        <ele>295.1</ele>
        <time>2023-11-05T08:37:55Z</time>
      </trkpt>
      <trkpt lat="43.15382" lon="2.3702">
        <ele>294.4</ele>
        <time>2023-11-05T08:38:01Z</time>
      </trkpt>
      <trkpt lat="43.15386" lon="2.37028">
        <ele>293.6</ele>
        <time>2023-11-05T08:38:05Z</time>
      </trkpt>
      <trkpt lat="43.1539" lon="2.37034">
        <ele>293</ele>
        <time>2023-11-05T08:38:08Z</time>
      </trkpt>
      <trkpt lat="43.15391" lon="2.37036">
        <ele>292.7</ele>
        <time>2023-11-05T08:38:09Z</time>
      </trkpt>
      <trkpt lat="43.15394" lon="2.37042">
        <ele>291.9</ele>
        <time>2023-11-05T08:38:12Z</time>
      </trkpt>
      <trkpt lat="43.15396" lon="2.37043">
        <ele>291.7</ele>
        <time>2023-11-05T08:38:13Z</time>
      </trkpt>
      <trkpt lat="43.15401" lon="2.37045">
        <ele>290.9</ele>
        <time>2023-11-05T08:38:17Z</time>
      </trkpt>
      <trkpt lat="43.15404" lon="2.37045">
        <ele>290.4</ele>
        <time>2023-11-05T08:38:19Z</time>
      </trkpt>
      <trkpt lat="43.15408" lon="2.37045">
        <ele>289.9</ele>
        <time>2023-11-05T08:38:21Z</time>
      </trkpt>
      <trkpt lat="43.15411" lon="2.37043">
        <ele>289.5</ele>
        <time>2023-11-05T08:38:23Z</time>
      </trkpt>
      <trkpt lat="43.15416" lon="2.37041">
        <ele>288.8</ele>
        <time>2023-11-05T08:38:26Z</time>
      </trkpt>
      <trkpt lat="43.15423" lon="2.37033">
        <ele>287.9</ele>
        <time>2023-11-05T08:38:31Z</time>
      </trkpt>
      <trkpt lat="43.15425" lon="2.37032">
        <ele>287.7</ele>
        <time>2023-11-05T08:38:32Z</time>
      </trkpt>
      <trkpt lat="43.15428" lon="2.3703">
        <ele>287.5</ele>
        <time>2023-11-05T08:38:34Z</time>
      </trkpt>
      <trkpt lat="43.15433" lon="2.37029">
        <ele>287</ele>
        <time>2023-11-05T08:38:37Z</time>
      </trkpt>
      <trkpt lat="43.15439" lon="2.37027">
        <ele>286.6</ele>
        <time>2023-11-05T08:38:40Z</time>
      </trkpt>
      <trkpt lat="43.15445" lon="2.37026">
        <ele>286.3</ele>
        <time>2023-11-05T08:38:43Z</time>
      </trkpt>
      <trkpt lat="43.15452" lon="2.3702">
        <ele>285.5</ele>
        <time>2023-11-05T08:38:48Z</time>
      </trkpt>
      <trkpt lat="43.15456" lon="2.37019">
        <ele>285.2</ele>
        <time>2023-11-05T08:38:50Z</time>
      </trkpt>
      <trkpt lat="43.15459" lon="2.37017">
        <ele>284.7</ele>
        <time>2023-11-05T08:38:52Z</time>
      </trkpt>
      <trkpt lat="43.15461" lon="2.37015">
        <ele>284.5</ele>
        <time>2023-11-05T08:38:53Z</time>
      </trkpt>
      <trkpt lat="43.15467" lon="2.37012">
        <ele>283.6</ele>
        <time>2023-11-05T08:38:57Z</time>
      </trkpt>
      <trkpt lat="43.15471" lon="2.3701">
        <ele>283.1</ele>
        <time>2023-11-05T08:39:00Z</time>
      </trkpt>
      <trkpt lat="43.15474" lon="2.37009">
        <ele>282.6</ele>
        <time>2023-11-05T08:39:02Z</time>
      </trkpt>
      <trkpt lat="43.15478" lon="2.37007">
        <ele>282.1</ele>
        <time>2023-11-05T08:39:05Z</time>
      </trkpt>
      <trkpt lat="43.15479" lon="2.37003">
        <ele>281.7</ele>
        <time>2023-11-05T08:39:07Z</time>
      </trkpt>
      <trkpt lat="43.1548" lon="2.37001">
        <ele>281.4</ele>
        <time>2023-11-05T08:39:08Z</time>
      </trkpt>
      <trkpt lat="43.15481" lon="2.36997">
        <ele>281</ele>
        <time>2023-11-05T08:39:10Z</time>
      </trkpt>
      <trkpt lat="43.15481" lon="2.36993">
        <ele>280.5</ele>
        <time>2023-11-05T08:39:12Z</time>
      </trkpt>
      <trkpt lat="43.15483" lon="2.36989">
        <ele>280</ele>
        <time>2023-11-05T08:39:15Z</time>
      </trkpt>
      <trkpt lat="43.15485" lon="2.36986">
        <ele>279.6</ele>
        <time>2023-11-05T08:39:17Z</time>
      </trkpt>
      <trkpt lat="43.15488" lon="2.3698">
        <ele>278.8</ele>
        <time>2023-11-05T08:39:20Z</time>
      </trkpt>
      <trkpt lat="43.1549" lon="2.36977">
        <ele>278.5</ele>
        <time>2023-11-05T08:39:21Z</time>
      </trkpt>
      <trkpt lat="43.15494" lon="2.36977">
        <ele>277.9</ele>
        <time>2023-11-05T08:39:23Z</time>
      </trkpt>
      <trkpt lat="43.15498" lon="2.36976">
        <ele>277.6</ele>
        <time>2023-11-05T08:39:25Z</time>
      </trkpt>
      <trkpt lat="43.15499" lon="2.36975">
        <ele>277.4</ele>
        <time>2023-11-05T08:39:26Z</time>
      </trkpt>
      <trkpt lat="43.15509" lon="2.36965">
        <ele>276.5</ele>
        <time>2023-11-05T08:39:33Z</time>
      </trkpt>
      <trkpt lat="43.15511" lon="2.36961">
        <ele>276.5</ele>
        <time>2023-11-05T08:39:35Z</time>
      </trkpt>
      <trkpt lat="43.15513" lon="2.36959">
        <ele>276.4</ele>
        <time>2023-11-05T08:39:37Z</time>
      </trkpt>
      <trkpt lat="43.15516" lon="2.36958">
        <ele>276.2</ele>
        <time>2023-11-05T08:39:39Z</time>
      </trkpt>
      <trkpt lat="43.1552" lon="2.36958">
        <ele>275.8</ele>
        <time>2023-11-05T08:39:42Z</time>
      </trkpt>
      <trkpt lat="43.15528" lon="2.36961">
        <ele>274.9</ele>
        <time>2023-11-05T08:39:47Z</time>
      </trkpt>
      <trkpt lat="43.1553" lon="2.36963">
        <ele>274.6</ele>
        <time>2023-11-05T08:39:48Z</time>
      </trkpt>
      <trkpt lat="43.15531" lon="2.36963">
        <ele>274.4</ele>
        <time>2023-11-05T08:39:49Z</time>
      </trkpt>
      <trkpt lat="43.15537" lon="2.36968">
        <ele>273.4</ele>
        <time>2023-11-05T08:39:53Z</time>
      </trkpt>
      <trkpt lat="43.15539" lon="2.36969">
        <ele>273.1</ele>
        <time>2023-11-05T08:39:54Z</time>
      </trkpt>
      <trkpt lat="43.15543" lon="2.36968">
        <ele>272.3</ele>
        <time>2023-11-05T08:39:57Z</time>
      </trkpt>
      <trkpt lat="43.15544" lon="2.36969">
        <ele>272.1</ele>
        <time>2023-11-05T08:39:58Z</time>
      </trkpt>
      <trkpt lat="43.15545" lon="2.36969">
        <ele>271.9</ele>
        <time>2023-11-05T08:39:59Z</time>
      </trkpt>
      <trkpt lat="43.15547" lon="2.36971">
        <ele>271.4</ele>
        <time>2023-11-05T08:40:01Z</time>
      </trkpt>
      <trkpt lat="43.15549" lon="2.36971">
        <ele>271.1</ele>
        <time>2023-11-05T08:40:02Z</time>
      </trkpt>
      <trkpt lat="43.15552" lon="2.36974">
        <ele>270.3</ele>
        <time>2023-11-05T08:40:05Z</time>
      </trkpt>
      <trkpt lat="43.15554" lon="2.36975">
        <ele>270</ele>
        <time>2023-11-05T08:40:06Z</time>
      </trkpt>
      <trkpt lat="43.15555" lon="2.36976">
        <ele>269.7</ele>
        <time>2023-11-05T08:40:07Z</time>
      </trkpt>
      <trkpt lat="43.15559" lon="2.36978">
        <ele>268.9</ele>
        <time>2023-11-05T08:40:09Z</time>
      </trkpt>
      <trkpt lat="43.15561" lon="2.3698">
        <ele>268.5</ele>
        <time>2023-11-05T08:40:10Z</time>
      </trkpt>
      <trkpt lat="43.15562" lon="2.36981">
        <ele>268.3</ele>
        <time>2023-11-05T08:40:11Z</time>
      </trkpt>
      <trkpt lat="43.15563" lon="2.36981">
        <ele>268.1</ele>
        <time>2023-11-05T08:40:12Z</time>
      </trkpt>
      <trkpt lat="43.15566" lon="2.36984">
        <ele>267.4</ele>
        <time>2023-11-05T08:40:15Z</time>
      </trkpt>
      <trkpt lat="43.15567" lon="2.36985">
        <ele>267.1</ele>
        <time>2023-11-05T08:40:16Z</time>
      </trkpt>
      <trkpt lat="43.15569" lon="2.36987">
        <ele>266.7</ele>
        <time>2023-11-05T08:40:18Z</time>
      </trkpt>
      <trkpt lat="43.15571" lon="2.36989">
        <ele>266.3</ele>
        <time>2023-11-05T08:40:19Z</time>
      </trkpt>
      <trkpt lat="43.15572" lon="2.36991">
        <ele>266</ele>
        <time>2023-11-05T08:40:21Z</time>
      </trkpt>
      <trkpt lat="43.15574" lon="2.36992">
        <ele>265.7</ele>
        <time>2023-11-05T08:40:23Z</time>
      </trkpt>
      <trkpt lat="43.15575" lon="2.36992">
        <ele>265.6</ele>
        <time>2023-11-05T08:40:24Z</time>
      </trkpt>
      <trkpt lat="43.15575" lon="2.36992">
        <ele>265.5</ele>
        <time>2023-11-05T08:40:25Z</time>
      </trkpt>
      <trkpt lat="43.15577" lon="2.36989">
        <ele>265</ele>
        <time>2023-11-05T08:40:28Z</time>
      </trkpt>
      <trkpt lat="43.15578" lon="2.36988">
        <ele>264.9</ele>
        <time>2023-11-05T08:40:29Z</time>
      </trkpt>
      <trkpt lat="43.15579" lon="2.36988">
        <ele>264.8</ele>
        <time>2023-11-05T08:40:30Z</time>
      </trkpt>
      <trkpt lat="43.1558" lon="2.36985">
        <ele>264.5</ele>
        <time>2023-11-05T08:40:32Z</time>
      </trkpt>
      <trkpt lat="43.15581" lon="2.36979">
        <ele>263.8</ele>
        <time>2023-11-05T08:40:35Z</time>
      </trkpt>
      <trkpt lat="43.15584" lon="2.36978">
        <ele>263.5</ele>
        <time>2023-11-05T08:40:37Z</time>
      </trkpt>
      <trkpt lat="43.15588" lon="2.36975">
        <ele>263</ele>
        <time>2023-11-05T08:40:40Z</time>
      </trkpt>
      <trkpt lat="43.15589" lon="2.36974">
        <ele>262.8</ele>
        <time>2023-11-05T08:40:41Z</time>
      </trkpt>
      <trkpt lat="43.15593" lon="2.36972">
        <ele>262.4</ele>
        <time>2023-11-05T08:40:44Z</time>
      </trkpt>
      <trkpt lat="43.15599" lon="2.36962">
        <ele>262.3</ele>
        <time>2023-11-05T08:40:50Z</time>
      </trkpt>
      <trkpt lat="43.156" lon="2.36953">
        <ele>262.6</ele>
        <time>2023-11-05T08:40:53Z</time>
      </trkpt>
      <trkpt lat="43.15601" lon="2.36947">
        <ele>262.9</ele>
        <time>2023-11-05T08:40:55Z</time>
      </trkpt>
      <trkpt lat="43.15601" lon="2.36941">
        <ele>263.1</ele>
        <time>2023-11-05T08:40:57Z</time>
      </trkpt>
      <trkpt lat="43.15602" lon="2.36924">
        <ele>263.9</ele>
        <time>2023-11-05T08:41:03Z</time>
      </trkpt>
      <trkpt lat="43.15603" lon="2.36922">
        <ele>264</ele>
        <time>2023-11-05T08:41:04Z</time>
      </trkpt>
      <trkpt lat="43.15604" lon="2.36915">
        <ele>264.3</ele>
        <time>2023-11-05T08:41:10Z</time>
      </trkpt>
      <trkpt lat="43.15604" lon="2.36912">
        <ele>264.4</ele>
        <time>2023-11-05T08:41:20Z</time>
      </trkpt>
      <trkpt lat="43.15604" lon="2.36912">
        <ele>264.4</ele>
        <time>2023-11-05T08:41:29Z</time>
      </trkpt>
      <trkpt lat="43.15604" lon="2.36912">
        <ele>264.4</ele>
        <time>2023-11-05T08:41:34Z</time>
      </trkpt>
      <trkpt lat="43.15604" lon="2.36912">
        <ele>264.5</ele>
        <time>2023-11-05T08:41:37Z</time>
      </trkpt>
      <trkpt lat="43.15603" lon="2.36911">
        <ele>264.5</ele>
        <time>2023-11-05T08:41:45Z</time>
      </trkpt>
      <trkpt lat="43.15603" lon="2.36911">
        <ele>264.5</ele>
        <time>2023-11-05T08:41:46Z</time>
      </trkpt>
      <trkpt lat="43.15603" lon="2.36911">
        <ele>264.5</ele>
        <time>2023-11-05T08:41:50Z</time>
      </trkpt>
      <trkpt lat="43.15603" lon="2.36911">
        <ele>264.5</ele>
        <time>2023-11-05T08:41:51Z</time>
      </trkpt>
      <trkpt lat="43.15603" lon="2.36911">
        <ele>264.5</ele>
        <time>2023-11-05T08:41:53Z</time>
      </trkpt>
      <trkpt lat="43.15603" lon="2.3691">
        <ele>264.5</ele>
        <time>2023-11-05T08:42:01Z</time>
      </trkpt>
      <trkpt lat="43.15603" lon="2.3691">
        <ele>264.6</ele>
        <time>2023-11-05T08:42:02Z</time>
      </trkpt>
      <trkpt lat="43.15605" lon="2.36903">
        <ele>264.9</ele>
        <time>2023-11-05T08:42:05Z</time>
      </trkpt>
      <trkpt lat="43.15607" lon="2.36895">
        <ele>265.3</ele>
        <time>2023-11-05T08:42:08Z</time>
      </trkpt>
      <trkpt lat="43.15609" lon="2.36892">
        <ele>265.4</ele>
        <time>2023-11-05T08:42:09Z</time>
      </trkpt>
      <trkpt lat="43.1561" lon="2.3689">
        <ele>265.6</ele>
        <time>2023-11-05T08:42:10Z</time>
      </trkpt>
      <trkpt lat="43.15613" lon="2.36884">
        <ele>265.9</ele>
        <time>2023-11-05T08:42:13Z</time>
      </trkpt>
      <trkpt lat="43.15616" lon="2.36882">
        <ele>266.1</ele>
        <time>2023-11-05T08:42:17Z</time>
      </trkpt>
      <trkpt lat="43.1562" lon="2.36882">
        <ele>266.3</ele>
        <time>2023-11-05T08:42:23Z</time>
      </trkpt>
      <trkpt lat="43.15621" lon="2.36881">
        <ele>266.4</ele>
        <time>2023-11-05T08:42:24Z</time>
      </trkpt>
      <trkpt lat="43.15625" lon="2.36877">
        <ele>266.6</ele>
        <time>2023-11-05T08:42:27Z</time>
      </trkpt>
      <trkpt lat="43.15628" lon="2.36874">
        <ele>266.9</ele>
        <time>2023-11-05T08:42:30Z</time>
      </trkpt>
      <trkpt lat="43.15631" lon="2.36873">
        <ele>267.1</ele>
        <time>2023-11-05T08:42:32Z</time>
      </trkpt>
      <trkpt lat="43.15635" lon="2.3687">
        <ele>267.4</ele>
        <time>2023-11-05T08:42:35Z</time>
      </trkpt>
      <trkpt lat="43.15638" lon="2.36868">
        <ele>267.7</ele>
        <time>2023-11-05T08:42:37Z</time>
      </trkpt>
      <trkpt lat="43.1564" lon="2.36867">
        <ele>267.8</ele>
        <time>2023-11-05T08:42:38Z</time>
      </trkpt>
      <trkpt lat="43.15649" lon="2.36859">
        <ele>268.4</ele>
        <time>2023-11-05T08:42:43Z</time>
      </trkpt>
      <trkpt lat="43.15656" lon="2.3685">
        <ele>268.9</ele>
        <time>2023-11-05T08:42:46Z</time>
      </trkpt>
      <trkpt lat="43.15658" lon="2.36847">
        <ele>269.1</ele>
        <time>2023-11-05T08:42:47Z</time>
      </trkpt>
      <trkpt lat="43.15667" lon="2.36837">
        <ele>269.7</ele>
        <time>2023-11-05T08:42:52Z</time>
      </trkpt>
      <trkpt lat="43.15669" lon="2.36835">
        <ele>269.8</ele>
        <time>2023-11-05T08:42:53Z</time>
      </trkpt>
      <trkpt lat="43.15673" lon="2.36831">
        <ele>270</ele>
        <time>2023-11-05T08:42:55Z</time>
      </trkpt>
      <trkpt lat="43.15676" lon="2.36824">
        <ele>270</ele>
        <time>2023-11-05T08:42:58Z</time>
      </trkpt>
      <trkpt lat="43.1568" lon="2.36811">
        <ele>269.8</ele>
        <time>2023-11-05T08:43:02Z</time>
      </trkpt>
      <trkpt lat="43.15686" lon="2.36791">
        <ele>268.7</ele>
        <time>2023-11-05T08:43:09Z</time>
      </trkpt>
      <trkpt lat="43.15687" lon="2.36788">
        <ele>268.5</ele>
        <time>2023-11-05T08:43:10Z</time>
      </trkpt>
      <trkpt lat="43.15693" lon="2.36776">
        <ele>267.7</ele>
        <time>2023-11-05T08:43:14Z</time>
      </trkpt>
      <trkpt lat="43.15699" lon="2.36765">
        <ele>267</ele>
        <time>2023-11-05T08:43:18Z</time>
      </trkpt>
      <trkpt lat="43.15705" lon="2.36758">
        <ele>266.5</ele>
        <time>2023-11-05T08:43:21Z</time>
      </trkpt>
      <trkpt lat="43.15712" lon="2.3675">
        <ele>265.9</ele>
        <time>2023-11-05T08:43:25Z</time>
      </trkpt>
      <trkpt lat="43.15714" lon="2.36748">
        <ele>265.7</ele>
        <time>2023-11-05T08:43:26Z</time>
      </trkpt>
      <trkpt lat="43.1572" lon="2.36741">
        <ele>265.2</ele>
        <time>2023-11-05T08:43:29Z</time>
      </trkpt>
      <trkpt lat="43.15726" lon="2.36732">
        <ele>264.9</ele>
        <time>2023-11-05T08:43:33Z</time>
      </trkpt>
      <trkpt lat="43.15727" lon="2.36731">
        <ele>264.9</ele>
        <time>2023-11-05T08:43:34Z</time>
      </trkpt>
      <trkpt lat="43.15733" lon="2.36725">
        <ele>264.8</ele>
        <time>2023-11-05T08:43:39Z</time>
      </trkpt>
      <trkpt lat="43.15734" lon="2.36723">
        <ele>264.8</ele>
        <time>2023-11-05T08:43:41Z</time>
      </trkpt>
      <trkpt lat="43.15735" lon="2.36721">
        <ele>264.8</ele>
        <time>2023-11-05T08:43:44Z</time>
      </trkpt>
      <trkpt lat="43.15737" lon="2.36721">
        <ele>264.8</ele>
        <time>2023-11-05T08:43:46Z</time>
      </trkpt>
      <trkpt lat="43.15739" lon="2.36721">
        <ele>265.1</ele>
        <time>2023-11-05T08:43:49Z</time>
      </trkpt>
      <trkpt lat="43.15744" lon="2.36719">
        <ele>265.8</ele>
        <time>2023-11-05T08:43:53Z</time>
      </trkpt>
      <trkpt lat="43.15751" lon="2.36718">
        <ele>266.7</ele>
        <time>2023-11-05T08:43:57Z</time>
      </trkpt>
      <trkpt lat="43.15757" lon="2.36715">
        <ele>267.5</ele>
        <time>2023-11-05T08:44:01Z</time>
      </trkpt>
      <trkpt lat="43.1576" lon="2.36712">
        <ele>268</ele>
        <time>2023-11-05T08:44:04Z</time>
      </trkpt>
      <trkpt lat="43.1576" lon="2.36711">
        <ele>268.1</ele>
        <time>2023-11-05T08:44:05Z</time>
      </trkpt>
      <trkpt lat="43.15763" lon="2.36708">
        <ele>268.4</ele>
        <time>2023-11-05T08:44:08Z</time>
      </trkpt>
      <trkpt lat="43.15763" lon="2.36707">
        <ele>268.5</ele>
        <time>2023-11-05T08:44:09Z</time>
      </trkpt>
      <trkpt lat="43.15763" lon="2.36705">
        <ele>268.7</ele>
        <time>2023-11-05T08:44:11Z</time>
      </trkpt>
      <trkpt lat="43.15764" lon="2.36701">
        <ele>268.9</ele>
        <time>2023-11-05T08:44:14Z</time>
      </trkpt>
      <trkpt lat="43.15765" lon="2.36699">
        <ele>269</ele>
        <time>2023-11-05T08:44:15Z</time>
      </trkpt>
      <trkpt lat="43.15766" lon="2.36697">
        <ele>269.2</ele>
        <time>2023-11-05T08:44:17Z</time>
      </trkpt>
      <trkpt lat="43.1577" lon="2.36694">
        <ele>269.5</ele>
        <time>2023-11-05T08:44:20Z</time>
      </trkpt>
      <trkpt lat="43.15772" lon="2.36691">
        <ele>269.6</ele>
        <time>2023-11-05T08:44:22Z</time>
      </trkpt>
      <trkpt lat="43.15776" lon="2.36682">
        <ele>270</ele>
        <time>2023-11-05T08:44:28Z</time>
      </trkpt>
      <trkpt lat="43.15778" lon="2.36678">
        <ele>270.2</ele>
        <time>2023-11-05T08:44:31Z</time>
      </trkpt>
      <trkpt lat="43.15779" lon="2.36677">
        <ele>270.2</ele>
        <time>2023-11-05T08:44:32Z</time>
      </trkpt>
      <trkpt lat="43.1578" lon="2.36674">
        <ele>270.3</ele>
        <time>2023-11-05T08:44:34Z</time>
      </trkpt>
      <trkpt lat="43.15782" lon="2.36671">
        <ele>270.5</ele>
        <time>2023-11-05T08:44:37Z</time>
      </trkpt>
      <trkpt lat="43.15783" lon="2.36668">
        <ele>270.6</ele>
        <time>2023-11-05T08:44:39Z</time>
      </trkpt>
      <trkpt lat="43.15784" lon="2.36665">
        <ele>270.7</ele>
        <time>2023-11-05T08:44:41Z</time>
      </trkpt>
      <trkpt lat="43.15786" lon="2.36662">
        <ele>270.9</ele>
        <time>2023-11-05T08:44:43Z</time>
      </trkpt>
      <trkpt lat="43.15789" lon="2.3666">
        <ele>271.1</ele>
        <time>2023-11-05T08:44:45Z</time>
      </trkpt>
      <trkpt lat="43.1579" lon="2.3666">
        <ele>271.2</ele>
        <time>2023-11-05T08:44:46Z</time>
      </trkpt>
      <trkpt lat="43.15791" lon="2.36661">
        <ele>271.3</ele>
        <time>2023-11-05T08:44:47Z</time>
      </trkpt>
      <trkpt lat="43.15792" lon="2.36662">
        <ele>271.4</ele>
        <time>2023-11-05T08:44:48Z</time>
      </trkpt>
      <trkpt lat="43.15794" lon="2.36664">
        <ele>271.6</ele>
        <time>2023-11-05T08:44:50Z</time>
      </trkpt>
      <trkpt lat="43.15799" lon="2.36664">
        <ele>272.1</ele>
        <time>2023-11-05T08:44:53Z</time>
      </trkpt>
      <trkpt lat="43.15802" lon="2.36664">
        <ele>272.4</ele>
        <time>2023-11-05T08:44:55Z</time>
      </trkpt>
      <trkpt lat="43.15804" lon="2.36664">
        <ele>272.6</ele>
        <time>2023-11-05T08:44:57Z</time>
      </trkpt>
      <trkpt lat="43.15811" lon="2.36662">
        <ele>273.4</ele>
        <time>2023-11-05T08:45:02Z</time>
      </trkpt>
      <trkpt lat="43.15812" lon="2.36662">
        <ele>273.6</ele>
        <time>2023-11-05T08:45:03Z</time>
      </trkpt>
      <trkpt lat="43.15817" lon="2.36662">
        <ele>274.2</ele>
        <time>2023-11-05T08:45:07Z</time>
      </trkpt>
      <trkpt lat="43.15817" lon="2.3666">
        <ele>274.4</ele>
        <time>2023-11-05T08:45:09Z</time>
      </trkpt>
      <trkpt lat="43.15817" lon="2.36656">
        <ele>274.8</ele>
        <time>2023-11-05T08:45:12Z</time>
      </trkpt>
      <trkpt lat="43.15816" lon="2.36651">
        <ele>275.3</ele>
        <time>2023-11-05T08:45:15Z</time>
      </trkpt>
      <trkpt lat="43.15815" lon="2.36649">
        <ele>275.4</ele>
        <time>2023-11-05T08:45:16Z</time>
      </trkpt>
      <trkpt lat="43.15815" lon="2.36648">
        <ele>275.5</ele>
        <time>2023-11-05T08:45:17Z</time>
      </trkpt>
      <trkpt lat="43.15815" lon="2.36644">
        <ele>275.8</ele>
        <time>2023-11-05T08:45:20Z</time>
      </trkpt>
      <trkpt lat="43.15815" lon="2.36642">
        <ele>275.9</ele>
        <time>2023-11-05T08:45:21Z</time>
      </trkpt>
      <trkpt lat="43.15814" lon="2.36637">
        <ele>276.2</ele>
        <time>2023-11-05T08:45:24Z</time>
      </trkpt>
      <trkpt lat="43.15814" lon="2.36636">
        <ele>276.3</ele>
        <time>2023-11-05T08:45:25Z</time>
      </trkpt>
      <trkpt lat="43.15814" lon="2.36632">
        <ele>276.5</ele>
        <time>2023-11-05T08:45:27Z</time>
      </trkpt>
      <trkpt lat="43.15814" lon="2.36627">
        <ele>276.7</ele>
        <time>2023-11-05T08:45:30Z</time>
      </trkpt>
      <trkpt lat="43.15815" lon="2.36624">
        <ele>276.8</ele>
        <time>2023-11-05T08:45:32Z</time>
      </trkpt>
      <trkpt lat="43.15814" lon="2.36622">
        <ele>276.9</ele>
        <time>2023-11-05T08:45:33Z</time>
      </trkpt>
      <trkpt lat="43.15818" lon="2.36608">
        <ele>277.3</ele>
        <time>2023-11-05T08:45:40Z</time>
      </trkpt>
      <trkpt lat="43.15818" lon="2.36599">
        <ele>277.8</ele>
        <time>2023-11-05T08:45:44Z</time>
      </trkpt>
      <trkpt lat="43.1582" lon="2.36596">
        <ele>278.1</ele>
        <time>2023-11-05T08:45:46Z</time>
      </trkpt>
      <trkpt lat="43.15822" lon="2.3659">
        <ele>278.5</ele>
        <time>2023-11-05T08:45:49Z</time>
      </trkpt>
      <trkpt lat="43.1582" lon="2.36588">
        <ele>278.8</ele>
        <time>2023-11-05T08:45:51Z</time>
      </trkpt>
      <trkpt lat="43.15819" lon="2.36587">
        <ele>278.9</ele>
        <time>2023-11-05T08:45:52Z</time>
      </trkpt>
      <trkpt lat="43.15816" lon="2.36582">
        <ele>279.3</ele>
        <time>2023-11-05T08:45:55Z</time>
      </trkpt>
      <trkpt lat="43.15816" lon="2.3658">
        <ele>279.5</ele>
        <time>2023-11-05T08:45:56Z</time>
      </trkpt>
      <trkpt lat="43.15816" lon="2.36577">
        <ele>279.6</ele>
        <time>2023-11-05T08:45:58Z</time>
      </trkpt>
      <trkpt lat="43.15816" lon="2.36575">
        <ele>279.8</ele>
        <time>2023-11-05T08:45:59Z</time>
      </trkpt>
      <trkpt lat="43.15815" lon="2.36567">
        <ele>280.2</ele>
        <time>2023-11-05T08:46:03Z</time>
      </trkpt>
      <trkpt lat="43.15814" lon="2.36558">
        <ele>280.5</ele>
        <time>2023-11-05T08:46:07Z</time>
      </trkpt>
      <trkpt lat="43.15812" lon="2.36548">
        <ele>280.7</ele>
        <time>2023-11-05T08:46:12Z</time>
      </trkpt>
      <trkpt lat="43.15811" lon="2.36539">
        <ele>280.7</ele>
        <time>2023-11-05T08:46:17Z</time>
      </trkpt>
      <trkpt lat="43.15811" lon="2.36534">
        <ele>280.7</ele>
        <time>2023-11-05T08:46:20Z</time>
      </trkpt>
      <trkpt lat="43.1581" lon="2.36531">
        <ele>280.7</ele>
        <time>2023-11-05T08:46:22Z</time>
      </trkpt>
      <trkpt lat="43.15809" lon="2.36528">
        <ele>280.7</ele>
        <time>2023-11-05T08:46:24Z</time>
      </trkpt>
      <trkpt lat="43.15805" lon="2.36513">
        <ele>280.6</ele>
        <time>2023-11-05T08:46:33Z</time>
      </trkpt>
      <trkpt lat="43.15805" lon="2.36507">
        <ele>280.4</ele>
        <time>2023-11-05T08:46:36Z</time>
      </trkpt>
      <trkpt lat="43.15805" lon="2.36504">
        <ele>280.2</ele>
        <time>2023-11-05T08:46:38Z</time>
      </trkpt>
      <trkpt lat="43.15804" lon="2.36498">
        <ele>279.9</ele>
        <time>2023-11-05T08:46:41Z</time>
      </trkpt>
      <trkpt lat="43.15804" lon="2.36497">
        <ele>279.7</ele>
        <time>2023-11-05T08:46:42Z</time>
      </trkpt>
      <trkpt lat="43.15804" lon="2.36495">
        <ele>279.6</ele>
        <time>2023-11-05T08:46:43Z</time>
      </trkpt>
      <trkpt lat="43.15804" lon="2.36494">
        <ele>279.5</ele>
        <time>2023-11-05T08:46:44Z</time>
      </trkpt>
      <trkpt lat="43.15803" lon="2.3649">
        <ele>279.1</ele>
        <time>2023-11-05T08:46:48Z</time>
      </trkpt>
      <trkpt lat="43.15803" lon="2.36487">
        <ele>278.7</ele>
        <time>2023-11-05T08:46:53Z</time>
      </trkpt>
      <trkpt lat="43.15803" lon="2.36484">
        <ele>278.4</ele>
        <time>2023-11-05T08:46:56Z</time>
      </trkpt>
      <trkpt lat="43.15803" lon="2.36481">
        <ele>278</ele>
        <time>2023-11-05T08:46:59Z</time>
      </trkpt>
      <trkpt lat="43.15803" lon="2.36479">
        <ele>277.8</ele>
        <time>2023-11-05T08:47:00Z</time>
      </trkpt>
      <trkpt lat="43.15803" lon="2.36476">
        <ele>277.4</ele>
        <time>2023-11-05T08:47:02Z</time>
      </trkpt>
      <trkpt lat="43.15803" lon="2.36473">
        <ele>276.9</ele>
        <time>2023-11-05T08:47:04Z</time>
      </trkpt>
      <trkpt lat="43.15802" lon="2.36472">
        <ele>276.7</ele>
        <time>2023-11-05T08:47:05Z</time>
      </trkpt>
      <trkpt lat="43.15801" lon="2.36469">
        <ele>276.3</ele>
        <time>2023-11-05T08:47:07Z</time>
      </trkpt>
      <trkpt lat="43.15801" lon="2.36467">
        <ele>276</ele>
        <time>2023-11-05T08:47:08Z</time>
      </trkpt>
      <trkpt lat="43.158" lon="2.36462">
        <ele>275.3</ele>
        <time>2023-11-05T08:47:11Z</time>
      </trkpt>
      <trkpt lat="43.158" lon="2.36457">
        <ele>274.6</ele>
        <time>2023-11-05T08:47:14Z</time>
      </trkpt>
      <trkpt lat="43.158" lon="2.36455">
        <ele>274.3</ele>
        <time>2023-11-05T08:47:15Z</time>
      </trkpt>
      <trkpt lat="43.158" lon="2.36451">
        <ele>273.7</ele>
        <time>2023-11-05T08:47:17Z</time>
      </trkpt>
      <trkpt lat="43.158" lon="2.36446">
        <ele>273.1</ele>
        <time>2023-11-05T08:47:19Z</time>
      </trkpt>
      <trkpt lat="43.158" lon="2.36442">
        <ele>272.6</ele>
        <time>2023-11-05T08:47:21Z</time>
      </trkpt>
      <trkpt lat="43.158" lon="2.36435">
        <ele>271.8</ele>
        <time>2023-11-05T08:47:24Z</time>
      </trkpt>
      <trkpt lat="43.15799" lon="2.36432">
        <ele>271.5</ele>
        <time>2023-11-05T08:47:25Z</time>
      </trkpt>
      <trkpt lat="43.15799" lon="2.36422">
        <ele>270.4</ele>
        <time>2023-11-05T08:47:31Z</time>
      </trkpt>
      <trkpt lat="43.15799" lon="2.3642">
        <ele>270.3</ele>
        <time>2023-11-05T08:47:32Z</time>
      </trkpt>
      <trkpt lat="43.15798" lon="2.36416">
        <ele>270</ele>
        <time>2023-11-05T08:47:34Z</time>
      </trkpt>
      <trkpt lat="43.15797" lon="2.36413">
        <ele>269.7</ele>
        <time>2023-11-05T08:47:36Z</time>
      </trkpt>
      <trkpt lat="43.15797" lon="2.36409">
        <ele>269.3</ele>
        <time>2023-11-05T08:47:38Z</time>
      </trkpt>
      <trkpt lat="43.15796" lon="2.36395">
        <ele>268.2</ele>
        <time>2023-11-05T08:47:44Z</time>
      </trkpt>
      <trkpt lat="43.15795" lon="2.36394">
        <ele>268</ele>
        <time>2023-11-05T08:47:45Z</time>
      </trkpt>
      <trkpt lat="43.15792" lon="2.36392">
        <ele>267.7</ele>
        <time>2023-11-05T08:47:48Z</time>
      </trkpt>
      <trkpt lat="43.15791" lon="2.36388">
        <ele>267.3</ele>
        <time>2023-11-05T08:47:50Z</time>
      </trkpt>
      <trkpt lat="43.15791" lon="2.36386">
        <ele>267.1</ele>
        <time>2023-11-05T08:47:51Z</time>
      </trkpt>
      <trkpt lat="43.1579" lon="2.36384">
        <ele>266.9</ele>
        <time>2023-11-05T08:47:52Z</time>
      </trkpt>
      <trkpt lat="43.15788" lon="2.3638">
        <ele>266.5</ele>
        <time>2023-11-05T08:47:54Z</time>
      </trkpt>
      <trkpt lat="43.15787" lon="2.36375">
        <ele>266.1</ele>
        <time>2023-11-05T08:47:56Z</time>
      </trkpt>
      <trkpt lat="43.15787" lon="2.36373">
        <ele>265.9</ele>
        <time>2023-11-05T08:47:58Z</time>
      </trkpt>
      <trkpt lat="43.15787" lon="2.36371">
        <ele>265.7</ele>
        <time>2023-11-05T08:47:59Z</time>
      </trkpt>
      <trkpt lat="43.15784" lon="2.36367">
        <ele>265.2</ele>
        <time>2023-11-05T08:48:02Z</time>
      </trkpt>
      <trkpt lat="43.15783" lon="2.36365">
        <ele>265</ele>
        <time>2023-11-05T08:48:03Z</time>
      </trkpt>
      <trkpt lat="43.15782" lon="2.36364">
        <ele>264.8</ele>
        <time>2023-11-05T08:48:04Z</time>
      </trkpt>
      <trkpt lat="43.15781" lon="2.36363">
        <ele>264.7</ele>
        <time>2023-11-05T08:48:05Z</time>
      </trkpt>
      <trkpt lat="43.15781" lon="2.36361">
        <ele>264.5</ele>
        <time>2023-11-05T08:48:06Z</time>
      </trkpt>
      <trkpt lat="43.15779" lon="2.36355">
        <ele>263.8</ele>
        <time>2023-11-05T08:48:10Z</time>
      </trkpt>
      <trkpt lat="43.15778" lon="2.36353">
        <ele>263.6</ele>
        <time>2023-11-05T08:48:11Z</time>
      </trkpt>
      <trkpt lat="43.15778" lon="2.36351">
        <ele>263.4</ele>
        <time>2023-11-05T08:48:12Z</time>
      </trkpt>
      <trkpt lat="43.15776" lon="2.36345">
        <ele>262.6</ele>
        <time>2023-11-05T08:48:15Z</time>
      </trkpt>
      <trkpt lat="43.15775" lon="2.36342">
        <ele>262.2</ele>
        <time>2023-11-05T08:48:17Z</time>
      </trkpt>
      <trkpt lat="43.15773" lon="2.36338">
        <ele>261.5</ele>
        <time>2023-11-05T08:48:20Z</time>
      </trkpt>
      <trkpt lat="43.15772" lon="2.36337">
        <ele>261.3</ele>
        <time>2023-11-05T08:48:21Z</time>
      </trkpt>
      <trkpt lat="43.15767" lon="2.36328">
        <ele>259.9</ele>
        <time>2023-11-05T08:48:26Z</time>
      </trkpt>
      <trkpt lat="43.15767" lon="2.36326">
        <ele>259.6</ele>
        <time>2023-11-05T08:48:27Z</time>
      </trkpt>
      <trkpt lat="43.15764" lon="2.36318">
        <ele>258.5</ele>
        <time>2023-11-05T08:48:31Z</time>
      </trkpt>
      <trkpt lat="43.15762" lon="2.36312">
        <ele>257.7</ele>
        <time>2023-11-05T08:48:34Z</time>
      </trkpt>
      <trkpt lat="43.15761" lon="2.36307">
        <ele>257.2</ele>
        <time>2023-11-05T08:48:36Z</time>
      </trkpt>
      <trkpt lat="43.15761" lon="2.36301">
        <ele>256.4</ele>
        <time>2023-11-05T08:48:40Z</time>
      </trkpt>
      <trkpt lat="43.1576" lon="2.36298">
        <ele>256</ele>
        <time>2023-11-05T08:48:42Z</time>
      </trkpt>
      <trkpt lat="43.15759" lon="2.36296">
        <ele>255.8</ele>
        <time>2023-11-05T08:48:43Z</time>
      </trkpt>
      <trkpt lat="43.15758" lon="2.36294">
        <ele>255.6</ele>
        <time>2023-11-05T08:48:44Z</time>
      </trkpt>
      <trkpt lat="43.15755" lon="2.36286">
        <ele>254.6</ele>
        <time>2023-11-05T08:48:48Z</time>
      </trkpt>
      <trkpt lat="43.15755" lon="2.36284">
        <ele>254.4</ele>
        <time>2023-11-05T08:48:49Z</time>
      </trkpt>
      <trkpt lat="43.15754" lon="2.36283">
        <ele>254.2</ele>
        <time>2023-11-05T08:48:50Z</time>
      </trkpt>
      <trkpt lat="43.15753" lon="2.3628">
        <ele>253.8</ele>
        <time>2023-11-05T08:48:52Z</time>
      </trkpt>
      <trkpt lat="43.15752" lon="2.36278">
        <ele>253.5</ele>
        <time>2023-11-05T08:48:53Z</time>
      </trkpt>
      <trkpt lat="43.1575" lon="2.36272">
        <ele>252.8</ele>
        <time>2023-11-05T08:48:56Z</time>
      </trkpt>
      <trkpt lat="43.1575" lon="2.36267">
        <ele>252.4</ele>
        <time>2023-11-05T08:48:58Z</time>
      </trkpt>
      <trkpt lat="43.15751" lon="2.36263">
        <ele>251.9</ele>
        <time>2023-11-05T08:49:00Z</time>
      </trkpt>
      <trkpt lat="43.15752" lon="2.36258">
        <ele>251.4</ele>
        <time>2023-11-05T08:49:02Z</time>
      </trkpt>
      <trkpt lat="43.15753" lon="2.36253">
        <ele>250.9</ele>
        <time>2023-11-05T08:49:04Z</time>
      </trkpt>
      <trkpt lat="43.15753" lon="2.36248">
        <ele>250.4</ele>
        <time>2023-11-05T08:49:06Z</time>
      </trkpt>
      <trkpt lat="43.15754" lon="2.36242">
        <ele>249.9</ele>
        <time>2023-11-05T08:49:08Z</time>
      </trkpt>
      <trkpt lat="43.15753" lon="2.36239">
        <ele>249.7</ele>
        <time>2023-11-05T08:49:09Z</time>
      </trkpt>
      <trkpt lat="43.15751" lon="2.36221">
        <ele>248.3</ele>
        <time>2023-11-05T08:49:15Z</time>
      </trkpt>
      <trkpt lat="43.15754" lon="2.3621">
        <ele>247.6</ele>
        <time>2023-11-05T08:49:21Z</time>
      </trkpt>
      <trkpt lat="43.15756" lon="2.36208">
        <ele>247.3</ele>
        <time>2023-11-05T08:49:24Z</time>
      </trkpt>
      <trkpt lat="43.15757" lon="2.36206">
        <ele>247.2</ele>
        <time>2023-11-05T08:49:26Z</time>
      </trkpt>
      <trkpt lat="43.15757" lon="2.36204">
        <ele>247.1</ele>
        <time>2023-11-05T08:49:30Z</time>
      </trkpt>
      <trkpt lat="43.15756" lon="2.36202">
        <ele>247</ele>
        <time>2023-11-05T08:49:35Z</time>
      </trkpt>
      <trkpt lat="43.15756" lon="2.36202">
        <ele>246.9</ele>
        <time>2023-11-05T08:49:37Z</time>
      </trkpt>
      <trkpt lat="43.15756" lon="2.36202">
        <ele>246.9</ele>
        <time>2023-11-05T08:49:40Z</time>
      </trkpt>
      <trkpt lat="43.15756" lon="2.36202">
        <ele>246.9</ele>
        <time>2023-11-05T08:49:41Z</time>
      </trkpt>
      <trkpt lat="43.15756" lon="2.36202">
        <ele>246.9</ele>
        <time>2023-11-05T08:49:45Z</time>
      </trkpt>
      <trkpt lat="43.15756" lon="2.36202">
        <ele>246.9</ele>
        <time>2023-11-05T08:49:49Z</time>
      </trkpt>
      <trkpt lat="43.15756" lon="2.36202">
        <ele>246.9</ele>
        <time>2023-11-05T08:49:50Z</time>
      </trkpt>
      <trkpt lat="43.15756" lon="2.36202">
        <ele>246.9</ele>
        <time>2023-11-05T08:49:52Z</time>
      </trkpt>
      <trkpt lat="43.15754" lon="2.36202">
        <ele>246.6</ele>
        <time>2023-11-05T08:49:54Z</time>
      </trkpt>
      <trkpt lat="43.15749" lon="2.36199">
        <ele>246</ele>
        <time>2023-11-05T08:49:57Z</time>
      </trkpt>
      <trkpt lat="43.15747" lon="2.36199">
        <ele>245.8</ele>
        <time>2023-11-05T08:49:58Z</time>
      </trkpt>
      <trkpt lat="43.15741" lon="2.36198">
        <ele>245.1</ele>
        <time>2023-11-05T08:50:01Z</time>
      </trkpt>
      <trkpt lat="43.15739" lon="2.36194">
        <ele>244.8</ele>
        <time>2023-11-05T08:50:03Z</time>
      </trkpt>
      <trkpt lat="43.15739" lon="2.36191">
        <ele>244.7</ele>
        <time>2023-11-05T08:50:04Z</time>
      </trkpt>
      <trkpt lat="43.15739" lon="2.36188">
        <ele>244.6</ele>
        <time>2023-11-05T08:50:06Z</time>
      </trkpt>
      <trkpt lat="43.15739" lon="2.36185">
        <ele>244.6</ele>
        <time>2023-11-05T08:50:08Z</time>
      </trkpt>
      <trkpt lat="43.15739" lon="2.36184">
        <ele>244.6</ele>
        <time>2023-11-05T08:50:09Z</time>
      </trkpt>
      <trkpt lat="43.1574" lon="2.36182">
        <ele>244.7</ele>
        <time>2023-11-05T08:50:10Z</time>
      </trkpt>
      <trkpt lat="43.1574" lon="2.36178">
        <ele>244.9</ele>
        <time>2023-11-05T08:50:12Z</time>
      </trkpt>
      <trkpt lat="43.15743" lon="2.36172">
        <ele>245.4</ele>
        <time>2023-11-05T08:50:15Z</time>
      </trkpt>
      <trkpt lat="43.15744" lon="2.36171">
        <ele>245.5</ele>
        <time>2023-11-05T08:50:16Z</time>
      </trkpt>
      <trkpt lat="43.15748" lon="2.36168">
        <ele>246.2</ele>
        <time>2023-11-05T08:50:20Z</time>
      </trkpt>
      <trkpt lat="43.15749" lon="2.36167">
        <ele>246.3</ele>
        <time>2023-11-05T08:50:21Z</time>
      </trkpt>
      <trkpt lat="43.1575" lon="2.36165">
        <ele>246.5</ele>
        <time>2023-11-05T08:50:22Z</time>
      </trkpt>
      <trkpt lat="43.1575" lon="2.36163">
        <ele>246.7</ele>
        <time>2023-11-05T08:50:23Z</time>
      </trkpt>
      <trkpt lat="43.15752" lon="2.36161">
        <ele>247.1</ele>
        <time>2023-11-05T08:50:25Z</time>
      </trkpt>
      <trkpt lat="43.15755" lon="2.36155">
        <ele>247.7</ele>
        <time>2023-11-05T08:50:29Z</time>
      </trkpt>
      <trkpt lat="43.15756" lon="2.36154">
        <ele>248</ele>
        <time>2023-11-05T08:50:31Z</time>
      </trkpt>
      <trkpt lat="43.15757" lon="2.36153">
        <ele>248.1</ele>
        <time>2023-11-05T08:50:32Z</time>
      </trkpt>
      <trkpt lat="43.15758" lon="2.36152">
        <ele>248.3</ele>
        <time>2023-11-05T08:50:33Z</time>
      </trkpt>
      <trkpt lat="43.15761" lon="2.36151">
        <ele>248.7</ele>
        <time>2023-11-05T08:50:36Z</time>
      </trkpt>
      <trkpt lat="43.15762" lon="2.3615">
        <ele>248.9</ele>
        <time>2023-11-05T08:50:37Z</time>
      </trkpt>
      <trkpt lat="43.15763" lon="2.36145">
        <ele>249.3</ele>
        <time>2023-11-05T08:50:40Z</time>
      </trkpt>
      <trkpt lat="43.15764" lon="2.36144">
        <ele>249.4</ele>
        <time>2023-11-05T08:50:41Z</time>
      </trkpt>
      <trkpt lat="43.15767" lon="2.3614">
        <ele>249.7</ele>
        <time>2023-11-05T08:50:44Z</time>
      </trkpt>
      <trkpt lat="43.15769" lon="2.36139">
        <ele>249.9</ele>
        <time>2023-11-05T08:50:46Z</time>
      </trkpt>
      <trkpt lat="43.1577" lon="2.36137">
        <ele>250</ele>
        <time>2023-11-05T08:50:47Z</time>
      </trkpt>
      <trkpt lat="43.15771" lon="2.36136">
        <ele>250.1</ele>
        <time>2023-11-05T08:50:48Z</time>
      </trkpt>
      <trkpt lat="43.15772" lon="2.36135">
        <ele>250.2</ele>
        <time>2023-11-05T08:50:49Z</time>
      </trkpt>
      <trkpt lat="43.15772" lon="2.36134">
        <ele>250.2</ele>
        <time>2023-11-05T08:50:50Z</time>
      </trkpt>
      <trkpt lat="43.15777" lon="2.3613">
        <ele>250.3</ele>
        <time>2023-11-05T08:50:54Z</time>
      </trkpt>
      <trkpt lat="43.15782" lon="2.36124">
        <ele>250.1</ele>
        <time>2023-11-05T08:50:59Z</time>
      </trkpt>
      <trkpt lat="43.15783" lon="2.36122">
        <ele>250</ele>
        <time>2023-11-05T08:51:00Z</time>
      </trkpt>
      <trkpt lat="43.15784" lon="2.3612">
        <ele>250</ele>
        <time>2023-11-05T08:51:01Z</time>
      </trkpt>
      <trkpt lat="43.15791" lon="2.36107">
        <ele>249</ele>
        <time>2023-11-05T08:51:10Z</time>
      </trkpt>
      <trkpt lat="43.15791" lon="2.36098">
        <ele>248</ele>
        <time>2023-11-05T08:51:16Z</time>
      </trkpt>
      <trkpt lat="43.15792" lon="2.36094">
        <ele>247.5</ele>
        <time>2023-11-05T08:51:19Z</time>
      </trkpt>
      <trkpt lat="43.15792" lon="2.36093">
        <ele>247.4</ele>
        <time>2023-11-05T08:51:20Z</time>
      </trkpt>
      <trkpt lat="43.15792" lon="2.36091">
        <ele>247.2</ele>
        <time>2023-11-05T08:51:22Z</time>
      </trkpt>
      <trkpt lat="43.15792" lon="2.3609">
        <ele>247</ele>
        <time>2023-11-05T08:51:23Z</time>
      </trkpt>
      <trkpt lat="43.15793" lon="2.36084">
        <ele>246.2</ele>
        <time>2023-11-05T08:51:27Z</time>
      </trkpt>
      <trkpt lat="43.15792" lon="2.36083">
        <ele>246.1</ele>
        <time>2023-11-05T08:51:28Z</time>
      </trkpt>
      <trkpt lat="43.15792" lon="2.36081">
        <ele>245.9</ele>
        <time>2023-11-05T08:51:30Z</time>
      </trkpt>
      <trkpt lat="43.15791" lon="2.36075">
        <ele>244.9</ele>
        <time>2023-11-05T08:51:34Z</time>
      </trkpt>
      <trkpt lat="43.15791" lon="2.36074">
        <ele>244.7</ele>
        <time>2023-11-05T08:51:35Z</time>
      </trkpt>
      <trkpt lat="43.1579" lon="2.36073">
        <ele>244.5</ele>
        <time>2023-11-05T08:51:36Z</time>
      </trkpt>
      <trkpt lat="43.15789" lon="2.36072">
        <ele>244.3</ele>
        <time>2023-11-05T08:51:37Z</time>
      </trkpt>
      <trkpt lat="43.15788" lon="2.36067">
        <ele>243.4</ele>
        <time>2023-11-05T08:51:40Z</time>
      </trkpt>
      <trkpt lat="43.15788" lon="2.36064">
        <ele>243</ele>
        <time>2023-11-05T08:51:42Z</time>
      </trkpt>
      <trkpt lat="43.15788" lon="2.36063">
        <ele>242.8</ele>
        <time>2023-11-05T08:51:43Z</time>
      </trkpt>
      <trkpt lat="43.15788" lon="2.36058">
        <ele>242</ele>
        <time>2023-11-05T08:51:46Z</time>
      </trkpt>
      <trkpt lat="43.15787" lon="2.36056">
        <ele>241.6</ele>
        <time>2023-11-05T08:51:48Z</time>
      </trkpt>
      <trkpt lat="43.15787" lon="2.36054">
        <ele>241.1</ele>
        <time>2023-11-05T08:51:50Z</time>
      </trkpt>
      <trkpt lat="43.15787" lon="2.36053">
        <ele>241</ele>
        <time>2023-11-05T08:51:51Z</time>
      </trkpt>
      <trkpt lat="43.15786" lon="2.36052">
        <ele>240.8</ele>
        <time>2023-11-05T08:51:52Z</time>
      </trkpt>
      <trkpt lat="43.15786" lon="2.3605">
        <ele>240.4</ele>
        <time>2023-11-05T08:51:53Z</time>
      </trkpt>
      <trkpt lat="43.15785" lon="2.36049">
        <ele>240.1</ele>
        <time>2023-11-05T08:51:54Z</time>
      </trkpt>
      <trkpt lat="43.15784" lon="2.36046">
        <ele>239.5</ele>
        <time>2023-11-05T08:51:56Z</time>
      </trkpt>
      <trkpt lat="43.15784" lon="2.36043">
        <ele>239.1</ele>
        <time>2023-11-05T08:51:58Z</time>
      </trkpt>
      <trkpt lat="43.15784" lon="2.36036">
        <ele>237.7</ele>
        <time>2023-11-05T08:52:02Z</time>
      </trkpt>
      <trkpt lat="43.15783" lon="2.36033">
        <ele>237</ele>
        <time>2023-11-05T08:52:05Z</time>
      </trkpt>
      <trkpt lat="43.15783" lon="2.36033">
        <ele>236.9</ele>
        <time>2023-11-05T08:52:07Z</time>
      </trkpt>
      <trkpt lat="43.15782" lon="2.36033">
        <ele>236.9</ele>
        <time>2023-11-05T08:52:08Z</time>
      </trkpt>
      <trkpt lat="43.15783" lon="2.36032">
        <ele>236.6</ele>
        <time>2023-11-05T08:52:10Z</time>
      </trkpt>
      <trkpt lat="43.15783" lon="2.36029">
        <ele>236</ele>
        <time>2023-11-05T08:52:12Z</time>
      </trkpt>
      <trkpt lat="43.15783" lon="2.36027">
        <ele>235.7</ele>
        <time>2023-11-05T08:52:13Z</time>
      </trkpt>
      <trkpt lat="43.15783" lon="2.36026">
        <ele>235.5</ele>
        <time>2023-11-05T08:52:14Z</time>
      </trkpt>
      <trkpt lat="43.15782" lon="2.36025">
        <ele>235.2</ele>
        <time>2023-11-05T08:52:15Z</time>
      </trkpt>
      <trkpt lat="43.15781" lon="2.36023">
        <ele>234.9</ele>
        <time>2023-11-05T08:52:16Z</time>
      </trkpt>
      <trkpt lat="43.15781" lon="2.36022">
        <ele>234.5</ele>
        <time>2023-11-05T08:52:17Z</time>
      </trkpt>
      <trkpt lat="43.15779" lon="2.36019">
        <ele>234</ele>
        <time>2023-11-05T08:52:19Z</time>
      </trkpt>
      <trkpt lat="43.15779" lon="2.36018">
        <ele>233.7</ele>
        <time>2023-11-05T08:52:20Z</time>
      </trkpt>
      <trkpt lat="43.15779" lon="2.36016">
        <ele>233.3</ele>
        <time>2023-11-05T08:52:21Z</time>
      </trkpt>
      <trkpt lat="43.15778" lon="2.36012">
        <ele>232.4</ele>
        <time>2023-11-05T08:52:23Z</time>
      </trkpt>
      <trkpt lat="43.15777" lon="2.36003">
        <ele>230.5</ele>
        <time>2023-11-05T08:52:27Z</time>
      </trkpt>
      <trkpt lat="43.15777" lon="2.35999">
        <ele>229.6</ele>
        <time>2023-11-05T08:52:29Z</time>
      </trkpt>
      <trkpt lat="43.15777" lon="2.35994">
        <ele>228.6</ele>
        <time>2023-11-05T08:52:31Z</time>
      </trkpt>
      <trkpt lat="43.15778" lon="2.3599">
        <ele>227.6</ele>
        <time>2023-11-05T08:52:33Z</time>
      </trkpt>
      <trkpt lat="43.15778" lon="2.35988">
        <ele>227.2</ele>
        <time>2023-11-05T08:52:34Z</time>
      </trkpt>
      <trkpt lat="43.15777" lon="2.35986">
        <ele>226.7</ele>
        <time>2023-11-05T08:52:36Z</time>
      </trkpt>
      <trkpt lat="43.15777" lon="2.35985">
        <ele>226.5</ele>
        <time>2023-11-05T08:52:37Z</time>
      </trkpt>
      <trkpt lat="43.15776" lon="2.35979">
        <ele>224.9</ele>
        <time>2023-11-05T08:52:41Z</time>
      </trkpt>
      <trkpt lat="43.15774" lon="2.35974">
        <ele>223.7</ele>
        <time>2023-11-05T08:52:44Z</time>
      </trkpt>
      <trkpt lat="43.15772" lon="2.35972">
        <ele>222.6</ele>
        <time>2023-11-05T08:52:48Z</time>
      </trkpt>
      <trkpt lat="43.15768" lon="2.35969">
        <ele>221.2</ele>
        <time>2023-11-05T08:52:51Z</time>
      </trkpt>
      <trkpt lat="43.15767" lon="2.35968">
        <ele>220.7</ele>
        <time>2023-11-05T08:52:52Z</time>
      </trkpt>
      <trkpt lat="43.15766" lon="2.35966">
        <ele>220.1</ele>
        <time>2023-11-05T08:52:53Z</time>
      </trkpt>
      <trkpt lat="43.15765" lon="2.35963">
        <ele>219.2</ele>
        <time>2023-11-05T08:52:55Z</time>
      </trkpt>
      <trkpt lat="43.15765" lon="2.35961">
        <ele>218.8</ele>
        <time>2023-11-05T08:52:56Z</time>
      </trkpt>
      <trkpt lat="43.15763" lon="2.35959">
        <ele>217.8</ele>
        <time>2023-11-05T08:52:59Z</time>
      </trkpt>
      <trkpt lat="43.15761" lon="2.35958">
        <ele>217.2</ele>
        <time>2023-11-05T08:53:01Z</time>
      </trkpt>
      <trkpt lat="43.1576" lon="2.35958">
        <ele>216.9</ele>
        <time>2023-11-05T08:53:02Z</time>
      </trkpt>
      <trkpt lat="43.15759" lon="2.35957">
        <ele>216.1</ele>
        <time>2023-11-05T08:53:05Z</time>
      </trkpt>
      <trkpt lat="43.15757" lon="2.35957">
        <ele>215.7</ele>
        <time>2023-11-05T08:53:07Z</time>
      </trkpt>
      <trkpt lat="43.15757" lon="2.35956">
        <ele>215.5</ele>
        <time>2023-11-05T08:53:08Z</time>
      </trkpt>
      <trkpt lat="43.15757" lon="2.35956">
        <ele>215.3</ele>
        <time>2023-11-05T08:53:09Z</time>
      </trkpt>
      <trkpt lat="43.15755" lon="2.35954">
        <ele>214.6</ele>
        <time>2023-11-05T08:53:11Z</time>
      </trkpt>
      <trkpt lat="43.15755" lon="2.35953">
        <ele>214.1</ele>
        <time>2023-11-05T08:53:12Z</time>
      </trkpt>
      <trkpt lat="43.15754" lon="2.3595">
        <ele>213.3</ele>
        <time>2023-11-05T08:53:14Z</time>
      </trkpt>
      <trkpt lat="43.15753" lon="2.35948">
        <ele>212.7</ele>
        <time>2023-11-05T08:53:15Z</time>
      </trkpt>
      <trkpt lat="43.15752" lon="2.35945">
        <ele>211.8</ele>
        <time>2023-11-05T08:53:18Z</time>
      </trkpt>
      <trkpt lat="43.15752" lon="2.35945">
        <ele>211.7</ele>
        <time>2023-11-05T08:53:20Z</time>
      </trkpt>
      <trkpt lat="43.15752" lon="2.35944">
        <ele>211.4</ele>
        <time>2023-11-05T08:53:22Z</time>
      </trkpt>
      <trkpt lat="43.15751" lon="2.35943">
        <ele>211.2</ele>
        <time>2023-11-05T08:53:23Z</time>
      </trkpt>
      <trkpt lat="43.15749" lon="2.35941">
        <ele>210.2</ele>
        <time>2023-11-05T08:53:27Z</time>
      </trkpt>
      <trkpt lat="43.15749" lon="2.3594">
        <ele>209.9</ele>
        <time>2023-11-05T08:53:28Z</time>
      </trkpt>
      <trkpt lat="43.15748" lon="2.35938">
        <ele>209.3</ele>
        <time>2023-11-05T08:53:30Z</time>
      </trkpt>
      <trkpt lat="43.15745" lon="2.35936">
        <ele>208.4</ele>
        <time>2023-11-05T08:53:33Z</time>
      </trkpt>
      <trkpt lat="43.15744" lon="2.35936">
        <ele>208</ele>
        <time>2023-11-05T08:53:34Z</time>
      </trkpt>
      <trkpt lat="43.15742" lon="2.35935">
        <ele>207.5</ele>
        <time>2023-11-05T08:53:36Z</time>
      </trkpt>
      <trkpt lat="43.1574" lon="2.35933">
        <ele>206.9</ele>
        <time>2023-11-05T08:53:38Z</time>
      </trkpt>
      <trkpt lat="43.15739" lon="2.35932">
        <ele>206.6</ele>
        <time>2023-11-05T08:53:39Z</time>
      </trkpt>
      <trkpt lat="43.15738" lon="2.35932">
        <ele>206.3</ele>
        <time>2023-11-05T08:53:40Z</time>
      </trkpt>
      <trkpt lat="43.15734" lon="2.3593">
        <ele>205.3</ele>
        <time>2023-11-05T08:53:43Z</time>
      </trkpt>
      <trkpt lat="43.15733" lon="2.35929">
        <ele>204.9</ele>
        <time>2023-11-05T08:53:46Z</time>
      </trkpt>
      <trkpt lat="43.15732" lon="2.35929">
        <ele>204.8</ele>
        <time>2023-11-05T08:53:47Z</time>
      </trkpt>
      <trkpt lat="43.1573" lon="2.35929">
        <ele>204.4</ele>
        <time>2023-11-05T08:53:49Z</time>
      </trkpt>
      <trkpt lat="43.15727" lon="2.35929">
        <ele>203.9</ele>
        <time>2023-11-05T08:53:51Z</time>
      </trkpt>
      <trkpt lat="43.15724" lon="2.35928">
        <ele>203.4</ele>
        <time>2023-11-05T08:53:53Z</time>
      </trkpt>
      <trkpt lat="43.15719" lon="2.35925">
        <ele>202.7</ele>
        <time>2023-11-05T08:53:57Z</time>
      </trkpt>
      <trkpt lat="43.15717" lon="2.35924">
        <ele>202.5</ele>
        <time>2023-11-05T08:53:58Z</time>
      </trkpt>
      <trkpt lat="43.15713" lon="2.35924">
        <ele>202</ele>
        <time>2023-11-05T08:54:01Z</time>
      </trkpt>
      <trkpt lat="43.15711" lon="2.35924">
        <ele>201.8</ele>
        <time>2023-11-05T08:54:02Z</time>
      </trkpt>
      <trkpt lat="43.1571" lon="2.35923">
        <ele>201.8</ele>
        <time>2023-11-05T08:54:03Z</time>
      </trkpt>
      <trkpt lat="43.15709" lon="2.35922">
        <ele>201.8</ele>
        <time>2023-11-05T08:54:04Z</time>
      </trkpt>
      <trkpt lat="43.15709" lon="2.35918">
        <ele>201.8</ele>
        <time>2023-11-05T08:54:06Z</time>
      </trkpt>
      <trkpt lat="43.1571" lon="2.35915">
        <ele>201.8</ele>
        <time>2023-11-05T08:54:07Z</time>
      </trkpt>
      <trkpt lat="43.15716" lon="2.35908">
        <ele>202</ele>
        <time>2023-11-05T08:54:10Z</time>
      </trkpt>
      <trkpt lat="43.15721" lon="2.35906">
        <ele>202.1</ele>
        <time>2023-11-05T08:54:13Z</time>
      </trkpt>
      <trkpt lat="43.15725" lon="2.35905">
        <ele>202.2</ele>
        <time>2023-11-05T08:54:15Z</time>
      </trkpt>
      <trkpt lat="43.15737" lon="2.35901">
        <ele>202.2</ele>
        <time>2023-11-05T08:54:21Z</time>
      </trkpt>
      <trkpt lat="43.15742" lon="2.35894">
        <ele>202.3</ele>
        <time>2023-11-05T08:54:24Z</time>
      </trkpt>
      <trkpt lat="43.15751" lon="2.35884">
        <ele>202.3</ele>
        <time>2023-11-05T08:54:29Z</time>
      </trkpt>
      <trkpt lat="43.15759" lon="2.35872">
        <ele>202.4</ele>
        <time>2023-11-05T08:54:34Z</time>
      </trkpt>
      <trkpt lat="43.15761" lon="2.3587">
        <ele>202.4</ele>
        <time>2023-11-05T08:54:35Z</time>
      </trkpt>
      <trkpt lat="43.15773" lon="2.3586">
        <ele>202.5</ele>
        <time>2023-11-05T08:54:41Z</time>
      </trkpt>
      <trkpt lat="43.15776" lon="2.35858">
        <ele>202.5</ele>
        <time>2023-11-05T08:54:42Z</time>
      </trkpt>
      <trkpt lat="43.15785" lon="2.35848">
        <ele>202.6</ele>
        <time>2023-11-05T08:54:47Z</time>
      </trkpt>
      <trkpt lat="43.15789" lon="2.35844">
        <ele>202.7</ele>
        <time>2023-11-05T08:54:49Z</time>
      </trkpt>
      <trkpt lat="43.158" lon="2.35836">
        <ele>202.7</ele>
        <time>2023-11-05T08:54:55Z</time>
      </trkpt>
      <trkpt lat="43.15803" lon="2.35836">
        <ele>202.7</ele>
        <time>2023-11-05T08:54:56Z</time>
      </trkpt>
      <trkpt lat="43.1581" lon="2.35833">
        <ele>202.7</ele>
        <time>2023-11-05T08:54:59Z</time>
      </trkpt>
      <trkpt lat="43.15817" lon="2.35828">
        <ele>202.7</ele>
        <time>2023-11-05T08:55:03Z</time>
      </trkpt>
      <trkpt lat="43.15817" lon="2.35827">
        <ele>202.7</ele>
        <time>2023-11-05T08:55:04Z</time>
      </trkpt>
      <trkpt lat="43.15814" lon="2.35827">
        <ele>202.7</ele>
        <time>2023-11-05T08:55:07Z</time>
      </trkpt>
      <trkpt lat="43.15813" lon="2.35829">
        <ele>202.7</ele>
        <time>2023-11-05T08:55:08Z</time>
      </trkpt>
      <trkpt lat="43.158" lon="2.35831">
        <ele>202.7</ele>
        <time>2023-11-05T08:55:15Z</time>
      </trkpt>
      <trkpt lat="43.15795" lon="2.35831">
        <ele>202.7</ele>
        <time>2023-11-05T08:55:18Z</time>
      </trkpt>
      <trkpt lat="43.15789" lon="2.35836">
        <ele>202.7</ele>
        <time>2023-11-05T08:55:22Z</time>
      </trkpt>
      <trkpt lat="43.15786" lon="2.35844">
        <ele>202.7</ele>
        <time>2023-11-05T08:55:26Z</time>
      </trkpt>
      <trkpt lat="43.15783" lon="2.35849">
        <ele>202.6</ele>
        <time>2023-11-05T08:55:28Z</time>
      </trkpt>
      <trkpt lat="43.1577" lon="2.35863">
        <ele>202.4</ele>
        <time>2023-11-05T08:55:37Z</time>
      </trkpt>
      <trkpt lat="43.15767" lon="2.35866">
        <ele>202.4</ele>
        <time>2023-11-05T08:55:40Z</time>
      </trkpt>
      <trkpt lat="43.15759" lon="2.35869">
        <ele>202.4</ele>
        <time>2023-11-05T08:55:46Z</time>
      </trkpt>
      <trkpt lat="43.15759" lon="2.35869">
        <ele>202.4</ele>
        <time>2023-11-05T08:55:47Z</time>
      </trkpt>
      <trkpt lat="43.15757" lon="2.3587">
        <ele>202.4</ele>
        <time>2023-11-05T08:55:49Z</time>
      </trkpt>
      <trkpt lat="43.15756" lon="2.35871">
        <ele>202.3</ele>
        <time>2023-11-05T08:55:50Z</time>
      </trkpt>
      <trkpt lat="43.15752" lon="2.35874">
        <ele>202.3</ele>
        <time>2023-11-05T08:55:54Z</time>
      </trkpt>
      <trkpt lat="43.15749" lon="2.35877">
        <ele>202.3</ele>
        <time>2023-11-05T08:55:59Z</time>
      </trkpt>
      <trkpt lat="43.15747" lon="2.35879">
        <ele>202.3</ele>
        <time>2023-11-05T08:56:01Z</time>
      </trkpt>
      <trkpt lat="43.15746" lon="2.3588">
        <ele>202.3</ele>
        <time>2023-11-05T08:56:02Z</time>
      </trkpt>
      <trkpt lat="43.15744" lon="2.35881">
        <ele>202.3</ele>
        <time>2023-11-05T08:56:03Z</time>
      </trkpt>
      <trkpt lat="43.15743" lon="2.35883">
        <ele>202.3</ele>
        <time>2023-11-05T08:56:04Z</time>
      </trkpt>
      <trkpt lat="43.15736" lon="2.35887">
        <ele>202.3</ele>
        <time>2023-11-05T08:56:07Z</time>
      </trkpt>
      <trkpt lat="43.15732" lon="2.35891">
        <ele>202.2</ele>
        <time>2023-11-05T08:56:09Z</time>
      </trkpt>
      <trkpt lat="43.15727" lon="2.35894">
        <ele>202.2</ele>
        <time>2023-11-05T08:56:12Z</time>
      </trkpt>
      <trkpt lat="43.15723" lon="2.35895">
        <ele>202.2</ele>
        <time>2023-11-05T08:56:15Z</time>
      </trkpt>
      <trkpt lat="43.15723" lon="2.35894">
        <ele>202.2</ele>
        <time>2023-11-05T08:56:16Z</time>
      </trkpt>
      <trkpt lat="43.15721" lon="2.35892">
        <ele>202.2</ele>
        <time>2023-11-05T08:56:18Z</time>
      </trkpt>
      <trkpt lat="43.1572" lon="2.35892">
        <ele>202.2</ele>
        <time>2023-11-05T08:56:19Z</time>
      </trkpt>
      <trkpt lat="43.15716" lon="2.35894">
        <ele>202.1</ele>
        <time>2023-11-05T08:56:22Z</time>
      </trkpt>
      <trkpt lat="43.15704" lon="2.359">
        <ele>201.9</ele>
        <time>2023-11-05T08:56:28Z</time>
      </trkpt>
      <trkpt lat="43.15699" lon="2.35903">
        <ele>201.8</ele>
        <time>2023-11-05T08:56:31Z</time>
      </trkpt>
      <trkpt lat="43.15683" lon="2.35907">
        <ele>202.9</ele>
        <time>2023-11-05T08:56:40Z</time>
      </trkpt>
      <trkpt lat="43.15672" lon="2.3591">
        <ele>203.5</ele>
        <time>2023-11-05T08:56:47Z</time>
      </trkpt>
      <trkpt lat="43.15671" lon="2.3591">
        <ele>203.5</ele>
        <time>2023-11-05T08:56:49Z</time>
      </trkpt>
      <trkpt lat="43.1567" lon="2.35911">
        <ele>203.5</ele>
        <time>2023-11-05T08:56:55Z</time>
      </trkpt>
      <trkpt lat="43.15671" lon="2.3591">
        <ele>203.6</ele>
        <time>2023-11-05T08:57:00Z</time>
      </trkpt>
      <trkpt lat="43.15672" lon="2.3591">
        <ele>203.6</ele>
        <time>2023-11-05T08:57:05Z</time>
      </trkpt>
      <trkpt lat="43.15672" lon="2.3591">
        <ele>203.6</ele>
        <time>2023-11-05T08:57:10Z</time>
      </trkpt>
      <trkpt lat="43.15672" lon="2.3591">
        <ele>203.6</ele>
        <time>2023-11-05T08:57:13Z</time>
      </trkpt>
      <trkpt lat="43.15672" lon="2.3591">
        <ele>203.6</ele>
        <time>2023-11-05T08:57:15Z</time>
      </trkpt>
      <trkpt lat="43.15672" lon="2.3591">
        <ele>203.6</ele>
        <time>2023-11-05T08:57:17Z</time>
      </trkpt>
      <trkpt lat="43.15672" lon="2.3591">
        <ele>203.6</ele>
        <time>2023-11-05T08:57:18Z</time>
      </trkpt>
      <trkpt lat="43.15673" lon="2.35909">
        <ele>203.6</ele>
        <time>2023-11-05T08:57:20Z</time>
      </trkpt>
      <trkpt lat="43.15676" lon="2.35907">
        <ele>203.3</ele>
        <time>2023-11-05T08:57:23Z</time>
      </trkpt>
      <trkpt lat="43.1568" lon="2.35904">
        <ele>203</ele>
        <time>2023-11-05T08:57:26Z</time>
      </trkpt>
      <trkpt lat="43.15682" lon="2.35903">
        <ele>202.8</ele>
        <time>2023-11-05T08:57:27Z</time>
      </trkpt>
      <trkpt lat="43.15684" lon="2.35901">
        <ele>202.7</ele>
        <time>2023-11-05T08:57:29Z</time>
      </trkpt>
      <trkpt lat="43.15686" lon="2.359">
        <ele>202.6</ele>
        <time>2023-11-05T08:57:30Z</time>
      </trkpt>
      <trkpt lat="43.15688" lon="2.35898">
        <ele>202.4</ele>
        <time>2023-11-05T08:57:33Z</time>
      </trkpt>
      <trkpt lat="43.15689" lon="2.35898">
        <ele>202.3</ele>
        <time>2023-11-05T08:57:34Z</time>
      </trkpt>
      <trkpt lat="43.15692" lon="2.35896">
        <ele>202</ele>
        <time>2023-11-05T08:57:36Z</time>
      </trkpt>
      <trkpt lat="43.15694" lon="2.35894">
        <ele>201.9</ele>
        <time>2023-11-05T08:57:37Z</time>
      </trkpt>
      <trkpt lat="43.15696" lon="2.35893">
        <ele>201.8</ele>
        <time>2023-11-05T08:57:38Z</time>
      </trkpt>
      <trkpt lat="43.15708" lon="2.35885">
        <ele>202</ele>
        <time>2023-11-05T08:57:44Z</time>
      </trkpt>
      <trkpt lat="43.15712" lon="2.35882">
        <ele>202.1</ele>
        <time>2023-11-05T08:57:46Z</time>
      </trkpt>
      <trkpt lat="43.15718" lon="2.35879">
        <ele>202.2</ele>
        <time>2023-11-05T08:57:49Z</time>
      </trkpt>
      <trkpt lat="43.15723" lon="2.35875">
        <ele>202.2</ele>
        <time>2023-11-05T08:57:52Z</time>
      </trkpt>
      <trkpt lat="43.15729" lon="2.35873">
        <ele>202.3</ele>
        <time>2023-11-05T08:57:55Z</time>
      </trkpt>
      <trkpt lat="43.1574" lon="2.35867">
        <ele>202.3</ele>
        <time>2023-11-05T08:58:00Z</time>
      </trkpt>
      <trkpt lat="43.15751" lon="2.35862">
        <ele>202.3</ele>
        <time>2023-11-05T08:58:05Z</time>
      </trkpt>
      <trkpt lat="43.15756" lon="2.35857">
        <ele>202.4</ele>
        <time>2023-11-05T08:58:08Z</time>
      </trkpt>
      <trkpt lat="43.15764" lon="2.35848">
        <ele>202.4</ele>
        <time>2023-11-05T08:58:12Z</time>
      </trkpt>
      <trkpt lat="43.15768" lon="2.35847">
        <ele>202.5</ele>
        <time>2023-11-05T08:58:14Z</time>
      </trkpt>
      <trkpt lat="43.15772" lon="2.35845">
        <ele>202.5</ele>
        <time>2023-11-05T08:58:18Z</time>
      </trkpt>
      <trkpt lat="43.15781" lon="2.3584">
        <ele>202.6</ele>
        <time>2023-11-05T08:58:23Z</time>
      </trkpt>
      <trkpt lat="43.15786" lon="2.35835">
        <ele>202.7</ele>
        <time>2023-11-05T08:58:25Z</time>
      </trkpt>
      <trkpt lat="43.15795" lon="2.35829">
        <ele>202.7</ele>
        <time>2023-11-05T08:58:28Z</time>
      </trkpt>
      <trkpt lat="43.15798" lon="2.35828">
        <ele>202.7</ele>
        <time>2023-11-05T08:58:29Z</time>
      </trkpt>
      <trkpt lat="43.15811" lon="2.35828">
        <ele>202.7</ele>
        <time>2023-11-05T08:58:33Z</time>
      </trkpt>
      <trkpt lat="43.15818" lon="2.35827">
        <ele>202.7</ele>
        <time>2023-11-05T08:58:36Z</time>
      </trkpt>
      <trkpt lat="43.15828" lon="2.35824">
        <ele>202.9</ele>
        <time>2023-11-05T08:58:41Z</time>
      </trkpt>
      <trkpt lat="43.1584" lon="2.35819">
        <ele>202.7</ele>
        <time>2023-11-05T08:58:47Z</time>
      </trkpt>
      <trkpt lat="43.1584" lon="2.35818">
        <ele>202.7</ele>
        <time>2023-11-05T08:58:48Z</time>
      </trkpt>
      <trkpt lat="43.15837" lon="2.35815">
        <ele>202.6</ele>
        <time>2023-11-05T08:58:54Z</time>
      </trkpt>
      <trkpt lat="43.15836" lon="2.35814">
        <ele>202.6</ele>
        <time>2023-11-05T08:58:56Z</time>
      </trkpt>
      <trkpt lat="43.15834" lon="2.35814">
        <ele>202.6</ele>
        <time>2023-11-05T08:59:00Z</time>
      </trkpt>
      <trkpt lat="43.15833" lon="2.35814">
        <ele>202.5</ele>
        <time>2023-11-05T08:59:01Z</time>
      </trkpt>
      <trkpt lat="43.15832" lon="2.35814">
        <ele>202.7</ele>
        <time>2023-11-05T08:59:03Z</time>
      </trkpt>
      <trkpt lat="43.15832" lon="2.35816">
        <ele>202.8</ele>
        <time>2023-11-05T08:59:06Z</time>
      </trkpt>
      <trkpt lat="43.15831" lon="2.35816">
        <ele>202.7</ele>
        <time>2023-11-05T08:59:07Z</time>
      </trkpt>
      <trkpt lat="43.15831" lon="2.35815">
        <ele>202.5</ele>
        <time>2023-11-05T08:59:08Z</time>
      </trkpt>
      <trkpt lat="43.15827" lon="2.35811">
        <ele>202.6</ele>
        <time>2023-11-05T08:59:12Z</time>
      </trkpt>
      <trkpt lat="43.15825" lon="2.35811">
        <ele>202.8</ele>
        <time>2023-11-05T08:59:19Z</time>
      </trkpt>
      <trkpt lat="43.15825" lon="2.35812">
        <ele>202.8</ele>
        <time>2023-11-05T08:59:22Z</time>
      </trkpt>
      <trkpt lat="43.15825" lon="2.35812">
        <ele>202.7</ele>
        <time>2023-11-05T08:59:24Z</time>
      </trkpt>
      <trkpt lat="43.15823" lon="2.35813">
        <ele>202.9</ele>
        <time>2023-11-05T08:59:26Z</time>
      </trkpt>
      <trkpt lat="43.15823" lon="2.35812">
        <ele>202.8</ele>
        <time>2023-11-05T08:59:28Z</time>
      </trkpt>
      <trkpt lat="43.15822" lon="2.35812">
        <ele>202.8</ele>
        <time>2023-11-05T08:59:32Z</time>
      </trkpt>
      <trkpt lat="43.15821" lon="2.35812">
        <ele>202.7</ele>
        <time>2023-11-05T08:59:34Z</time>
      </trkpt>
      <trkpt lat="43.15821" lon="2.35811">
        <ele>202.6</ele>
        <time>2023-11-05T08:59:38Z</time>
      </trkpt>
      <trkpt lat="43.15821" lon="2.35811">
        <ele>202.5</ele>
        <time>2023-11-05T08:59:39Z</time>
      </trkpt>
      <trkpt lat="43.15821" lon="2.35811">
        <ele>202.5</ele>
        <time>2023-11-05T08:59:44Z</time>
      </trkpt>
      <trkpt lat="43.15821" lon="2.35811">
        <ele>202.4</ele>
        <time>2023-11-05T08:59:48Z</time>
      </trkpt>
      <trkpt lat="43.15821" lon="2.35811">
        <ele>202.4</ele>
        <time>2023-11-05T08:59:52Z</time>
      </trkpt>
      <trkpt lat="43.15822" lon="2.35806">
        <ele>202.3</ele>
        <time>2023-11-05T08:59:55Z</time>
      </trkpt>
      <trkpt lat="43.15823" lon="2.35801">
        <ele>202.3</ele>
        <time>2023-11-05T08:59:58Z</time>
      </trkpt>
      <trkpt lat="43.15824" lon="2.35799">
        <ele>202</ele>
        <time>2023-11-05T08:59:59Z</time>
      </trkpt>
      <trkpt lat="43.15824" lon="2.35797">
        <ele>201.9</ele>
        <time>2023-11-05T09:00:00Z</time>
      </trkpt>
      <trkpt lat="43.15825" lon="2.35792">
        <ele>201.9</ele>
        <time>2023-11-05T09:00:02Z</time>
      </trkpt>
      <trkpt lat="43.15825" lon="2.35791">
        <ele>201.8</ele>
        <time>2023-11-05T09:00:04Z</time>
      </trkpt>
      <trkpt lat="43.15825" lon="2.35791">
        <ele>201.8</ele>
        <time>2023-11-05T09:00:05Z</time>
      </trkpt>
      <trkpt lat="43.15826" lon="2.35785">
        <ele>201.8</ele>
        <time>2023-11-05T09:00:10Z</time>
      </trkpt>
      <trkpt lat="43.15825" lon="2.35784">
        <ele>201.7</ele>
        <time>2023-11-05T09:00:11Z</time>
      </trkpt>
      <trkpt lat="43.15824" lon="2.35782">
        <ele>201.7</ele>
        <time>2023-11-05T09:00:13Z</time>
      </trkpt>
      <trkpt lat="43.15823" lon="2.35779">
        <ele>201.9</ele>
        <time>2023-11-05T09:00:15Z</time>
      </trkpt>
      <trkpt lat="43.15822" lon="2.35778">
        <ele>201.8</ele>
        <time>2023-11-05T09:00:16Z</time>
      </trkpt>
      <trkpt lat="43.15821" lon="2.35777">
        <ele>201.8</ele>
        <time>2023-11-05T09:00:19Z</time>
      </trkpt>
      <trkpt lat="43.15819" lon="2.35778">
        <ele>202</ele>
        <time>2023-11-05T09:00:21Z</time>
      </trkpt>
      <trkpt lat="43.15817" lon="2.35778">
        <ele>202.2</ele>
        <time>2023-11-05T09:00:23Z</time>
      </trkpt>
      <trkpt lat="43.15816" lon="2.35777">
        <ele>202.1</ele>
        <time>2023-11-05T09:00:24Z</time>
      </trkpt>
      <trkpt lat="43.15812" lon="2.35776">
        <ele>202.3</ele>
        <time>2023-11-05T09:00:29Z</time>
      </trkpt>
      <trkpt lat="43.15809" lon="2.35774">
        <ele>202.5</ele>
        <time>2023-11-05T09:00:32Z</time>
      </trkpt>
      <trkpt lat="43.15808" lon="2.35774">
        <ele>202.4</ele>
        <time>2023-11-05T09:00:33Z</time>
      </trkpt>
      <trkpt lat="43.15808" lon="2.35774">
        <ele>202.6</ele>
        <time>2023-11-05T09:00:35Z</time>
      </trkpt>
      <trkpt lat="43.15806" lon="2.35774">
        <ele>202.6</ele>
        <time>2023-11-05T09:00:40Z</time>
      </trkpt>
      <trkpt lat="43.15804" lon="2.35774">
        <ele>202.8</ele>
        <time>2023-11-05T09:00:42Z</time>
      </trkpt>
      <trkpt lat="43.15804" lon="2.35774">
        <ele>202.7</ele>
        <time>2023-11-05T09:00:44Z</time>
      </trkpt>
      <trkpt lat="43.15802" lon="2.35774">
        <ele>202.7</ele>
        <time>2023-11-05T09:00:49Z</time>
      </trkpt>
      <trkpt lat="43.15802" lon="2.35773">
        <ele>202.6</ele>
        <time>2023-11-05T09:00:50Z</time>
      </trkpt>
      <trkpt lat="43.158" lon="2.3577">
        <ele>202.7</ele>
        <time>2023-11-05T09:00:54Z</time>
      </trkpt>
      <trkpt lat="43.15799" lon="2.35769">
        <ele>202.7</ele>
        <time>2023-11-05T09:00:56Z</time>
      </trkpt>
      <trkpt lat="43.15798" lon="2.35765">
        <ele>202.8</ele>
        <time>2023-11-05T09:00:59Z</time>
      </trkpt>
      <trkpt lat="43.15794" lon="2.35762">
        <ele>203</ele>
        <time>2023-11-05T09:01:03Z</time>
      </trkpt>
      <trkpt lat="43.15793" lon="2.35762">
        <ele>202.9</ele>
        <time>2023-11-05T09:01:04Z</time>
      </trkpt>
      <trkpt lat="43.15791" lon="2.35762">
        <ele>203.1</ele>
        <time>2023-11-05T09:01:05Z</time>
      </trkpt>
      <trkpt lat="43.15782" lon="2.35767">
        <ele>203.6</ele>
        <time>2023-11-05T09:01:12Z</time>
      </trkpt>
      <trkpt lat="43.1577" lon="2.35771">
        <ele>204.5</ele>
        <time>2023-11-05T09:01:18Z</time>
      </trkpt>
      <trkpt lat="43.15769" lon="2.3577">
        <ele>204.4</ele>
        <time>2023-11-05T09:01:19Z</time>
      </trkpt>
      <trkpt lat="43.15764" lon="2.35756">
        <ele>205</ele>
        <time>2023-11-05T09:01:25Z</time>
      </trkpt>
      <trkpt lat="43.15763" lon="2.35752">
        <ele>205</ele>
        <time>2023-11-05T09:01:27Z</time>
      </trkpt>
      <trkpt lat="43.15761" lon="2.35742">
        <ele>205.1</ele>
        <time>2023-11-05T09:01:32Z</time>
      </trkpt>
      <trkpt lat="43.15758" lon="2.35718">
        <ele>205.6</ele>
        <time>2023-11-05T09:01:40Z</time>
      </trkpt>
      <trkpt lat="43.15758" lon="2.35711">
        <ele>205.9</ele>
        <time>2023-11-05T09:01:43Z</time>
      </trkpt>
      <trkpt lat="43.15756" lon="2.35711">
        <ele>205.8</ele>
        <time>2023-11-05T09:01:45Z</time>
      </trkpt>
      <trkpt lat="43.15753" lon="2.35712">
        <ele>206</ele>
        <time>2023-11-05T09:01:47Z</time>
      </trkpt>
      <trkpt lat="43.15749" lon="2.35699">
        <ele>206</ele>
        <time>2023-11-05T09:01:52Z</time>
      </trkpt>
      <trkpt lat="43.15747" lon="2.35692">
        <ele>206.1</ele>
        <time>2023-11-05T09:01:55Z</time>
      </trkpt>
      <trkpt lat="43.15746" lon="2.35683">
        <ele>205.8</ele>
        <time>2023-11-05T09:01:59Z</time>
      </trkpt>
      <trkpt lat="43.15746" lon="2.3568">
        <ele>205.6</ele>
        <time>2023-11-05T09:02:00Z</time>
      </trkpt>
      <trkpt lat="43.15746" lon="2.35668">
        <ele>205</ele>
        <time>2023-11-05T09:02:03Z</time>
      </trkpt>
      <trkpt lat="43.15749" lon="2.35656">
        <ele>204.1</ele>
        <time>2023-11-05T09:02:06Z</time>
      </trkpt>
      <trkpt lat="43.1575" lon="2.35651">
        <ele>203.8</ele>
        <time>2023-11-05T09:02:07Z</time>
      </trkpt>
      <trkpt lat="43.15753" lon="2.35644">
        <ele>203.2</ele>
        <time>2023-11-05T09:02:09Z</time>
      </trkpt>
      <trkpt lat="43.15755" lon="2.35639">
        <ele>202.8</ele>
        <time>2023-11-05T09:02:11Z</time>
      </trkpt>
      <trkpt lat="43.1576" lon="2.35631">
        <ele>202.4</ele>
        <time>2023-11-05T09:02:14Z</time>
      </trkpt>
      <trkpt lat="43.15761" lon="2.35628">
        <ele>202.2</ele>
        <time>2023-11-05T09:02:15Z</time>
      </trkpt>
      <trkpt lat="43.15761" lon="2.3562">
        <ele>201.7</ele>
        <time>2023-11-05T09:02:17Z</time>
      </trkpt>
      <trkpt lat="43.1576" lon="2.35613">
        <ele>201.6</ele>
        <time>2023-11-05T09:02:20Z</time>
      </trkpt>
      <trkpt lat="43.15758" lon="2.35607">
        <ele>201.4</ele>
        <time>2023-11-05T09:02:22Z</time>
      </trkpt>
      <trkpt lat="43.15757" lon="2.35598">
        <ele>201.1</ele>
        <time>2023-11-05T09:02:25Z</time>
      </trkpt>
      <trkpt lat="43.15756" lon="2.35593">
        <ele>200.8</ele>
        <time>2023-11-05T09:02:27Z</time>
      </trkpt>
      <trkpt lat="43.15755" lon="2.3559">
        <ele>200.5</ele>
        <time>2023-11-05T09:02:28Z</time>
      </trkpt>
      <trkpt lat="43.15755" lon="2.35581">
        <ele>200</ele>
        <time>2023-11-05T09:02:32Z</time>
      </trkpt>
      <trkpt lat="43.15754" lon="2.35578">
        <ele>199.6</ele>
        <time>2023-11-05T09:02:34Z</time>
      </trkpt>
      <trkpt lat="43.15753" lon="2.35578">
        <ele>199.6</ele>
        <time>2023-11-05T09:02:35Z</time>
      </trkpt>
      <trkpt lat="43.15752" lon="2.35578">
        <ele>199.7</ele>
        <time>2023-11-05T09:02:36Z</time>
      </trkpt>
      <trkpt lat="43.15748" lon="2.35581">
        <ele>199.8</ele>
        <time>2023-11-05T09:02:40Z</time>
      </trkpt>
      <trkpt lat="43.15743" lon="2.35584">
        <ele>200</ele>
        <time>2023-11-05T09:02:47Z</time>
      </trkpt>
      <trkpt lat="43.15742" lon="2.35584">
        <ele>200</ele>
        <time>2023-11-05T09:02:48Z</time>
      </trkpt>
      <trkpt lat="43.15735" lon="2.35588">
        <ele>200.2</ele>
        <time>2023-11-05T09:02:54Z</time>
      </trkpt>
      <trkpt lat="43.15734" lon="2.35588">
        <ele>200.3</ele>
        <time>2023-11-05T09:02:55Z</time>
      </trkpt>
      <trkpt lat="43.1573" lon="2.35591">
        <ele>200.4</ele>
        <time>2023-11-05T09:03:01Z</time>
      </trkpt>
      <trkpt lat="43.15726" lon="2.35597">
        <ele>200.5</ele>
        <time>2023-11-05T09:03:04Z</time>
      </trkpt>
      <trkpt lat="43.15721" lon="2.356">
        <ele>200.5</ele>
        <time>2023-11-05T09:03:07Z</time>
      </trkpt>
      <trkpt lat="43.1572" lon="2.35602">
        <ele>200.5</ele>
        <time>2023-11-05T09:03:09Z</time>
      </trkpt>
      <trkpt lat="43.15717" lon="2.35602">
        <ele>200.4</ele>
        <time>2023-11-05T09:03:11Z</time>
      </trkpt>
      <trkpt lat="43.15715" lon="2.35603">
        <ele>200.3</ele>
        <time>2023-11-05T09:03:13Z</time>
      </trkpt>
      <trkpt lat="43.15711" lon="2.35604">
        <ele>200.2</ele>
        <time>2023-11-05T09:03:16Z</time>
      </trkpt>
      <trkpt lat="43.15708" lon="2.35602">
        <ele>200</ele>
        <time>2023-11-05T09:03:19Z</time>
      </trkpt>
      <trkpt lat="43.15704" lon="2.35598">
        <ele>199.8</ele>
        <time>2023-11-05T09:03:23Z</time>
      </trkpt>
      <trkpt lat="43.15704" lon="2.35597">
        <ele>199.7</ele>
        <time>2023-11-05T09:03:24Z</time>
      </trkpt>
      <trkpt lat="43.15703" lon="2.35595">
        <ele>199.6</ele>
        <time>2023-11-05T09:03:25Z</time>
      </trkpt>
      <trkpt lat="43.15703" lon="2.35593">
        <ele>199.5</ele>
        <time>2023-11-05T09:03:26Z</time>
      </trkpt>
      <trkpt lat="43.15701" lon="2.35587">
        <ele>199.3</ele>
        <time>2023-11-05T09:03:30Z</time>
      </trkpt>
      <trkpt lat="43.157" lon="2.35584">
        <ele>199.2</ele>
        <time>2023-11-05T09:03:32Z</time>
      </trkpt>
      <trkpt lat="43.15697" lon="2.35578">
        <ele>199</ele>
        <time>2023-11-05T09:03:37Z</time>
      </trkpt>
      <trkpt lat="43.15695" lon="2.35575">
        <ele>198.9</ele>
        <time>2023-11-05T09:03:39Z</time>
      </trkpt>
      <trkpt lat="43.15695" lon="2.35574">
        <ele>198.9</ele>
        <time>2023-11-05T09:03:40Z</time>
      </trkpt>
      <trkpt lat="43.15694" lon="2.35574">
        <ele>198.9</ele>
        <time>2023-11-05T09:03:41Z</time>
      </trkpt>
      <trkpt lat="43.15693" lon="2.35574">
        <ele>198.9</ele>
        <time>2023-11-05T09:03:42Z</time>
      </trkpt>
      <trkpt lat="43.15691" lon="2.35574">
        <ele>198.9</ele>
        <time>2023-11-05T09:03:44Z</time>
      </trkpt>
      <trkpt lat="43.15689" lon="2.35575">
        <ele>198.8</ele>
        <time>2023-11-05T09:03:46Z</time>
      </trkpt>
      <trkpt lat="43.15686" lon="2.35576">
        <ele>198.8</ele>
        <time>2023-11-05T09:03:49Z</time>
      </trkpt>
      <trkpt lat="43.15684" lon="2.35576">
        <ele>198.8</ele>
        <time>2023-11-05T09:03:50Z</time>
      </trkpt>
      <trkpt lat="43.1568" lon="2.35578">
        <ele>198.8</ele>
        <time>2023-11-05T09:03:54Z</time>
      </trkpt>
      <trkpt lat="43.15678" lon="2.35578">
        <ele>198.8</ele>
        <time>2023-11-05T09:03:55Z</time>
      </trkpt>
      <trkpt lat="43.15673" lon="2.35577">
        <ele>198.8</ele>
        <time>2023-11-05T09:03:59Z</time>
      </trkpt>
      <trkpt lat="43.15668" lon="2.35577">
        <ele>198.8</ele>
        <time>2023-11-05T09:04:03Z</time>
      </trkpt>
      <trkpt lat="43.15662" lon="2.35578">
        <ele>198.8</ele>
        <time>2023-11-05T09:04:08Z</time>
      </trkpt>
      <trkpt lat="43.15657" lon="2.35577">
        <ele>198.6</ele>
        <time>2023-11-05T09:04:12Z</time>
      </trkpt>
      <trkpt lat="43.15654" lon="2.35575">
        <ele>198.6</ele>
        <time>2023-11-05T09:04:14Z</time>
      </trkpt>
      <trkpt lat="43.15652" lon="2.35573">
        <ele>198.5</ele>
        <time>2023-11-05T09:04:16Z</time>
      </trkpt>
      <trkpt lat="43.15642" lon="2.35571">
        <ele>198.1</ele>
        <time>2023-11-05T09:04:24Z</time>
      </trkpt>
      <trkpt lat="43.15638" lon="2.35573">
        <ele>198</ele>
        <time>2023-11-05T09:04:28Z</time>
      </trkpt>
      <trkpt lat="43.15634" lon="2.35574">
        <ele>197.9</ele>
        <time>2023-11-05T09:04:31Z</time>
      </trkpt>
      <trkpt lat="43.15631" lon="2.35574">
        <ele>197.8</ele>
        <time>2023-11-05T09:04:33Z</time>
      </trkpt>
      <trkpt lat="43.1563" lon="2.35574">
        <ele>197.8</ele>
        <time>2023-11-05T09:04:34Z</time>
      </trkpt>
      <trkpt lat="43.15629" lon="2.35573">
        <ele>197.7</ele>
        <time>2023-11-05T09:04:35Z</time>
      </trkpt>
      <trkpt lat="43.15627" lon="2.35571">
        <ele>197.7</ele>
        <time>2023-11-05T09:04:37Z</time>
      </trkpt>
      <trkpt lat="43.15626" lon="2.3557">
        <ele>197.7</ele>
        <time>2023-11-05T09:04:38Z</time>
      </trkpt>
      <trkpt lat="43.15626" lon="2.35569">
        <ele>197.7</ele>
        <time>2023-11-05T09:04:39Z</time>
      </trkpt>
      <trkpt lat="43.15625" lon="2.35566">
        <ele>197.6</ele>
        <time>2023-11-05T09:04:41Z</time>
      </trkpt>
      <trkpt lat="43.15624" lon="2.35562">
        <ele>197.6</ele>
        <time>2023-11-05T09:04:42Z</time>
      </trkpt>
      <trkpt lat="43.15624" lon="2.3556">
        <ele>197.6</ele>
        <time>2023-11-05T09:04:43Z</time>
      </trkpt>
      <trkpt lat="43.15623" lon="2.35556">
        <ele>197.6</ele>
        <time>2023-11-05T09:04:45Z</time>
      </trkpt>
      <trkpt lat="43.15623" lon="2.35551">
        <ele>197.7</ele>
        <time>2023-11-05T09:04:47Z</time>
      </trkpt>
      <trkpt lat="43.15624" lon="2.35547">
        <ele>197.7</ele>
        <time>2023-11-05T09:04:49Z</time>
      </trkpt>
      <trkpt lat="43.15625" lon="2.35538">
        <ele>197.9</ele>
        <time>2023-11-05T09:04:54Z</time>
      </trkpt>
      <trkpt lat="43.15625" lon="2.35537">
        <ele>197.9</ele>
        <time>2023-11-05T09:04:55Z</time>
      </trkpt>
      <trkpt lat="43.15625" lon="2.35537">
        <ele>197.9</ele>
        <time>2023-11-05T09:04:56Z</time>
      </trkpt>
      <trkpt lat="43.15626" lon="2.35536">
        <ele>197.9</ele>
        <time>2023-11-05T09:04:58Z</time>
      </trkpt>
      <trkpt lat="43.15625" lon="2.35537">
        <ele>197.9</ele>
        <time>2023-11-05T09:05:01Z</time>
      </trkpt>
      <trkpt lat="43.15623" lon="2.35539">
        <ele>198.3</ele>
        <time>2023-11-05T09:05:07Z</time>
      </trkpt>
      <trkpt lat="43.15623" lon="2.3554">
        <ele>198.4</ele>
        <time>2023-11-05T09:05:08Z</time>
      </trkpt>
      <trkpt lat="43.15621" lon="2.35542">
        <ele>198.7</ele>
        <time>2023-11-05T09:05:10Z</time>
      </trkpt>
      <trkpt lat="43.15618" lon="2.35543">
        <ele>199.3</ele>
        <time>2023-11-05T09:05:14Z</time>
      </trkpt>
      <trkpt lat="43.15616" lon="2.35543">
        <ele>199.4</ele>
        <time>2023-11-05T09:05:15Z</time>
      </trkpt>
      <trkpt lat="43.15613" lon="2.35547">
        <ele>199.9</ele>
        <time>2023-11-05T09:05:18Z</time>
      </trkpt>
      <trkpt lat="43.15611" lon="2.35548">
        <ele>200.2</ele>
        <time>2023-11-05T09:05:20Z</time>
      </trkpt>
      <trkpt lat="43.1561" lon="2.35548">
        <ele>200.3</ele>
        <time>2023-11-05T09:05:21Z</time>
      </trkpt>
      <trkpt lat="43.156" lon="2.35553">
        <ele>201.2</ele>
        <time>2023-11-05T09:05:26Z</time>
      </trkpt>
      <trkpt lat="43.15597" lon="2.3556">
        <ele>201.6</ele>
        <time>2023-11-05T09:05:30Z</time>
      </trkpt>
      <trkpt lat="43.15584" lon="2.35569">
        <ele>202.4</ele>
        <time>2023-11-05T09:05:37Z</time>
      </trkpt>
      <trkpt lat="43.15583" lon="2.35569">
        <ele>202.5</ele>
        <time>2023-11-05T09:05:38Z</time>
      </trkpt>
      <trkpt lat="43.15576" lon="2.35572">
        <ele>203.4</ele>
        <time>2023-11-05T09:05:42Z</time>
      </trkpt>
      <trkpt lat="43.15574" lon="2.35573">
        <ele>203.6</ele>
        <time>2023-11-05T09:05:43Z</time>
      </trkpt>
      <trkpt lat="43.1557" lon="2.35573">
        <ele>204.2</ele>
        <time>2023-11-05T09:05:45Z</time>
      </trkpt>
      <trkpt lat="43.15563" lon="2.35577">
        <ele>205.5</ele>
        <time>2023-11-05T09:05:49Z</time>
      </trkpt>
      <trkpt lat="43.15561" lon="2.35577">
        <ele>205.8</ele>
        <time>2023-11-05T09:05:50Z</time>
      </trkpt>
      <trkpt lat="43.15559" lon="2.35578">
        <ele>206.4</ele>
        <time>2023-11-05T09:05:52Z</time>
      </trkpt>
      <trkpt lat="43.15555" lon="2.35578">
        <ele>207.2</ele>
        <time>2023-11-05T09:05:55Z</time>
      </trkpt>
      <trkpt lat="43.1555" lon="2.35578">
        <ele>208.4</ele>
        <time>2023-11-05T09:05:58Z</time>
      </trkpt>
      <trkpt lat="43.15544" lon="2.35578">
        <ele>209.7</ele>
        <time>2023-11-05T09:06:01Z</time>
      </trkpt>
      <trkpt lat="43.15542" lon="2.35581">
        <ele>210.4</ele>
        <time>2023-11-05T09:06:04Z</time>
      </trkpt>
      <trkpt lat="43.15541" lon="2.35582">
        <ele>210.6</ele>
        <time>2023-11-05T09:06:05Z</time>
      </trkpt>
      <trkpt lat="43.15542" lon="2.35583">
        <ele>210.7</ele>
        <time>2023-11-05T09:06:06Z</time>
      </trkpt>
      <trkpt lat="43.15543" lon="2.35585">
        <ele>211</ele>
        <time>2023-11-05T09:06:08Z</time>
      </trkpt>
      <trkpt lat="43.15543" lon="2.35597">
        <ele>212.2</ele>
        <time>2023-11-05T09:06:14Z</time>
      </trkpt>
      <trkpt lat="43.15539" lon="2.35605">
        <ele>213.1</ele>
        <time>2023-11-05T09:06:18Z</time>
      </trkpt>
      <trkpt lat="43.15537" lon="2.35608">
        <ele>213.7</ele>
        <time>2023-11-05T09:06:20Z</time>
      </trkpt>
      <trkpt lat="43.15533" lon="2.35609">
        <ele>214.3</ele>
        <time>2023-11-05T09:06:22Z</time>
      </trkpt>
      <trkpt lat="43.15531" lon="2.35608">
        <ele>214.7</ele>
        <time>2023-11-05T09:06:23Z</time>
      </trkpt>
      <trkpt lat="43.15527" lon="2.35606">
        <ele>215.5</ele>
        <time>2023-11-05T09:06:25Z</time>
      </trkpt>
      <trkpt lat="43.15525" lon="2.35604">
        <ele>215.9</ele>
        <time>2023-11-05T09:06:26Z</time>
      </trkpt>
      <trkpt lat="43.15521" lon="2.35596">
        <ele>217.1</ele>
        <time>2023-11-05T09:06:29Z</time>
      </trkpt>
      <trkpt lat="43.15518" lon="2.35589">
        <ele>218.1</ele>
        <time>2023-11-05T09:06:34Z</time>
      </trkpt>
      <trkpt lat="43.15516" lon="2.35584">
        <ele>218.7</ele>
        <time>2023-11-05T09:06:36Z</time>
      </trkpt>
      <trkpt lat="43.15515" lon="2.35582">
        <ele>218.9</ele>
        <time>2023-11-05T09:06:37Z</time>
      </trkpt>
      <trkpt lat="43.15511" lon="2.35568">
        <ele>220.1</ele>
        <time>2023-11-05T09:06:43Z</time>
      </trkpt>
      <trkpt lat="43.15509" lon="2.35564">
        <ele>220.5</ele>
        <time>2023-11-05T09:06:45Z</time>
      </trkpt>
      <trkpt lat="43.15506" lon="2.35552">
        <ele>221.4</ele>
        <time>2023-11-05T09:06:50Z</time>
      </trkpt>
      <trkpt lat="43.15502" lon="2.35541">
        <ele>222.4</ele>
        <time>2023-11-05T09:06:55Z</time>
      </trkpt>
      <trkpt lat="43.15501" lon="2.35539">
        <ele>222.6</ele>
        <time>2023-11-05T09:06:56Z</time>
      </trkpt>
      <trkpt lat="43.15499" lon="2.35529">
        <ele>223.5</ele>
        <time>2023-11-05T09:07:00Z</time>
      </trkpt>
      <trkpt lat="43.15496" lon="2.3552">
        <ele>224.4</ele>
        <time>2023-11-05T09:07:04Z</time>
      </trkpt>
      <trkpt lat="43.15495" lon="2.35516">
        <ele>224.9</ele>
        <time>2023-11-05T09:07:06Z</time>
      </trkpt>
      <trkpt lat="43.15494" lon="2.35511">
        <ele>225.5</ele>
        <time>2023-11-05T09:07:08Z</time>
      </trkpt>
      <trkpt lat="43.1549" lon="2.35499">
        <ele>226.9</ele>
        <time>2023-11-05T09:07:13Z</time>
      </trkpt>
      <trkpt lat="43.15489" lon="2.35492">
        <ele>227.6</ele>
        <time>2023-11-05T09:07:16Z</time>
      </trkpt>
      <trkpt lat="43.15488" lon="2.3549">
        <ele>227.8</ele>
        <time>2023-11-05T09:07:17Z</time>
      </trkpt>
      <trkpt lat="43.15485" lon="2.35485">
        <ele>228.4</ele>
        <time>2023-11-05T09:07:20Z</time>
      </trkpt>
      <trkpt lat="43.15483" lon="2.35475">
        <ele>229.2</ele>
        <time>2023-11-05T09:07:24Z</time>
      </trkpt>
      <trkpt lat="43.15482" lon="2.35471">
        <ele>229.6</ele>
        <time>2023-11-05T09:07:26Z</time>
      </trkpt>
      <trkpt lat="43.15479" lon="2.35455">
        <ele>230.6</ele>
        <time>2023-11-05T09:07:33Z</time>
      </trkpt>
      <trkpt lat="43.15479" lon="2.35451">
        <ele>230.8</ele>
        <time>2023-11-05T09:07:34Z</time>
      </trkpt>
      <trkpt lat="43.15479" lon="2.35441">
        <ele>230.9</ele>
        <time>2023-11-05T09:07:39Z</time>
      </trkpt>
      <trkpt lat="43.15477" lon="2.35437">
        <ele>230.9</ele>
        <time>2023-11-05T09:07:44Z</time>
      </trkpt>
      <trkpt lat="43.15477" lon="2.35436">
        <ele>230.9</ele>
        <time>2023-11-05T09:07:46Z</time>
      </trkpt>
      <trkpt lat="43.15477" lon="2.35436">
        <ele>230.9</ele>
        <time>2023-11-05T09:07:47Z</time>
      </trkpt>
      <trkpt lat="43.15476" lon="2.35435">
        <ele>230.8</ele>
        <time>2023-11-05T09:07:48Z</time>
      </trkpt>
      <trkpt lat="43.15476" lon="2.35433">
        <ele>230.7</ele>
        <time>2023-11-05T09:07:50Z</time>
      </trkpt>
      <trkpt lat="43.15476" lon="2.35433">
        <ele>230.7</ele>
        <time>2023-11-05T09:07:52Z</time>
      </trkpt>
      <trkpt lat="43.15476" lon="2.35433">
        <ele>230.7</ele>
        <time>2023-11-05T09:07:53Z</time>
      </trkpt>
      <trkpt lat="43.15476" lon="2.35433">
        <ele>230.7</ele>
        <time>2023-11-05T09:07:54Z</time>
      </trkpt>
      <trkpt lat="43.15476" lon="2.35432">
        <ele>230.7</ele>
        <time>2023-11-05T09:07:57Z</time>
      </trkpt>
      <trkpt lat="43.15475" lon="2.3543">
        <ele>230.6</ele>
        <time>2023-11-05T09:08:00Z</time>
      </trkpt>
      <trkpt lat="43.15475" lon="2.35428">
        <ele>230.5</ele>
        <time>2023-11-05T09:08:04Z</time>
      </trkpt>
      <trkpt lat="43.15476" lon="2.35428">
        <ele>230.4</ele>
        <time>2023-11-05T09:08:11Z</time>
      </trkpt>
      <trkpt lat="43.15476" lon="2.35428">
        <ele>230.4</ele>
        <time>2023-11-05T09:08:18Z</time>
      </trkpt>
      <trkpt lat="43.15476" lon="2.35428">
        <ele>230.4</ele>
        <time>2023-11-05T09:08:28Z</time>
      </trkpt>
      <trkpt lat="43.15476" lon="2.35428">
        <ele>230.4</ele>
        <time>2023-11-05T09:08:35Z</time>
      </trkpt>
      <trkpt lat="43.15476" lon="2.35428">
        <ele>230.4</ele>
        <time>2023-11-05T09:08:36Z</time>
      </trkpt>
      <trkpt lat="43.15475" lon="2.35424">
        <ele>230</ele>
        <time>2023-11-05T09:08:40Z</time>
      </trkpt>
      <trkpt lat="43.15474" lon="2.35422">
        <ele>229.9</ele>
        <time>2023-11-05T09:08:41Z</time>
      </trkpt>
      <trkpt lat="43.15473" lon="2.3542">
        <ele>229.7</ele>
        <time>2023-11-05T09:08:42Z</time>
      </trkpt>
      <trkpt lat="43.15472" lon="2.35417">
        <ele>229.5</ele>
        <time>2023-11-05T09:08:43Z</time>
      </trkpt>
      <trkpt lat="43.1547" lon="2.3541">
        <ele>228.8</ele>
        <time>2023-11-05T09:08:46Z</time>
      </trkpt>
      <trkpt lat="43.15469" lon="2.35408">
        <ele>228.6</ele>
        <time>2023-11-05T09:08:47Z</time>
      </trkpt>
      <trkpt lat="43.15467" lon="2.354">
        <ele>228.1</ele>
        <time>2023-11-05T09:08:50Z</time>
      </trkpt>
      <trkpt lat="43.15463" lon="2.35395">
        <ele>227.9</ele>
        <time>2023-11-05T09:08:53Z</time>
      </trkpt>
      <trkpt lat="43.15462" lon="2.35395">
        <ele>227.8</ele>
        <time>2023-11-05T09:08:54Z</time>
      </trkpt>
      <trkpt lat="43.15457" lon="2.35397">
        <ele>227.9</ele>
        <time>2023-11-05T09:08:58Z</time>
      </trkpt>
      <trkpt lat="43.15455" lon="2.35397">
        <ele>227.9</ele>
        <time>2023-11-05T09:09:00Z</time>
      </trkpt>
      <trkpt lat="43.15453" lon="2.35397">
        <ele>228</ele>
        <time>2023-11-05T09:09:03Z</time>
      </trkpt>
      <trkpt lat="43.15452" lon="2.35397">
        <ele>228.1</ele>
        <time>2023-11-05T09:09:05Z</time>
      </trkpt>
      <trkpt lat="43.15452" lon="2.35398">
        <ele>228.1</ele>
        <time>2023-11-05T09:09:08Z</time>
      </trkpt>
      <trkpt lat="43.15452" lon="2.35397">
        <ele>228.1</ele>
        <time>2023-11-05T09:09:09Z</time>
      </trkpt>
      <trkpt lat="43.15452" lon="2.35399">
        <ele>228.2</ele>
        <time>2023-11-05T09:09:15Z</time>
      </trkpt>
      <trkpt lat="43.15451" lon="2.354">
        <ele>228.3</ele>
        <time>2023-11-05T09:09:17Z</time>
      </trkpt>
      <trkpt lat="43.15449" lon="2.35402">
        <ele>228.5</ele>
        <time>2023-11-05T09:09:20Z</time>
      </trkpt>
      <trkpt lat="43.15448" lon="2.35403">
        <ele>228.5</ele>
        <time>2023-11-05T09:09:21Z</time>
      </trkpt>
      <trkpt lat="43.15446" lon="2.35404">
        <ele>228.8</ele>
        <time>2023-11-05T09:09:25Z</time>
      </trkpt>
      <trkpt lat="43.15445" lon="2.35404">
        <ele>228.9</ele>
        <time>2023-11-05T09:09:26Z</time>
      </trkpt>
      <trkpt lat="43.15444" lon="2.35406">
        <ele>229.1</ele>
        <time>2023-11-05T09:09:29Z</time>
      </trkpt>
      <trkpt lat="43.15442" lon="2.35409">
        <ele>229.5</ele>
        <time>2023-11-05T09:09:32Z</time>
      </trkpt>
      <trkpt lat="43.15439" lon="2.3541">
        <ele>229.8</ele>
        <time>2023-11-05T09:09:34Z</time>
      </trkpt>
      <trkpt lat="43.15435" lon="2.35415">
        <ele>230.7</ele>
        <time>2023-11-05T09:09:40Z</time>
      </trkpt>
      <trkpt lat="43.15434" lon="2.35417">
        <ele>230.9</ele>
        <time>2023-11-05T09:09:42Z</time>
      </trkpt>
      <trkpt lat="43.15433" lon="2.35425">
        <ele>231.9</ele>
        <time>2023-11-05T09:09:49Z</time>
      </trkpt>
      <trkpt lat="43.15432" lon="2.35428">
        <ele>232.2</ele>
        <time>2023-11-05T09:09:51Z</time>
      </trkpt>
      <trkpt lat="43.15432" lon="2.35432">
        <ele>232.7</ele>
        <time>2023-11-05T09:09:54Z</time>
      </trkpt>
      <trkpt lat="43.15432" lon="2.35436">
        <ele>233.1</ele>
        <time>2023-11-05T09:09:56Z</time>
      </trkpt>
      <trkpt lat="43.15433" lon="2.35442">
        <ele>233.8</ele>
        <time>2023-11-05T09:10:00Z</time>
      </trkpt>
      <trkpt lat="43.15433" lon="2.35443">
        <ele>234</ele>
        <time>2023-11-05T09:10:01Z</time>
      </trkpt>
      <trkpt lat="43.15434" lon="2.35451">
        <ele>235</ele>
        <time>2023-11-05T09:10:07Z</time>
      </trkpt>
      <trkpt lat="43.15436" lon="2.35455">
        <ele>235.6</ele>
        <time>2023-11-05T09:10:10Z</time>
      </trkpt>
      <trkpt lat="43.15436" lon="2.35457">
        <ele>235.8</ele>
        <time>2023-11-05T09:10:11Z</time>
      </trkpt>
      <trkpt lat="43.15437" lon="2.35458">
        <ele>236.1</ele>
        <time>2023-11-05T09:10:12Z</time>
      </trkpt>
      <trkpt lat="43.15438" lon="2.3546">
        <ele>236.4</ele>
        <time>2023-11-05T09:10:14Z</time>
      </trkpt>
      <trkpt lat="43.15439" lon="2.35464">
        <ele>237</ele>
        <time>2023-11-05T09:10:17Z</time>
      </trkpt>
      <trkpt lat="43.15439" lon="2.35466">
        <ele>237.2</ele>
        <time>2023-11-05T09:10:18Z</time>
      </trkpt>
      <trkpt lat="43.15439" lon="2.3547">
        <ele>237.8</ele>
        <time>2023-11-05T09:10:21Z</time>
      </trkpt>
      <trkpt lat="43.15439" lon="2.35472">
        <ele>238</ele>
        <time>2023-11-05T09:10:22Z</time>
      </trkpt>
      <trkpt lat="43.15439" lon="2.35473">
        <ele>238.2</ele>
        <time>2023-11-05T09:10:23Z</time>
      </trkpt>
      <trkpt lat="43.15438" lon="2.35477">
        <ele>238.8</ele>
        <time>2023-11-05T09:10:26Z</time>
      </trkpt>
      <trkpt lat="43.15438" lon="2.35481">
        <ele>239.2</ele>
        <time>2023-11-05T09:10:28Z</time>
      </trkpt>
      <trkpt lat="43.15437" lon="2.35485">
        <ele>239.7</ele>
        <time>2023-11-05T09:10:30Z</time>
      </trkpt>
      <trkpt lat="43.15436" lon="2.35493">
        <ele>240.5</ele>
        <time>2023-11-05T09:10:34Z</time>
      </trkpt>
      <trkpt lat="43.15434" lon="2.35503">
        <ele>241.3</ele>
        <time>2023-11-05T09:10:40Z</time>
      </trkpt>
      <trkpt lat="43.15429" lon="2.35517">
        <ele>241.7</ele>
        <time>2023-11-05T09:10:49Z</time>
      </trkpt>
      <trkpt lat="43.15424" lon="2.35523">
        <ele>241.6</ele>
        <time>2023-11-05T09:10:55Z</time>
      </trkpt>
      <trkpt lat="43.15422" lon="2.35525">
        <ele>241.6</ele>
        <time>2023-11-05T09:10:57Z</time>
      </trkpt>
      <trkpt lat="43.1542" lon="2.35527">
        <ele>241.6</ele>
        <time>2023-11-05T09:10:59Z</time>
      </trkpt>
      <trkpt lat="43.15419" lon="2.35529">
        <ele>241.6</ele>
        <time>2023-11-05T09:11:00Z</time>
      </trkpt>
      <trkpt lat="43.15413" lon="2.35536">
        <ele>241.7</ele>
        <time>2023-11-05T09:11:06Z</time>
      </trkpt>
      <trkpt lat="43.15408" lon="2.3554">
        <ele>241.9</ele>
        <time>2023-11-05T09:11:10Z</time>
      </trkpt>
      <trkpt lat="43.15402" lon="2.35544">
        <ele>242.4</ele>
        <time>2023-11-05T09:11:17Z</time>
      </trkpt>
      <trkpt lat="43.15399" lon="2.35546">
        <ele>242.6</ele>
        <time>2023-11-05T09:11:19Z</time>
      </trkpt>
      <trkpt lat="43.15393" lon="2.35551">
        <ele>243.2</ele>
        <time>2023-11-05T09:11:25Z</time>
      </trkpt>
      <trkpt lat="43.15391" lon="2.35551">
        <ele>243.4</ele>
        <time>2023-11-05T09:11:27Z</time>
      </trkpt>
      <trkpt lat="43.15383" lon="2.35551">
        <ele>244.2</ele>
        <time>2023-11-05T09:11:34Z</time>
      </trkpt>
      <trkpt lat="43.15383" lon="2.35551">
        <ele>244.2</ele>
        <time>2023-11-05T09:11:35Z</time>
      </trkpt>
      <trkpt lat="43.15382" lon="2.35552">
        <ele>244.4</ele>
        <time>2023-11-05T09:11:37Z</time>
      </trkpt>
      <trkpt lat="43.1538" lon="2.35552">
        <ele>244.6</ele>
        <time>2023-11-05T09:11:39Z</time>
      </trkpt>
      <trkpt lat="43.15378" lon="2.35553">
        <ele>244.9</ele>
        <time>2023-11-05T09:11:41Z</time>
      </trkpt>
      <trkpt lat="43.15376" lon="2.35552">
        <ele>245.3</ele>
        <time>2023-11-05T09:11:44Z</time>
      </trkpt>
      <trkpt lat="43.15374" lon="2.35552">
        <ele>245.5</ele>
        <time>2023-11-05T09:11:45Z</time>
      </trkpt>
      <trkpt lat="43.15373" lon="2.35553">
        <ele>245.7</ele>
        <time>2023-11-05T09:11:47Z</time>
      </trkpt>
      <trkpt lat="43.15372" lon="2.35553">
        <ele>245.9</ele>
        <time>2023-11-05T09:11:49Z</time>
      </trkpt>
      <trkpt lat="43.1537" lon="2.35553">
        <ele>246.2</ele>
        <time>2023-11-05T09:11:51Z</time>
      </trkpt>
      <trkpt lat="43.15367" lon="2.35553">
        <ele>246.8</ele>
        <time>2023-11-05T09:11:54Z</time>
      </trkpt>
      <trkpt lat="43.15365" lon="2.35552">
        <ele>247.4</ele>
        <time>2023-11-05T09:11:56Z</time>
      </trkpt>
      <trkpt lat="43.15363" lon="2.35549">
        <ele>247.9</ele>
        <time>2023-11-05T09:11:58Z</time>
      </trkpt>
      <trkpt lat="43.15361" lon="2.35541">
        <ele>249</ele>
        <time>2023-11-05T09:12:03Z</time>
      </trkpt>
      <trkpt lat="43.1536" lon="2.3554">
        <ele>249.1</ele>
        <time>2023-11-05T09:12:04Z</time>
      </trkpt>
      <trkpt lat="43.1536" lon="2.35539">
        <ele>249.2</ele>
        <time>2023-11-05T09:12:05Z</time>
      </trkpt>
      <trkpt lat="43.15359" lon="2.35534">
        <ele>249.8</ele>
        <time>2023-11-05T09:12:08Z</time>
      </trkpt>
      <trkpt lat="43.15357" lon="2.35529">
        <ele>250.5</ele>
        <time>2023-11-05T09:12:12Z</time>
      </trkpt>
      <trkpt lat="43.15357" lon="2.35529">
        <ele>250.6</ele>
        <time>2023-11-05T09:12:13Z</time>
      </trkpt>
      <trkpt lat="43.15355" lon="2.35526">
        <ele>251</ele>
        <time>2023-11-05T09:12:17Z</time>
      </trkpt>
      <trkpt lat="43.15353" lon="2.35525">
        <ele>251.5</ele>
        <time>2023-11-05T09:12:19Z</time>
      </trkpt>
      <trkpt lat="43.15351" lon="2.35524">
        <ele>251.7</ele>
        <time>2023-11-05T09:12:21Z</time>
      </trkpt>
      <trkpt lat="43.1535" lon="2.35523">
        <ele>252</ele>
        <time>2023-11-05T09:12:25Z</time>
      </trkpt>
      <trkpt lat="43.15349" lon="2.35519">
        <ele>252.5</ele>
        <time>2023-11-05T09:12:28Z</time>
      </trkpt>
      <trkpt lat="43.15348" lon="2.35518">
        <ele>252.7</ele>
        <time>2023-11-05T09:12:29Z</time>
      </trkpt>
      <trkpt lat="43.15346" lon="2.35515">
        <ele>253.1</ele>
        <time>2023-11-05T09:12:31Z</time>
      </trkpt>
      <trkpt lat="43.15345" lon="2.35513">
        <ele>253.4</ele>
        <time>2023-11-05T09:12:32Z</time>
      </trkpt>
      <trkpt lat="43.15339" lon="2.35501">
        <ele>254.8</ele>
        <time>2023-11-05T09:12:42Z</time>
      </trkpt>
      <trkpt lat="43.15338" lon="2.355">
        <ele>254.9</ele>
        <time>2023-11-05T09:12:43Z</time>
      </trkpt>
      <trkpt lat="43.15334" lon="2.35485">
        <ele>255.8</ele>
        <time>2023-11-05T09:12:51Z</time>
      </trkpt>
      <trkpt lat="43.15334" lon="2.35481">
        <ele>256</ele>
        <time>2023-11-05T09:12:54Z</time>
      </trkpt>
      <trkpt lat="43.15335" lon="2.35478">
        <ele>256</ele>
        <time>2023-11-05T09:12:55Z</time>
      </trkpt>
      <trkpt lat="43.15335" lon="2.35476">
        <ele>256.1</ele>
        <time>2023-11-05T09:12:56Z</time>
      </trkpt>
      <trkpt lat="43.15335" lon="2.35468">
        <ele>256.2</ele>
        <time>2023-11-05T09:13:00Z</time>
      </trkpt>
      <trkpt lat="43.15336" lon="2.35464">
        <ele>255.9</ele>
        <time>2023-11-05T09:13:02Z</time>
      </trkpt>
      <trkpt lat="43.15336" lon="2.35462">
        <ele>255.8</ele>
        <time>2023-11-05T09:13:03Z</time>
      </trkpt>
      <trkpt lat="43.15337" lon="2.35455">
        <ele>255.4</ele>
        <time>2023-11-05T09:13:06Z</time>
      </trkpt>
      <trkpt lat="43.15337" lon="2.35454">
        <ele>255.2</ele>
        <time>2023-11-05T09:13:07Z</time>
      </trkpt>
      <trkpt lat="43.15338" lon="2.35448">
        <ele>254.8</ele>
        <time>2023-11-05T09:13:10Z</time>
      </trkpt>
      <trkpt lat="43.15337" lon="2.35439">
        <ele>254.2</ele>
        <time>2023-11-05T09:13:13Z</time>
      </trkpt>
      <trkpt lat="43.15338" lon="2.35435">
        <ele>253.9</ele>
        <time>2023-11-05T09:13:15Z</time>
      </trkpt>
      <trkpt lat="43.15338" lon="2.35433">
        <ele>253.7</ele>
        <time>2023-11-05T09:13:16Z</time>
      </trkpt>
      <trkpt lat="43.15336" lon="2.35428">
        <ele>253.2</ele>
        <time>2023-11-05T09:13:20Z</time>
      </trkpt>
      <trkpt lat="43.15333" lon="2.35426">
        <ele>252.7</ele>
        <time>2023-11-05T09:13:23Z</time>
      </trkpt>
      <trkpt lat="43.15328" lon="2.35421">
        <ele>251.8</ele>
        <time>2023-11-05T09:13:27Z</time>
      </trkpt>
      <trkpt lat="43.15328" lon="2.35419">
        <ele>251.6</ele>
        <time>2023-11-05T09:13:28Z</time>
      </trkpt>
      <trkpt lat="43.15328" lon="2.35413">
        <ele>250.7</ele>
        <time>2023-11-05T09:13:32Z</time>
      </trkpt>
      <trkpt lat="43.15329" lon="2.35408">
        <ele>249.8</ele>
        <time>2023-11-05T09:13:34Z</time>
      </trkpt>
      <trkpt lat="43.1533" lon="2.35404">
        <ele>249</ele>
        <time>2023-11-05T09:13:36Z</time>
      </trkpt>
      <trkpt lat="43.15332" lon="2.35401">
        <ele>248.4</ele>
        <time>2023-11-05T09:13:38Z</time>
      </trkpt>
      <trkpt lat="43.15332" lon="2.354">
        <ele>248.1</ele>
        <time>2023-11-05T09:13:39Z</time>
      </trkpt>
      <trkpt lat="43.15332" lon="2.35396">
        <ele>247.5</ele>
        <time>2023-11-05T09:13:41Z</time>
      </trkpt>
      <trkpt lat="43.15332" lon="2.35394">
        <ele>247.1</ele>
        <time>2023-11-05T09:13:42Z</time>
      </trkpt>
      <trkpt lat="43.15331" lon="2.35388">
        <ele>246.2</ele>
        <time>2023-11-05T09:13:45Z</time>
      </trkpt>
      <trkpt lat="43.15331" lon="2.35386">
        <ele>245.9</ele>
        <time>2023-11-05T09:13:46Z</time>
      </trkpt>
      <trkpt lat="43.15331" lon="2.35384">
        <ele>245.6</ele>
        <time>2023-11-05T09:13:48Z</time>
      </trkpt>
      <trkpt lat="43.15331" lon="2.35382">
        <ele>245.3</ele>
        <time>2023-11-05T09:13:49Z</time>
      </trkpt>
      <trkpt lat="43.15331" lon="2.35374">
        <ele>244.2</ele>
        <time>2023-11-05T09:13:53Z</time>
      </trkpt>
      <trkpt lat="43.15331" lon="2.35372">
        <ele>244</ele>
        <time>2023-11-05T09:13:54Z</time>
      </trkpt>
      <trkpt lat="43.15332" lon="2.35369">
        <ele>243.5</ele>
        <time>2023-11-05T09:13:56Z</time>
      </trkpt>
      <trkpt lat="43.15336" lon="2.3536">
        <ele>242.3</ele>
        <time>2023-11-05T09:14:00Z</time>
      </trkpt>
      <trkpt lat="43.15339" lon="2.35353">
        <ele>241.1</ele>
        <time>2023-11-05T09:14:04Z</time>
      </trkpt>
      <trkpt lat="43.15343" lon="2.35351">
        <ele>240.3</ele>
        <time>2023-11-05T09:14:07Z</time>
      </trkpt>
      <trkpt lat="43.15349" lon="2.35346">
        <ele>238.8</ele>
        <time>2023-11-05T09:14:11Z</time>
      </trkpt>
      <trkpt lat="43.15351" lon="2.35344">
        <ele>238.2</ele>
        <time>2023-11-05T09:14:13Z</time>
      </trkpt>
      <trkpt lat="43.15352" lon="2.35343">
        <ele>237.9</ele>
        <time>2023-11-05T09:14:14Z</time>
      </trkpt>
      <trkpt lat="43.15355" lon="2.3534">
        <ele>236.8</ele>
        <time>2023-11-05T09:14:17Z</time>
      </trkpt>
      <trkpt lat="43.15357" lon="2.35336">
        <ele>235.9</ele>
        <time>2023-11-05T09:14:20Z</time>
      </trkpt>
      <trkpt lat="43.15358" lon="2.35335">
        <ele>235.6</ele>
        <time>2023-11-05T09:14:21Z</time>
      </trkpt>
      <trkpt lat="43.15361" lon="2.35333">
        <ele>234.8</ele>
        <time>2023-11-05T09:14:24Z</time>
      </trkpt>
      <trkpt lat="43.15362" lon="2.35332">
        <ele>234.5</ele>
        <time>2023-11-05T09:14:25Z</time>
      </trkpt>
      <trkpt lat="43.15366" lon="2.35332">
        <ele>233.5</ele>
        <time>2023-11-05T09:14:28Z</time>
      </trkpt>
      <trkpt lat="43.1537" lon="2.35331">
        <ele>232.6</ele>
        <time>2023-11-05T09:14:31Z</time>
      </trkpt>
      <trkpt lat="43.15372" lon="2.3533">
        <ele>232.1</ele>
        <time>2023-11-05T09:14:33Z</time>
      </trkpt>
      <trkpt lat="43.15374" lon="2.35329">
        <ele>231.6</ele>
        <time>2023-11-05T09:14:35Z</time>
      </trkpt>
      <trkpt lat="43.15376" lon="2.35327">
        <ele>231</ele>
        <time>2023-11-05T09:14:37Z</time>
      </trkpt>
      <trkpt lat="43.15379" lon="2.35323">
        <ele>230.1</ele>
        <time>2023-11-05T09:14:40Z</time>
      </trkpt>
      <trkpt lat="43.15382" lon="2.35318">
        <ele>229.2</ele>
        <time>2023-11-05T09:14:43Z</time>
      </trkpt>
      <trkpt lat="43.15383" lon="2.35314">
        <ele>228.7</ele>
        <time>2023-11-05T09:14:45Z</time>
      </trkpt>
      <trkpt lat="43.15384" lon="2.3531">
        <ele>228.1</ele>
        <time>2023-11-05T09:14:47Z</time>
      </trkpt>
      <trkpt lat="43.15387" lon="2.353">
        <ele>227</ele>
        <time>2023-11-05T09:14:51Z</time>
      </trkpt>
      <trkpt lat="43.15389" lon="2.35292">
        <ele>226.2</ele>
        <time>2023-11-05T09:14:54Z</time>
      </trkpt>
      <trkpt lat="43.15389" lon="2.35285">
        <ele>225.7</ele>
        <time>2023-11-05T09:14:56Z</time>
      </trkpt>
      <trkpt lat="43.15389" lon="2.35272">
        <ele>224.8</ele>
        <time>2023-11-05T09:15:01Z</time>
      </trkpt>
      <trkpt lat="43.15389" lon="2.35266">
        <ele>224.3</ele>
        <time>2023-11-05T09:15:03Z</time>
      </trkpt>
      <trkpt lat="43.15389" lon="2.35261">
        <ele>223.7</ele>
        <time>2023-11-05T09:15:05Z</time>
      </trkpt>
      <trkpt lat="43.15389" lon="2.35259">
        <ele>223.5</ele>
        <time>2023-11-05T09:15:06Z</time>
      </trkpt>
      <trkpt lat="43.1539" lon="2.35254">
        <ele>222.9</ele>
        <time>2023-11-05T09:15:08Z</time>
      </trkpt>
      <trkpt lat="43.1539" lon="2.35247">
        <ele>222</ele>
        <time>2023-11-05T09:15:11Z</time>
      </trkpt>
      <trkpt lat="43.15392" lon="2.3524">
        <ele>220.9</ele>
        <time>2023-11-05T09:15:14Z</time>
      </trkpt>
      <trkpt lat="43.15392" lon="2.35237">
        <ele>220.5</ele>
        <time>2023-11-05T09:15:15Z</time>
      </trkpt>
      <trkpt lat="43.15394" lon="2.35229">
        <ele>219.3</ele>
        <time>2023-11-05T09:15:18Z</time>
      </trkpt>
      <trkpt lat="43.15395" lon="2.35223">
        <ele>218.2</ele>
        <time>2023-11-05T09:15:21Z</time>
      </trkpt>
      <trkpt lat="43.15396" lon="2.35221">
        <ele>218</ele>
        <time>2023-11-05T09:15:22Z</time>
      </trkpt>
      <trkpt lat="43.15396" lon="2.35219">
        <ele>217.6</ele>
        <time>2023-11-05T09:15:23Z</time>
      </trkpt>
      <trkpt lat="43.15398" lon="2.35212">
        <ele>216.4</ele>
        <time>2023-11-05T09:15:26Z</time>
      </trkpt>
      <trkpt lat="43.15399" lon="2.35201">
        <ele>215</ele>
        <time>2023-11-05T09:15:30Z</time>
      </trkpt>
      <trkpt lat="43.154" lon="2.35193">
        <ele>214</ele>
        <time>2023-11-05T09:15:34Z</time>
      </trkpt>
      <trkpt lat="43.15403" lon="2.35184">
        <ele>213.1</ele>
        <time>2023-11-05T09:15:38Z</time>
      </trkpt>
      <trkpt lat="43.15404" lon="2.35178">
        <ele>212.7</ele>
        <time>2023-11-05T09:15:40Z</time>
      </trkpt>
      <trkpt lat="43.15408" lon="2.35163">
        <ele>211.8</ele>
        <time>2023-11-05T09:15:46Z</time>
      </trkpt>
      <trkpt lat="43.15408" lon="2.3516">
        <ele>211.7</ele>
        <time>2023-11-05T09:15:47Z</time>
      </trkpt>
      <trkpt lat="43.15408" lon="2.35147">
        <ele>211.1</ele>
        <time>2023-11-05T09:15:52Z</time>
      </trkpt>
      <trkpt lat="43.15409" lon="2.35145">
        <ele>211</ele>
        <time>2023-11-05T09:15:53Z</time>
      </trkpt>
      <trkpt lat="43.15409" lon="2.3514">
        <ele>210.8</ele>
        <time>2023-11-05T09:15:55Z</time>
      </trkpt>
      <trkpt lat="43.15406" lon="2.35124">
        <ele>210.1</ele>
        <time>2023-11-05T09:16:02Z</time>
      </trkpt>
      <trkpt lat="43.15403" lon="2.35116">
        <ele>209.7</ele>
        <time>2023-11-05T09:16:05Z</time>
      </trkpt>
      <trkpt lat="43.154" lon="2.35104">
        <ele>209</ele>
        <time>2023-11-05T09:16:09Z</time>
      </trkpt>
      <trkpt lat="43.154" lon="2.35091">
        <ele>208.4</ele>
        <time>2023-11-05T09:16:13Z</time>
      </trkpt>
      <trkpt lat="43.154" lon="2.35088">
        <ele>208.3</ele>
        <time>2023-11-05T09:16:14Z</time>
      </trkpt>
      <trkpt lat="43.15403" lon="2.35076">
        <ele>207.6</ele>
        <time>2023-11-05T09:16:18Z</time>
      </trkpt>
      <trkpt lat="43.15403" lon="2.3507">
        <ele>207.3</ele>
        <time>2023-11-05T09:16:20Z</time>
      </trkpt>
      <trkpt lat="43.15407" lon="2.35057">
        <ele>206.5</ele>
        <time>2023-11-05T09:16:25Z</time>
      </trkpt>
      <trkpt lat="43.1541" lon="2.35051">
        <ele>206.1</ele>
        <time>2023-11-05T09:16:27Z</time>
      </trkpt>
      <trkpt lat="43.15416" lon="2.35036">
        <ele>205.1</ele>
        <time>2023-11-05T09:16:33Z</time>
      </trkpt>
      <trkpt lat="43.1542" lon="2.35025">
        <ele>204.3</ele>
        <time>2023-11-05T09:16:38Z</time>
      </trkpt>
      <trkpt lat="43.15422" lon="2.35021">
        <ele>204</ele>
        <time>2023-11-05T09:16:40Z</time>
      </trkpt>
      <trkpt lat="43.15423" lon="2.35019">
        <ele>203.9</ele>
        <time>2023-11-05T09:16:41Z</time>
      </trkpt>
      <trkpt lat="43.15425" lon="2.35015">
        <ele>203.6</ele>
        <time>2023-11-05T09:16:43Z</time>
      </trkpt>
      <trkpt lat="43.1543" lon="2.35009">
        <ele>203</ele>
        <time>2023-11-05T09:16:46Z</time>
      </trkpt>
      <trkpt lat="43.15433" lon="2.35005">
        <ele>202.6</ele>
        <time>2023-11-05T09:16:48Z</time>
      </trkpt>
      <trkpt lat="43.15438" lon="2.35">
        <ele>202</ele>
        <time>2023-11-05T09:16:51Z</time>
      </trkpt>
      <trkpt lat="43.15444" lon="2.34989">
        <ele>201.2</ele>
        <time>2023-11-05T09:16:56Z</time>
      </trkpt>
      <trkpt lat="43.15447" lon="2.34983">
        <ele>200.8</ele>
        <time>2023-11-05T09:16:59Z</time>
      </trkpt>
      <trkpt lat="43.15451" lon="2.34973">
        <ele>200.1</ele>
        <time>2023-11-05T09:17:03Z</time>
      </trkpt>
      <trkpt lat="43.15455" lon="2.3497">
        <ele>199.8</ele>
        <time>2023-11-05T09:17:05Z</time>
      </trkpt>
      <trkpt lat="43.15457" lon="2.34964">
        <ele>199.4</ele>
        <time>2023-11-05T09:17:07Z</time>
      </trkpt>
      <trkpt lat="43.15458" lon="2.34962">
        <ele>199.2</ele>
        <time>2023-11-05T09:17:08Z</time>
      </trkpt>
      <trkpt lat="43.1546" lon="2.34957">
        <ele>198.9</ele>
        <time>2023-11-05T09:17:10Z</time>
      </trkpt>
      <trkpt lat="43.15464" lon="2.34949">
        <ele>198.2</ele>
        <time>2023-11-05T09:17:13Z</time>
      </trkpt>
      <trkpt lat="43.15466" lon="2.34947">
        <ele>198</ele>
        <time>2023-11-05T09:17:14Z</time>
      </trkpt>
      <trkpt lat="43.1547" lon="2.3494">
        <ele>197.4</ele>
        <time>2023-11-05T09:17:17Z</time>
      </trkpt>
      <trkpt lat="43.15477" lon="2.3493">
        <ele>196.3</ele>
        <time>2023-11-05T09:17:21Z</time>
      </trkpt>
      <trkpt lat="43.15479" lon="2.34926">
        <ele>195.9</ele>
        <time>2023-11-05T09:17:23Z</time>
      </trkpt>
      <trkpt lat="43.15483" lon="2.3492">
        <ele>195.2</ele>
        <time>2023-11-05T09:17:26Z</time>
      </trkpt>
      <trkpt lat="43.15489" lon="2.34913">
        <ele>194.4</ele>
        <time>2023-11-05T09:17:30Z</time>
      </trkpt>
      <trkpt lat="43.1549" lon="2.34911">
        <ele>194.2</ele>
        <time>2023-11-05T09:17:31Z</time>
      </trkpt>
      <trkpt lat="43.15499" lon="2.34903">
        <ele>193.3</ele>
        <time>2023-11-05T09:17:36Z</time>
      </trkpt>
      <trkpt lat="43.15501" lon="2.34901">
        <ele>193.1</ele>
        <time>2023-11-05T09:17:37Z</time>
      </trkpt>
      <trkpt lat="43.15513" lon="2.34893">
        <ele>192.3</ele>
        <time>2023-11-05T09:17:43Z</time>
      </trkpt>
      <trkpt lat="43.15515" lon="2.34892">
        <ele>192.3</ele>
        <time>2023-11-05T09:17:44Z</time>
      </trkpt>
      <trkpt lat="43.15529" lon="2.34883">
        <ele>192.1</ele>
        <time>2023-11-05T09:17:51Z</time>
      </trkpt>
      <trkpt lat="43.1554" lon="2.34876">
        <ele>192.6</ele>
        <time>2023-11-05T09:17:57Z</time>
      </trkpt>
      <trkpt lat="43.15549" lon="2.34863">
        <ele>193.6</ele>
        <time>2023-11-05T09:18:04Z</time>
      </trkpt>
      <trkpt lat="43.1555" lon="2.34861">
        <ele>193.7</ele>
        <time>2023-11-05T09:18:05Z</time>
      </trkpt>
      <trkpt lat="43.15551" lon="2.3486">
        <ele>193.8</ele>
        <time>2023-11-05T09:18:06Z</time>
      </trkpt>
      <trkpt lat="43.15552" lon="2.34849">
        <ele>194.4</ele>
        <time>2023-11-05T09:18:12Z</time>
      </trkpt>
      <trkpt lat="43.15552" lon="2.34845">
        <ele>194.6</ele>
        <time>2023-11-05T09:18:14Z</time>
      </trkpt>
      <trkpt lat="43.15552" lon="2.34844">
        <ele>194.6</ele>
        <time>2023-11-05T09:18:15Z</time>
      </trkpt>
      <trkpt lat="43.15552" lon="2.34834">
        <ele>195.1</ele>
        <time>2023-11-05T09:18:21Z</time>
      </trkpt>
      <trkpt lat="43.15555" lon="2.34824">
        <ele>195.7</ele>
        <time>2023-11-05T09:18:28Z</time>
      </trkpt>
      <trkpt lat="43.15557" lon="2.34822">
        <ele>195.8</ele>
        <time>2023-11-05T09:18:30Z</time>
      </trkpt>
      <trkpt lat="43.15564" lon="2.34819">
        <ele>196.2</ele>
        <time>2023-11-05T09:18:34Z</time>
      </trkpt>
      <trkpt lat="43.15568" lon="2.34817">
        <ele>196.3</ele>
        <time>2023-11-05T09:18:37Z</time>
      </trkpt>
      <trkpt lat="43.15571" lon="2.34816">
        <ele>196.4</ele>
        <time>2023-11-05T09:18:39Z</time>
      </trkpt>
      <trkpt lat="43.15575" lon="2.34815">
        <ele>196.5</ele>
        <time>2023-11-05T09:18:41Z</time>
      </trkpt>
      <trkpt lat="43.15579" lon="2.34814">
        <ele>196.5</ele>
        <time>2023-11-05T09:18:43Z</time>
      </trkpt>
      <trkpt lat="43.15583" lon="2.34814">
        <ele>196.5</ele>
        <time>2023-11-05T09:18:45Z</time>
      </trkpt>
      <trkpt lat="43.15592" lon="2.34812">
        <ele>196.4</ele>
        <time>2023-11-05T09:18:49Z</time>
      </trkpt>
      <trkpt lat="43.15598" lon="2.34812">
        <ele>196.4</ele>
        <time>2023-11-05T09:18:52Z</time>
      </trkpt>
      <trkpt lat="43.15617" lon="2.34815">
        <ele>196.3</ele>
        <time>2023-11-05T09:19:01Z</time>
      </trkpt>
      <trkpt lat="43.15632" lon="2.34817">
        <ele>196.4</ele>
        <time>2023-11-05T09:19:08Z</time>
      </trkpt>
      <trkpt lat="43.15644" lon="2.34814">
        <ele>196.6</ele>
        <time>2023-11-05T09:19:14Z</time>
      </trkpt>
      <trkpt lat="43.15655" lon="2.34811">
        <ele>197.1</ele>
        <time>2023-11-05T09:19:20Z</time>
      </trkpt>
      <trkpt lat="43.15661" lon="2.34811">
        <ele>197.4</ele>
        <time>2023-11-05T09:19:23Z</time>
      </trkpt>
      <trkpt lat="43.15666" lon="2.34808">
        <ele>197.8</ele>
        <time>2023-11-05T09:19:26Z</time>
      </trkpt>
      <trkpt lat="43.15672" lon="2.34803">
        <ele>198.4</ele>
        <time>2023-11-05T09:19:30Z</time>
      </trkpt>
      <trkpt lat="43.15673" lon="2.34802">
        <ele>198.6</ele>
        <time>2023-11-05T09:19:31Z</time>
      </trkpt>
      <trkpt lat="43.15678" lon="2.34797">
        <ele>199.2</ele>
        <time>2023-11-05T09:19:35Z</time>
      </trkpt>
      <trkpt lat="43.1568" lon="2.34796">
        <ele>199.4</ele>
        <time>2023-11-05T09:19:36Z</time>
      </trkpt>
      <trkpt lat="43.15687" lon="2.34791">
        <ele>200</ele>
        <time>2023-11-05T09:19:42Z</time>
      </trkpt>
      <trkpt lat="43.15696" lon="2.34785">
        <ele>200.4</ele>
        <time>2023-11-05T09:19:47Z</time>
      </trkpt>
      <trkpt lat="43.157" lon="2.34778">
        <ele>200.5</ele>
        <time>2023-11-05T09:19:50Z</time>
      </trkpt>
      <trkpt lat="43.15702" lon="2.34765">
        <ele>200.5</ele>
        <time>2023-11-05T09:19:56Z</time>
      </trkpt>
      <trkpt lat="43.15702" lon="2.34743">
        <ele>200.3</ele>
        <time>2023-11-05T09:20:05Z</time>
      </trkpt>
      <trkpt lat="43.15702" lon="2.34725">
        <ele>199.6</ele>
        <time>2023-11-05T09:20:13Z</time>
      </trkpt>
      <trkpt lat="43.15704" lon="2.34718">
        <ele>199.1</ele>
        <time>2023-11-05T09:20:15Z</time>
      </trkpt>
      <trkpt lat="43.15708" lon="2.34715">
        <ele>198.5</ele>
        <time>2023-11-05T09:20:17Z</time>
      </trkpt>
      <trkpt lat="43.15711" lon="2.34713">
        <ele>198.1</ele>
        <time>2023-11-05T09:20:18Z</time>
      </trkpt>
      <trkpt lat="43.15716" lon="2.34711">
        <ele>197.5</ele>
        <time>2023-11-05T09:20:20Z</time>
      </trkpt>
      <trkpt lat="43.15721" lon="2.34709">
        <ele>196.9</ele>
        <time>2023-11-05T09:20:22Z</time>
      </trkpt>
      <trkpt lat="43.15731" lon="2.34703">
        <ele>195.9</ele>
        <time>2023-11-05T09:20:26Z</time>
      </trkpt>
      <trkpt lat="43.15739" lon="2.34692">
        <ele>194.9</ele>
        <time>2023-11-05T09:20:30Z</time>
      </trkpt>
      <trkpt lat="43.15744" lon="2.34681">
        <ele>193.9</ele>
        <time>2023-11-05T09:20:34Z</time>
      </trkpt>
      <trkpt lat="43.15749" lon="2.34665">
        <ele>192.5</ele>
        <time>2023-11-05T09:20:40Z</time>
      </trkpt>
      <trkpt lat="43.15749" lon="2.34662">
        <ele>192.2</ele>
        <time>2023-11-05T09:20:41Z</time>
      </trkpt>
      <trkpt lat="43.15751" lon="2.34653">
        <ele>191.3</ele>
        <time>2023-11-05T09:20:44Z</time>
      </trkpt>
      <trkpt lat="43.15754" lon="2.34643">
        <ele>190</ele>
        <time>2023-11-05T09:20:48Z</time>
      </trkpt>
      <trkpt lat="43.15757" lon="2.34639">
        <ele>189.3</ele>
        <time>2023-11-05T09:20:50Z</time>
      </trkpt>
      <trkpt lat="43.15759" lon="2.34638">
        <ele>188.9</ele>
        <time>2023-11-05T09:20:51Z</time>
      </trkpt>
      <trkpt lat="43.15764" lon="2.34633">
        <ele>187.8</ele>
        <time>2023-11-05T09:20:54Z</time>
      </trkpt>
      <trkpt lat="43.1577" lon="2.34632">
        <ele>187</ele>
        <time>2023-11-05T09:20:56Z</time>
      </trkpt>
      <trkpt lat="43.15777" lon="2.3463">
        <ele>186.1</ele>
        <time>2023-11-05T09:20:59Z</time>
      </trkpt>
      <trkpt lat="43.15781" lon="2.34629">
        <ele>185.7</ele>
        <time>2023-11-05T09:21:01Z</time>
      </trkpt>
      <trkpt lat="43.15788" lon="2.34627">
        <ele>185.1</ele>
        <time>2023-11-05T09:21:04Z</time>
      </trkpt>
      <trkpt lat="43.15794" lon="2.34623">
        <ele>184.6</ele>
        <time>2023-11-05T09:21:07Z</time>
      </trkpt>
      <trkpt lat="43.15799" lon="2.34622">
        <ele>184.4</ele>
        <time>2023-11-05T09:21:09Z</time>
      </trkpt>
      <trkpt lat="43.15808" lon="2.34619">
        <ele>184</ele>
        <time>2023-11-05T09:21:13Z</time>
      </trkpt>
      <trkpt lat="43.15815" lon="2.34612">
        <ele>183.6</ele>
        <time>2023-11-05T09:21:17Z</time>
      </trkpt>
      <trkpt lat="43.1582" lon="2.3461">
        <ele>183.4</ele>
        <time>2023-11-05T09:21:19Z</time>
      </trkpt>
      <trkpt lat="43.15831" lon="2.34604">
        <ele>182.6</ele>
        <time>2023-11-05T09:21:24Z</time>
      </trkpt>
      <trkpt lat="43.15839" lon="2.34601">
        <ele>181.7</ele>
        <time>2023-11-05T09:21:28Z</time>
      </trkpt>
      <trkpt lat="43.15847" lon="2.34595">
        <ele>180.8</ele>
        <time>2023-11-05T09:21:32Z</time>
      </trkpt>
      <trkpt lat="43.15855" lon="2.34587">
        <ele>179.7</ele>
        <time>2023-11-05T09:21:36Z</time>
      </trkpt>
      <trkpt lat="43.15856" lon="2.34584">
        <ele>179.4</ele>
        <time>2023-11-05T09:21:37Z</time>
      </trkpt>
      <trkpt lat="43.1586" lon="2.3458">
        <ele>178.8</ele>
        <time>2023-11-05T09:21:39Z</time>
      </trkpt>
      <trkpt lat="43.15868" lon="2.34568">
        <ele>177.4</ele>
        <time>2023-11-05T09:21:44Z</time>
      </trkpt>
      <trkpt lat="43.15874" lon="2.34559">
        <ele>176.4</ele>
        <time>2023-11-05T09:21:48Z</time>
      </trkpt>
      <trkpt lat="43.1588" lon="2.3455">
        <ele>175.4</ele>
        <time>2023-11-05T09:21:52Z</time>
      </trkpt>
      <trkpt lat="43.15885" lon="2.34543">
        <ele>174.5</ele>
        <time>2023-11-05T09:21:56Z</time>
      </trkpt>
      <trkpt lat="43.15886" lon="2.34542">
        <ele>174.4</ele>
        <time>2023-11-05T09:21:57Z</time>
      </trkpt>
      <trkpt lat="43.15887" lon="2.34534">
        <ele>173.6</ele>
        <time>2023-11-05T09:22:01Z</time>
      </trkpt>
      <trkpt lat="43.15887" lon="2.34532">
        <ele>173.4</ele>
        <time>2023-11-05T09:22:02Z</time>
      </trkpt>
      <trkpt lat="43.15885" lon="2.34532">
        <ele>173.3</ele>
        <time>2023-11-05T09:22:03Z</time>
      </trkpt>
      <trkpt lat="43.15881" lon="2.34534">
        <ele>172.9</ele>
        <time>2023-11-05T09:22:06Z</time>
      </trkpt>
      <trkpt lat="43.15871" lon="2.34542">
        <ele>173.6</ele>
        <time>2023-11-05T09:22:11Z</time>
      </trkpt>
      <trkpt lat="43.15866" lon="2.34543">
        <ele>173.9</ele>
        <time>2023-11-05T09:22:14Z</time>
      </trkpt>
      <trkpt lat="43.15848" lon="2.34545">
        <ele>174.7</ele>
        <time>2023-11-05T09:22:23Z</time>
      </trkpt>
      <trkpt lat="43.15838" lon="2.34544">
        <ele>175</ele>
        <time>2023-11-05T09:22:28Z</time>
      </trkpt>
      <trkpt lat="43.15827" lon="2.34538">
        <ele>175.3</ele>
        <time>2023-11-05T09:22:33Z</time>
      </trkpt>
      <trkpt lat="43.15815" lon="2.34524">
        <ele>175.6</ele>
        <time>2023-11-05T09:22:42Z</time>
      </trkpt>
      <trkpt lat="43.1581" lon="2.3452">
        <ele>175.8</ele>
        <time>2023-11-05T09:22:45Z</time>
      </trkpt>
      <trkpt lat="43.15808" lon="2.34519">
        <ele>175.8</ele>
        <time>2023-11-05T09:22:46Z</time>
      </trkpt>
      <trkpt lat="43.158" lon="2.34517">
        <ele>176</ele>
        <time>2023-11-05T09:22:50Z</time>
      </trkpt>
      <trkpt lat="43.15785" lon="2.34512">
        <ele>175.6</ele>
        <time>2023-11-05T09:22:58Z</time>
      </trkpt>
      <trkpt lat="43.15778" lon="2.34512">
        <ele>175.2</ele>
        <time>2023-11-05T09:23:01Z</time>
      </trkpt>
      <trkpt lat="43.15771" lon="2.34511">
        <ele>174.5</ele>
        <time>2023-11-05T09:23:04Z</time>
      </trkpt>
      <trkpt lat="43.15766" lon="2.3451">
        <ele>174.1</ele>
        <time>2023-11-05T09:23:06Z</time>
      </trkpt>
      <trkpt lat="43.15751" lon="2.34511">
        <ele>172.8</ele>
        <time>2023-11-05T09:23:12Z</time>
      </trkpt>
      <trkpt lat="43.15748" lon="2.34509">
        <ele>172.6</ele>
        <time>2023-11-05T09:23:13Z</time>
      </trkpt>
      <trkpt lat="43.15733" lon="2.34508">
        <ele>171.9</ele>
        <time>2023-11-05T09:23:19Z</time>
      </trkpt>
      <trkpt lat="43.15718" lon="2.34506">
        <ele>171.3</ele>
        <time>2023-11-05T09:23:25Z</time>
      </trkpt>
      <trkpt lat="43.1571" lon="2.34505">
        <ele>171</ele>
        <time>2023-11-05T09:23:28Z</time>
      </trkpt>
      <trkpt lat="43.15693" lon="2.34504">
        <ele>170.4</ele>
        <time>2023-11-05T09:23:34Z</time>
      </trkpt>
      <trkpt lat="43.1569" lon="2.34504">
        <ele>170.3</ele>
        <time>2023-11-05T09:23:35Z</time>
      </trkpt>
      <trkpt lat="43.15678" lon="2.34501">
        <ele>169.8</ele>
        <time>2023-11-05T09:23:39Z</time>
      </trkpt>
      <trkpt lat="43.1567" lon="2.34502">
        <ele>169.5</ele>
        <time>2023-11-05T09:23:42Z</time>
      </trkpt>
      <trkpt lat="43.15665" lon="2.34503">
        <ele>169.3</ele>
        <time>2023-11-05T09:23:44Z</time>
      </trkpt>
      <trkpt lat="43.15648" lon="2.34505">
        <ele>168.5</ele>
        <time>2023-11-05T09:23:50Z</time>
      </trkpt>
      <trkpt lat="43.15645" lon="2.34505">
        <ele>168.4</ele>
        <time>2023-11-05T09:23:51Z</time>
      </trkpt>
      <trkpt lat="43.15627" lon="2.34502">
        <ele>167.5</ele>
        <time>2023-11-05T09:23:58Z</time>
      </trkpt>
      <trkpt lat="43.15624" lon="2.34501">
        <ele>167.4</ele>
        <time>2023-11-05T09:23:59Z</time>
      </trkpt>
      <trkpt lat="43.15608" lon="2.34498">
        <ele>166.7</ele>
        <time>2023-11-05T09:24:05Z</time>
      </trkpt>
      <trkpt lat="43.15605" lon="2.34498">
        <ele>166.5</ele>
        <time>2023-11-05T09:24:06Z</time>
      </trkpt>
      <trkpt lat="43.15603" lon="2.34498">
        <ele>166.4</ele>
        <time>2023-11-05T09:24:07Z</time>
      </trkpt>
      <trkpt lat="43.15585" lon="2.34495">
        <ele>165.9</ele>
        <time>2023-11-05T09:24:14Z</time>
      </trkpt>
      <trkpt lat="43.15583" lon="2.34494">
        <ele>165.8</ele>
        <time>2023-11-05T09:24:15Z</time>
      </trkpt>
      <trkpt lat="43.15574" lon="2.34483">
        <ele>166.1</ele>
        <time>2023-11-05T09:24:20Z</time>
      </trkpt>
      <trkpt lat="43.15571" lon="2.34478">
        <ele>166.2</ele>
        <time>2023-11-05T09:24:23Z</time>
      </trkpt>
      <trkpt lat="43.15571" lon="2.34476">
        <ele>166.3</ele>
        <time>2023-11-05T09:24:25Z</time>
      </trkpt>
      <trkpt lat="43.15569" lon="2.34468">
        <ele>166.5</ele>
        <time>2023-11-05T09:24:29Z</time>
      </trkpt>
      <trkpt lat="43.15566" lon="2.34463">
        <ele>166.7</ele>
        <time>2023-11-05T09:24:34Z</time>
      </trkpt>
      <trkpt lat="43.15566" lon="2.34462">
        <ele>166.7</ele>
        <time>2023-11-05T09:24:36Z</time>
      </trkpt>
      <trkpt lat="43.15566" lon="2.34461">
        <ele>166.8</ele>
        <time>2023-11-05T09:24:39Z</time>
      </trkpt>
      <trkpt lat="43.15566" lon="2.34461">
        <ele>166.8</ele>
        <time>2023-11-05T09:24:46Z</time>
      </trkpt>
      <trkpt lat="43.15566" lon="2.34461">
        <ele>166.8</ele>
        <time>2023-11-05T09:24:59Z</time>
      </trkpt>
      <trkpt lat="43.15566" lon="2.34461">
        <ele>166.8</ele>
        <time>2023-11-05T09:25:04Z</time>
      </trkpt>
      <trkpt lat="43.15566" lon="2.34461">
        <ele>166.8</ele>
        <time>2023-11-05T09:25:09Z</time>
      </trkpt>
      <trkpt lat="43.15566" lon="2.34461">
        <ele>166.8</ele>
        <time>2023-11-05T09:25:10Z</time>
      </trkpt>
      <trkpt lat="43.15566" lon="2.34461">
        <ele>166.8</ele>
        <time>2023-11-05T09:25:11Z</time>
      </trkpt>
      <trkpt lat="43.15566" lon="2.34461">
        <ele>166.8</ele>
        <time>2023-11-05T09:25:15Z</time>
      </trkpt>
      <trkpt lat="43.15566" lon="2.34461">
        <ele>166.8</ele>
        <time>2023-11-05T09:25:26Z</time>
      </trkpt>
      <trkpt lat="43.15566" lon="2.34461">
        <ele>166.8</ele>
        <time>2023-11-05T09:25:27Z</time>
      </trkpt>
      <trkpt lat="43.15566" lon="2.34461">
        <ele>166.8</ele>
        <time>2023-11-05T09:25:28Z</time>
      </trkpt>
      <trkpt lat="43.15566" lon="2.34461">
        <ele>166.8</ele>
        <time>2023-11-05T09:25:29Z</time>
      </trkpt>
      <trkpt lat="43.15566" lon="2.3446">
        <ele>166.8</ele>
        <time>2023-11-05T09:25:32Z</time>
      </trkpt>
      <trkpt lat="43.15566" lon="2.3446">
        <ele>166.8</ele>
        <time>2023-11-05T09:25:33Z</time>
      </trkpt>
      <trkpt lat="43.1557" lon="2.34457">
        <ele>166.6</ele>
        <time>2023-11-05T09:25:35Z</time>
      </trkpt>
      <trkpt lat="43.15572" lon="2.34456">
        <ele>166.5</ele>
        <time>2023-11-05T09:25:36Z</time>
      </trkpt>
      <trkpt lat="43.15574" lon="2.34454">
        <ele>166.3</ele>
        <time>2023-11-05T09:25:37Z</time>
      </trkpt>
      <trkpt lat="43.15578" lon="2.3445">
        <ele>165.8</ele>
        <time>2023-11-05T09:25:40Z</time>
      </trkpt>
      <trkpt lat="43.1558" lon="2.34448">
        <ele>165.6</ele>
        <time>2023-11-05T09:25:41Z</time>
      </trkpt>
      <trkpt lat="43.15581" lon="2.34447">
        <ele>165.4</ele>
        <time>2023-11-05T09:25:42Z</time>
      </trkpt>
      <trkpt lat="43.15582" lon="2.34446">
        <ele>165.3</ele>
        <time>2023-11-05T09:25:44Z</time>
      </trkpt>
      <trkpt lat="43.15585" lon="2.34444">
        <ele>164.9</ele>
        <time>2023-11-05T09:25:46Z</time>
      </trkpt>
      <trkpt lat="43.15588" lon="2.34442">
        <ele>164.7</ele>
        <time>2023-11-05T09:25:48Z</time>
      </trkpt>
      <trkpt lat="43.15589" lon="2.34441">
        <ele>164.5</ele>
        <time>2023-11-05T09:25:51Z</time>
      </trkpt>
      <trkpt lat="43.1559" lon="2.34439">
        <ele>164.4</ele>
        <time>2023-11-05T09:25:54Z</time>
      </trkpt>
      <trkpt lat="43.1559" lon="2.34438">
        <ele>164.4</ele>
        <time>2023-11-05T09:25:58Z</time>
      </trkpt>
      <trkpt lat="43.1559" lon="2.34437">
        <ele>164.4</ele>
        <time>2023-11-05T09:25:59Z</time>
      </trkpt>
      <trkpt lat="43.15591" lon="2.34436">
        <ele>164.3</ele>
        <time>2023-11-05T09:26:03Z</time>
      </trkpt>
      <trkpt lat="43.15593" lon="2.34435">
        <ele>164.3</ele>
        <time>2023-11-05T09:26:06Z</time>
      </trkpt>
      <trkpt lat="43.15593" lon="2.34435">
        <ele>164.3</ele>
        <time>2023-11-05T09:26:07Z</time>
      </trkpt>
      <trkpt lat="43.15594" lon="2.34434">
        <ele>164.3</ele>
        <time>2023-11-05T09:26:08Z</time>
      </trkpt>
      <trkpt lat="43.15595" lon="2.34434">
        <ele>164.4</ele>
        <time>2023-11-05T09:26:09Z</time>
      </trkpt>
      <trkpt lat="43.15598" lon="2.34433">
        <ele>164.5</ele>
        <time>2023-11-05T09:26:11Z</time>
      </trkpt>
      <trkpt lat="43.15598" lon="2.34431">
        <ele>164.6</ele>
        <time>2023-11-05T09:26:12Z</time>
      </trkpt>
      <trkpt lat="43.156" lon="2.3443">
        <ele>164.7</ele>
        <time>2023-11-05T09:26:13Z</time>
      </trkpt>
      <trkpt lat="43.156" lon="2.34429">
        <ele>164.8</ele>
        <time>2023-11-05T09:26:14Z</time>
      </trkpt>
      <trkpt lat="43.15601" lon="2.34427">
        <ele>164.9</ele>
        <time>2023-11-05T09:26:15Z</time>
      </trkpt>
      <trkpt lat="43.15603" lon="2.34425">
        <ele>165.1</ele>
        <time>2023-11-05T09:26:17Z</time>
      </trkpt>
      <trkpt lat="43.15603" lon="2.34423">
        <ele>165.2</ele>
        <time>2023-11-05T09:26:18Z</time>
      </trkpt>
      <trkpt lat="43.15605" lon="2.34418">
        <ele>165.6</ele>
        <time>2023-11-05T09:26:21Z</time>
      </trkpt>
      <trkpt lat="43.15607" lon="2.34416">
        <ele>165.7</ele>
        <time>2023-11-05T09:26:23Z</time>
      </trkpt>
      <trkpt lat="43.1561" lon="2.34414">
        <ele>165.9</ele>
        <time>2023-11-05T09:26:26Z</time>
      </trkpt>
      <trkpt lat="43.15612" lon="2.34415">
        <ele>166.1</ele>
        <time>2023-11-05T09:26:28Z</time>
      </trkpt>
      <trkpt lat="43.15616" lon="2.34415">
        <ele>166.2</ele>
        <time>2023-11-05T09:26:31Z</time>
      </trkpt>
      <trkpt lat="43.15624" lon="2.34415">
        <ele>166.3</ele>
        <time>2023-11-05T09:26:35Z</time>
      </trkpt>
      <trkpt lat="43.15637" lon="2.3442">
        <ele>166.2</ele>
        <time>2023-11-05T09:26:41Z</time>
      </trkpt>
      <trkpt lat="43.15656" lon="2.34421">
        <ele>166.1</ele>
        <time>2023-11-05T09:26:49Z</time>
      </trkpt>
      <trkpt lat="43.15668" lon="2.34417">
        <ele>166.1</ele>
        <time>2023-11-05T09:26:55Z</time>
      </trkpt>
      <trkpt lat="43.15687" lon="2.34412">
        <ele>166.3</ele>
        <time>2023-11-05T09:27:04Z</time>
      </trkpt>
      <trkpt lat="43.15689" lon="2.34411">
        <ele>166.4</ele>
        <time>2023-11-05T09:27:05Z</time>
      </trkpt>
      <trkpt lat="43.157" lon="2.34408">
        <ele>167.1</ele>
        <time>2023-11-05T09:27:11Z</time>
      </trkpt>
      <trkpt lat="43.157" lon="2.34404">
        <ele>167.4</ele>
        <time>2023-11-05T09:27:14Z</time>
      </trkpt>
      <trkpt lat="43.157" lon="2.34401">
        <ele>167.6</ele>
        <time>2023-11-05T09:27:16Z</time>
      </trkpt>
      <trkpt lat="43.157" lon="2.34399">
        <ele>167.7</ele>
        <time>2023-11-05T09:27:17Z</time>
      </trkpt>
      <trkpt lat="43.15697" lon="2.34392">
        <ele>168.4</ele>
        <time>2023-11-05T09:27:23Z</time>
      </trkpt>
      <trkpt lat="43.15697" lon="2.34389">
        <ele>168.6</ele>
        <time>2023-11-05T09:27:24Z</time>
      </trkpt>
      <trkpt lat="43.15692" lon="2.34381">
        <ele>169.4</ele>
        <time>2023-11-05T09:27:30Z</time>
      </trkpt>
      <trkpt lat="43.15688" lon="2.34379">
        <ele>170</ele>
        <time>2023-11-05T09:27:34Z</time>
      </trkpt>
      <trkpt lat="43.15682" lon="2.34377">
        <ele>170.7</ele>
        <time>2023-11-05T09:27:38Z</time>
      </trkpt>
      <trkpt lat="43.15675" lon="2.34374">
        <ele>171.6</ele>
        <time>2023-11-05T09:27:43Z</time>
      </trkpt>
      <trkpt lat="43.15672" lon="2.34373">
        <ele>171.9</ele>
        <time>2023-11-05T09:27:45Z</time>
      </trkpt>
      <trkpt lat="43.15663" lon="2.34373">
        <ele>173</ele>
        <time>2023-11-05T09:27:51Z</time>
      </trkpt>
      <trkpt lat="43.15655" lon="2.34373">
        <ele>174.2</ele>
        <time>2023-11-05T09:27:58Z</time>
      </trkpt>
      <trkpt lat="43.15651" lon="2.34372">
        <ele>174.8</ele>
        <time>2023-11-05T09:28:01Z</time>
      </trkpt>
      <trkpt lat="43.15648" lon="2.34368">
        <ele>175.4</ele>
        <time>2023-11-05T09:28:05Z</time>
      </trkpt>
      <trkpt lat="43.15643" lon="2.34364">
        <ele>176.3</ele>
        <time>2023-11-05T09:28:11Z</time>
      </trkpt>
      <trkpt lat="43.15642" lon="2.34363">
        <ele>176.4</ele>
        <time>2023-11-05T09:28:12Z</time>
      </trkpt>
      <trkpt lat="43.15638" lon="2.34361">
        <ele>177</ele>
        <time>2023-11-05T09:28:16Z</time>
      </trkpt>
      <trkpt lat="43.15635" lon="2.34359">
        <ele>177.4</ele>
        <time>2023-11-05T09:28:19Z</time>
      </trkpt>
      <trkpt lat="43.15634" lon="2.34359">
        <ele>177.5</ele>
        <time>2023-11-05T09:28:20Z</time>
      </trkpt>
      <trkpt lat="43.15633" lon="2.34358">
        <ele>177.7</ele>
        <time>2023-11-05T09:28:21Z</time>
      </trkpt>
      <trkpt lat="43.15628" lon="2.34356">
        <ele>178.4</ele>
        <time>2023-11-05T09:28:26Z</time>
      </trkpt>
      <trkpt lat="43.15625" lon="2.34356">
        <ele>178.9</ele>
        <time>2023-11-05T09:28:29Z</time>
      </trkpt>
      <trkpt lat="43.15622" lon="2.34356">
        <ele>179.2</ele>
        <time>2023-11-05T09:28:32Z</time>
      </trkpt>
      <trkpt lat="43.15622" lon="2.34356">
        <ele>179.3</ele>
        <time>2023-11-05T09:28:35Z</time>
      </trkpt>
      <trkpt lat="43.15621" lon="2.34357">
        <ele>179.4</ele>
        <time>2023-11-05T09:28:36Z</time>
      </trkpt>
      <trkpt lat="43.15618" lon="2.34356">
        <ele>179.8</ele>
        <time>2023-11-05T09:28:38Z</time>
      </trkpt>
      <trkpt lat="43.15612" lon="2.34353">
        <ele>180.6</ele>
        <time>2023-11-05T09:28:42Z</time>
      </trkpt>
      <trkpt lat="43.15611" lon="2.34353">
        <ele>180.8</ele>
        <time>2023-11-05T09:28:43Z</time>
      </trkpt>
      <trkpt lat="43.15606" lon="2.34344">
        <ele>181.7</ele>
        <time>2023-11-05T09:28:50Z</time>
      </trkpt>
      <trkpt lat="43.15607" lon="2.34341">
        <ele>181.9</ele>
        <time>2023-11-05T09:28:52Z</time>
      </trkpt>
      <trkpt lat="43.15609" lon="2.34338">
        <ele>182.2</ele>
        <time>2023-11-05T09:28:54Z</time>
      </trkpt>
      <trkpt lat="43.1561" lon="2.34338">
        <ele>182.3</ele>
        <time>2023-11-05T09:28:55Z</time>
      </trkpt>
      <trkpt lat="43.15614" lon="2.34338">
        <ele>182.6</ele>
        <time>2023-11-05T09:28:59Z</time>
      </trkpt>
      <trkpt lat="43.15624" lon="2.34337">
        <ele>183.3</ele>
        <time>2023-11-05T09:29:06Z</time>
      </trkpt>
      <trkpt lat="43.15632" lon="2.34335">
        <ele>183.7</ele>
        <time>2023-11-05T09:29:11Z</time>
      </trkpt>
      <trkpt lat="43.1564" lon="2.34332">
        <ele>184</ele>
        <time>2023-11-05T09:29:16Z</time>
      </trkpt>
      <trkpt lat="43.1565" lon="2.34321">
        <ele>184.4</ele>
        <time>2023-11-05T09:29:26Z</time>
      </trkpt>
      <trkpt lat="43.1565" lon="2.3432">
        <ele>184.5</ele>
        <time>2023-11-05T09:29:27Z</time>
      </trkpt>
      <trkpt lat="43.15657" lon="2.34308">
        <ele>184.9</ele>
        <time>2023-11-05T09:29:35Z</time>
      </trkpt>
      <trkpt lat="43.1566" lon="2.34303">
        <ele>185.2</ele>
        <time>2023-11-05T09:29:39Z</time>
      </trkpt>
      <trkpt lat="43.15662" lon="2.34297">
        <ele>185.5</ele>
        <time>2023-11-05T09:29:43Z</time>
      </trkpt>
      <trkpt lat="43.15663" lon="2.34295">
        <ele>185.6</ele>
        <time>2023-11-05T09:29:44Z</time>
      </trkpt>
      <trkpt lat="43.15664" lon="2.34292">
        <ele>185.7</ele>
        <time>2023-11-05T09:29:46Z</time>
      </trkpt>
      <trkpt lat="43.15665" lon="2.34289">
        <ele>185.9</ele>
        <time>2023-11-05T09:29:48Z</time>
      </trkpt>
      <trkpt lat="43.15666" lon="2.3428">
        <ele>186.5</ele>
        <time>2023-11-05T09:29:52Z</time>
      </trkpt>
      <trkpt lat="43.15667" lon="2.34278">
        <ele>186.6</ele>
        <time>2023-11-05T09:29:53Z</time>
      </trkpt>
      <trkpt lat="43.15669" lon="2.3427">
        <ele>187.2</ele>
        <time>2023-11-05T09:30:00Z</time>
      </trkpt>
      <trkpt lat="43.1567" lon="2.34268">
        <ele>187.4</ele>
        <time>2023-11-05T09:30:02Z</time>
      </trkpt>
      <trkpt lat="43.15674" lon="2.34258">
        <ele>188</ele>
        <time>2023-11-05T09:30:09Z</time>
      </trkpt>
      <trkpt lat="43.15676" lon="2.34254">
        <ele>188.2</ele>
        <time>2023-11-05T09:30:12Z</time>
      </trkpt>
      <trkpt lat="43.15682" lon="2.34239">
        <ele>188.9</ele>
        <time>2023-11-05T09:30:21Z</time>
      </trkpt>
      <trkpt lat="43.15684" lon="2.34234">
        <ele>189.1</ele>
        <time>2023-11-05T09:30:23Z</time>
      </trkpt>
      <trkpt lat="43.15688" lon="2.34226">
        <ele>189.6</ele>
        <time>2023-11-05T09:30:27Z</time>
      </trkpt>
      <trkpt lat="43.15691" lon="2.34214">
        <ele>190.2</ele>
        <time>2023-11-05T09:30:31Z</time>
      </trkpt>
      <trkpt lat="43.15693" lon="2.34211">
        <ele>190.4</ele>
        <time>2023-11-05T09:30:33Z</time>
      </trkpt>
      <trkpt lat="43.15694" lon="2.34208">
        <ele>190.5</ele>
        <time>2023-11-05T09:30:34Z</time>
      </trkpt>
      <trkpt lat="43.15699" lon="2.3419">
        <ele>191.4</ele>
        <time>2023-11-05T09:30:40Z</time>
      </trkpt>
      <trkpt lat="43.157" lon="2.34185">
        <ele>191.6</ele>
        <time>2023-11-05T09:30:42Z</time>
      </trkpt>
      <trkpt lat="43.15707" lon="2.34166">
        <ele>192.6</ele>
        <time>2023-11-05T09:30:49Z</time>
      </trkpt>
      <trkpt lat="43.15709" lon="2.34161">
        <ele>192.8</ele>
        <time>2023-11-05T09:30:51Z</time>
      </trkpt>
      <trkpt lat="43.15714" lon="2.34142">
        <ele>193.6</ele>
        <time>2023-11-05T09:30:58Z</time>
      </trkpt>
      <trkpt lat="43.15715" lon="2.3414">
        <ele>193.7</ele>
        <time>2023-11-05T09:30:59Z</time>
      </trkpt>
      <trkpt lat="43.15716" lon="2.34137">
        <ele>193.8</ele>
        <time>2023-11-05T09:31:00Z</time>
      </trkpt>
      <trkpt lat="43.15723" lon="2.34113">
        <ele>194.3</ele>
        <time>2023-11-05T09:31:09Z</time>
      </trkpt>
      <trkpt lat="43.15731" lon="2.34091">
        <ele>194.2</ele>
        <time>2023-11-05T09:31:17Z</time>
      </trkpt>
      <trkpt lat="43.15734" lon="2.34083">
        <ele>194.1</ele>
        <time>2023-11-05T09:31:20Z</time>
      </trkpt>
      <trkpt lat="43.15741" lon="2.34064">
        <ele>193.9</ele>
        <time>2023-11-05T09:31:27Z</time>
      </trkpt>
      <trkpt lat="43.15746" lon="2.34043">
        <ele>193.9</ele>
        <time>2023-11-05T09:31:36Z</time>
      </trkpt>
      <trkpt lat="43.1574" lon="2.34037">
        <ele>194.7</ele>
        <time>2023-11-05T09:31:40Z</time>
      </trkpt>
      <trkpt lat="43.15737" lon="2.34037">
        <ele>194.9</ele>
        <time>2023-11-05T09:31:41Z</time>
      </trkpt>
      <trkpt lat="43.15721" lon="2.34032">
        <ele>196.3</ele>
        <time>2023-11-05T09:31:48Z</time>
      </trkpt>
      <trkpt lat="43.15714" lon="2.34029">
        <ele>196.9</ele>
        <time>2023-11-05T09:31:51Z</time>
      </trkpt>
      <trkpt lat="43.15709" lon="2.34028">
        <ele>197.4</ele>
        <time>2023-11-05T09:31:53Z</time>
      </trkpt>
      <trkpt lat="43.157" lon="2.34024">
        <ele>198.4</ele>
        <time>2023-11-05T09:31:57Z</time>
      </trkpt>
      <trkpt lat="43.15693" lon="2.3402">
        <ele>199</ele>
        <time>2023-11-05T09:32:00Z</time>
      </trkpt>
      <trkpt lat="43.15682" lon="2.34013">
        <ele>200.1</ele>
        <time>2023-11-05T09:32:05Z</time>
      </trkpt>
      <trkpt lat="43.15676" lon="2.34007">
        <ele>200.7</ele>
        <time>2023-11-05T09:32:08Z</time>
      </trkpt>
      <trkpt lat="43.15672" lon="2.34003">
        <ele>201</ele>
        <time>2023-11-05T09:32:10Z</time>
      </trkpt>
      <trkpt lat="43.15667" lon="2.33996">
        <ele>201.5</ele>
        <time>2023-11-05T09:32:13Z</time>
      </trkpt>
      <trkpt lat="43.15663" lon="2.33993">
        <ele>201.8</ele>
        <time>2023-11-05T09:32:15Z</time>
      </trkpt>
      <trkpt lat="43.1566" lon="2.3399">
        <ele>202.1</ele>
        <time>2023-11-05T09:32:17Z</time>
      </trkpt>
      <trkpt lat="43.15645" lon="2.33974">
        <ele>203.2</ele>
        <time>2023-11-05T09:32:25Z</time>
      </trkpt>
      <trkpt lat="43.15643" lon="2.33972">
        <ele>203.4</ele>
        <time>2023-11-05T09:32:26Z</time>
      </trkpt>
      <trkpt lat="43.15642" lon="2.33969">
        <ele>203.5</ele>
        <time>2023-11-05T09:32:27Z</time>
      </trkpt>
      <trkpt lat="43.15633" lon="2.33957">
        <ele>204.2</ele>
        <time>2023-11-05T09:32:32Z</time>
      </trkpt>
      <trkpt lat="43.15628" lon="2.33949">
        <ele>204.6</ele>
        <time>2023-11-05T09:32:35Z</time>
      </trkpt>
      <trkpt lat="43.15619" lon="2.33935">
        <ele>204.9</ele>
        <time>2023-11-05T09:32:40Z</time>
      </trkpt>
      <trkpt lat="43.15612" lon="2.33923">
        <ele>204.8</ele>
        <time>2023-11-05T09:32:44Z</time>
      </trkpt>
      <trkpt lat="43.15605" lon="2.33908">
        <ele>204.3</ele>
        <time>2023-11-05T09:32:48Z</time>
      </trkpt>
      <trkpt lat="43.15597" lon="2.33889">
        <ele>203.6</ele>
        <time>2023-11-05T09:32:53Z</time>
      </trkpt>
      <trkpt lat="43.15594" lon="2.33881">
        <ele>203.2</ele>
        <time>2023-11-05T09:32:55Z</time>
      </trkpt>
      <trkpt lat="43.15587" lon="2.33865">
        <ele>202.4</ele>
        <time>2023-11-05T09:33:00Z</time>
      </trkpt>
      <trkpt lat="43.1558" lon="2.33851">
        <ele>201.5</ele>
        <time>2023-11-05T09:33:04Z</time>
      </trkpt>
      <trkpt lat="43.1557" lon="2.33835">
        <ele>200.3</ele>
        <time>2023-11-05T09:33:08Z</time>
      </trkpt>
      <trkpt lat="43.15568" lon="2.33832">
        <ele>200</ele>
        <time>2023-11-05T09:33:09Z</time>
      </trkpt>
      <trkpt lat="43.15564" lon="2.33825">
        <ele>199.3</ele>
        <time>2023-11-05T09:33:11Z</time>
      </trkpt>
      <trkpt lat="43.15561" lon="2.33822">
        <ele>199</ele>
        <time>2023-11-05T09:33:12Z</time>
      </trkpt>
      <trkpt lat="43.15553" lon="2.33807">
        <ele>197.9</ele>
        <time>2023-11-05T09:33:16Z</time>
      </trkpt>
      <trkpt lat="43.15549" lon="2.338">
        <ele>197.3</ele>
        <time>2023-11-05T09:33:18Z</time>
      </trkpt>
      <trkpt lat="43.15547" lon="2.33797">
        <ele>197.1</ele>
        <time>2023-11-05T09:33:19Z</time>
      </trkpt>
      <trkpt lat="43.1554" lon="2.33784">
        <ele>196.1</ele>
        <time>2023-11-05T09:33:23Z</time>
      </trkpt>
      <trkpt lat="43.15538" lon="2.33781">
        <ele>195.8</ele>
        <time>2023-11-05T09:33:24Z</time>
      </trkpt>
      <trkpt lat="43.15534" lon="2.33775">
        <ele>195.3</ele>
        <time>2023-11-05T09:33:26Z</time>
      </trkpt>
      <trkpt lat="43.1553" lon="2.33768">
        <ele>194.8</ele>
        <time>2023-11-05T09:33:28Z</time>
      </trkpt>
      <trkpt lat="43.15521" lon="2.33749">
        <ele>193.7</ele>
        <time>2023-11-05T09:33:33Z</time>
      </trkpt>
      <trkpt lat="43.15518" lon="2.33742">
        <ele>193.4</ele>
        <time>2023-11-05T09:33:35Z</time>
      </trkpt>
      <trkpt lat="43.15512" lon="2.33727">
        <ele>192.5</ele>
        <time>2023-11-05T09:33:39Z</time>
      </trkpt>
      <trkpt lat="43.15504" lon="2.33708">
        <ele>191.6</ele>
        <time>2023-11-05T09:33:44Z</time>
      </trkpt>
      <trkpt lat="43.15503" lon="2.33704">
        <ele>191.4</ele>
        <time>2023-11-05T09:33:45Z</time>
      </trkpt>
      <trkpt lat="43.15497" lon="2.33685">
        <ele>190.5</ele>
        <time>2023-11-05T09:33:50Z</time>
      </trkpt>
      <trkpt lat="43.15496" lon="2.33677">
        <ele>190.2</ele>
        <time>2023-11-05T09:33:52Z</time>
      </trkpt>
      <trkpt lat="43.15495" lon="2.3365">
        <ele>189.9</ele>
        <time>2023-11-05T09:33:59Z</time>
      </trkpt>
      <trkpt lat="43.15495" lon="2.33624">
        <ele>190.1</ele>
        <time>2023-11-05T09:34:06Z</time>
      </trkpt>
      <trkpt lat="43.15497" lon="2.3361">
        <ele>190.4</ele>
        <time>2023-11-05T09:34:10Z</time>
      </trkpt>
      <trkpt lat="43.15499" lon="2.33584">
        <ele>191.6</ele>
        <time>2023-11-05T09:34:17Z</time>
      </trkpt>
      <trkpt lat="43.15499" lon="2.3358">
        <ele>191.8</ele>
        <time>2023-11-05T09:34:18Z</time>
      </trkpt>
      <trkpt lat="43.15498" lon="2.33577">
        <ele>192</ele>
        <time>2023-11-05T09:34:19Z</time>
      </trkpt>
      <trkpt lat="43.15493" lon="2.33567">
        <ele>192.9</ele>
        <time>2023-11-05T09:34:23Z</time>
      </trkpt>
      <trkpt lat="43.15491" lon="2.33564">
        <ele>193.2</ele>
        <time>2023-11-05T09:34:24Z</time>
      </trkpt>
      <trkpt lat="43.15484" lon="2.33553">
        <ele>194.3</ele>
        <time>2023-11-05T09:34:28Z</time>
      </trkpt>
      <trkpt lat="43.1548" lon="2.33545">
        <ele>195</ele>
        <time>2023-11-05T09:34:31Z</time>
      </trkpt>
      <trkpt lat="43.15473" lon="2.33533">
        <ele>195.9</ele>
        <time>2023-11-05T09:34:36Z</time>
      </trkpt>
      <trkpt lat="43.15469" lon="2.33528">
        <ele>196.2</ele>
        <time>2023-11-05T09:34:38Z</time>
      </trkpt>
      <trkpt lat="43.15456" lon="2.33512">
        <ele>196.8</ele>
        <time>2023-11-05T09:34:45Z</time>
      </trkpt>
      <trkpt lat="43.15449" lon="2.33487">
        <ele>196.8</ele>
        <time>2023-11-05T09:34:52Z</time>
      </trkpt>
      <trkpt lat="43.15449" lon="2.33482">
        <ele>196.7</ele>
        <time>2023-11-05T09:34:53Z</time>
      </trkpt>
      <trkpt lat="43.15438" lon="2.33459">
        <ele>196.3</ele>
        <time>2023-11-05T09:35:00Z</time>
      </trkpt>
      <trkpt lat="43.15432" lon="2.33451">
        <ele>196</ele>
        <time>2023-11-05T09:35:03Z</time>
      </trkpt>
      <trkpt lat="43.1542" lon="2.33441">
        <ele>195.5</ele>
        <time>2023-11-05T09:35:08Z</time>
      </trkpt>
      <trkpt lat="43.15404" lon="2.33437">
        <ele>193.8</ele>
        <time>2023-11-05T09:35:13Z</time>
      </trkpt>
      <trkpt lat="43.15393" lon="2.33435">
        <ele>192.3</ele>
        <time>2023-11-05T09:35:16Z</time>
      </trkpt>
      <trkpt lat="43.1539" lon="2.33435">
        <ele>191.8</ele>
        <time>2023-11-05T09:35:17Z</time>
      </trkpt>
      <trkpt lat="43.15387" lon="2.33434">
        <ele>191.4</ele>
        <time>2023-11-05T09:35:18Z</time>
      </trkpt>
      <trkpt lat="43.15378" lon="2.33431">
        <ele>190</ele>
        <time>2023-11-05T09:35:21Z</time>
      </trkpt>
      <trkpt lat="43.15373" lon="2.33426">
        <ele>189.3</ele>
        <time>2023-11-05T09:35:23Z</time>
      </trkpt>
      <trkpt lat="43.1537" lon="2.33423">
        <ele>188.9</ele>
        <time>2023-11-05T09:35:24Z</time>
      </trkpt>
      <trkpt lat="43.15356" lon="2.33408">
        <ele>187.3</ele>
        <time>2023-11-05T09:35:30Z</time>
      </trkpt>
      <trkpt lat="43.15354" lon="2.33405">
        <ele>187.2</ele>
        <time>2023-11-05T09:35:31Z</time>
      </trkpt>
      <trkpt lat="43.1534" lon="2.33387">
        <ele>186.2</ele>
        <time>2023-11-05T09:35:37Z</time>
      </trkpt>
      <trkpt lat="43.15338" lon="2.33384">
        <ele>186</ele>
        <time>2023-11-05T09:35:38Z</time>
      </trkpt>
      <trkpt lat="43.15324" lon="2.33367">
        <ele>185.3</ele>
        <time>2023-11-05T09:35:44Z</time>
      </trkpt>
      <trkpt lat="43.15319" lon="2.33364">
        <ele>185.2</ele>
        <time>2023-11-05T09:35:46Z</time>
      </trkpt>
      <trkpt lat="43.15308" lon="2.33354">
        <ele>184.8</ele>
        <time>2023-11-05T09:35:50Z</time>
      </trkpt>
      <trkpt lat="43.15293" lon="2.3334">
        <ele>184.6</ele>
        <time>2023-11-05T09:35:56Z</time>
      </trkpt>
      <trkpt lat="43.15277" lon="2.33322">
        <ele>184.4</ele>
        <time>2023-11-05T09:36:03Z</time>
      </trkpt>
      <trkpt lat="43.15264" lon="2.33301">
        <ele>183.9</ele>
        <time>2023-11-05T09:36:09Z</time>
      </trkpt>
      <trkpt lat="43.15261" lon="2.33298">
        <ele>183.8</ele>
        <time>2023-11-05T09:36:10Z</time>
      </trkpt>
      <trkpt lat="43.15247" lon="2.33276">
        <ele>183.7</ele>
        <time>2023-11-05T09:36:17Z</time>
      </trkpt>
      <trkpt lat="43.15235" lon="2.33252">
        <ele>183.9</ele>
        <time>2023-11-05T09:36:24Z</time>
      </trkpt>
      <trkpt lat="43.15224" lon="2.33231">
        <ele>184.6</ele>
        <time>2023-11-05T09:36:30Z</time>
      </trkpt>
      <trkpt lat="43.15219" lon="2.33225">
        <ele>184.9</ele>
        <time>2023-11-05T09:36:32Z</time>
      </trkpt>
      <trkpt lat="43.15214" lon="2.33218">
        <ele>185.2</ele>
        <time>2023-11-05T09:36:34Z</time>
      </trkpt>
      <trkpt lat="43.15204" lon="2.33204">
        <ele>186.1</ele>
        <time>2023-11-05T09:36:38Z</time>
      </trkpt>
      <trkpt lat="43.15203" lon="2.33202">
        <ele>186.2</ele>
        <time>2023-11-05T09:36:39Z</time>
      </trkpt>
      <trkpt lat="43.15196" lon="2.33192">
        <ele>186.9</ele>
        <time>2023-11-05T09:36:42Z</time>
      </trkpt>
      <trkpt lat="43.1519" lon="2.33184">
        <ele>187.6</ele>
        <time>2023-11-05T09:36:45Z</time>
      </trkpt>
      <trkpt lat="43.1518" lon="2.33175">
        <ele>188.2</ele>
        <time>2023-11-05T09:36:49Z</time>
      </trkpt>
      <trkpt lat="43.15164" lon="2.33159">
        <ele>189</ele>
        <time>2023-11-05T09:36:56Z</time>
      </trkpt>
      <trkpt lat="43.15162" lon="2.33157">
        <ele>189.1</ele>
        <time>2023-11-05T09:36:58Z</time>
      </trkpt>
      <trkpt lat="43.15156" lon="2.33149">
        <ele>189.4</ele>
        <time>2023-11-05T09:37:03Z</time>
      </trkpt>
      <trkpt lat="43.15153" lon="2.33144">
        <ele>189.6</ele>
        <time>2023-11-05T09:37:07Z</time>
      </trkpt>
      <trkpt lat="43.1515" lon="2.33138">
        <ele>189.7</ele>
        <time>2023-11-05T09:37:11Z</time>
      </trkpt>
      <trkpt lat="43.15148" lon="2.33132">
        <ele>189.8</ele>
        <time>2023-11-05T09:37:15Z</time>
      </trkpt>
      <trkpt lat="43.15147" lon="2.33129">
        <ele>189.8</ele>
        <time>2023-11-05T09:37:17Z</time>
      </trkpt>
      <trkpt lat="43.15146" lon="2.33127">
        <ele>189.9</ele>
        <time>2023-11-05T09:37:21Z</time>
      </trkpt>
      <trkpt lat="43.15148" lon="2.33115">
        <ele>189.8</ele>
        <time>2023-11-05T09:37:28Z</time>
      </trkpt>
      <trkpt lat="43.15149" lon="2.33111">
        <ele>189.7</ele>
        <time>2023-11-05T09:37:31Z</time>
      </trkpt>
      <trkpt lat="43.1515" lon="2.33108">
        <ele>189.7</ele>
        <time>2023-11-05T09:37:33Z</time>
      </trkpt>
      <trkpt lat="43.15151" lon="2.33103">
        <ele>189.6</ele>
        <time>2023-11-05T09:37:36Z</time>
      </trkpt>
      <trkpt lat="43.15152" lon="2.33097">
        <ele>189.4</ele>
        <time>2023-11-05T09:37:40Z</time>
      </trkpt>
      <trkpt lat="43.15152" lon="2.33093">
        <ele>189.3</ele>
        <time>2023-11-05T09:37:43Z</time>
      </trkpt>
      <trkpt lat="43.15152" lon="2.33086">
        <ele>189.1</ele>
        <time>2023-11-05T09:37:47Z</time>
      </trkpt>
      <trkpt lat="43.15153" lon="2.33081">
        <ele>188.9</ele>
        <time>2023-11-05T09:37:50Z</time>
      </trkpt>
      <trkpt lat="43.15153" lon="2.33075">
        <ele>188.8</ele>
        <time>2023-11-05T09:37:55Z</time>
      </trkpt>
      <trkpt lat="43.15153" lon="2.33074">
        <ele>188.8</ele>
        <time>2023-11-05T09:37:56Z</time>
      </trkpt>
      <trkpt lat="43.15153" lon="2.33074">
        <ele>188.8</ele>
        <time>2023-11-05T09:37:57Z</time>
      </trkpt>
      <trkpt lat="43.15153" lon="2.33074">
        <ele>188.8</ele>
        <time>2023-11-05T09:37:59Z</time>
      </trkpt>
      <trkpt lat="43.15153" lon="2.33074">
        <ele>188.8</ele>
        <time>2023-11-05T09:38:01Z</time>
      </trkpt>
      <trkpt lat="43.15152" lon="2.33075">
        <ele>188.7</ele>
        <time>2023-11-05T09:38:10Z</time>
      </trkpt>
      <trkpt lat="43.1515" lon="2.33077">
        <ele>188.7</ele>
        <time>2023-11-05T09:38:14Z</time>
      </trkpt>
      <trkpt lat="43.15149" lon="2.33077">
        <ele>188.7</ele>
        <time>2023-11-05T09:38:15Z</time>
      </trkpt>
      <trkpt lat="43.15149" lon="2.33078">
        <ele>188.7</ele>
        <time>2023-11-05T09:38:18Z</time>
      </trkpt>
      <trkpt lat="43.1515" lon="2.33078">
        <ele>188.7</ele>
        <time>2023-11-05T09:38:23Z</time>
      </trkpt>
      <trkpt lat="43.1515" lon="2.33078">
        <ele>188.7</ele>
        <time>2023-11-05T09:38:26Z</time>
      </trkpt>
      <trkpt lat="43.1515" lon="2.33078">
        <ele>188.7</ele>
        <time>2023-11-05T09:38:31Z</time>
      </trkpt>
      <trkpt lat="43.15149" lon="2.33077">
        <ele>188.6</ele>
        <time>2023-11-05T09:38:33Z</time>
      </trkpt>
      <trkpt lat="43.15149" lon="2.33069">
        <ele>188.6</ele>
        <time>2023-11-05T09:38:35Z</time>
      </trkpt>
      <trkpt lat="43.15149" lon="2.3306">
        <ele>188.5</ele>
        <time>2023-11-05T09:38:37Z</time>
      </trkpt>
      <trkpt lat="43.15149" lon="2.33033">
        <ele>188.5</ele>
        <time>2023-11-05T09:38:43Z</time>
      </trkpt>
      <trkpt lat="43.15149" lon="2.33029">
        <ele>188.5</ele>
        <time>2023-11-05T09:38:44Z</time>
      </trkpt>
      <trkpt lat="43.1515" lon="2.33015">
        <ele>188.5</ele>
        <time>2023-11-05T09:38:47Z</time>
      </trkpt>
      <trkpt lat="43.15151" lon="2.33003">
        <ele>188.4</ele>
        <time>2023-11-05T09:38:50Z</time>
      </trkpt>
      <trkpt lat="43.15152" lon="2.32999">
        <ele>188.4</ele>
        <time>2023-11-05T09:38:51Z</time>
      </trkpt>
      <trkpt lat="43.15153" lon="2.32983">
        <ele>188.1</ele>
        <time>2023-11-05T09:38:55Z</time>
      </trkpt>
      <trkpt lat="43.15157" lon="2.32965">
        <ele>187.6</ele>
        <time>2023-11-05T09:38:59Z</time>
      </trkpt>
      <trkpt lat="43.15158" lon="2.3296">
        <ele>187.5</ele>
        <time>2023-11-05T09:39:00Z</time>
      </trkpt>
      <trkpt lat="43.15162" lon="2.32935">
        <ele>186.8</ele>
        <time>2023-11-05T09:39:05Z</time>
      </trkpt>
      <trkpt lat="43.15163" lon="2.32929">
        <ele>186.7</ele>
        <time>2023-11-05T09:39:06Z</time>
      </trkpt>
      <trkpt lat="43.15165" lon="2.32919">
        <ele>186.4</ele>
        <time>2023-11-05T09:39:08Z</time>
      </trkpt>
      <trkpt lat="43.15169" lon="2.32905">
        <ele>186.1</ele>
        <time>2023-11-05T09:39:11Z</time>
      </trkpt>
      <trkpt lat="43.15174" lon="2.32883">
        <ele>185.3</ele>
        <time>2023-11-05T09:39:16Z</time>
      </trkpt>
      <trkpt lat="43.15176" lon="2.3287">
        <ele>184.7</ele>
        <time>2023-11-05T09:39:19Z</time>
      </trkpt>
      <trkpt lat="43.15179" lon="2.32846">
        <ele>183.4</ele>
        <time>2023-11-05T09:39:24Z</time>
      </trkpt>
      <trkpt lat="43.1518" lon="2.32841">
        <ele>183.2</ele>
        <time>2023-11-05T09:39:25Z</time>
      </trkpt>
      <trkpt lat="43.15181" lon="2.32832">
        <ele>182.7</ele>
        <time>2023-11-05T09:39:27Z</time>
      </trkpt>
      <trkpt lat="43.15187" lon="2.32806">
        <ele>181.1</ele>
        <time>2023-11-05T09:39:33Z</time>
      </trkpt>
      <trkpt lat="43.15191" lon="2.32797">
        <ele>180.4</ele>
        <time>2023-11-05T09:39:35Z</time>
      </trkpt>
      <trkpt lat="43.15199" lon="2.32782">
        <ele>179</ele>
        <time>2023-11-05T09:39:39Z</time>
      </trkpt>
      <trkpt lat="43.15201" lon="2.32778">
        <ele>178.6</ele>
        <time>2023-11-05T09:39:40Z</time>
      </trkpt>
      <trkpt lat="43.15204" lon="2.32764">
        <ele>177.3</ele>
        <time>2023-11-05T09:39:43Z</time>
      </trkpt>
      <trkpt lat="43.15205" lon="2.32759">
        <ele>176.9</ele>
        <time>2023-11-05T09:39:44Z</time>
      </trkpt>
      <trkpt lat="43.15206" lon="2.32753">
        <ele>176.6</ele>
        <time>2023-11-05T09:39:45Z</time>
      </trkpt>
      <trkpt lat="43.15209" lon="2.32732">
        <ele>175.3</ele>
        <time>2023-11-05T09:39:49Z</time>
      </trkpt>
      <trkpt lat="43.1521" lon="2.32721">
        <ele>174.7</ele>
        <time>2023-11-05T09:39:51Z</time>
      </trkpt>
      <trkpt lat="43.15211" lon="2.32716">
        <ele>174.5</ele>
        <time>2023-11-05T09:39:52Z</time>
      </trkpt>
      <trkpt lat="43.15212" lon="2.32711">
        <ele>174.3</ele>
        <time>2023-11-05T09:39:53Z</time>
      </trkpt>
      <trkpt lat="43.15215" lon="2.32687">
        <ele>173.5</ele>
        <time>2023-11-05T09:39:58Z</time>
      </trkpt>
      <trkpt lat="43.15216" lon="2.32682">
        <ele>173.3</ele>
        <time>2023-11-05T09:39:59Z</time>
      </trkpt>
      <trkpt lat="43.15217" lon="2.32661">
        <ele>172.7</ele>
        <time>2023-11-05T09:40:03Z</time>
      </trkpt>
      <trkpt lat="43.15213" lon="2.32634">
        <ele>171.2</ele>
        <time>2023-11-05T09:40:09Z</time>
      </trkpt>
      <trkpt lat="43.15211" lon="2.3263">
        <ele>170.9</ele>
        <time>2023-11-05T09:40:10Z</time>
      </trkpt>
      <trkpt lat="43.15201" lon="2.32621">
        <ele>169.5</ele>
        <time>2023-11-05T09:40:14Z</time>
      </trkpt>
      <trkpt lat="43.15186" lon="2.32619">
        <ele>168</ele>
        <time>2023-11-05T09:40:18Z</time>
      </trkpt>
      <trkpt lat="43.15182" lon="2.3262">
        <ele>167.7</ele>
        <time>2023-11-05T09:40:19Z</time>
      </trkpt>
      <trkpt lat="43.15175" lon="2.3262">
        <ele>166.9</ele>
        <time>2023-11-05T09:40:21Z</time>
      </trkpt>
      <trkpt lat="43.15164" lon="2.32618">
        <ele>165.9</ele>
        <time>2023-11-05T09:40:24Z</time>
      </trkpt>
      <trkpt lat="43.15158" lon="2.32615">
        <ele>165.2</ele>
        <time>2023-11-05T09:40:26Z</time>
      </trkpt>
      <trkpt lat="43.15155" lon="2.32613">
        <ele>164.8</ele>
        <time>2023-11-05T09:40:27Z</time>
      </trkpt>
      <trkpt lat="43.15149" lon="2.32609">
        <ele>164</ele>
        <time>2023-11-05T09:40:29Z</time>
      </trkpt>
      <trkpt lat="43.15139" lon="2.32603">
        <ele>162.9</ele>
        <time>2023-11-05T09:40:32Z</time>
      </trkpt>
      <trkpt lat="43.15134" lon="2.32598">
        <ele>162.2</ele>
        <time>2023-11-05T09:40:34Z</time>
      </trkpt>
      <trkpt lat="43.15131" lon="2.32595">
        <ele>161.8</ele>
        <time>2023-11-05T09:40:35Z</time>
      </trkpt>
      <trkpt lat="43.15124" lon="2.32584">
        <ele>160.7</ele>
        <time>2023-11-05T09:40:38Z</time>
      </trkpt>
      <trkpt lat="43.15117" lon="2.32573">
        <ele>159.9</ele>
        <time>2023-11-05T09:40:41Z</time>
      </trkpt>
      <trkpt lat="43.15107" lon="2.32559">
        <ele>159</ele>
        <time>2023-11-05T09:40:45Z</time>
      </trkpt>
      <trkpt lat="43.15093" lon="2.32538">
        <ele>157.8</ele>
        <time>2023-11-05T09:40:51Z</time>
      </trkpt>
      <trkpt lat="43.1509" lon="2.32534">
        <ele>157.6</ele>
        <time>2023-11-05T09:40:52Z</time>
      </trkpt>
      <trkpt lat="43.15076" lon="2.32513">
        <ele>156.7</ele>
        <time>2023-11-05T09:40:58Z</time>
      </trkpt>
      <trkpt lat="43.15071" lon="2.32506">
        <ele>156.6</ele>
        <time>2023-11-05T09:41:00Z</time>
      </trkpt>
      <trkpt lat="43.15063" lon="2.32496">
        <ele>156.4</ele>
        <time>2023-11-05T09:41:03Z</time>
      </trkpt>
      <trkpt lat="43.15048" lon="2.32482">
        <ele>156.2</ele>
        <time>2023-11-05T09:41:08Z</time>
      </trkpt>
      <trkpt lat="43.1503" lon="2.32472">
        <ele>155.8</ele>
        <time>2023-11-05T09:41:13Z</time>
      </trkpt>
      <trkpt lat="43.15013" lon="2.32463">
        <ele>155.5</ele>
        <time>2023-11-05T09:41:18Z</time>
      </trkpt>
      <trkpt lat="43.14994" lon="2.32451">
        <ele>155</ele>
        <time>2023-11-05T09:41:24Z</time>
      </trkpt>
      <trkpt lat="43.14991" lon="2.32448">
        <ele>154.8</ele>
        <time>2023-11-05T09:41:25Z</time>
      </trkpt>
      <trkpt lat="43.14982" lon="2.3243">
        <ele>153.9</ele>
        <time>2023-11-05T09:41:30Z</time>
      </trkpt>
      <trkpt lat="43.14981" lon="2.32425">
        <ele>153.8</ele>
        <time>2023-11-05T09:41:31Z</time>
      </trkpt>
      <trkpt lat="43.14984" lon="2.32404">
        <ele>153.4</ele>
        <time>2023-11-05T09:41:35Z</time>
      </trkpt>
      <trkpt lat="43.14985" lon="2.32399">
        <ele>153.4</ele>
        <time>2023-11-05T09:41:36Z</time>
      </trkpt>
      <trkpt lat="43.14981" lon="2.32387">
        <ele>153</ele>
        <time>2023-11-05T09:41:39Z</time>
      </trkpt>
      <trkpt lat="43.1497" lon="2.32374">
        <ele>152.7</ele>
        <time>2023-11-05T09:41:43Z</time>
      </trkpt>
      <trkpt lat="43.14964" lon="2.32369">
        <ele>152.5</ele>
        <time>2023-11-05T09:41:45Z</time>
      </trkpt>
      <trkpt lat="43.14947" lon="2.32355">
        <ele>152</ele>
        <time>2023-11-05T09:41:51Z</time>
      </trkpt>
      <trkpt lat="43.14945" lon="2.32353">
        <ele>151.9</ele>
        <time>2023-11-05T09:41:52Z</time>
      </trkpt>
      <trkpt lat="43.1493" lon="2.32349">
        <ele>151.1</ele>
        <time>2023-11-05T09:41:58Z</time>
      </trkpt>
      <trkpt lat="43.14923" lon="2.32348">
        <ele>150.5</ele>
        <time>2023-11-05T09:42:01Z</time>
      </trkpt>
      <trkpt lat="43.14914" lon="2.32346">
        <ele>149.6</ele>
        <time>2023-11-05T09:42:05Z</time>
      </trkpt>
      <trkpt lat="43.14911" lon="2.32345">
        <ele>149.3</ele>
        <time>2023-11-05T09:42:06Z</time>
      </trkpt>
      <trkpt lat="43.14899" lon="2.32343">
        <ele>147.9</ele>
        <time>2023-11-05T09:42:10Z</time>
      </trkpt>
      <trkpt lat="43.1489" lon="2.32341">
        <ele>147</ele>
        <time>2023-11-05T09:42:13Z</time>
      </trkpt>
      <trkpt lat="43.14879" lon="2.32337">
        <ele>145.8</ele>
        <time>2023-11-05T09:42:17Z</time>
      </trkpt>
      <trkpt lat="43.14869" lon="2.32331">
        <ele>145.6</ele>
        <time>2023-11-05T09:42:21Z</time>
      </trkpt>
      <trkpt lat="43.14867" lon="2.32329">
        <ele>145.3</ele>
        <time>2023-11-05T09:42:22Z</time>
      </trkpt>
      <trkpt lat="43.1486" lon="2.32321">
        <ele>144.3</ele>
        <time>2023-11-05T09:42:26Z</time>
      </trkpt>
      <trkpt lat="43.14856" lon="2.32317">
        <ele>143.8</ele>
        <time>2023-11-05T09:42:28Z</time>
      </trkpt>
      <trkpt lat="43.14852" lon="2.32313">
        <ele>143.2</ele>
        <time>2023-11-05T09:42:30Z</time>
      </trkpt>
      <trkpt lat="43.14849" lon="2.32311">
        <ele>142.9</ele>
        <time>2023-11-05T09:42:31Z</time>
      </trkpt>
      <trkpt lat="43.14847" lon="2.3231">
        <ele>142.6</ele>
        <time>2023-11-05T09:42:32Z</time>
      </trkpt>
      <trkpt lat="43.14839" lon="2.32305">
        <ele>141.7</ele>
        <time>2023-11-05T09:42:35Z</time>
      </trkpt>
      <trkpt lat="43.14836" lon="2.32303">
        <ele>141.1</ele>
        <time>2023-11-05T09:42:36Z</time>
      </trkpt>
      <trkpt lat="43.14833" lon="2.323">
        <ele>140.3</ele>
        <time>2023-11-05T09:42:37Z</time>
      </trkpt>
      <trkpt lat="43.1483" lon="2.32297">
        <ele>139.6</ele>
        <time>2023-11-05T09:42:39Z</time>
      </trkpt>
      <trkpt lat="43.14829" lon="2.32297">
        <ele>139.4</ele>
        <time>2023-11-05T09:42:40Z</time>
      </trkpt>
      <trkpt lat="43.14822" lon="2.32307">
        <ele>138.3</ele>
        <time>2023-11-05T09:42:45Z</time>
      </trkpt>
      <trkpt lat="43.14813" lon="2.32311">
        <ele>137.4</ele>
        <time>2023-11-05T09:42:48Z</time>
      </trkpt>
      <trkpt lat="43.1481" lon="2.32311">
        <ele>137.1</ele>
        <time>2023-11-05T09:42:49Z</time>
      </trkpt>
      <trkpt lat="43.14802" lon="2.32305">
        <ele>136.3</ele>
        <time>2023-11-05T09:42:52Z</time>
      </trkpt>
      <trkpt lat="43.14799" lon="2.32301">
        <ele>135.8</ele>
        <time>2023-11-05T09:42:54Z</time>
      </trkpt>
      <trkpt lat="43.14799" lon="2.32298">
        <ele>135.6</ele>
        <time>2023-11-05T09:42:55Z</time>
      </trkpt>
      <trkpt lat="43.14805" lon="2.32279">
        <ele>135.6</ele>
        <time>2023-11-05T09:43:00Z</time>
      </trkpt>
      <trkpt lat="43.14808" lon="2.32264">
        <ele>135.5</ele>
        <time>2023-11-05T09:43:04Z</time>
      </trkpt>
      <trkpt lat="43.14807" lon="2.32256">
        <ele>135.5</ele>
        <time>2023-11-05T09:43:06Z</time>
      </trkpt>
      <trkpt lat="43.14817" lon="2.3224">
        <ele>135.3</ele>
        <time>2023-11-05T09:43:11Z</time>
      </trkpt>
      <trkpt lat="43.14825" lon="2.32219">
        <ele>135</ele>
        <time>2023-11-05T09:43:17Z</time>
      </trkpt>
      <trkpt lat="43.14825" lon="2.32215">
        <ele>135</ele>
        <time>2023-11-05T09:43:18Z</time>
      </trkpt>
      <trkpt lat="43.14834" lon="2.32193">
        <ele>134.8</ele>
        <time>2023-11-05T09:43:25Z</time>
      </trkpt>
      <trkpt lat="43.14835" lon="2.3219">
        <ele>134.8</ele>
        <time>2023-11-05T09:43:26Z</time>
      </trkpt>
      <trkpt lat="43.14835" lon="2.32186">
        <ele>134.8</ele>
        <time>2023-11-05T09:43:27Z</time>
      </trkpt>
      <trkpt lat="43.14837" lon="2.32172">
        <ele>134.7</ele>
        <time>2023-11-05T09:43:32Z</time>
      </trkpt>
    </trkseg>
  </trk>
</gpx>